<?xml version="1.0" encoding="UTF-8" standalone="no" ?>
<gpx xmlns="http://www.topografix.com/GPX/1/1" xmlns:xsi="http://www.w3.org/2001/XMLSchema-instance" xsi:schemaLocation="http://www.topografix.com/GPX/1/1 http://www.topografix.com/GPX/1/1/gpx.xsd" version="1.1" creator="VisuGPX - https://www.visugpx.com">
  <metadata>
    <name>Py Marche à pied</name>
  </metadata>
  <trk>
    <name><![CDATA[Py Marche à pied_1]]></name>
    <trkseg>
      <trkpt lat="42.49574" lon="2.35274">
        <ele>1005.2</ele>
        <time>2024-07-13T06:36:09Z</time>
      </trkpt>
      <trkpt lat="42.49572" lon="2.35276">
        <ele>1003.4</ele>
        <time>2024-07-13T06:36:13Z</time>
      </trkpt>
      <trkpt lat="42.49574" lon="2.35278">
        <ele>1002.8</ele>
        <time>2024-07-13T06:36:16Z</time>
      </trkpt>
      <trkpt lat="42.49576" lon="2.35292">
        <ele>1002.6</ele>
        <time>2024-07-13T06:36:24Z</time>
      </trkpt>
      <trkpt lat="42.49576" lon="2.35303">
        <ele>1003</ele>
        <time>2024-07-13T06:36:35Z</time>
      </trkpt>
      <trkpt lat="42.49577" lon="2.35314">
        <ele>1003.2</ele>
        <time>2024-07-13T06:36:44Z</time>
      </trkpt>
      <trkpt lat="42.49577" lon="2.35322">
        <ele>1003</ele>
        <time>2024-07-13T06:36:53Z</time>
      </trkpt>
      <trkpt lat="42.49576" lon="2.35322">
        <ele>1005.4</ele>
        <time>2024-07-13T06:37:16Z</time>
      </trkpt>
      <trkpt lat="42.49576" lon="2.3533">
        <ele>1009.4</ele>
        <time>2024-07-13T06:37:44Z</time>
      </trkpt>
      <trkpt lat="42.49581" lon="2.35343">
        <ele>1009</ele>
        <time>2024-07-13T06:37:53Z</time>
      </trkpt>
      <trkpt lat="42.49585" lon="2.35353">
        <ele>1006.8</ele>
        <time>2024-07-13T06:38:04Z</time>
      </trkpt>
      <trkpt lat="42.49591" lon="2.35367">
        <ele>1002.6</ele>
        <time>2024-07-13T06:38:16Z</time>
      </trkpt>
      <trkpt lat="42.49596" lon="2.3538">
        <ele>999.6</ele>
        <time>2024-07-13T06:38:27Z</time>
      </trkpt>
      <trkpt lat="42.49602" lon="2.35392">
        <ele>1001</ele>
        <time>2024-07-13T06:38:39Z</time>
      </trkpt>
      <trkpt lat="42.49604" lon="2.35394">
        <ele>1002</ele>
        <time>2024-07-13T06:38:44Z</time>
      </trkpt>
      <trkpt lat="42.49609" lon="2.35402">
        <ele>1000.6</ele>
        <time>2024-07-13T06:38:53Z</time>
      </trkpt>
      <trkpt lat="42.49612" lon="2.35409">
        <ele>998.4</ele>
        <time>2024-07-13T06:39:01Z</time>
      </trkpt>
      <trkpt lat="42.49613" lon="2.35411">
        <ele>997</ele>
        <time>2024-07-13T06:39:08Z</time>
      </trkpt>
      <trkpt lat="42.49617" lon="2.35418">
        <ele>995.6</ele>
        <time>2024-07-13T06:39:18Z</time>
      </trkpt>
      <trkpt lat="42.49622" lon="2.35427">
        <ele>994.8</ele>
        <time>2024-07-13T06:39:27Z</time>
      </trkpt>
      <trkpt lat="42.49627" lon="2.35433">
        <ele>994.6</ele>
        <time>2024-07-13T06:39:35Z</time>
      </trkpt>
      <trkpt lat="42.49627" lon="2.35434">
        <ele>994.2</ele>
        <time>2024-07-13T06:39:43Z</time>
      </trkpt>
      <trkpt lat="42.49633" lon="2.35438">
        <ele>994.6</ele>
        <time>2024-07-13T06:39:50Z</time>
      </trkpt>
      <trkpt lat="42.49635" lon="2.35444">
        <ele>993.8</ele>
        <time>2024-07-13T06:39:57Z</time>
      </trkpt>
      <trkpt lat="42.49639" lon="2.35447">
        <ele>990.8</ele>
        <time>2024-07-13T06:40:04Z</time>
      </trkpt>
      <trkpt lat="42.49643" lon="2.3545">
        <ele>989.6</ele>
        <time>2024-07-13T06:40:12Z</time>
      </trkpt>
      <trkpt lat="42.4964" lon="2.35459">
        <ele>987.2</ele>
        <time>2024-07-13T06:40:18Z</time>
      </trkpt>
      <trkpt lat="42.49639" lon="2.3546">
        <ele>986</ele>
        <time>2024-07-13T06:40:24Z</time>
      </trkpt>
      <trkpt lat="42.49631" lon="2.35465">
        <ele>982.8</ele>
        <time>2024-07-13T06:40:32Z</time>
      </trkpt>
      <trkpt lat="42.49623" lon="2.35469">
        <ele>982.2</ele>
        <time>2024-07-13T06:40:41Z</time>
      </trkpt>
      <trkpt lat="42.49616" lon="2.3548">
        <ele>978.8</ele>
        <time>2024-07-13T06:40:53Z</time>
      </trkpt>
      <trkpt lat="42.49617" lon="2.35487">
        <ele>978.8</ele>
        <time>2024-07-13T06:41:01Z</time>
      </trkpt>
      <trkpt lat="42.49624" lon="2.35493">
        <ele>978.8</ele>
        <time>2024-07-13T06:41:10Z</time>
      </trkpt>
      <trkpt lat="42.49629" lon="2.35497">
        <ele>979.6</ele>
        <time>2024-07-13T06:41:18Z</time>
      </trkpt>
      <trkpt lat="42.49636" lon="2.35502">
        <ele>980.2</ele>
        <time>2024-07-13T06:41:25Z</time>
      </trkpt>
      <trkpt lat="42.49638" lon="2.35502">
        <ele>980.8</ele>
        <time>2024-07-13T06:41:27Z</time>
      </trkpt>
      <trkpt lat="42.49644" lon="2.35505">
        <ele>983.8</ele>
        <time>2024-07-13T06:41:35Z</time>
      </trkpt>
      <trkpt lat="42.49652" lon="2.35507">
        <ele>985</ele>
        <time>2024-07-13T06:41:46Z</time>
      </trkpt>
      <trkpt lat="42.49658" lon="2.35509">
        <ele>985.6</ele>
        <time>2024-07-13T06:41:53Z</time>
      </trkpt>
      <trkpt lat="42.49665" lon="2.35509">
        <ele>987.2</ele>
        <time>2024-07-13T06:42:01Z</time>
      </trkpt>
      <trkpt lat="42.49672" lon="2.35516">
        <ele>987.4</ele>
        <time>2024-07-13T06:42:10Z</time>
      </trkpt>
      <trkpt lat="42.49682" lon="2.35528">
        <ele>987</ele>
        <time>2024-07-13T06:42:21Z</time>
      </trkpt>
      <trkpt lat="42.49693" lon="2.35541">
        <ele>981.8</ele>
        <time>2024-07-13T06:42:35Z</time>
      </trkpt>
      <trkpt lat="42.497" lon="2.35552">
        <ele>979.4</ele>
        <time>2024-07-13T06:42:44Z</time>
      </trkpt>
      <trkpt lat="42.49704" lon="2.35559">
        <ele>977.2</ele>
        <time>2024-07-13T06:42:52Z</time>
      </trkpt>
      <trkpt lat="42.49713" lon="2.3557">
        <ele>975.2</ele>
        <time>2024-07-13T06:43:04Z</time>
      </trkpt>
      <trkpt lat="42.49721" lon="2.35581">
        <ele>974.4</ele>
        <time>2024-07-13T06:43:14Z</time>
      </trkpt>
      <trkpt lat="42.49725" lon="2.35589">
        <ele>974</ele>
        <time>2024-07-13T06:43:21Z</time>
      </trkpt>
      <trkpt lat="42.49726" lon="2.3559">
        <ele>973.8</ele>
        <time>2024-07-13T06:43:23Z</time>
      </trkpt>
      <trkpt lat="42.49727" lon="2.35592">
        <ele>973.2</ele>
        <time>2024-07-13T06:43:25Z</time>
      </trkpt>
      <trkpt lat="42.49728" lon="2.35593">
        <ele>972.6</ele>
        <time>2024-07-13T06:43:28Z</time>
      </trkpt>
      <trkpt lat="42.49728" lon="2.35593">
        <ele>972.4</ele>
        <time>2024-07-13T06:43:29Z</time>
      </trkpt>
      <trkpt lat="42.4974" lon="2.356">
        <ele>971</ele>
        <time>2024-07-13T06:43:38Z</time>
      </trkpt>
      <trkpt lat="42.49747" lon="2.35604">
        <ele>970.6</ele>
        <time>2024-07-13T06:43:45Z</time>
      </trkpt>
      <trkpt lat="42.4976" lon="2.35617">
        <ele>969.2</ele>
        <time>2024-07-13T06:43:57Z</time>
      </trkpt>
      <trkpt lat="42.49765" lon="2.35625">
        <ele>969.8</ele>
        <time>2024-07-13T06:44:04Z</time>
      </trkpt>
      <trkpt lat="42.49774" lon="2.35638">
        <ele>969.6</ele>
        <time>2024-07-13T06:44:16Z</time>
      </trkpt>
      <trkpt lat="42.49787" lon="2.3565">
        <ele>968.8</ele>
        <time>2024-07-13T06:44:27Z</time>
      </trkpt>
      <trkpt lat="42.49793" lon="2.35658">
        <ele>970.6</ele>
        <time>2024-07-13T06:44:35Z</time>
      </trkpt>
      <trkpt lat="42.49799" lon="2.35662">
        <ele>971.4</ele>
        <time>2024-07-13T06:44:40Z</time>
      </trkpt>
      <trkpt lat="42.49802" lon="2.35664">
        <ele>972.2</ele>
        <time>2024-07-13T06:44:43Z</time>
      </trkpt>
      <trkpt lat="42.49807" lon="2.3567">
        <ele>973.6</ele>
        <time>2024-07-13T06:44:50Z</time>
      </trkpt>
      <trkpt lat="42.49808" lon="2.35671">
        <ele>973.8</ele>
        <time>2024-07-13T06:44:51Z</time>
      </trkpt>
      <trkpt lat="42.49809" lon="2.35672">
        <ele>973.8</ele>
        <time>2024-07-13T06:44:53Z</time>
      </trkpt>
      <trkpt lat="42.49811" lon="2.35674">
        <ele>973.6</ele>
        <time>2024-07-13T06:44:57Z</time>
      </trkpt>
      <trkpt lat="42.49817" lon="2.35678">
        <ele>973.2</ele>
        <time>2024-07-13T06:45:03Z</time>
      </trkpt>
      <trkpt lat="42.49825" lon="2.35687">
        <ele>969.8</ele>
        <time>2024-07-13T06:45:12Z</time>
      </trkpt>
      <trkpt lat="42.49834" lon="2.35695">
        <ele>965</ele>
        <time>2024-07-13T06:45:20Z</time>
      </trkpt>
      <trkpt lat="42.49844" lon="2.35705">
        <ele>962.2</ele>
        <time>2024-07-13T06:45:30Z</time>
      </trkpt>
      <trkpt lat="42.49844" lon="2.35706">
        <ele>962</ele>
        <time>2024-07-13T06:45:31Z</time>
      </trkpt>
      <trkpt lat="42.49851" lon="2.35714">
        <ele>959</ele>
        <time>2024-07-13T06:45:40Z</time>
      </trkpt>
      <trkpt lat="42.49861" lon="2.35722">
        <ele>960.8</ele>
        <time>2024-07-13T06:45:48Z</time>
      </trkpt>
      <trkpt lat="42.49862" lon="2.35724">
        <ele>960.8</ele>
        <time>2024-07-13T06:45:49Z</time>
      </trkpt>
      <trkpt lat="42.49869" lon="2.35731">
        <ele>960.2</ele>
        <time>2024-07-13T06:45:57Z</time>
      </trkpt>
      <trkpt lat="42.49873" lon="2.35742">
        <ele>958.2</ele>
        <time>2024-07-13T06:46:03Z</time>
      </trkpt>
      <trkpt lat="42.49881" lon="2.3575">
        <ele>956.2</ele>
        <time>2024-07-13T06:46:10Z</time>
      </trkpt>
      <trkpt lat="42.49889" lon="2.35757">
        <ele>956.2</ele>
        <time>2024-07-13T06:46:17Z</time>
      </trkpt>
      <trkpt lat="42.4989" lon="2.35758">
        <ele>956.2</ele>
        <time>2024-07-13T06:46:18Z</time>
      </trkpt>
      <trkpt lat="42.49892" lon="2.35774">
        <ele>956.4</ele>
        <time>2024-07-13T06:46:27Z</time>
      </trkpt>
      <trkpt lat="42.49887" lon="2.35795">
        <ele>957.6</ele>
        <time>2024-07-13T06:46:39Z</time>
      </trkpt>
      <trkpt lat="42.49889" lon="2.35806">
        <ele>956.8</ele>
        <time>2024-07-13T06:46:46Z</time>
      </trkpt>
      <trkpt lat="42.49899" lon="2.35814">
        <ele>956.4</ele>
        <time>2024-07-13T06:46:55Z</time>
      </trkpt>
      <trkpt lat="42.49902" lon="2.35818">
        <ele>956.6</ele>
        <time>2024-07-13T06:47:01Z</time>
      </trkpt>
      <trkpt lat="42.49903" lon="2.35818">
        <ele>956.6</ele>
        <time>2024-07-13T06:47:02Z</time>
      </trkpt>
      <trkpt lat="42.49912" lon="2.35824">
        <ele>956.8</ele>
        <time>2024-07-13T06:47:09Z</time>
      </trkpt>
      <trkpt lat="42.49922" lon="2.35837">
        <ele>957.8</ele>
        <time>2024-07-13T06:47:19Z</time>
      </trkpt>
      <trkpt lat="42.49934" lon="2.35839">
        <ele>953.2</ele>
        <time>2024-07-13T06:47:30Z</time>
      </trkpt>
      <trkpt lat="42.49943" lon="2.35844">
        <ele>949.8</ele>
        <time>2024-07-13T06:47:38Z</time>
      </trkpt>
      <trkpt lat="42.49945" lon="2.35845">
        <ele>949.8</ele>
        <time>2024-07-13T06:47:42Z</time>
      </trkpt>
      <trkpt lat="42.49948" lon="2.35847">
        <ele>950.2</ele>
        <time>2024-07-13T06:47:44Z</time>
      </trkpt>
      <trkpt lat="42.4995" lon="2.35848">
        <ele>950.4</ele>
        <time>2024-07-13T06:47:45Z</time>
      </trkpt>
      <trkpt lat="42.49956" lon="2.35856">
        <ele>951.6</ele>
        <time>2024-07-13T06:47:50Z</time>
      </trkpt>
      <trkpt lat="42.49964" lon="2.35868">
        <ele>953</ele>
        <time>2024-07-13T06:47:59Z</time>
      </trkpt>
      <trkpt lat="42.49974" lon="2.35883">
        <ele>951.2</ele>
        <time>2024-07-13T06:48:09Z</time>
      </trkpt>
      <trkpt lat="42.49979" lon="2.35892">
        <ele>949.8</ele>
        <time>2024-07-13T06:48:16Z</time>
      </trkpt>
      <trkpt lat="42.49985" lon="2.35903">
        <ele>950</ele>
        <time>2024-07-13T06:48:23Z</time>
      </trkpt>
      <trkpt lat="42.49988" lon="2.35911">
        <ele>953</ele>
        <time>2024-07-13T06:48:28Z</time>
      </trkpt>
      <trkpt lat="42.49989" lon="2.35915">
        <ele>953.8</ele>
        <time>2024-07-13T06:48:30Z</time>
      </trkpt>
      <trkpt lat="42.49998" lon="2.35926">
        <ele>957.8</ele>
        <time>2024-07-13T06:48:38Z</time>
      </trkpt>
      <trkpt lat="42.50002" lon="2.35932">
        <ele>963.2</ele>
        <time>2024-07-13T06:48:43Z</time>
      </trkpt>
      <trkpt lat="42.50005" lon="2.35935">
        <ele>964</ele>
        <time>2024-07-13T06:48:45Z</time>
      </trkpt>
      <trkpt lat="42.50017" lon="2.35944">
        <ele>965.2</ele>
        <time>2024-07-13T06:48:53Z</time>
      </trkpt>
      <trkpt lat="42.50022" lon="2.35948">
        <ele>968.8</ele>
        <time>2024-07-13T06:48:56Z</time>
      </trkpt>
      <trkpt lat="42.50025" lon="2.35951">
        <ele>971.6</ele>
        <time>2024-07-13T06:48:58Z</time>
      </trkpt>
      <trkpt lat="42.50033" lon="2.35958">
        <ele>981</ele>
        <time>2024-07-13T06:49:06Z</time>
      </trkpt>
      <trkpt lat="42.50041" lon="2.35962">
        <ele>984.2</ele>
        <time>2024-07-13T06:49:11Z</time>
      </trkpt>
      <trkpt lat="42.50044" lon="2.35963">
        <ele>985.2</ele>
        <time>2024-07-13T06:49:13Z</time>
      </trkpt>
      <trkpt lat="42.50049" lon="2.3597">
        <ele>987.2</ele>
        <time>2024-07-13T06:49:22Z</time>
      </trkpt>
      <trkpt lat="42.50049" lon="2.35971">
        <ele>987</ele>
        <time>2024-07-13T06:49:23Z</time>
      </trkpt>
      <trkpt lat="42.50054" lon="2.35977">
        <ele>985</ele>
        <time>2024-07-13T06:49:29Z</time>
      </trkpt>
      <trkpt lat="42.50058" lon="2.3598">
        <ele>984</ele>
        <time>2024-07-13T06:49:33Z</time>
      </trkpt>
      <trkpt lat="42.50059" lon="2.35981">
        <ele>983.4</ele>
        <time>2024-07-13T06:49:35Z</time>
      </trkpt>
      <trkpt lat="42.50061" lon="2.35982">
        <ele>983</ele>
        <time>2024-07-13T06:49:37Z</time>
      </trkpt>
      <trkpt lat="42.50062" lon="2.35983">
        <ele>982.2</ele>
        <time>2024-07-13T06:49:40Z</time>
      </trkpt>
      <trkpt lat="42.50073" lon="2.35987">
        <ele>975.8</ele>
        <time>2024-07-13T06:49:49Z</time>
      </trkpt>
      <trkpt lat="42.50082" lon="2.35994">
        <ele>973.2</ele>
        <time>2024-07-13T06:49:57Z</time>
      </trkpt>
      <trkpt lat="42.50093" lon="2.36">
        <ele>971</ele>
        <time>2024-07-13T06:50:07Z</time>
      </trkpt>
      <trkpt lat="42.50102" lon="2.36006">
        <ele>968.6</ele>
        <time>2024-07-13T06:50:16Z</time>
      </trkpt>
      <trkpt lat="42.50114" lon="2.36011">
        <ele>964</ele>
        <time>2024-07-13T06:50:26Z</time>
      </trkpt>
      <trkpt lat="42.50122" lon="2.36012">
        <ele>959.4</ele>
        <time>2024-07-13T06:50:34Z</time>
      </trkpt>
      <trkpt lat="42.50131" lon="2.36012">
        <ele>954.6</ele>
        <time>2024-07-13T06:50:42Z</time>
      </trkpt>
      <trkpt lat="42.50141" lon="2.36011">
        <ele>950.6</ele>
        <time>2024-07-13T06:50:51Z</time>
      </trkpt>
      <trkpt lat="42.50152" lon="2.3601">
        <ele>946.4</ele>
        <time>2024-07-13T06:51:00Z</time>
      </trkpt>
      <trkpt lat="42.50168" lon="2.36015">
        <ele>942.2</ele>
        <time>2024-07-13T06:51:12Z</time>
      </trkpt>
      <trkpt lat="42.50179" lon="2.36018">
        <ele>941.4</ele>
        <time>2024-07-13T06:51:21Z</time>
      </trkpt>
      <trkpt lat="42.50192" lon="2.36019">
        <ele>942.8</ele>
        <time>2024-07-13T06:51:31Z</time>
      </trkpt>
      <trkpt lat="42.50197" lon="2.36017">
        <ele>943.6</ele>
        <time>2024-07-13T06:51:37Z</time>
      </trkpt>
      <trkpt lat="42.50205" lon="2.36015">
        <ele>941.2</ele>
        <time>2024-07-13T06:51:46Z</time>
      </trkpt>
      <trkpt lat="42.50217" lon="2.36019">
        <ele>941.8</ele>
        <time>2024-07-13T06:51:58Z</time>
      </trkpt>
      <trkpt lat="42.50226" lon="2.36026">
        <ele>945.2</ele>
        <time>2024-07-13T06:52:09Z</time>
      </trkpt>
      <trkpt lat="42.50231" lon="2.36028">
        <ele>945.8</ele>
        <time>2024-07-13T06:52:16Z</time>
      </trkpt>
      <trkpt lat="42.50232" lon="2.36028">
        <ele>946.2</ele>
        <time>2024-07-13T06:52:18Z</time>
      </trkpt>
      <trkpt lat="42.5024" lon="2.36031">
        <ele>947.8</ele>
        <time>2024-07-13T06:52:25Z</time>
      </trkpt>
      <trkpt lat="42.50243" lon="2.36032">
        <ele>949</ele>
        <time>2024-07-13T06:52:30Z</time>
      </trkpt>
      <trkpt lat="42.50245" lon="2.36031">
        <ele>949.2</ele>
        <time>2024-07-13T06:52:32Z</time>
      </trkpt>
      <trkpt lat="42.50252" lon="2.36031">
        <ele>948.4</ele>
        <time>2024-07-13T06:52:40Z</time>
      </trkpt>
      <trkpt lat="42.50255" lon="2.3603">
        <ele>948.2</ele>
        <time>2024-07-13T06:52:42Z</time>
      </trkpt>
      <trkpt lat="42.50258" lon="2.36029">
        <ele>948</ele>
        <time>2024-07-13T06:52:45Z</time>
      </trkpt>
      <trkpt lat="42.50259" lon="2.36028">
        <ele>948</ele>
        <time>2024-07-13T06:52:46Z</time>
      </trkpt>
      <trkpt lat="42.50268" lon="2.36026">
        <ele>948</ele>
        <time>2024-07-13T06:52:55Z</time>
      </trkpt>
      <trkpt lat="42.50276" lon="2.36025">
        <ele>947.6</ele>
        <time>2024-07-13T06:53:02Z</time>
      </trkpt>
      <trkpt lat="42.50287" lon="2.36027">
        <ele>949</ele>
        <time>2024-07-13T06:53:11Z</time>
      </trkpt>
      <trkpt lat="42.50296" lon="2.36034">
        <ele>949.8</ele>
        <time>2024-07-13T06:53:20Z</time>
      </trkpt>
      <trkpt lat="42.50299" lon="2.36037">
        <ele>949.8</ele>
        <time>2024-07-13T06:53:23Z</time>
      </trkpt>
      <trkpt lat="42.50303" lon="2.36044">
        <ele>949.6</ele>
        <time>2024-07-13T06:53:28Z</time>
      </trkpt>
      <trkpt lat="42.5031" lon="2.36058">
        <ele>949.8</ele>
        <time>2024-07-13T06:53:38Z</time>
      </trkpt>
      <trkpt lat="42.50317" lon="2.36069">
        <ele>951.4</ele>
        <time>2024-07-13T06:53:47Z</time>
      </trkpt>
      <trkpt lat="42.50322" lon="2.36084">
        <ele>951.4</ele>
        <time>2024-07-13T06:53:58Z</time>
      </trkpt>
      <trkpt lat="42.50327" lon="2.36098">
        <ele>951.8</ele>
        <time>2024-07-13T06:54:07Z</time>
      </trkpt>
      <trkpt lat="42.50331" lon="2.36111">
        <ele>952.4</ele>
        <time>2024-07-13T06:54:15Z</time>
      </trkpt>
      <trkpt lat="42.50339" lon="2.36124">
        <ele>951</ele>
        <time>2024-07-13T06:54:25Z</time>
      </trkpt>
      <trkpt lat="42.50346" lon="2.36135">
        <ele>950.6</ele>
        <time>2024-07-13T06:54:34Z</time>
      </trkpt>
      <trkpt lat="42.50349" lon="2.36152">
        <ele>954.2</ele>
        <time>2024-07-13T06:54:43Z</time>
      </trkpt>
      <trkpt lat="42.50349" lon="2.36162">
        <ele>956</ele>
        <time>2024-07-13T06:54:49Z</time>
      </trkpt>
      <trkpt lat="42.50349" lon="2.36164">
        <ele>956.4</ele>
        <time>2024-07-13T06:54:50Z</time>
      </trkpt>
      <trkpt lat="42.50349" lon="2.36177">
        <ele>958.2</ele>
        <time>2024-07-13T06:54:59Z</time>
      </trkpt>
      <trkpt lat="42.50349" lon="2.36178">
        <ele>958.2</ele>
        <time>2024-07-13T06:55:00Z</time>
      </trkpt>
      <trkpt lat="42.5035" lon="2.36179">
        <ele>958.2</ele>
        <time>2024-07-13T06:55:01Z</time>
      </trkpt>
      <trkpt lat="42.50352" lon="2.36178">
        <ele>959.4</ele>
        <time>2024-07-13T06:55:05Z</time>
      </trkpt>
      <trkpt lat="42.50352" lon="2.36179">
        <ele>959.2</ele>
        <time>2024-07-13T06:55:10Z</time>
      </trkpt>
      <trkpt lat="42.50351" lon="2.36177">
        <ele>956.8</ele>
        <time>2024-07-13T06:55:17Z</time>
      </trkpt>
      <trkpt lat="42.50357" lon="2.36181">
        <ele>962.4</ele>
        <time>2024-07-13T06:56:18Z</time>
      </trkpt>
      <trkpt lat="42.50365" lon="2.36186">
        <ele>968.4</ele>
        <time>2024-07-13T06:56:27Z</time>
      </trkpt>
      <trkpt lat="42.50367" lon="2.36184">
        <ele>969.4</ele>
        <time>2024-07-13T06:56:32Z</time>
      </trkpt>
      <trkpt lat="42.5037" lon="2.36182">
        <ele>966.6</ele>
        <time>2024-07-13T06:56:37Z</time>
      </trkpt>
      <trkpt lat="42.5037" lon="2.36181">
        <ele>966</ele>
        <time>2024-07-13T06:56:38Z</time>
      </trkpt>
      <trkpt lat="42.50372" lon="2.36177">
        <ele>963</ele>
        <time>2024-07-13T06:56:44Z</time>
      </trkpt>
      <trkpt lat="42.50376" lon="2.36176">
        <ele>961.4</ele>
        <time>2024-07-13T06:56:50Z</time>
      </trkpt>
      <trkpt lat="42.50383" lon="2.36177">
        <ele>961.2</ele>
        <time>2024-07-13T06:56:57Z</time>
      </trkpt>
      <trkpt lat="42.50384" lon="2.36177">
        <ele>961.2</ele>
        <time>2024-07-13T06:56:58Z</time>
      </trkpt>
      <trkpt lat="42.50385" lon="2.36174">
        <ele>961</ele>
        <time>2024-07-13T06:57:01Z</time>
      </trkpt>
      <trkpt lat="42.50387" lon="2.36171">
        <ele>960.6</ele>
        <time>2024-07-13T06:57:04Z</time>
      </trkpt>
      <trkpt lat="42.50389" lon="2.36169">
        <ele>960.4</ele>
        <time>2024-07-13T06:57:06Z</time>
      </trkpt>
      <trkpt lat="42.50391" lon="2.36164">
        <ele>960</ele>
        <time>2024-07-13T06:57:11Z</time>
      </trkpt>
      <trkpt lat="42.50393" lon="2.3616">
        <ele>959.8</ele>
        <time>2024-07-13T06:57:15Z</time>
      </trkpt>
      <trkpt lat="42.50394" lon="2.36155">
        <ele>960</ele>
        <time>2024-07-13T06:57:19Z</time>
      </trkpt>
      <trkpt lat="42.50396" lon="2.36152">
        <ele>960</ele>
        <time>2024-07-13T06:57:21Z</time>
      </trkpt>
      <trkpt lat="42.50396" lon="2.36149">
        <ele>960.4</ele>
        <time>2024-07-13T06:57:24Z</time>
      </trkpt>
      <trkpt lat="42.50396" lon="2.36148">
        <ele>960.6</ele>
        <time>2024-07-13T06:57:25Z</time>
      </trkpt>
      <trkpt lat="42.50399" lon="2.36137">
        <ele>961.8</ele>
        <time>2024-07-13T06:57:34Z</time>
      </trkpt>
      <trkpt lat="42.50401" lon="2.36128">
        <ele>961</ele>
        <time>2024-07-13T06:57:42Z</time>
      </trkpt>
      <trkpt lat="42.50402" lon="2.36113">
        <ele>962.6</ele>
        <time>2024-07-13T06:57:54Z</time>
      </trkpt>
      <trkpt lat="42.50401" lon="2.36108">
        <ele>962.8</ele>
        <time>2024-07-13T06:57:58Z</time>
      </trkpt>
      <trkpt lat="42.50398" lon="2.36098">
        <ele>963.2</ele>
        <time>2024-07-13T06:58:05Z</time>
      </trkpt>
      <trkpt lat="42.50399" lon="2.36083">
        <ele>964.8</ele>
        <time>2024-07-13T06:58:15Z</time>
      </trkpt>
      <trkpt lat="42.50404" lon="2.36074">
        <ele>964.8</ele>
        <time>2024-07-13T06:58:22Z</time>
      </trkpt>
      <trkpt lat="42.50405" lon="2.36072">
        <ele>965</ele>
        <time>2024-07-13T06:58:24Z</time>
      </trkpt>
      <trkpt lat="42.50415" lon="2.36064">
        <ele>967.6</ele>
        <time>2024-07-13T06:58:35Z</time>
      </trkpt>
      <trkpt lat="42.50419" lon="2.36061">
        <ele>969</ele>
        <time>2024-07-13T06:58:39Z</time>
      </trkpt>
      <trkpt lat="42.50421" lon="2.36059">
        <ele>969.8</ele>
        <time>2024-07-13T06:58:42Z</time>
      </trkpt>
      <trkpt lat="42.50431" lon="2.3606">
        <ele>970.2</ele>
        <time>2024-07-13T06:58:50Z</time>
      </trkpt>
      <trkpt lat="42.50445" lon="2.36062">
        <ele>969.4</ele>
        <time>2024-07-13T06:59:02Z</time>
      </trkpt>
      <trkpt lat="42.50459" lon="2.36064">
        <ele>970.2</ele>
        <time>2024-07-13T06:59:14Z</time>
      </trkpt>
      <trkpt lat="42.50469" lon="2.36064">
        <ele>970.6</ele>
        <time>2024-07-13T06:59:23Z</time>
      </trkpt>
      <trkpt lat="42.50482" lon="2.36066">
        <ele>970</ele>
        <time>2024-07-13T06:59:33Z</time>
      </trkpt>
      <trkpt lat="42.50491" lon="2.36065">
        <ele>970.2</ele>
        <time>2024-07-13T06:59:42Z</time>
      </trkpt>
      <trkpt lat="42.50499" lon="2.36066">
        <ele>972.8</ele>
        <time>2024-07-13T06:59:49Z</time>
      </trkpt>
      <trkpt lat="42.50502" lon="2.36067">
        <ele>973.4</ele>
        <time>2024-07-13T06:59:51Z</time>
      </trkpt>
      <trkpt lat="42.50508" lon="2.36068">
        <ele>973.8</ele>
        <time>2024-07-13T06:59:59Z</time>
      </trkpt>
      <trkpt lat="42.50514" lon="2.36068">
        <ele>973</ele>
        <time>2024-07-13T07:00:06Z</time>
      </trkpt>
      <trkpt lat="42.50521" lon="2.36067">
        <ele>973.8</ele>
        <time>2024-07-13T07:00:12Z</time>
      </trkpt>
      <trkpt lat="42.50526" lon="2.36065">
        <ele>975</ele>
        <time>2024-07-13T07:00:16Z</time>
      </trkpt>
      <trkpt lat="42.50533" lon="2.36065">
        <ele>976.4</ele>
        <time>2024-07-13T07:00:23Z</time>
      </trkpt>
      <trkpt lat="42.5054" lon="2.36063">
        <ele>977</ele>
        <time>2024-07-13T07:00:30Z</time>
      </trkpt>
      <trkpt lat="42.5055" lon="2.36064">
        <ele>979.2</ele>
        <time>2024-07-13T07:00:40Z</time>
      </trkpt>
      <trkpt lat="42.50564" lon="2.36065">
        <ele>980.8</ele>
        <time>2024-07-13T07:00:52Z</time>
      </trkpt>
      <trkpt lat="42.50565" lon="2.36065">
        <ele>981</ele>
        <time>2024-07-13T07:00:53Z</time>
      </trkpt>
      <trkpt lat="42.50574" lon="2.36066">
        <ele>982.4</ele>
        <time>2024-07-13T07:01:00Z</time>
      </trkpt>
      <trkpt lat="42.50584" lon="2.36065">
        <ele>982</ele>
        <time>2024-07-13T07:01:08Z</time>
      </trkpt>
      <trkpt lat="42.50591" lon="2.36059">
        <ele>981.8</ele>
        <time>2024-07-13T07:01:15Z</time>
      </trkpt>
      <trkpt lat="42.50601" lon="2.36054">
        <ele>982.6</ele>
        <time>2024-07-13T07:01:24Z</time>
      </trkpt>
      <trkpt lat="42.50609" lon="2.36056">
        <ele>982.8</ele>
        <time>2024-07-13T07:01:31Z</time>
      </trkpt>
      <trkpt lat="42.50616" lon="2.36056">
        <ele>983</ele>
        <time>2024-07-13T07:01:37Z</time>
      </trkpt>
      <trkpt lat="42.50619" lon="2.36053">
        <ele>983.4</ele>
        <time>2024-07-13T07:01:41Z</time>
      </trkpt>
      <trkpt lat="42.50621" lon="2.3605">
        <ele>983.8</ele>
        <time>2024-07-13T07:01:44Z</time>
      </trkpt>
      <trkpt lat="42.50628" lon="2.36046">
        <ele>984.8</ele>
        <time>2024-07-13T07:01:50Z</time>
      </trkpt>
      <trkpt lat="42.50631" lon="2.36043">
        <ele>984.8</ele>
        <time>2024-07-13T07:01:53Z</time>
      </trkpt>
      <trkpt lat="42.50638" lon="2.36035">
        <ele>984.8</ele>
        <time>2024-07-13T07:02:02Z</time>
      </trkpt>
      <trkpt lat="42.50644" lon="2.36022">
        <ele>985.8</ele>
        <time>2024-07-13T07:02:11Z</time>
      </trkpt>
      <trkpt lat="42.50653" lon="2.36011">
        <ele>986.2</ele>
        <time>2024-07-13T07:02:21Z</time>
      </trkpt>
      <trkpt lat="42.5066" lon="2.36009">
        <ele>987</ele>
        <time>2024-07-13T07:02:27Z</time>
      </trkpt>
      <trkpt lat="42.50661" lon="2.36009">
        <ele>987.2</ele>
        <time>2024-07-13T07:02:28Z</time>
      </trkpt>
      <trkpt lat="42.50662" lon="2.36009">
        <ele>987.2</ele>
        <time>2024-07-13T07:02:29Z</time>
      </trkpt>
      <trkpt lat="42.50664" lon="2.36007">
        <ele>987.4</ele>
        <time>2024-07-13T07:02:32Z</time>
      </trkpt>
      <trkpt lat="42.50666" lon="2.36005">
        <ele>987.4</ele>
        <time>2024-07-13T07:02:34Z</time>
      </trkpt>
      <trkpt lat="42.5067" lon="2.36002">
        <ele>987</ele>
        <time>2024-07-13T07:02:38Z</time>
      </trkpt>
      <trkpt lat="42.50672" lon="2.36001">
        <ele>986.8</ele>
        <time>2024-07-13T07:02:41Z</time>
      </trkpt>
      <trkpt lat="42.50674" lon="2.36001">
        <ele>986.8</ele>
        <time>2024-07-13T07:02:42Z</time>
      </trkpt>
      <trkpt lat="42.50683" lon="2.36">
        <ele>987.6</ele>
        <time>2024-07-13T07:02:51Z</time>
      </trkpt>
      <trkpt lat="42.50685" lon="2.36005">
        <ele>987.8</ele>
        <time>2024-07-13T07:02:56Z</time>
      </trkpt>
      <trkpt lat="42.50687" lon="2.36012">
        <ele>987.2</ele>
        <time>2024-07-13T07:03:02Z</time>
      </trkpt>
      <trkpt lat="42.50689" lon="2.36021">
        <ele>986.8</ele>
        <time>2024-07-13T07:03:09Z</time>
      </trkpt>
      <trkpt lat="42.50689" lon="2.36025">
        <ele>987.6</ele>
        <time>2024-07-13T07:03:14Z</time>
      </trkpt>
      <trkpt lat="42.50688" lon="2.36034">
        <ele>989.6</ele>
        <time>2024-07-13T07:03:24Z</time>
      </trkpt>
      <trkpt lat="42.50688" lon="2.36041">
        <ele>989</ele>
        <time>2024-07-13T07:03:30Z</time>
      </trkpt>
      <trkpt lat="42.50688" lon="2.36043">
        <ele>988.8</ele>
        <time>2024-07-13T07:03:31Z</time>
      </trkpt>
      <trkpt lat="42.50689" lon="2.36048">
        <ele>988.2</ele>
        <time>2024-07-13T07:03:35Z</time>
      </trkpt>
      <trkpt lat="42.5069" lon="2.36048">
        <ele>988.2</ele>
        <time>2024-07-13T07:03:36Z</time>
      </trkpt>
      <trkpt lat="42.5069" lon="2.36049">
        <ele>988.2</ele>
        <time>2024-07-13T07:03:37Z</time>
      </trkpt>
      <trkpt lat="42.50691" lon="2.36054">
        <ele>989</ele>
        <time>2024-07-13T07:03:41Z</time>
      </trkpt>
      <trkpt lat="42.50693" lon="2.36059">
        <ele>990</ele>
        <time>2024-07-13T07:03:47Z</time>
      </trkpt>
      <trkpt lat="42.50694" lon="2.36063">
        <ele>991</ele>
        <time>2024-07-13T07:03:53Z</time>
      </trkpt>
      <trkpt lat="42.50697" lon="2.36069">
        <ele>991.4</ele>
        <time>2024-07-13T07:03:56Z</time>
      </trkpt>
      <trkpt lat="42.50699" lon="2.36073">
        <ele>991.8</ele>
        <time>2024-07-13T07:03:59Z</time>
      </trkpt>
      <trkpt lat="42.50699" lon="2.36079">
        <ele>994.6</ele>
        <time>2024-07-13T07:04:04Z</time>
      </trkpt>
      <trkpt lat="42.507" lon="2.3608">
        <ele>995.2</ele>
        <time>2024-07-13T07:04:05Z</time>
      </trkpt>
      <trkpt lat="42.50704" lon="2.36089">
        <ele>997.6</ele>
        <time>2024-07-13T07:04:11Z</time>
      </trkpt>
      <trkpt lat="42.50707" lon="2.36097">
        <ele>1002.2</ele>
        <time>2024-07-13T07:04:19Z</time>
      </trkpt>
      <trkpt lat="42.50705" lon="2.361">
        <ele>1003.6</ele>
        <time>2024-07-13T07:04:24Z</time>
      </trkpt>
      <trkpt lat="42.50706" lon="2.36104">
        <ele>1004.4</ele>
        <time>2024-07-13T07:04:30Z</time>
      </trkpt>
      <trkpt lat="42.50707" lon="2.36106">
        <ele>1004.6</ele>
        <time>2024-07-13T07:04:32Z</time>
      </trkpt>
      <trkpt lat="42.50707" lon="2.3611">
        <ele>1004.4</ele>
        <time>2024-07-13T07:04:35Z</time>
      </trkpt>
      <trkpt lat="42.50708" lon="2.36112">
        <ele>1004.4</ele>
        <time>2024-07-13T07:04:37Z</time>
      </trkpt>
      <trkpt lat="42.50709" lon="2.36115">
        <ele>1004.6</ele>
        <time>2024-07-13T07:04:42Z</time>
      </trkpt>
      <trkpt lat="42.50712" lon="2.3612">
        <ele>1005.6</ele>
        <time>2024-07-13T07:04:48Z</time>
      </trkpt>
      <trkpt lat="42.50713" lon="2.36122">
        <ele>1007.6</ele>
        <time>2024-07-13T07:04:53Z</time>
      </trkpt>
      <trkpt lat="42.50714" lon="2.36123">
        <ele>1009.2</ele>
        <time>2024-07-13T07:04:57Z</time>
      </trkpt>
      <trkpt lat="42.50716" lon="2.36132">
        <ele>1010</ele>
        <time>2024-07-13T07:05:03Z</time>
      </trkpt>
      <trkpt lat="42.50721" lon="2.36141">
        <ele>1010.2</ele>
        <time>2024-07-13T07:05:09Z</time>
      </trkpt>
      <trkpt lat="42.50726" lon="2.36145">
        <ele>1011</ele>
        <time>2024-07-13T07:05:14Z</time>
      </trkpt>
      <trkpt lat="42.50729" lon="2.36149">
        <ele>1012.6</ele>
        <time>2024-07-13T07:05:21Z</time>
      </trkpt>
      <trkpt lat="42.50729" lon="2.36152">
        <ele>1012.2</ele>
        <time>2024-07-13T07:05:23Z</time>
      </trkpt>
      <trkpt lat="42.50729" lon="2.36154">
        <ele>1010.8</ele>
        <time>2024-07-13T07:05:26Z</time>
      </trkpt>
      <trkpt lat="42.50731" lon="2.36154">
        <ele>1008.8</ele>
        <time>2024-07-13T07:05:31Z</time>
      </trkpt>
      <trkpt lat="42.50735" lon="2.36162">
        <ele>1009.2</ele>
        <time>2024-07-13T07:05:37Z</time>
      </trkpt>
      <trkpt lat="42.50736" lon="2.36166">
        <ele>1011.6</ele>
        <time>2024-07-13T07:05:42Z</time>
      </trkpt>
      <trkpt lat="42.5074" lon="2.36171">
        <ele>1012.2</ele>
        <time>2024-07-13T07:05:49Z</time>
      </trkpt>
      <trkpt lat="42.50745" lon="2.36178">
        <ele>1011</ele>
        <time>2024-07-13T07:05:57Z</time>
      </trkpt>
      <trkpt lat="42.50747" lon="2.36184">
        <ele>1012</ele>
        <time>2024-07-13T07:06:05Z</time>
      </trkpt>
      <trkpt lat="42.50754" lon="2.36192">
        <ele>1013</ele>
        <time>2024-07-13T07:06:13Z</time>
      </trkpt>
      <trkpt lat="42.50757" lon="2.36197">
        <ele>1017.4</ele>
        <time>2024-07-13T07:06:21Z</time>
      </trkpt>
      <trkpt lat="42.50762" lon="2.36201">
        <ele>1017.6</ele>
        <time>2024-07-13T07:06:30Z</time>
      </trkpt>
      <trkpt lat="42.50763" lon="2.36202">
        <ele>1018.4</ele>
        <time>2024-07-13T07:06:35Z</time>
      </trkpt>
      <trkpt lat="42.50766" lon="2.36204">
        <ele>1019</ele>
        <time>2024-07-13T07:06:42Z</time>
      </trkpt>
      <trkpt lat="42.50766" lon="2.36208">
        <ele>1020.2</ele>
        <time>2024-07-13T07:06:49Z</time>
      </trkpt>
      <trkpt lat="42.5077" lon="2.3621">
        <ele>1021.2</ele>
        <time>2024-07-13T07:06:57Z</time>
      </trkpt>
      <trkpt lat="42.50772" lon="2.36217">
        <ele>1021.8</ele>
        <time>2024-07-13T07:07:05Z</time>
      </trkpt>
      <trkpt lat="42.5077" lon="2.36227">
        <ele>1021.6</ele>
        <time>2024-07-13T07:07:13Z</time>
      </trkpt>
      <trkpt lat="42.50772" lon="2.36235">
        <ele>1022.6</ele>
        <time>2024-07-13T07:07:20Z</time>
      </trkpt>
      <trkpt lat="42.50774" lon="2.36241">
        <ele>1023</ele>
        <time>2024-07-13T07:07:26Z</time>
      </trkpt>
      <trkpt lat="42.50778" lon="2.36245">
        <ele>1025</ele>
        <time>2024-07-13T07:07:32Z</time>
      </trkpt>
      <trkpt lat="42.5078" lon="2.36248">
        <ele>1028.2</ele>
        <time>2024-07-13T07:07:37Z</time>
      </trkpt>
      <trkpt lat="42.50782" lon="2.36253">
        <ele>1028.8</ele>
        <time>2024-07-13T07:07:43Z</time>
      </trkpt>
      <trkpt lat="42.50784" lon="2.36257">
        <ele>1027.8</ele>
        <time>2024-07-13T07:07:49Z</time>
      </trkpt>
      <trkpt lat="42.50786" lon="2.36257">
        <ele>1028.2</ele>
        <time>2024-07-13T07:07:53Z</time>
      </trkpt>
      <trkpt lat="42.50795" lon="2.36262">
        <ele>1032.4</ele>
        <time>2024-07-13T07:08:02Z</time>
      </trkpt>
      <trkpt lat="42.50799" lon="2.36265">
        <ele>1034</ele>
        <time>2024-07-13T07:08:06Z</time>
      </trkpt>
      <trkpt lat="42.508" lon="2.36266">
        <ele>1034.2</ele>
        <time>2024-07-13T07:08:07Z</time>
      </trkpt>
      <trkpt lat="42.50803" lon="2.36269">
        <ele>1035.6</ele>
        <time>2024-07-13T07:08:10Z</time>
      </trkpt>
      <trkpt lat="42.50806" lon="2.36272">
        <ele>1037</ele>
        <time>2024-07-13T07:08:14Z</time>
      </trkpt>
      <trkpt lat="42.50811" lon="2.36279">
        <ele>1037.4</ele>
        <time>2024-07-13T07:08:21Z</time>
      </trkpt>
      <trkpt lat="42.50813" lon="2.36288">
        <ele>1037.8</ele>
        <time>2024-07-13T07:08:28Z</time>
      </trkpt>
      <trkpt lat="42.5082" lon="2.36293">
        <ele>1038.8</ele>
        <time>2024-07-13T07:08:35Z</time>
      </trkpt>
      <trkpt lat="42.50823" lon="2.36301">
        <ele>1038.6</ele>
        <time>2024-07-13T07:08:42Z</time>
      </trkpt>
      <trkpt lat="42.50825" lon="2.36307">
        <ele>1037.8</ele>
        <time>2024-07-13T07:08:48Z</time>
      </trkpt>
      <trkpt lat="42.50828" lon="2.36312">
        <ele>1036.6</ele>
        <time>2024-07-13T07:08:52Z</time>
      </trkpt>
      <trkpt lat="42.50828" lon="2.36313">
        <ele>1036.4</ele>
        <time>2024-07-13T07:08:53Z</time>
      </trkpt>
      <trkpt lat="42.50829" lon="2.36324">
        <ele>1035.4</ele>
        <time>2024-07-13T07:09:01Z</time>
      </trkpt>
      <trkpt lat="42.50827" lon="2.36335">
        <ele>1034.2</ele>
        <time>2024-07-13T07:09:08Z</time>
      </trkpt>
      <trkpt lat="42.50828" lon="2.36336">
        <ele>1034</ele>
        <time>2024-07-13T07:09:09Z</time>
      </trkpt>
      <trkpt lat="42.50831" lon="2.36338">
        <ele>1034</ele>
        <time>2024-07-13T07:09:11Z</time>
      </trkpt>
      <trkpt lat="42.50831" lon="2.36344">
        <ele>1034</ele>
        <time>2024-07-13T07:09:15Z</time>
      </trkpt>
      <trkpt lat="42.5083" lon="2.36346">
        <ele>1033.6</ele>
        <time>2024-07-13T07:09:17Z</time>
      </trkpt>
      <trkpt lat="42.50831" lon="2.3635">
        <ele>1033.4</ele>
        <time>2024-07-13T07:09:20Z</time>
      </trkpt>
      <trkpt lat="42.50832" lon="2.36352">
        <ele>1033.6</ele>
        <time>2024-07-13T07:09:21Z</time>
      </trkpt>
      <trkpt lat="42.50832" lon="2.36355">
        <ele>1035</ele>
        <time>2024-07-13T07:09:24Z</time>
      </trkpt>
      <trkpt lat="42.50832" lon="2.36356">
        <ele>1035.6</ele>
        <time>2024-07-13T07:09:25Z</time>
      </trkpt>
      <trkpt lat="42.50834" lon="2.36358">
        <ele>1037.2</ele>
        <time>2024-07-13T07:09:27Z</time>
      </trkpt>
      <trkpt lat="42.50835" lon="2.36361">
        <ele>1038.8</ele>
        <time>2024-07-13T07:09:30Z</time>
      </trkpt>
      <trkpt lat="42.50835" lon="2.36362">
        <ele>1039.2</ele>
        <time>2024-07-13T07:09:31Z</time>
      </trkpt>
      <trkpt lat="42.50839" lon="2.36369">
        <ele>1040.8</ele>
        <time>2024-07-13T07:09:38Z</time>
      </trkpt>
      <trkpt lat="42.50839" lon="2.36375">
        <ele>1041.2</ele>
        <time>2024-07-13T07:09:41Z</time>
      </trkpt>
      <trkpt lat="42.50838" lon="2.36378">
        <ele>1041</ele>
        <time>2024-07-13T07:09:43Z</time>
      </trkpt>
      <trkpt lat="42.50839" lon="2.36383">
        <ele>1040.4</ele>
        <time>2024-07-13T07:09:47Z</time>
      </trkpt>
      <trkpt lat="42.50839" lon="2.36385">
        <ele>1039.8</ele>
        <time>2024-07-13T07:09:49Z</time>
      </trkpt>
      <trkpt lat="42.50841" lon="2.36391">
        <ele>1039.8</ele>
        <time>2024-07-13T07:09:54Z</time>
      </trkpt>
      <trkpt lat="42.50842" lon="2.36393">
        <ele>1040.4</ele>
        <time>2024-07-13T07:09:56Z</time>
      </trkpt>
      <trkpt lat="42.50843" lon="2.36395">
        <ele>1041.2</ele>
        <time>2024-07-13T07:09:58Z</time>
      </trkpt>
      <trkpt lat="42.50843" lon="2.36398">
        <ele>1041.8</ele>
        <time>2024-07-13T07:10:00Z</time>
      </trkpt>
      <trkpt lat="42.50845" lon="2.36407">
        <ele>1043.4</ele>
        <time>2024-07-13T07:10:05Z</time>
      </trkpt>
      <trkpt lat="42.50847" lon="2.36409">
        <ele>1044.2</ele>
        <time>2024-07-13T07:10:08Z</time>
      </trkpt>
      <trkpt lat="42.50851" lon="2.36411">
        <ele>1048</ele>
        <time>2024-07-13T07:10:15Z</time>
      </trkpt>
      <trkpt lat="42.50852" lon="2.36412">
        <ele>1049</ele>
        <time>2024-07-13T07:10:16Z</time>
      </trkpt>
      <trkpt lat="42.50854" lon="2.36414">
        <ele>1053.2</ele>
        <time>2024-07-13T07:10:22Z</time>
      </trkpt>
      <trkpt lat="42.50855" lon="2.36415">
        <ele>1053</ele>
        <time>2024-07-13T07:10:27Z</time>
      </trkpt>
      <trkpt lat="42.50861" lon="2.3642">
        <ele>1052.8</ele>
        <time>2024-07-13T07:10:34Z</time>
      </trkpt>
      <trkpt lat="42.50865" lon="2.36422">
        <ele>1052.4</ele>
        <time>2024-07-13T07:10:38Z</time>
      </trkpt>
      <trkpt lat="42.50867" lon="2.36423">
        <ele>1052</ele>
        <time>2024-07-13T07:10:40Z</time>
      </trkpt>
      <trkpt lat="42.50874" lon="2.36426">
        <ele>1052.6</ele>
        <time>2024-07-13T07:10:47Z</time>
      </trkpt>
      <trkpt lat="42.50878" lon="2.36427">
        <ele>1053.6</ele>
        <time>2024-07-13T07:10:51Z</time>
      </trkpt>
      <trkpt lat="42.50879" lon="2.36426">
        <ele>1054</ele>
        <time>2024-07-13T07:10:53Z</time>
      </trkpt>
      <trkpt lat="42.5088" lon="2.36426">
        <ele>1054.2</ele>
        <time>2024-07-13T07:10:54Z</time>
      </trkpt>
      <trkpt lat="42.50886" lon="2.36428">
        <ele>1055.6</ele>
        <time>2024-07-13T07:11:01Z</time>
      </trkpt>
      <trkpt lat="42.50896" lon="2.36438">
        <ele>1054.2</ele>
        <time>2024-07-13T07:11:11Z</time>
      </trkpt>
      <trkpt lat="42.50898" lon="2.36441">
        <ele>1053.6</ele>
        <time>2024-07-13T07:11:13Z</time>
      </trkpt>
      <trkpt lat="42.50901" lon="2.36444">
        <ele>1053</ele>
        <time>2024-07-13T07:11:15Z</time>
      </trkpt>
      <trkpt lat="42.50902" lon="2.36446">
        <ele>1052.2</ele>
        <time>2024-07-13T07:11:17Z</time>
      </trkpt>
      <trkpt lat="42.50907" lon="2.36446">
        <ele>1050.4</ele>
        <time>2024-07-13T07:11:23Z</time>
      </trkpt>
      <trkpt lat="42.50908" lon="2.36446">
        <ele>1050.2</ele>
        <time>2024-07-13T07:11:24Z</time>
      </trkpt>
      <trkpt lat="42.50909" lon="2.36446">
        <ele>1050.2</ele>
        <time>2024-07-13T07:11:25Z</time>
      </trkpt>
      <trkpt lat="42.50911" lon="2.36446">
        <ele>1050</ele>
        <time>2024-07-13T07:11:27Z</time>
      </trkpt>
      <trkpt lat="42.50913" lon="2.36448">
        <ele>1049.8</ele>
        <time>2024-07-13T07:11:29Z</time>
      </trkpt>
      <trkpt lat="42.50919" lon="2.36455">
        <ele>1049.8</ele>
        <time>2024-07-13T07:11:35Z</time>
      </trkpt>
      <trkpt lat="42.50923" lon="2.36458">
        <ele>1049.6</ele>
        <time>2024-07-13T07:11:39Z</time>
      </trkpt>
      <trkpt lat="42.50924" lon="2.36459">
        <ele>1049.4</ele>
        <time>2024-07-13T07:11:40Z</time>
      </trkpt>
      <trkpt lat="42.5093" lon="2.36463">
        <ele>1050</ele>
        <time>2024-07-13T07:11:46Z</time>
      </trkpt>
      <trkpt lat="42.50932" lon="2.36466">
        <ele>1050</ele>
        <time>2024-07-13T07:11:48Z</time>
      </trkpt>
      <trkpt lat="42.50936" lon="2.36468">
        <ele>1049.6</ele>
        <time>2024-07-13T07:11:53Z</time>
      </trkpt>
      <trkpt lat="42.50938" lon="2.36469">
        <ele>1049.6</ele>
        <time>2024-07-13T07:11:55Z</time>
      </trkpt>
      <trkpt lat="42.50945" lon="2.36476">
        <ele>1049.2</ele>
        <time>2024-07-13T07:12:01Z</time>
      </trkpt>
      <trkpt lat="42.50947" lon="2.3648">
        <ele>1048.6</ele>
        <time>2024-07-13T07:12:07Z</time>
      </trkpt>
      <trkpt lat="42.50957" lon="2.36485">
        <ele>1049.4</ele>
        <time>2024-07-13T07:12:14Z</time>
      </trkpt>
      <trkpt lat="42.50963" lon="2.36485">
        <ele>1049.6</ele>
        <time>2024-07-13T07:12:20Z</time>
      </trkpt>
      <trkpt lat="42.50971" lon="2.36487">
        <ele>1050.2</ele>
        <time>2024-07-13T07:12:27Z</time>
      </trkpt>
      <trkpt lat="42.50978" lon="2.3649">
        <ele>1050.2</ele>
        <time>2024-07-13T07:12:34Z</time>
      </trkpt>
      <trkpt lat="42.50983" lon="2.36491">
        <ele>1049.2</ele>
        <time>2024-07-13T07:12:39Z</time>
      </trkpt>
      <trkpt lat="42.50986" lon="2.36493">
        <ele>1048.8</ele>
        <time>2024-07-13T07:12:42Z</time>
      </trkpt>
      <trkpt lat="42.50995" lon="2.36502">
        <ele>1048.2</ele>
        <time>2024-07-13T07:12:49Z</time>
      </trkpt>
      <trkpt lat="42.50998" lon="2.36509">
        <ele>1047.2</ele>
        <time>2024-07-13T07:12:54Z</time>
      </trkpt>
      <trkpt lat="42.51" lon="2.36511">
        <ele>1046.8</ele>
        <time>2024-07-13T07:12:56Z</time>
      </trkpt>
      <trkpt lat="42.51003" lon="2.36515">
        <ele>1046.6</ele>
        <time>2024-07-13T07:12:59Z</time>
      </trkpt>
      <trkpt lat="42.51004" lon="2.36518">
        <ele>1046.6</ele>
        <time>2024-07-13T07:13:01Z</time>
      </trkpt>
      <trkpt lat="42.51007" lon="2.36521">
        <ele>1046.4</ele>
        <time>2024-07-13T07:13:04Z</time>
      </trkpt>
      <trkpt lat="42.51015" lon="2.36534">
        <ele>1047.6</ele>
        <time>2024-07-13T07:13:13Z</time>
      </trkpt>
      <trkpt lat="42.51017" lon="2.36538">
        <ele>1048</ele>
        <time>2024-07-13T07:13:19Z</time>
      </trkpt>
      <trkpt lat="42.51018" lon="2.36547">
        <ele>1047.8</ele>
        <time>2024-07-13T07:13:25Z</time>
      </trkpt>
      <trkpt lat="42.5102" lon="2.36558">
        <ele>1048</ele>
        <time>2024-07-13T07:13:32Z</time>
      </trkpt>
      <trkpt lat="42.51023" lon="2.36574">
        <ele>1047.6</ele>
        <time>2024-07-13T07:13:42Z</time>
      </trkpt>
      <trkpt lat="42.51025" lon="2.36585">
        <ele>1046.2</ele>
        <time>2024-07-13T07:13:50Z</time>
      </trkpt>
      <trkpt lat="42.51026" lon="2.36595">
        <ele>1044.8</ele>
        <time>2024-07-13T07:13:57Z</time>
      </trkpt>
      <trkpt lat="42.51026" lon="2.36597">
        <ele>1044.8</ele>
        <time>2024-07-13T07:13:59Z</time>
      </trkpt>
      <trkpt lat="42.51028" lon="2.36606">
        <ele>1045</ele>
        <time>2024-07-13T07:14:05Z</time>
      </trkpt>
      <trkpt lat="42.51028" lon="2.36609">
        <ele>1045.2</ele>
        <time>2024-07-13T07:14:07Z</time>
      </trkpt>
      <trkpt lat="42.51033" lon="2.36627">
        <ele>1047.2</ele>
        <time>2024-07-13T07:14:20Z</time>
      </trkpt>
      <trkpt lat="42.51039" lon="2.36636">
        <ele>1045.8</ele>
        <time>2024-07-13T07:14:27Z</time>
      </trkpt>
      <trkpt lat="42.51039" lon="2.36641">
        <ele>1045.2</ele>
        <time>2024-07-13T07:14:30Z</time>
      </trkpt>
      <trkpt lat="42.51038" lon="2.36645">
        <ele>1045</ele>
        <time>2024-07-13T07:14:33Z</time>
      </trkpt>
      <trkpt lat="42.51041" lon="2.36654">
        <ele>1045</ele>
        <time>2024-07-13T07:14:40Z</time>
      </trkpt>
      <trkpt lat="42.51044" lon="2.36663">
        <ele>1045.6</ele>
        <time>2024-07-13T07:14:47Z</time>
      </trkpt>
      <trkpt lat="42.51045" lon="2.36665">
        <ele>1045.6</ele>
        <time>2024-07-13T07:14:48Z</time>
      </trkpt>
      <trkpt lat="42.51044" lon="2.3667">
        <ele>1045.4</ele>
        <time>2024-07-13T07:14:52Z</time>
      </trkpt>
      <trkpt lat="42.51044" lon="2.36673">
        <ele>1045.4</ele>
        <time>2024-07-13T07:14:54Z</time>
      </trkpt>
      <trkpt lat="42.51046" lon="2.3668">
        <ele>1045</ele>
        <time>2024-07-13T07:14:59Z</time>
      </trkpt>
      <trkpt lat="42.51048" lon="2.36683">
        <ele>1045</ele>
        <time>2024-07-13T07:15:02Z</time>
      </trkpt>
      <trkpt lat="42.51048" lon="2.36688">
        <ele>1044.8</ele>
        <time>2024-07-13T07:15:05Z</time>
      </trkpt>
      <trkpt lat="42.5105" lon="2.36698">
        <ele>1044.6</ele>
        <time>2024-07-13T07:15:13Z</time>
      </trkpt>
      <trkpt lat="42.51049" lon="2.36707">
        <ele>1045.6</ele>
        <time>2024-07-13T07:15:20Z</time>
      </trkpt>
      <trkpt lat="42.51049" lon="2.36708">
        <ele>1045.8</ele>
        <time>2024-07-13T07:15:22Z</time>
      </trkpt>
      <trkpt lat="42.5105" lon="2.36712">
        <ele>1045.8</ele>
        <time>2024-07-13T07:15:26Z</time>
      </trkpt>
      <trkpt lat="42.51054" lon="2.36716">
        <ele>1047.2</ele>
        <time>2024-07-13T07:15:33Z</time>
      </trkpt>
      <trkpt lat="42.5106" lon="2.36718">
        <ele>1046.6</ele>
        <time>2024-07-13T07:15:40Z</time>
      </trkpt>
      <trkpt lat="42.51064" lon="2.36724">
        <ele>1046.6</ele>
        <time>2024-07-13T07:15:45Z</time>
      </trkpt>
      <trkpt lat="42.51067" lon="2.36728">
        <ele>1050.8</ele>
        <time>2024-07-13T07:15:52Z</time>
      </trkpt>
      <trkpt lat="42.51068" lon="2.36729">
        <ele>1051.8</ele>
        <time>2024-07-13T07:15:54Z</time>
      </trkpt>
      <trkpt lat="42.51071" lon="2.36733">
        <ele>1054</ele>
        <time>2024-07-13T07:15:59Z</time>
      </trkpt>
      <trkpt lat="42.51074" lon="2.36738">
        <ele>1054.6</ele>
        <time>2024-07-13T07:16:05Z</time>
      </trkpt>
      <trkpt lat="42.51076" lon="2.36741">
        <ele>1055</ele>
        <time>2024-07-13T07:16:10Z</time>
      </trkpt>
      <trkpt lat="42.51079" lon="2.36742">
        <ele>1055.6</ele>
        <time>2024-07-13T07:16:15Z</time>
      </trkpt>
      <trkpt lat="42.51089" lon="2.36749">
        <ele>1056.4</ele>
        <time>2024-07-13T07:16:23Z</time>
      </trkpt>
      <trkpt lat="42.51098" lon="2.36752">
        <ele>1060.4</ele>
        <time>2024-07-13T07:16:32Z</time>
      </trkpt>
      <trkpt lat="42.51105" lon="2.36754">
        <ele>1061.2</ele>
        <time>2024-07-13T07:16:39Z</time>
      </trkpt>
      <trkpt lat="42.5111" lon="2.3676">
        <ele>1060.4</ele>
        <time>2024-07-13T07:16:46Z</time>
      </trkpt>
      <trkpt lat="42.51115" lon="2.36761">
        <ele>1058.6</ele>
        <time>2024-07-13T07:16:52Z</time>
      </trkpt>
      <trkpt lat="42.51124" lon="2.36766">
        <ele>1056.6</ele>
        <time>2024-07-13T07:16:59Z</time>
      </trkpt>
      <trkpt lat="42.51126" lon="2.36772">
        <ele>1056.6</ele>
        <time>2024-07-13T07:17:02Z</time>
      </trkpt>
      <trkpt lat="42.51127" lon="2.36776">
        <ele>1056.6</ele>
        <time>2024-07-13T07:17:06Z</time>
      </trkpt>
      <trkpt lat="42.51128" lon="2.3678">
        <ele>1056.6</ele>
        <time>2024-07-13T07:17:09Z</time>
      </trkpt>
      <trkpt lat="42.51128" lon="2.36785">
        <ele>1056.6</ele>
        <time>2024-07-13T07:17:13Z</time>
      </trkpt>
      <trkpt lat="42.51128" lon="2.36786">
        <ele>1056.4</ele>
        <time>2024-07-13T07:17:14Z</time>
      </trkpt>
      <trkpt lat="42.51128" lon="2.36792">
        <ele>1056</ele>
        <time>2024-07-13T07:17:19Z</time>
      </trkpt>
      <trkpt lat="42.51126" lon="2.36799">
        <ele>1058.4</ele>
        <time>2024-07-13T07:17:26Z</time>
      </trkpt>
      <trkpt lat="42.51121" lon="2.36807">
        <ele>1058.6</ele>
        <time>2024-07-13T07:17:32Z</time>
      </trkpt>
      <trkpt lat="42.51121" lon="2.3681">
        <ele>1058.4</ele>
        <time>2024-07-13T07:17:35Z</time>
      </trkpt>
      <trkpt lat="42.51121" lon="2.36812">
        <ele>1057.8</ele>
        <time>2024-07-13T07:17:37Z</time>
      </trkpt>
      <trkpt lat="42.51124" lon="2.36824">
        <ele>1058.8</ele>
        <time>2024-07-13T07:17:44Z</time>
      </trkpt>
      <trkpt lat="42.51126" lon="2.3683">
        <ele>1060.6</ele>
        <time>2024-07-13T07:17:47Z</time>
      </trkpt>
      <trkpt lat="42.51126" lon="2.36833">
        <ele>1063</ele>
        <time>2024-07-13T07:17:50Z</time>
      </trkpt>
      <trkpt lat="42.51127" lon="2.36845">
        <ele>1066.6</ele>
        <time>2024-07-13T07:17:57Z</time>
      </trkpt>
      <trkpt lat="42.51127" lon="2.36848">
        <ele>1067</ele>
        <time>2024-07-13T07:17:59Z</time>
      </trkpt>
      <trkpt lat="42.51127" lon="2.36851">
        <ele>1066.8</ele>
        <time>2024-07-13T07:18:01Z</time>
      </trkpt>
      <trkpt lat="42.51128" lon="2.36854">
        <ele>1067</ele>
        <time>2024-07-13T07:18:03Z</time>
      </trkpt>
      <trkpt lat="42.51129" lon="2.36861">
        <ele>1067</ele>
        <time>2024-07-13T07:18:08Z</time>
      </trkpt>
      <trkpt lat="42.5113" lon="2.36863">
        <ele>1067.2</ele>
        <time>2024-07-13T07:18:10Z</time>
      </trkpt>
      <trkpt lat="42.5113" lon="2.36866">
        <ele>1067.2</ele>
        <time>2024-07-13T07:18:12Z</time>
      </trkpt>
      <trkpt lat="42.51129" lon="2.36871">
        <ele>1067.2</ele>
        <time>2024-07-13T07:18:14Z</time>
      </trkpt>
      <trkpt lat="42.51129" lon="2.36876">
        <ele>1067.2</ele>
        <time>2024-07-13T07:18:16Z</time>
      </trkpt>
      <trkpt lat="42.5113" lon="2.36883">
        <ele>1066</ele>
        <time>2024-07-13T07:18:20Z</time>
      </trkpt>
      <trkpt lat="42.51131" lon="2.36888">
        <ele>1065.4</ele>
        <time>2024-07-13T07:18:23Z</time>
      </trkpt>
      <trkpt lat="42.51133" lon="2.36901">
        <ele>1065.2</ele>
        <time>2024-07-13T07:18:32Z</time>
      </trkpt>
      <trkpt lat="42.51139" lon="2.36912">
        <ele>1064</ele>
        <time>2024-07-13T07:18:41Z</time>
      </trkpt>
      <trkpt lat="42.51148" lon="2.36923">
        <ele>1062.8</ele>
        <time>2024-07-13T07:18:54Z</time>
      </trkpt>
      <trkpt lat="42.51155" lon="2.36933">
        <ele>1061.8</ele>
        <time>2024-07-13T07:19:03Z</time>
      </trkpt>
      <trkpt lat="42.5116" lon="2.36932">
        <ele>1062.4</ele>
        <time>2024-07-13T07:19:11Z</time>
      </trkpt>
      <trkpt lat="42.51168" lon="2.36934">
        <ele>1062</ele>
        <time>2024-07-13T07:19:17Z</time>
      </trkpt>
      <trkpt lat="42.51175" lon="2.36936">
        <ele>1061.4</ele>
        <time>2024-07-13T07:19:24Z</time>
      </trkpt>
      <trkpt lat="42.51182" lon="2.36936">
        <ele>1063.8</ele>
        <time>2024-07-13T07:19:33Z</time>
      </trkpt>
      <trkpt lat="42.51191" lon="2.36941">
        <ele>1068</ele>
        <time>2024-07-13T07:19:41Z</time>
      </trkpt>
      <trkpt lat="42.51193" lon="2.36943">
        <ele>1068.4</ele>
        <time>2024-07-13T07:19:43Z</time>
      </trkpt>
      <trkpt lat="42.51196" lon="2.36944">
        <ele>1068.6</ele>
        <time>2024-07-13T07:19:46Z</time>
      </trkpt>
      <trkpt lat="42.51199" lon="2.36945">
        <ele>1068</ele>
        <time>2024-07-13T07:19:50Z</time>
      </trkpt>
      <trkpt lat="42.51209" lon="2.3695">
        <ele>1064.4</ele>
        <time>2024-07-13T07:19:59Z</time>
      </trkpt>
      <trkpt lat="42.51217" lon="2.36954">
        <ele>1063</ele>
        <time>2024-07-13T07:20:05Z</time>
      </trkpt>
      <trkpt lat="42.51219" lon="2.36957">
        <ele>1062.6</ele>
        <time>2024-07-13T07:20:07Z</time>
      </trkpt>
      <trkpt lat="42.51226" lon="2.36962">
        <ele>1058.6</ele>
        <time>2024-07-13T07:20:14Z</time>
      </trkpt>
      <trkpt lat="42.51227" lon="2.36963">
        <ele>1058.2</ele>
        <time>2024-07-13T07:20:15Z</time>
      </trkpt>
      <trkpt lat="42.51229" lon="2.36965">
        <ele>1057.6</ele>
        <time>2024-07-13T07:20:17Z</time>
      </trkpt>
      <trkpt lat="42.51232" lon="2.36968">
        <ele>1057.4</ele>
        <time>2024-07-13T07:20:22Z</time>
      </trkpt>
      <trkpt lat="42.51236" lon="2.36971">
        <ele>1057.4</ele>
        <time>2024-07-13T07:20:25Z</time>
      </trkpt>
      <trkpt lat="42.51237" lon="2.36975">
        <ele>1057.4</ele>
        <time>2024-07-13T07:20:28Z</time>
      </trkpt>
      <trkpt lat="42.51248" lon="2.36988">
        <ele>1058.4</ele>
        <time>2024-07-13T07:20:37Z</time>
      </trkpt>
      <trkpt lat="42.51253" lon="2.36996">
        <ele>1060</ele>
        <time>2024-07-13T07:20:43Z</time>
      </trkpt>
      <trkpt lat="42.51254" lon="2.36998">
        <ele>1061</ele>
        <time>2024-07-13T07:20:45Z</time>
      </trkpt>
      <trkpt lat="42.51255" lon="2.36998">
        <ele>1063.2</ele>
        <time>2024-07-13T07:20:48Z</time>
      </trkpt>
      <trkpt lat="42.51256" lon="2.36999">
        <ele>1065.2</ele>
        <time>2024-07-13T07:20:50Z</time>
      </trkpt>
      <trkpt lat="42.51257" lon="2.37002">
        <ele>1066.2</ele>
        <time>2024-07-13T07:20:52Z</time>
      </trkpt>
      <trkpt lat="42.51259" lon="2.37006">
        <ele>1067.4</ele>
        <time>2024-07-13T07:20:57Z</time>
      </trkpt>
      <trkpt lat="42.51262" lon="2.37005">
        <ele>1067.6</ele>
        <time>2024-07-13T07:20:59Z</time>
      </trkpt>
      <trkpt lat="42.51268" lon="2.37009">
        <ele>1067.6</ele>
        <time>2024-07-13T07:21:05Z</time>
      </trkpt>
      <trkpt lat="42.51269" lon="2.37009">
        <ele>1067.6</ele>
        <time>2024-07-13T07:21:06Z</time>
      </trkpt>
      <trkpt lat="42.51275" lon="2.37016">
        <ele>1067</ele>
        <time>2024-07-13T07:21:14Z</time>
      </trkpt>
      <trkpt lat="42.51281" lon="2.3702">
        <ele>1066.2</ele>
        <time>2024-07-13T07:21:21Z</time>
      </trkpt>
      <trkpt lat="42.51288" lon="2.37022">
        <ele>1066.4</ele>
        <time>2024-07-13T07:21:28Z</time>
      </trkpt>
      <trkpt lat="42.5129" lon="2.37022">
        <ele>1067.2</ele>
        <time>2024-07-13T07:21:30Z</time>
      </trkpt>
      <trkpt lat="42.5129" lon="2.37022">
        <ele>1067.6</ele>
        <time>2024-07-13T07:21:31Z</time>
      </trkpt>
      <trkpt lat="42.51295" lon="2.37021">
        <ele>1068.6</ele>
        <time>2024-07-13T07:21:36Z</time>
      </trkpt>
      <trkpt lat="42.51297" lon="2.37022">
        <ele>1068.4</ele>
        <time>2024-07-13T07:21:37Z</time>
      </trkpt>
      <trkpt lat="42.51301" lon="2.37023">
        <ele>1067</ele>
        <time>2024-07-13T07:21:41Z</time>
      </trkpt>
      <trkpt lat="42.51301" lon="2.37024">
        <ele>1066.8</ele>
        <time>2024-07-13T07:21:42Z</time>
      </trkpt>
      <trkpt lat="42.51304" lon="2.37025">
        <ele>1066.8</ele>
        <time>2024-07-13T07:21:45Z</time>
      </trkpt>
      <trkpt lat="42.51306" lon="2.37024">
        <ele>1066.8</ele>
        <time>2024-07-13T07:21:47Z</time>
      </trkpt>
      <trkpt lat="42.51309" lon="2.37026">
        <ele>1067</ele>
        <time>2024-07-13T07:21:52Z</time>
      </trkpt>
      <trkpt lat="42.51317" lon="2.37026">
        <ele>1066</ele>
        <time>2024-07-13T07:21:59Z</time>
      </trkpt>
      <trkpt lat="42.5133" lon="2.37029">
        <ele>1065.6</ele>
        <time>2024-07-13T07:22:09Z</time>
      </trkpt>
      <trkpt lat="42.51341" lon="2.37035">
        <ele>1065.6</ele>
        <time>2024-07-13T07:22:19Z</time>
      </trkpt>
      <trkpt lat="42.5135" lon="2.37047">
        <ele>1064.4</ele>
        <time>2024-07-13T07:22:29Z</time>
      </trkpt>
      <trkpt lat="42.51361" lon="2.37059">
        <ele>1063.4</ele>
        <time>2024-07-13T07:22:40Z</time>
      </trkpt>
      <trkpt lat="42.51371" lon="2.37066">
        <ele>1063.6</ele>
        <time>2024-07-13T07:22:49Z</time>
      </trkpt>
      <trkpt lat="42.5138" lon="2.37074">
        <ele>1065.6</ele>
        <time>2024-07-13T07:22:59Z</time>
      </trkpt>
      <trkpt lat="42.51387" lon="2.37081">
        <ele>1064.8</ele>
        <time>2024-07-13T07:23:06Z</time>
      </trkpt>
      <trkpt lat="42.51397" lon="2.37088">
        <ele>1065</ele>
        <time>2024-07-13T07:23:14Z</time>
      </trkpt>
      <trkpt lat="42.51407" lon="2.37093">
        <ele>1064.6</ele>
        <time>2024-07-13T07:23:22Z</time>
      </trkpt>
      <trkpt lat="42.51419" lon="2.37104">
        <ele>1066</ele>
        <time>2024-07-13T07:23:32Z</time>
      </trkpt>
      <trkpt lat="42.51423" lon="2.37108">
        <ele>1065.8</ele>
        <time>2024-07-13T07:23:36Z</time>
      </trkpt>
      <trkpt lat="42.51425" lon="2.37109">
        <ele>1065.4</ele>
        <time>2024-07-13T07:23:38Z</time>
      </trkpt>
      <trkpt lat="42.51435" lon="2.37115">
        <ele>1065</ele>
        <time>2024-07-13T07:23:47Z</time>
      </trkpt>
      <trkpt lat="42.51438" lon="2.37117">
        <ele>1065.4</ele>
        <time>2024-07-13T07:23:49Z</time>
      </trkpt>
      <trkpt lat="42.51443" lon="2.3712">
        <ele>1066.4</ele>
        <time>2024-07-13T07:23:53Z</time>
      </trkpt>
      <trkpt lat="42.51455" lon="2.37132">
        <ele>1068.2</ele>
        <time>2024-07-13T07:24:02Z</time>
      </trkpt>
      <trkpt lat="42.51462" lon="2.37139">
        <ele>1067.4</ele>
        <time>2024-07-13T07:24:09Z</time>
      </trkpt>
      <trkpt lat="42.51464" lon="2.37141">
        <ele>1067.4</ele>
        <time>2024-07-13T07:24:11Z</time>
      </trkpt>
      <trkpt lat="42.51465" lon="2.37145">
        <ele>1067.8</ele>
        <time>2024-07-13T07:24:15Z</time>
      </trkpt>
      <trkpt lat="42.51464" lon="2.37146">
        <ele>1068.2</ele>
        <time>2024-07-13T07:24:17Z</time>
      </trkpt>
      <trkpt lat="42.51462" lon="2.37149">
        <ele>1068.4</ele>
        <time>2024-07-13T07:24:25Z</time>
      </trkpt>
      <trkpt lat="42.51462" lon="2.37149">
        <ele>1068</ele>
        <time>2024-07-13T07:24:33Z</time>
      </trkpt>
      <trkpt lat="42.51462" lon="2.37149">
        <ele>1068</ele>
        <time>2024-07-13T07:24:57Z</time>
      </trkpt>
      <trkpt lat="42.51458" lon="2.37156">
        <ele>1069.8</ele>
        <time>2024-07-13T07:25:32Z</time>
      </trkpt>
      <trkpt lat="42.5145" lon="2.37168">
        <ele>1069.4</ele>
        <time>2024-07-13T07:25:41Z</time>
      </trkpt>
      <trkpt lat="42.51445" lon="2.37175">
        <ele>1068.4</ele>
        <time>2024-07-13T07:25:48Z</time>
      </trkpt>
      <trkpt lat="42.51444" lon="2.37177">
        <ele>1068.2</ele>
        <time>2024-07-13T07:25:50Z</time>
      </trkpt>
      <trkpt lat="42.51442" lon="2.37186">
        <ele>1067.4</ele>
        <time>2024-07-13T07:25:57Z</time>
      </trkpt>
      <trkpt lat="42.51438" lon="2.37193">
        <ele>1066.8</ele>
        <time>2024-07-13T07:26:05Z</time>
      </trkpt>
      <trkpt lat="42.51438" lon="2.37193">
        <ele>1066.6</ele>
        <time>2024-07-13T07:26:09Z</time>
      </trkpt>
      <trkpt lat="42.51437" lon="2.37193">
        <ele>1065.8</ele>
        <time>2024-07-13T07:26:18Z</time>
      </trkpt>
      <trkpt lat="42.51431" lon="2.372">
        <ele>1066.8</ele>
        <time>2024-07-13T07:28:30Z</time>
      </trkpt>
      <trkpt lat="42.51431" lon="2.37203">
        <ele>1066.4</ele>
        <time>2024-07-13T07:28:31Z</time>
      </trkpt>
      <trkpt lat="42.51427" lon="2.37214">
        <ele>1064</ele>
        <time>2024-07-13T07:28:36Z</time>
      </trkpt>
      <trkpt lat="42.51419" lon="2.37224">
        <ele>1060.6</ele>
        <time>2024-07-13T07:28:44Z</time>
      </trkpt>
      <trkpt lat="42.51412" lon="2.37232">
        <ele>1059.4</ele>
        <time>2024-07-13T07:28:51Z</time>
      </trkpt>
      <trkpt lat="42.51409" lon="2.37236">
        <ele>1058.4</ele>
        <time>2024-07-13T07:28:54Z</time>
      </trkpt>
      <trkpt lat="42.51407" lon="2.37242">
        <ele>1057.6</ele>
        <time>2024-07-13T07:28:58Z</time>
      </trkpt>
      <trkpt lat="42.51405" lon="2.37245">
        <ele>1058</ele>
        <time>2024-07-13T07:29:02Z</time>
      </trkpt>
      <trkpt lat="42.51403" lon="2.37247">
        <ele>1058.2</ele>
        <time>2024-07-13T07:29:03Z</time>
      </trkpt>
      <trkpt lat="42.51397" lon="2.37253">
        <ele>1059.6</ele>
        <time>2024-07-13T07:29:09Z</time>
      </trkpt>
      <trkpt lat="42.51392" lon="2.37261">
        <ele>1061.2</ele>
        <time>2024-07-13T07:29:15Z</time>
      </trkpt>
      <trkpt lat="42.51391" lon="2.37262">
        <ele>1061.2</ele>
        <time>2024-07-13T07:29:16Z</time>
      </trkpt>
      <trkpt lat="42.51382" lon="2.37274">
        <ele>1060.4</ele>
        <time>2024-07-13T07:29:24Z</time>
      </trkpt>
      <trkpt lat="42.51378" lon="2.37282">
        <ele>1059.8</ele>
        <time>2024-07-13T07:29:29Z</time>
      </trkpt>
      <trkpt lat="42.51374" lon="2.3729">
        <ele>1059.4</ele>
        <time>2024-07-13T07:29:34Z</time>
      </trkpt>
      <trkpt lat="42.51367" lon="2.37304">
        <ele>1061</ele>
        <time>2024-07-13T07:29:43Z</time>
      </trkpt>
      <trkpt lat="42.51362" lon="2.3731">
        <ele>1061.4</ele>
        <time>2024-07-13T07:29:49Z</time>
      </trkpt>
      <trkpt lat="42.51362" lon="2.37312">
        <ele>1061.4</ele>
        <time>2024-07-13T07:29:50Z</time>
      </trkpt>
      <trkpt lat="42.5136" lon="2.37321">
        <ele>1061.2</ele>
        <time>2024-07-13T07:29:56Z</time>
      </trkpt>
      <trkpt lat="42.5136" lon="2.37323">
        <ele>1061.2</ele>
        <time>2024-07-13T07:29:57Z</time>
      </trkpt>
      <trkpt lat="42.5136" lon="2.37325">
        <ele>1060.8</ele>
        <time>2024-07-13T07:29:58Z</time>
      </trkpt>
      <trkpt lat="42.51359" lon="2.37331">
        <ele>1059.6</ele>
        <time>2024-07-13T07:30:03Z</time>
      </trkpt>
      <trkpt lat="42.51358" lon="2.37341">
        <ele>1058.4</ele>
        <time>2024-07-13T07:30:08Z</time>
      </trkpt>
      <trkpt lat="42.51358" lon="2.37345">
        <ele>1058.2</ele>
        <time>2024-07-13T07:30:10Z</time>
      </trkpt>
      <trkpt lat="42.51353" lon="2.37361">
        <ele>1055</ele>
        <time>2024-07-13T07:30:20Z</time>
      </trkpt>
      <trkpt lat="42.51349" lon="2.37379">
        <ele>1054</ele>
        <time>2024-07-13T07:30:29Z</time>
      </trkpt>
      <trkpt lat="42.51342" lon="2.37395">
        <ele>1052.2</ele>
        <time>2024-07-13T07:30:39Z</time>
      </trkpt>
      <trkpt lat="42.51331" lon="2.37407">
        <ele>1052.6</ele>
        <time>2024-07-13T07:30:48Z</time>
      </trkpt>
      <trkpt lat="42.51324" lon="2.37414">
        <ele>1054.2</ele>
        <time>2024-07-13T07:30:56Z</time>
      </trkpt>
      <trkpt lat="42.51316" lon="2.37422">
        <ele>1054.4</ele>
        <time>2024-07-13T07:31:04Z</time>
      </trkpt>
      <trkpt lat="42.51304" lon="2.37429">
        <ele>1054.2</ele>
        <time>2024-07-13T07:31:14Z</time>
      </trkpt>
      <trkpt lat="42.51294" lon="2.37436">
        <ele>1054</ele>
        <time>2024-07-13T07:31:22Z</time>
      </trkpt>
      <trkpt lat="42.51286" lon="2.37441">
        <ele>1053.6</ele>
        <time>2024-07-13T07:31:30Z</time>
      </trkpt>
      <trkpt lat="42.51275" lon="2.37446">
        <ele>1052.4</ele>
        <time>2024-07-13T07:31:39Z</time>
      </trkpt>
      <trkpt lat="42.51264" lon="2.37452">
        <ele>1053.6</ele>
        <time>2024-07-13T07:31:47Z</time>
      </trkpt>
      <trkpt lat="42.51262" lon="2.37453">
        <ele>1053.8</ele>
        <time>2024-07-13T07:31:49Z</time>
      </trkpt>
      <trkpt lat="42.51257" lon="2.37453">
        <ele>1053.6</ele>
        <time>2024-07-13T07:31:53Z</time>
      </trkpt>
      <trkpt lat="42.51247" lon="2.37457">
        <ele>1051.8</ele>
        <time>2024-07-13T07:32:02Z</time>
      </trkpt>
      <trkpt lat="42.51239" lon="2.37461">
        <ele>1050.4</ele>
        <time>2024-07-13T07:32:09Z</time>
      </trkpt>
      <trkpt lat="42.51226" lon="2.37468">
        <ele>1047.8</ele>
        <time>2024-07-13T07:32:19Z</time>
      </trkpt>
      <trkpt lat="42.51224" lon="2.37468">
        <ele>1047.6</ele>
        <time>2024-07-13T07:32:21Z</time>
      </trkpt>
      <trkpt lat="42.5122" lon="2.37471">
        <ele>1047.4</ele>
        <time>2024-07-13T07:32:25Z</time>
      </trkpt>
      <trkpt lat="42.51214" lon="2.37473">
        <ele>1047.6</ele>
        <time>2024-07-13T07:32:30Z</time>
      </trkpt>
      <trkpt lat="42.51203" lon="2.37473">
        <ele>1048.6</ele>
        <time>2024-07-13T07:32:39Z</time>
      </trkpt>
      <trkpt lat="42.51199" lon="2.37474">
        <ele>1048.6</ele>
        <time>2024-07-13T07:32:42Z</time>
      </trkpt>
      <trkpt lat="42.51194" lon="2.37476">
        <ele>1049</ele>
        <time>2024-07-13T07:32:46Z</time>
      </trkpt>
      <trkpt lat="42.51185" lon="2.37477">
        <ele>1049.2</ele>
        <time>2024-07-13T07:32:54Z</time>
      </trkpt>
      <trkpt lat="42.5118" lon="2.37475">
        <ele>1049.6</ele>
        <time>2024-07-13T07:33:00Z</time>
      </trkpt>
      <trkpt lat="42.51179" lon="2.37476">
        <ele>1049.6</ele>
        <time>2024-07-13T07:33:02Z</time>
      </trkpt>
      <trkpt lat="42.51177" lon="2.37481">
        <ele>1048.4</ele>
        <time>2024-07-13T07:33:06Z</time>
      </trkpt>
      <trkpt lat="42.51171" lon="2.37491">
        <ele>1047.4</ele>
        <time>2024-07-13T07:33:13Z</time>
      </trkpt>
      <trkpt lat="42.51168" lon="2.37494">
        <ele>1048.8</ele>
        <time>2024-07-13T07:33:18Z</time>
      </trkpt>
      <trkpt lat="42.51168" lon="2.37494">
        <ele>1049.8</ele>
        <time>2024-07-13T07:33:20Z</time>
      </trkpt>
      <trkpt lat="42.51169" lon="2.37497">
        <ele>1052.4</ele>
        <time>2024-07-13T07:33:25Z</time>
      </trkpt>
      <trkpt lat="42.51166" lon="2.37498">
        <ele>1055</ele>
        <time>2024-07-13T07:33:31Z</time>
      </trkpt>
      <trkpt lat="42.5117" lon="2.37507">
        <ele>1056.2</ele>
        <time>2024-07-13T07:33:41Z</time>
      </trkpt>
      <trkpt lat="42.51173" lon="2.3751">
        <ele>1050.6</ele>
        <time>2024-07-13T07:33:49Z</time>
      </trkpt>
      <trkpt lat="42.51173" lon="2.37513">
        <ele>1048.8</ele>
        <time>2024-07-13T07:33:55Z</time>
      </trkpt>
      <trkpt lat="42.51177" lon="2.37518">
        <ele>1048.2</ele>
        <time>2024-07-13T07:34:02Z</time>
      </trkpt>
      <trkpt lat="42.51181" lon="2.37524">
        <ele>1046.4</ele>
        <time>2024-07-13T07:34:09Z</time>
      </trkpt>
      <trkpt lat="42.51184" lon="2.3753">
        <ele>1045.8</ele>
        <time>2024-07-13T07:34:15Z</time>
      </trkpt>
      <trkpt lat="42.51187" lon="2.37542">
        <ele>1045.2</ele>
        <time>2024-07-13T07:34:21Z</time>
      </trkpt>
      <trkpt lat="42.51186" lon="2.37543">
        <ele>1045.2</ele>
        <time>2024-07-13T07:34:22Z</time>
      </trkpt>
      <trkpt lat="42.51187" lon="2.3755">
        <ele>1044.8</ele>
        <time>2024-07-13T07:34:26Z</time>
      </trkpt>
      <trkpt lat="42.51189" lon="2.37554">
        <ele>1045.2</ele>
        <time>2024-07-13T07:34:29Z</time>
      </trkpt>
      <trkpt lat="42.5119" lon="2.37562">
        <ele>1046.2</ele>
        <time>2024-07-13T07:34:32Z</time>
      </trkpt>
      <trkpt lat="42.51188" lon="2.37565">
        <ele>1046.8</ele>
        <time>2024-07-13T07:34:34Z</time>
      </trkpt>
      <trkpt lat="42.51187" lon="2.37566">
        <ele>1046.8</ele>
        <time>2024-07-13T07:34:35Z</time>
      </trkpt>
      <trkpt lat="42.51183" lon="2.37577">
        <ele>1042.2</ele>
        <time>2024-07-13T07:34:44Z</time>
      </trkpt>
      <trkpt lat="42.51175" lon="2.37584">
        <ele>1041</ele>
        <time>2024-07-13T07:34:51Z</time>
      </trkpt>
      <trkpt lat="42.51176" lon="2.37586">
        <ele>1041</ele>
        <time>2024-07-13T07:34:52Z</time>
      </trkpt>
      <trkpt lat="42.51179" lon="2.37598">
        <ele>1041.2</ele>
        <time>2024-07-13T07:35:00Z</time>
      </trkpt>
      <trkpt lat="42.5118" lon="2.37599">
        <ele>1041.2</ele>
        <time>2024-07-13T07:35:01Z</time>
      </trkpt>
      <trkpt lat="42.51182" lon="2.37607">
        <ele>1041.4</ele>
        <time>2024-07-13T07:35:06Z</time>
      </trkpt>
      <trkpt lat="42.51182" lon="2.37608">
        <ele>1041.6</ele>
        <time>2024-07-13T07:35:07Z</time>
      </trkpt>
      <trkpt lat="42.51182" lon="2.37614">
        <ele>1041.6</ele>
        <time>2024-07-13T07:35:10Z</time>
      </trkpt>
      <trkpt lat="42.51182" lon="2.37619">
        <ele>1041.6</ele>
        <time>2024-07-13T07:35:13Z</time>
      </trkpt>
      <trkpt lat="42.51179" lon="2.37633">
        <ele>1040.2</ele>
        <time>2024-07-13T07:35:21Z</time>
      </trkpt>
      <trkpt lat="42.51177" lon="2.37635">
        <ele>1040.2</ele>
        <time>2024-07-13T07:35:22Z</time>
      </trkpt>
      <trkpt lat="42.51173" lon="2.37642">
        <ele>1040.8</ele>
        <time>2024-07-13T07:35:28Z</time>
      </trkpt>
      <trkpt lat="42.51172" lon="2.37643">
        <ele>1041.2</ele>
        <time>2024-07-13T07:35:29Z</time>
      </trkpt>
      <trkpt lat="42.51165" lon="2.37656">
        <ele>1044.4</ele>
        <time>2024-07-13T07:35:37Z</time>
      </trkpt>
      <trkpt lat="42.51158" lon="2.37665">
        <ele>1047.2</ele>
        <time>2024-07-13T07:35:43Z</time>
      </trkpt>
      <trkpt lat="42.51158" lon="2.37668">
        <ele>1047.6</ele>
        <time>2024-07-13T07:35:45Z</time>
      </trkpt>
      <trkpt lat="42.5115" lon="2.37678">
        <ele>1048.2</ele>
        <time>2024-07-13T07:35:52Z</time>
      </trkpt>
      <trkpt lat="42.51143" lon="2.37689">
        <ele>1046</ele>
        <time>2024-07-13T07:36:00Z</time>
      </trkpt>
      <trkpt lat="42.5114" lon="2.37696">
        <ele>1045.8</ele>
        <time>2024-07-13T07:36:07Z</time>
      </trkpt>
      <trkpt lat="42.5114" lon="2.37698">
        <ele>1045.8</ele>
        <time>2024-07-13T07:36:08Z</time>
      </trkpt>
      <trkpt lat="42.51139" lon="2.37703">
        <ele>1045.4</ele>
        <time>2024-07-13T07:36:12Z</time>
      </trkpt>
      <trkpt lat="42.51135" lon="2.37705">
        <ele>1044.8</ele>
        <time>2024-07-13T07:36:14Z</time>
      </trkpt>
      <trkpt lat="42.51135" lon="2.3771">
        <ele>1044.2</ele>
        <time>2024-07-13T07:36:17Z</time>
      </trkpt>
      <trkpt lat="42.51134" lon="2.37714">
        <ele>1044.2</ele>
        <time>2024-07-13T07:36:20Z</time>
      </trkpt>
      <trkpt lat="42.51132" lon="2.37717">
        <ele>1044.4</ele>
        <time>2024-07-13T07:36:23Z</time>
      </trkpt>
      <trkpt lat="42.51129" lon="2.37718">
        <ele>1044.2</ele>
        <time>2024-07-13T07:36:25Z</time>
      </trkpt>
      <trkpt lat="42.51128" lon="2.37724">
        <ele>1043.2</ele>
        <time>2024-07-13T07:36:32Z</time>
      </trkpt>
      <trkpt lat="42.51132" lon="2.37729">
        <ele>1041.8</ele>
        <time>2024-07-13T07:36:39Z</time>
      </trkpt>
      <trkpt lat="42.51133" lon="2.37729">
        <ele>1041.6</ele>
        <time>2024-07-13T07:36:40Z</time>
      </trkpt>
      <trkpt lat="42.51133" lon="2.37732">
        <ele>1041.4</ele>
        <time>2024-07-13T07:36:44Z</time>
      </trkpt>
      <trkpt lat="42.51133" lon="2.37733">
        <ele>1041.8</ele>
        <time>2024-07-13T07:36:46Z</time>
      </trkpt>
      <trkpt lat="42.51136" lon="2.37732">
        <ele>1043.4</ele>
        <time>2024-07-13T07:36:51Z</time>
      </trkpt>
      <trkpt lat="42.51138" lon="2.37732">
        <ele>1044.2</ele>
        <time>2024-07-13T07:36:53Z</time>
      </trkpt>
      <trkpt lat="42.51141" lon="2.37735">
        <ele>1045.2</ele>
        <time>2024-07-13T07:36:59Z</time>
      </trkpt>
      <trkpt lat="42.51144" lon="2.37738">
        <ele>1045.2</ele>
        <time>2024-07-13T07:37:05Z</time>
      </trkpt>
      <trkpt lat="42.51145" lon="2.3774">
        <ele>1045</ele>
        <time>2024-07-13T07:37:11Z</time>
      </trkpt>
      <trkpt lat="42.51148" lon="2.37739">
        <ele>1048.4</ele>
        <time>2024-07-13T07:37:21Z</time>
      </trkpt>
      <trkpt lat="42.5115" lon="2.37741">
        <ele>1049.2</ele>
        <time>2024-07-13T07:37:28Z</time>
      </trkpt>
      <trkpt lat="42.51155" lon="2.37743">
        <ele>1050.4</ele>
        <time>2024-07-13T07:37:35Z</time>
      </trkpt>
      <trkpt lat="42.5116" lon="2.37744">
        <ele>1051.2</ele>
        <time>2024-07-13T07:37:41Z</time>
      </trkpt>
      <trkpt lat="42.51165" lon="2.37747">
        <ele>1052.4</ele>
        <time>2024-07-13T07:37:49Z</time>
      </trkpt>
      <trkpt lat="42.51167" lon="2.37749">
        <ele>1053.8</ele>
        <time>2024-07-13T07:37:54Z</time>
      </trkpt>
      <trkpt lat="42.51169" lon="2.3775">
        <ele>1056</ele>
        <time>2024-07-13T07:38:02Z</time>
      </trkpt>
      <trkpt lat="42.51172" lon="2.37752">
        <ele>1056.8</ele>
        <time>2024-07-13T07:38:09Z</time>
      </trkpt>
      <trkpt lat="42.51176" lon="2.37754">
        <ele>1057</ele>
        <time>2024-07-13T07:38:14Z</time>
      </trkpt>
      <trkpt lat="42.51179" lon="2.37755">
        <ele>1056.8</ele>
        <time>2024-07-13T07:38:19Z</time>
      </trkpt>
      <trkpt lat="42.51185" lon="2.3776">
        <ele>1055.4</ele>
        <time>2024-07-13T07:38:26Z</time>
      </trkpt>
      <trkpt lat="42.51187" lon="2.37761">
        <ele>1055.2</ele>
        <time>2024-07-13T07:38:28Z</time>
      </trkpt>
      <trkpt lat="42.51188" lon="2.37761">
        <ele>1055.2</ele>
        <time>2024-07-13T07:38:30Z</time>
      </trkpt>
      <trkpt lat="42.5119" lon="2.37763">
        <ele>1055.2</ele>
        <time>2024-07-13T07:38:31Z</time>
      </trkpt>
      <trkpt lat="42.51195" lon="2.37768">
        <ele>1054.8</ele>
        <time>2024-07-13T07:38:37Z</time>
      </trkpt>
      <trkpt lat="42.51197" lon="2.37776">
        <ele>1054</ele>
        <time>2024-07-13T07:38:43Z</time>
      </trkpt>
      <trkpt lat="42.51198" lon="2.37782">
        <ele>1053.2</ele>
        <time>2024-07-13T07:38:49Z</time>
      </trkpt>
      <trkpt lat="42.51202" lon="2.37788">
        <ele>1053.4</ele>
        <time>2024-07-13T07:38:56Z</time>
      </trkpt>
      <trkpt lat="42.51204" lon="2.37791">
        <ele>1053.8</ele>
        <time>2024-07-13T07:38:58Z</time>
      </trkpt>
      <trkpt lat="42.51213" lon="2.37798">
        <ele>1055.8</ele>
        <time>2024-07-13T07:39:06Z</time>
      </trkpt>
      <trkpt lat="42.51214" lon="2.37798">
        <ele>1056.2</ele>
        <time>2024-07-13T07:39:07Z</time>
      </trkpt>
      <trkpt lat="42.51217" lon="2.37798">
        <ele>1057.2</ele>
        <time>2024-07-13T07:39:10Z</time>
      </trkpt>
      <trkpt lat="42.51217" lon="2.37796">
        <ele>1057.8</ele>
        <time>2024-07-13T07:39:14Z</time>
      </trkpt>
      <trkpt lat="42.51217" lon="2.37791">
        <ele>1058</ele>
        <time>2024-07-13T07:39:19Z</time>
      </trkpt>
      <trkpt lat="42.51222" lon="2.37784">
        <ele>1055.2</ele>
        <time>2024-07-13T07:39:25Z</time>
      </trkpt>
      <trkpt lat="42.51222" lon="2.37783">
        <ele>1054.8</ele>
        <time>2024-07-13T07:39:26Z</time>
      </trkpt>
      <trkpt lat="42.51225" lon="2.37776">
        <ele>1053.8</ele>
        <time>2024-07-13T07:39:31Z</time>
      </trkpt>
      <trkpt lat="42.51226" lon="2.37773">
        <ele>1053.6</ele>
        <time>2024-07-13T07:39:33Z</time>
      </trkpt>
      <trkpt lat="42.51235" lon="2.37767">
        <ele>1052.4</ele>
        <time>2024-07-13T07:39:41Z</time>
      </trkpt>
      <trkpt lat="42.51243" lon="2.37764">
        <ele>1052.4</ele>
        <time>2024-07-13T07:39:47Z</time>
      </trkpt>
      <trkpt lat="42.51245" lon="2.37764">
        <ele>1052.6</ele>
        <time>2024-07-13T07:39:48Z</time>
      </trkpt>
      <trkpt lat="42.51257" lon="2.37761">
        <ele>1053</ele>
        <time>2024-07-13T07:39:56Z</time>
      </trkpt>
      <trkpt lat="42.51267" lon="2.37757">
        <ele>1052.6</ele>
        <time>2024-07-13T07:40:05Z</time>
      </trkpt>
      <trkpt lat="42.51278" lon="2.37752">
        <ele>1050.2</ele>
        <time>2024-07-13T07:40:14Z</time>
      </trkpt>
      <trkpt lat="42.51291" lon="2.37753">
        <ele>1050.2</ele>
        <time>2024-07-13T07:40:23Z</time>
      </trkpt>
      <trkpt lat="42.51302" lon="2.37754">
        <ele>1049.8</ele>
        <time>2024-07-13T07:40:29Z</time>
      </trkpt>
      <trkpt lat="42.51313" lon="2.37756">
        <ele>1049.2</ele>
        <time>2024-07-13T07:40:38Z</time>
      </trkpt>
      <trkpt lat="42.5132" lon="2.37762">
        <ele>1048.4</ele>
        <time>2024-07-13T07:40:46Z</time>
      </trkpt>
      <trkpt lat="42.51327" lon="2.37767">
        <ele>1049</ele>
        <time>2024-07-13T07:40:54Z</time>
      </trkpt>
      <trkpt lat="42.51334" lon="2.37776">
        <ele>1050</ele>
        <time>2024-07-13T07:41:01Z</time>
      </trkpt>
      <trkpt lat="42.5134" lon="2.37785">
        <ele>1050.2</ele>
        <time>2024-07-13T07:41:09Z</time>
      </trkpt>
      <trkpt lat="42.51343" lon="2.37793">
        <ele>1050.8</ele>
        <time>2024-07-13T07:41:17Z</time>
      </trkpt>
      <trkpt lat="42.51344" lon="2.37798">
        <ele>1051</ele>
        <time>2024-07-13T07:41:23Z</time>
      </trkpt>
      <trkpt lat="42.51345" lon="2.37802">
        <ele>1051</ele>
        <time>2024-07-13T07:41:30Z</time>
      </trkpt>
      <trkpt lat="42.51347" lon="2.37808">
        <ele>1052.2</ele>
        <time>2024-07-13T07:41:38Z</time>
      </trkpt>
      <trkpt lat="42.51349" lon="2.37812">
        <ele>1054</ele>
        <time>2024-07-13T07:41:46Z</time>
      </trkpt>
      <trkpt lat="42.51353" lon="2.37819">
        <ele>1057.6</ele>
        <time>2024-07-13T07:41:56Z</time>
      </trkpt>
      <trkpt lat="42.51356" lon="2.37826">
        <ele>1059.8</ele>
        <time>2024-07-13T07:42:05Z</time>
      </trkpt>
      <trkpt lat="42.51359" lon="2.37833">
        <ele>1063.2</ele>
        <time>2024-07-13T07:42:15Z</time>
      </trkpt>
      <trkpt lat="42.51361" lon="2.3784">
        <ele>1065.2</ele>
        <time>2024-07-13T07:42:24Z</time>
      </trkpt>
      <trkpt lat="42.51365" lon="2.37849">
        <ele>1066.6</ele>
        <time>2024-07-13T07:42:36Z</time>
      </trkpt>
      <trkpt lat="42.51366" lon="2.37854">
        <ele>1066.2</ele>
        <time>2024-07-13T07:42:40Z</time>
      </trkpt>
      <trkpt lat="42.51367" lon="2.37861">
        <ele>1066</ele>
        <time>2024-07-13T07:42:46Z</time>
      </trkpt>
      <trkpt lat="42.51369" lon="2.37867">
        <ele>1066.8</ele>
        <time>2024-07-13T07:42:52Z</time>
      </trkpt>
      <trkpt lat="42.51374" lon="2.37875">
        <ele>1072</ele>
        <time>2024-07-13T07:43:00Z</time>
      </trkpt>
      <trkpt lat="42.51377" lon="2.37881">
        <ele>1073.6</ele>
        <time>2024-07-13T07:43:07Z</time>
      </trkpt>
      <trkpt lat="42.51378" lon="2.37888">
        <ele>1074.4</ele>
        <time>2024-07-13T07:43:14Z</time>
      </trkpt>
      <trkpt lat="42.51377" lon="2.37893">
        <ele>1074.6</ele>
        <time>2024-07-13T07:43:20Z</time>
      </trkpt>
      <trkpt lat="42.51379" lon="2.37897">
        <ele>1076</ele>
        <time>2024-07-13T07:43:26Z</time>
      </trkpt>
      <trkpt lat="42.51381" lon="2.37899">
        <ele>1078.2</ele>
        <time>2024-07-13T07:43:32Z</time>
      </trkpt>
      <trkpt lat="42.51383" lon="2.37904">
        <ele>1080.8</ele>
        <time>2024-07-13T07:43:39Z</time>
      </trkpt>
      <trkpt lat="42.51385" lon="2.37908">
        <ele>1081.8</ele>
        <time>2024-07-13T07:43:44Z</time>
      </trkpt>
      <trkpt lat="42.51386" lon="2.37909">
        <ele>1082.8</ele>
        <time>2024-07-13T07:43:46Z</time>
      </trkpt>
      <trkpt lat="42.51389" lon="2.37917">
        <ele>1085.2</ele>
        <time>2024-07-13T07:43:52Z</time>
      </trkpt>
      <trkpt lat="42.51391" lon="2.37924">
        <ele>1085.6</ele>
        <time>2024-07-13T07:43:59Z</time>
      </trkpt>
      <trkpt lat="42.51395" lon="2.3793">
        <ele>1088.4</ele>
        <time>2024-07-13T07:44:06Z</time>
      </trkpt>
      <trkpt lat="42.51398" lon="2.37936">
        <ele>1090</ele>
        <time>2024-07-13T07:44:13Z</time>
      </trkpt>
      <trkpt lat="42.51398" lon="2.37943">
        <ele>1090.2</ele>
        <time>2024-07-13T07:44:21Z</time>
      </trkpt>
      <trkpt lat="42.514" lon="2.37945">
        <ele>1090.8</ele>
        <time>2024-07-13T07:44:26Z</time>
      </trkpt>
      <trkpt lat="42.51403" lon="2.3795">
        <ele>1093.8</ele>
        <time>2024-07-13T07:44:33Z</time>
      </trkpt>
      <trkpt lat="42.51407" lon="2.37958">
        <ele>1094.6</ele>
        <time>2024-07-13T07:44:41Z</time>
      </trkpt>
      <trkpt lat="42.51413" lon="2.37965">
        <ele>1095.2</ele>
        <time>2024-07-13T07:44:50Z</time>
      </trkpt>
      <trkpt lat="42.51416" lon="2.37969">
        <ele>1096.2</ele>
        <time>2024-07-13T07:44:57Z</time>
      </trkpt>
      <trkpt lat="42.51421" lon="2.37977">
        <ele>1096.8</ele>
        <time>2024-07-13T07:45:04Z</time>
      </trkpt>
      <trkpt lat="42.51423" lon="2.37981">
        <ele>1097.4</ele>
        <time>2024-07-13T07:45:10Z</time>
      </trkpt>
      <trkpt lat="42.51429" lon="2.37988">
        <ele>1097</ele>
        <time>2024-07-13T07:45:18Z</time>
      </trkpt>
      <trkpt lat="42.51433" lon="2.3799">
        <ele>1097.4</ele>
        <time>2024-07-13T07:45:24Z</time>
      </trkpt>
      <trkpt lat="42.51436" lon="2.37993">
        <ele>1101.4</ele>
        <time>2024-07-13T07:45:31Z</time>
      </trkpt>
      <trkpt lat="42.51439" lon="2.37999">
        <ele>1103.6</ele>
        <time>2024-07-13T07:45:39Z</time>
      </trkpt>
      <trkpt lat="42.51441" lon="2.38003">
        <ele>1103.6</ele>
        <time>2024-07-13T07:45:44Z</time>
      </trkpt>
      <trkpt lat="42.51442" lon="2.38006">
        <ele>1103.8</ele>
        <time>2024-07-13T07:45:51Z</time>
      </trkpt>
      <trkpt lat="42.51445" lon="2.38009">
        <ele>1104.8</ele>
        <time>2024-07-13T07:45:59Z</time>
      </trkpt>
      <trkpt lat="42.51449" lon="2.38016">
        <ele>1106.4</ele>
        <time>2024-07-13T07:46:09Z</time>
      </trkpt>
      <trkpt lat="42.51454" lon="2.38024">
        <ele>1106.2</ele>
        <time>2024-07-13T07:46:16Z</time>
      </trkpt>
      <trkpt lat="42.5146" lon="2.38027">
        <ele>1106.8</ele>
        <time>2024-07-13T07:46:23Z</time>
      </trkpt>
      <trkpt lat="42.51466" lon="2.38028">
        <ele>1109.2</ele>
        <time>2024-07-13T07:46:29Z</time>
      </trkpt>
      <trkpt lat="42.51474" lon="2.38027">
        <ele>1112</ele>
        <time>2024-07-13T07:46:38Z</time>
      </trkpt>
      <trkpt lat="42.5148" lon="2.38023">
        <ele>1114.2</ele>
        <time>2024-07-13T07:46:46Z</time>
      </trkpt>
      <trkpt lat="42.51484" lon="2.38021">
        <ele>1115.2</ele>
        <time>2024-07-13T07:46:51Z</time>
      </trkpt>
      <trkpt lat="42.51488" lon="2.38018">
        <ele>1115.6</ele>
        <time>2024-07-13T07:46:57Z</time>
      </trkpt>
      <trkpt lat="42.51489" lon="2.38016">
        <ele>1115.8</ele>
        <time>2024-07-13T07:46:59Z</time>
      </trkpt>
      <trkpt lat="42.51494" lon="2.38013">
        <ele>1117</ele>
        <time>2024-07-13T07:47:05Z</time>
      </trkpt>
      <trkpt lat="42.51498" lon="2.3801">
        <ele>1117.4</ele>
        <time>2024-07-13T07:47:11Z</time>
      </trkpt>
      <trkpt lat="42.51503" lon="2.38016">
        <ele>1117.8</ele>
        <time>2024-07-13T07:47:19Z</time>
      </trkpt>
      <trkpt lat="42.51503" lon="2.38026">
        <ele>1118.2</ele>
        <time>2024-07-13T07:47:27Z</time>
      </trkpt>
      <trkpt lat="42.51503" lon="2.38027">
        <ele>1118.2</ele>
        <time>2024-07-13T07:47:28Z</time>
      </trkpt>
      <trkpt lat="42.51503" lon="2.38034">
        <ele>1119.6</ele>
        <time>2024-07-13T07:47:33Z</time>
      </trkpt>
      <trkpt lat="42.515" lon="2.38043">
        <ele>1121.2</ele>
        <time>2024-07-13T07:47:41Z</time>
      </trkpt>
      <trkpt lat="42.51499" lon="2.38051">
        <ele>1123</ele>
        <time>2024-07-13T07:47:49Z</time>
      </trkpt>
      <trkpt lat="42.51498" lon="2.3806">
        <ele>1123.8</ele>
        <time>2024-07-13T07:47:56Z</time>
      </trkpt>
      <trkpt lat="42.51498" lon="2.38071">
        <ele>1123.4</ele>
        <time>2024-07-13T07:48:04Z</time>
      </trkpt>
      <trkpt lat="42.51497" lon="2.38078">
        <ele>1123.8</ele>
        <time>2024-07-13T07:48:10Z</time>
      </trkpt>
      <trkpt lat="42.51497" lon="2.38086">
        <ele>1125.2</ele>
        <time>2024-07-13T07:48:17Z</time>
      </trkpt>
      <trkpt lat="42.51497" lon="2.38088">
        <ele>1125.6</ele>
        <time>2024-07-13T07:48:18Z</time>
      </trkpt>
      <trkpt lat="42.51497" lon="2.38093">
        <ele>1127.6</ele>
        <time>2024-07-13T07:48:23Z</time>
      </trkpt>
      <trkpt lat="42.515" lon="2.381">
        <ele>1129</ele>
        <time>2024-07-13T07:48:30Z</time>
      </trkpt>
      <trkpt lat="42.51497" lon="2.38109">
        <ele>1130</ele>
        <time>2024-07-13T07:48:38Z</time>
      </trkpt>
      <trkpt lat="42.51496" lon="2.38111">
        <ele>1130.2</ele>
        <time>2024-07-13T07:48:40Z</time>
      </trkpt>
      <trkpt lat="42.51492" lon="2.38113">
        <ele>1130.8</ele>
        <time>2024-07-13T07:48:44Z</time>
      </trkpt>
      <trkpt lat="42.51485" lon="2.38116">
        <ele>1132</ele>
        <time>2024-07-13T07:48:52Z</time>
      </trkpt>
      <trkpt lat="42.51481" lon="2.38119">
        <ele>1133.8</ele>
        <time>2024-07-13T07:48:58Z</time>
      </trkpt>
      <trkpt lat="42.51474" lon="2.38124">
        <ele>1134.6</ele>
        <time>2024-07-13T07:49:06Z</time>
      </trkpt>
      <trkpt lat="42.51468" lon="2.3813">
        <ele>1135.4</ele>
        <time>2024-07-13T07:49:14Z</time>
      </trkpt>
      <trkpt lat="42.51468" lon="2.38132">
        <ele>1135.4</ele>
        <time>2024-07-13T07:49:16Z</time>
      </trkpt>
      <trkpt lat="42.51468" lon="2.38135">
        <ele>1135.6</ele>
        <time>2024-07-13T07:49:18Z</time>
      </trkpt>
      <trkpt lat="42.51468" lon="2.38139">
        <ele>1135.8</ele>
        <time>2024-07-13T07:49:21Z</time>
      </trkpt>
      <trkpt lat="42.51468" lon="2.38142">
        <ele>1136.4</ele>
        <time>2024-07-13T07:49:23Z</time>
      </trkpt>
      <trkpt lat="42.51468" lon="2.38146">
        <ele>1137</ele>
        <time>2024-07-13T07:49:26Z</time>
      </trkpt>
      <trkpt lat="42.51468" lon="2.38147">
        <ele>1137.2</ele>
        <time>2024-07-13T07:49:27Z</time>
      </trkpt>
      <trkpt lat="42.51468" lon="2.38149">
        <ele>1137.2</ele>
        <time>2024-07-13T07:49:28Z</time>
      </trkpt>
      <trkpt lat="42.51469" lon="2.38154">
        <ele>1137.8</ele>
        <time>2024-07-13T07:49:32Z</time>
      </trkpt>
      <trkpt lat="42.5147" lon="2.38157">
        <ele>1138.2</ele>
        <time>2024-07-13T07:49:34Z</time>
      </trkpt>
      <trkpt lat="42.51472" lon="2.38162">
        <ele>1139.2</ele>
        <time>2024-07-13T07:49:38Z</time>
      </trkpt>
      <trkpt lat="42.51472" lon="2.38164">
        <ele>1139.8</ele>
        <time>2024-07-13T07:49:40Z</time>
      </trkpt>
      <trkpt lat="42.51471" lon="2.38166">
        <ele>1140.4</ele>
        <time>2024-07-13T07:49:42Z</time>
      </trkpt>
      <trkpt lat="42.51471" lon="2.38169">
        <ele>1140.8</ele>
        <time>2024-07-13T07:49:44Z</time>
      </trkpt>
      <trkpt lat="42.51473" lon="2.38179">
        <ele>1145</ele>
        <time>2024-07-13T07:49:52Z</time>
      </trkpt>
      <trkpt lat="42.51473" lon="2.38182">
        <ele>1146</ele>
        <time>2024-07-13T07:49:54Z</time>
      </trkpt>
      <trkpt lat="42.51471" lon="2.38188">
        <ele>1147.6</ele>
        <time>2024-07-13T07:49:58Z</time>
      </trkpt>
      <trkpt lat="42.51471" lon="2.38189">
        <ele>1148</ele>
        <time>2024-07-13T07:49:59Z</time>
      </trkpt>
      <trkpt lat="42.51471" lon="2.38195">
        <ele>1151.2</ele>
        <time>2024-07-13T07:50:04Z</time>
      </trkpt>
      <trkpt lat="42.51472" lon="2.38198">
        <ele>1152.4</ele>
        <time>2024-07-13T07:50:07Z</time>
      </trkpt>
      <trkpt lat="42.51472" lon="2.38202">
        <ele>1152.8</ele>
        <time>2024-07-13T07:50:10Z</time>
      </trkpt>
      <trkpt lat="42.51473" lon="2.38206">
        <ele>1152.8</ele>
        <time>2024-07-13T07:50:13Z</time>
      </trkpt>
      <trkpt lat="42.51473" lon="2.38208">
        <ele>1152.8</ele>
        <time>2024-07-13T07:50:15Z</time>
      </trkpt>
      <trkpt lat="42.51473" lon="2.38209">
        <ele>1153</ele>
        <time>2024-07-13T07:50:16Z</time>
      </trkpt>
      <trkpt lat="42.51473" lon="2.3821">
        <ele>1153</ele>
        <time>2024-07-13T07:50:17Z</time>
      </trkpt>
      <trkpt lat="42.51472" lon="2.38216">
        <ele>1153.6</ele>
        <time>2024-07-13T07:50:22Z</time>
      </trkpt>
      <trkpt lat="42.5147" lon="2.38224">
        <ele>1154.6</ele>
        <time>2024-07-13T07:50:29Z</time>
      </trkpt>
      <trkpt lat="42.51473" lon="2.38236">
        <ele>1155</ele>
        <time>2024-07-13T07:50:37Z</time>
      </trkpt>
      <trkpt lat="42.51468" lon="2.38243">
        <ele>1158.6</ele>
        <time>2024-07-13T07:50:44Z</time>
      </trkpt>
      <trkpt lat="42.51468" lon="2.38249">
        <ele>1160.8</ele>
        <time>2024-07-13T07:50:49Z</time>
      </trkpt>
      <trkpt lat="42.51468" lon="2.38255">
        <ele>1163</ele>
        <time>2024-07-13T07:50:55Z</time>
      </trkpt>
      <trkpt lat="42.51466" lon="2.38262">
        <ele>1162.4</ele>
        <time>2024-07-13T07:51:02Z</time>
      </trkpt>
      <trkpt lat="42.51467" lon="2.38273">
        <ele>1161.8</ele>
        <time>2024-07-13T07:51:10Z</time>
      </trkpt>
      <trkpt lat="42.51465" lon="2.38276">
        <ele>1162.6</ele>
        <time>2024-07-13T07:51:14Z</time>
      </trkpt>
      <trkpt lat="42.51463" lon="2.38285">
        <ele>1162.4</ele>
        <time>2024-07-13T07:51:20Z</time>
      </trkpt>
      <trkpt lat="42.51463" lon="2.38293">
        <ele>1161.6</ele>
        <time>2024-07-13T07:51:26Z</time>
      </trkpt>
      <trkpt lat="42.51463" lon="2.38301">
        <ele>1165</ele>
        <time>2024-07-13T07:51:33Z</time>
      </trkpt>
      <trkpt lat="42.51464" lon="2.3831">
        <ele>1167.6</ele>
        <time>2024-07-13T07:51:40Z</time>
      </trkpt>
      <trkpt lat="42.51464" lon="2.38319">
        <ele>1170.4</ele>
        <time>2024-07-13T07:51:48Z</time>
      </trkpt>
      <trkpt lat="42.51463" lon="2.38324">
        <ele>1171.8</ele>
        <time>2024-07-13T07:51:53Z</time>
      </trkpt>
      <trkpt lat="42.51463" lon="2.38327">
        <ele>1172</ele>
        <time>2024-07-13T07:51:55Z</time>
      </trkpt>
      <trkpt lat="42.51462" lon="2.38334">
        <ele>1172.4</ele>
        <time>2024-07-13T07:52:01Z</time>
      </trkpt>
      <trkpt lat="42.51462" lon="2.38337">
        <ele>1172.6</ele>
        <time>2024-07-13T07:52:03Z</time>
      </trkpt>
      <trkpt lat="42.51459" lon="2.38344">
        <ele>1174</ele>
        <time>2024-07-13T07:52:12Z</time>
      </trkpt>
      <trkpt lat="42.5146" lon="2.38351">
        <ele>1177</ele>
        <time>2024-07-13T07:52:19Z</time>
      </trkpt>
      <trkpt lat="42.51461" lon="2.3836">
        <ele>1179.4</ele>
        <time>2024-07-13T07:52:25Z</time>
      </trkpt>
      <trkpt lat="42.51461" lon="2.38367">
        <ele>1179.8</ele>
        <time>2024-07-13T07:52:31Z</time>
      </trkpt>
      <trkpt lat="42.51462" lon="2.3837">
        <ele>1179.8</ele>
        <time>2024-07-13T07:52:34Z</time>
      </trkpt>
      <trkpt lat="42.51461" lon="2.38371">
        <ele>1179.8</ele>
        <time>2024-07-13T07:52:35Z</time>
      </trkpt>
      <trkpt lat="42.5146" lon="2.38376">
        <ele>1180.2</ele>
        <time>2024-07-13T07:52:38Z</time>
      </trkpt>
      <trkpt lat="42.51461" lon="2.38376">
        <ele>1180.4</ele>
        <time>2024-07-13T07:52:40Z</time>
      </trkpt>
      <trkpt lat="42.51461" lon="2.38385">
        <ele>1180.2</ele>
        <time>2024-07-13T07:52:47Z</time>
      </trkpt>
      <trkpt lat="42.51468" lon="2.38396">
        <ele>1177</ele>
        <time>2024-07-13T07:52:55Z</time>
      </trkpt>
      <trkpt lat="42.51473" lon="2.38405">
        <ele>1178.8</ele>
        <time>2024-07-13T07:53:04Z</time>
      </trkpt>
      <trkpt lat="42.51475" lon="2.38413">
        <ele>1178.2</ele>
        <time>2024-07-13T07:53:10Z</time>
      </trkpt>
      <trkpt lat="42.51477" lon="2.38419">
        <ele>1178</ele>
        <time>2024-07-13T07:53:15Z</time>
      </trkpt>
      <trkpt lat="42.51479" lon="2.38421">
        <ele>1178.2</ele>
        <time>2024-07-13T07:53:17Z</time>
      </trkpt>
      <trkpt lat="42.51485" lon="2.3843">
        <ele>1182.8</ele>
        <time>2024-07-13T07:53:24Z</time>
      </trkpt>
      <trkpt lat="42.51487" lon="2.38435">
        <ele>1184.8</ele>
        <time>2024-07-13T07:53:30Z</time>
      </trkpt>
      <trkpt lat="42.51488" lon="2.38437">
        <ele>1184.8</ele>
        <time>2024-07-13T07:53:31Z</time>
      </trkpt>
      <trkpt lat="42.51491" lon="2.38441">
        <ele>1185</ele>
        <time>2024-07-13T07:53:35Z</time>
      </trkpt>
      <trkpt lat="42.51492" lon="2.38442">
        <ele>1185</ele>
        <time>2024-07-13T07:53:36Z</time>
      </trkpt>
      <trkpt lat="42.51492" lon="2.3845">
        <ele>1187.4</ele>
        <time>2024-07-13T07:53:44Z</time>
      </trkpt>
      <trkpt lat="42.51493" lon="2.38456">
        <ele>1187.8</ele>
        <time>2024-07-13T07:53:48Z</time>
      </trkpt>
      <trkpt lat="42.51495" lon="2.3846">
        <ele>1185.8</ele>
        <time>2024-07-13T07:53:51Z</time>
      </trkpt>
      <trkpt lat="42.51496" lon="2.38466">
        <ele>1183.4</ele>
        <time>2024-07-13T07:53:56Z</time>
      </trkpt>
      <trkpt lat="42.51498" lon="2.3847">
        <ele>1182.6</ele>
        <time>2024-07-13T07:53:59Z</time>
      </trkpt>
      <trkpt lat="42.51499" lon="2.38481">
        <ele>1182.8</ele>
        <time>2024-07-13T07:54:08Z</time>
      </trkpt>
      <trkpt lat="42.51502" lon="2.38488">
        <ele>1184.2</ele>
        <time>2024-07-13T07:54:13Z</time>
      </trkpt>
      <trkpt lat="42.51504" lon="2.38491">
        <ele>1186.2</ele>
        <time>2024-07-13T07:54:16Z</time>
      </trkpt>
      <trkpt lat="42.51506" lon="2.38497">
        <ele>1188.6</ele>
        <time>2024-07-13T07:54:21Z</time>
      </trkpt>
      <trkpt lat="42.51507" lon="2.38498">
        <ele>1189</ele>
        <time>2024-07-13T07:54:23Z</time>
      </trkpt>
      <trkpt lat="42.51509" lon="2.38506">
        <ele>1190.2</ele>
        <time>2024-07-13T07:54:30Z</time>
      </trkpt>
      <trkpt lat="42.51509" lon="2.3851">
        <ele>1190.6</ele>
        <time>2024-07-13T07:54:33Z</time>
      </trkpt>
      <trkpt lat="42.51512" lon="2.38516">
        <ele>1190.4</ele>
        <time>2024-07-13T07:54:38Z</time>
      </trkpt>
      <trkpt lat="42.51515" lon="2.38522">
        <ele>1190.2</ele>
        <time>2024-07-13T07:54:45Z</time>
      </trkpt>
      <trkpt lat="42.51517" lon="2.38528">
        <ele>1191</ele>
        <time>2024-07-13T07:54:51Z</time>
      </trkpt>
      <trkpt lat="42.51515" lon="2.38535">
        <ele>1191.6</ele>
        <time>2024-07-13T07:54:58Z</time>
      </trkpt>
      <trkpt lat="42.51515" lon="2.38544">
        <ele>1192.8</ele>
        <time>2024-07-13T07:55:05Z</time>
      </trkpt>
      <trkpt lat="42.51514" lon="2.38551">
        <ele>1199</ele>
        <time>2024-07-13T07:55:12Z</time>
      </trkpt>
      <trkpt lat="42.51513" lon="2.38562">
        <ele>1202.6</ele>
        <time>2024-07-13T07:55:18Z</time>
      </trkpt>
      <trkpt lat="42.51512" lon="2.38565">
        <ele>1204</ele>
        <time>2024-07-13T07:55:20Z</time>
      </trkpt>
      <trkpt lat="42.51514" lon="2.38572">
        <ele>1207.8</ele>
        <time>2024-07-13T07:55:26Z</time>
      </trkpt>
      <trkpt lat="42.5151" lon="2.38582">
        <ele>1210.6</ele>
        <time>2024-07-13T07:55:32Z</time>
      </trkpt>
      <trkpt lat="42.51509" lon="2.38591">
        <ele>1208.8</ele>
        <time>2024-07-13T07:55:40Z</time>
      </trkpt>
      <trkpt lat="42.51514" lon="2.38603">
        <ele>1213.4</ele>
        <time>2024-07-13T07:55:49Z</time>
      </trkpt>
      <trkpt lat="42.51518" lon="2.38613">
        <ele>1211.8</ele>
        <time>2024-07-13T07:55:57Z</time>
      </trkpt>
      <trkpt lat="42.51518" lon="2.38614">
        <ele>1210.8</ele>
        <time>2024-07-13T07:55:58Z</time>
      </trkpt>
      <trkpt lat="42.51523" lon="2.3862">
        <ele>1205.2</ele>
        <time>2024-07-13T07:56:04Z</time>
      </trkpt>
      <trkpt lat="42.51526" lon="2.38629">
        <ele>1203</ele>
        <time>2024-07-13T07:56:12Z</time>
      </trkpt>
      <trkpt lat="42.51529" lon="2.38632">
        <ele>1205.8</ele>
        <time>2024-07-13T07:56:18Z</time>
      </trkpt>
      <trkpt lat="42.51534" lon="2.38639">
        <ele>1210</ele>
        <time>2024-07-13T07:56:26Z</time>
      </trkpt>
      <trkpt lat="42.51539" lon="2.38647">
        <ele>1211.4</ele>
        <time>2024-07-13T07:56:33Z</time>
      </trkpt>
      <trkpt lat="42.5154" lon="2.38655">
        <ele>1212.2</ele>
        <time>2024-07-13T07:56:39Z</time>
      </trkpt>
      <trkpt lat="42.51541" lon="2.38657">
        <ele>1212.2</ele>
        <time>2024-07-13T07:56:40Z</time>
      </trkpt>
      <trkpt lat="42.51542" lon="2.38665">
        <ele>1212.6</ele>
        <time>2024-07-13T07:56:47Z</time>
      </trkpt>
      <trkpt lat="42.51541" lon="2.38674">
        <ele>1213.8</ele>
        <time>2024-07-13T07:56:54Z</time>
      </trkpt>
      <trkpt lat="42.51537" lon="2.38681">
        <ele>1216</ele>
        <time>2024-07-13T07:57:00Z</time>
      </trkpt>
      <trkpt lat="42.51533" lon="2.38686">
        <ele>1217.8</ele>
        <time>2024-07-13T07:57:04Z</time>
      </trkpt>
      <trkpt lat="42.51529" lon="2.38689">
        <ele>1219.6</ele>
        <time>2024-07-13T07:57:08Z</time>
      </trkpt>
      <trkpt lat="42.51525" lon="2.38691">
        <ele>1220.6</ele>
        <time>2024-07-13T07:57:16Z</time>
      </trkpt>
      <trkpt lat="42.51522" lon="2.3869">
        <ele>1221.4</ele>
        <time>2024-07-13T07:57:21Z</time>
      </trkpt>
      <trkpt lat="42.51521" lon="2.38689">
        <ele>1221.6</ele>
        <time>2024-07-13T07:57:22Z</time>
      </trkpt>
      <trkpt lat="42.51512" lon="2.38684">
        <ele>1223.4</ele>
        <time>2024-07-13T07:57:30Z</time>
      </trkpt>
      <trkpt lat="42.51505" lon="2.38683">
        <ele>1225.8</ele>
        <time>2024-07-13T07:57:36Z</time>
      </trkpt>
      <trkpt lat="42.51505" lon="2.38683">
        <ele>1226.2</ele>
        <time>2024-07-13T07:57:37Z</time>
      </trkpt>
      <trkpt lat="42.51494" lon="2.3868">
        <ele>1228.8</ele>
        <time>2024-07-13T07:57:45Z</time>
      </trkpt>
      <trkpt lat="42.51485" lon="2.38681">
        <ele>1230.8</ele>
        <time>2024-07-13T07:57:53Z</time>
      </trkpt>
      <trkpt lat="42.51479" lon="2.38686">
        <ele>1232.6</ele>
        <time>2024-07-13T07:57:59Z</time>
      </trkpt>
      <trkpt lat="42.51478" lon="2.38687">
        <ele>1233</ele>
        <time>2024-07-13T07:58:01Z</time>
      </trkpt>
      <trkpt lat="42.51472" lon="2.38692">
        <ele>1233.6</ele>
        <time>2024-07-13T07:58:07Z</time>
      </trkpt>
      <trkpt lat="42.5147" lon="2.38692">
        <ele>1233.8</ele>
        <time>2024-07-13T07:58:09Z</time>
      </trkpt>
      <trkpt lat="42.51468" lon="2.38692">
        <ele>1234</ele>
        <time>2024-07-13T07:58:11Z</time>
      </trkpt>
      <trkpt lat="42.51466" lon="2.38693">
        <ele>1233.8</ele>
        <time>2024-07-13T07:58:13Z</time>
      </trkpt>
      <trkpt lat="42.51462" lon="2.38696">
        <ele>1233.2</ele>
        <time>2024-07-13T07:58:16Z</time>
      </trkpt>
      <trkpt lat="42.51456" lon="2.38695">
        <ele>1232.4</ele>
        <time>2024-07-13T07:58:22Z</time>
      </trkpt>
      <trkpt lat="42.51443" lon="2.38697">
        <ele>1234.4</ele>
        <time>2024-07-13T07:58:31Z</time>
      </trkpt>
      <trkpt lat="42.51433" lon="2.38696">
        <ele>1235.2</ele>
        <time>2024-07-13T07:58:38Z</time>
      </trkpt>
      <trkpt lat="42.51431" lon="2.38698">
        <ele>1235</ele>
        <time>2024-07-13T07:58:40Z</time>
      </trkpt>
      <trkpt lat="42.51424" lon="2.38703">
        <ele>1235.4</ele>
        <time>2024-07-13T07:58:46Z</time>
      </trkpt>
      <trkpt lat="42.51413" lon="2.38716">
        <ele>1238</ele>
        <time>2024-07-13T07:58:56Z</time>
      </trkpt>
      <trkpt lat="42.51412" lon="2.38718">
        <ele>1238.6</ele>
        <time>2024-07-13T07:58:58Z</time>
      </trkpt>
      <trkpt lat="42.51409" lon="2.38721">
        <ele>1239</ele>
        <time>2024-07-13T07:59:02Z</time>
      </trkpt>
      <trkpt lat="42.51408" lon="2.38724">
        <ele>1238</ele>
        <time>2024-07-13T07:59:07Z</time>
      </trkpt>
      <trkpt lat="42.51399" lon="2.3873">
        <ele>1237</ele>
        <time>2024-07-13T07:59:14Z</time>
      </trkpt>
      <trkpt lat="42.51395" lon="2.38734">
        <ele>1236.8</ele>
        <time>2024-07-13T07:59:21Z</time>
      </trkpt>
      <trkpt lat="42.51389" lon="2.38742">
        <ele>1237.4</ele>
        <time>2024-07-13T07:59:28Z</time>
      </trkpt>
      <trkpt lat="42.51384" lon="2.38748">
        <ele>1237.6</ele>
        <time>2024-07-13T07:59:34Z</time>
      </trkpt>
      <trkpt lat="42.51379" lon="2.38756">
        <ele>1238</ele>
        <time>2024-07-13T07:59:42Z</time>
      </trkpt>
      <trkpt lat="42.51373" lon="2.38768">
        <ele>1239.2</ele>
        <time>2024-07-13T07:59:50Z</time>
      </trkpt>
      <trkpt lat="42.51371" lon="2.3877">
        <ele>1242.6</ele>
        <time>2024-07-13T07:59:56Z</time>
      </trkpt>
      <trkpt lat="42.51364" lon="2.38774">
        <ele>1242.8</ele>
        <time>2024-07-13T08:00:02Z</time>
      </trkpt>
      <trkpt lat="42.51353" lon="2.38782">
        <ele>1242.6</ele>
        <time>2024-07-13T08:00:08Z</time>
      </trkpt>
      <trkpt lat="42.51347" lon="2.38788">
        <ele>1244.8</ele>
        <time>2024-07-13T08:00:15Z</time>
      </trkpt>
      <trkpt lat="42.51346" lon="2.3879">
        <ele>1245.2</ele>
        <time>2024-07-13T08:00:16Z</time>
      </trkpt>
      <trkpt lat="42.51346" lon="2.38795">
        <ele>1247.4</ele>
        <time>2024-07-13T08:00:21Z</time>
      </trkpt>
      <trkpt lat="42.51342" lon="2.38798">
        <ele>1250</ele>
        <time>2024-07-13T08:00:24Z</time>
      </trkpt>
      <trkpt lat="42.51335" lon="2.38804">
        <ele>1256.8</ele>
        <time>2024-07-13T08:00:32Z</time>
      </trkpt>
      <trkpt lat="42.51327" lon="2.38814">
        <ele>1258.8</ele>
        <time>2024-07-13T08:00:42Z</time>
      </trkpt>
      <trkpt lat="42.51322" lon="2.38823">
        <ele>1260</ele>
        <time>2024-07-13T08:00:52Z</time>
      </trkpt>
      <trkpt lat="42.51314" lon="2.38826">
        <ele>1267</ele>
        <time>2024-07-13T08:01:00Z</time>
      </trkpt>
      <trkpt lat="42.51311" lon="2.38826">
        <ele>1268</ele>
        <time>2024-07-13T08:01:02Z</time>
      </trkpt>
      <trkpt lat="42.51307" lon="2.38827">
        <ele>1268.6</ele>
        <time>2024-07-13T08:01:06Z</time>
      </trkpt>
      <trkpt lat="42.51299" lon="2.38827">
        <ele>1268.2</ele>
        <time>2024-07-13T08:01:14Z</time>
      </trkpt>
      <trkpt lat="42.51292" lon="2.38828">
        <ele>1267.6</ele>
        <time>2024-07-13T08:01:22Z</time>
      </trkpt>
      <trkpt lat="42.51286" lon="2.38833">
        <ele>1266.8</ele>
        <time>2024-07-13T08:01:30Z</time>
      </trkpt>
      <trkpt lat="42.51285" lon="2.38835">
        <ele>1266.6</ele>
        <time>2024-07-13T08:01:34Z</time>
      </trkpt>
      <trkpt lat="42.51282" lon="2.38837">
        <ele>1267</ele>
        <time>2024-07-13T08:01:36Z</time>
      </trkpt>
      <trkpt lat="42.51277" lon="2.38839">
        <ele>1268</ele>
        <time>2024-07-13T08:01:41Z</time>
      </trkpt>
      <trkpt lat="42.51272" lon="2.38845">
        <ele>1266.8</ele>
        <time>2024-07-13T08:01:48Z</time>
      </trkpt>
      <trkpt lat="42.51271" lon="2.38847">
        <ele>1266.6</ele>
        <time>2024-07-13T08:01:50Z</time>
      </trkpt>
      <trkpt lat="42.51269" lon="2.38849">
        <ele>1266.6</ele>
        <time>2024-07-13T08:01:53Z</time>
      </trkpt>
      <trkpt lat="42.51268" lon="2.38852">
        <ele>1266.6</ele>
        <time>2024-07-13T08:01:56Z</time>
      </trkpt>
      <trkpt lat="42.51267" lon="2.38854">
        <ele>1266.6</ele>
        <time>2024-07-13T08:01:58Z</time>
      </trkpt>
      <trkpt lat="42.51267" lon="2.38855">
        <ele>1266.6</ele>
        <time>2024-07-13T08:01:59Z</time>
      </trkpt>
      <trkpt lat="42.51265" lon="2.38857">
        <ele>1267</ele>
        <time>2024-07-13T08:02:01Z</time>
      </trkpt>
      <trkpt lat="42.51264" lon="2.38859">
        <ele>1267.4</ele>
        <time>2024-07-13T08:02:03Z</time>
      </trkpt>
      <trkpt lat="42.51266" lon="2.38861">
        <ele>1267.8</ele>
        <time>2024-07-13T08:02:05Z</time>
      </trkpt>
      <trkpt lat="42.51266" lon="2.38864">
        <ele>1268.4</ele>
        <time>2024-07-13T08:02:07Z</time>
      </trkpt>
      <trkpt lat="42.51264" lon="2.38869">
        <ele>1269.6</ele>
        <time>2024-07-13T08:02:12Z</time>
      </trkpt>
      <trkpt lat="42.51262" lon="2.38872">
        <ele>1270.4</ele>
        <time>2024-07-13T08:02:15Z</time>
      </trkpt>
      <trkpt lat="42.51261" lon="2.38877">
        <ele>1271</ele>
        <time>2024-07-13T08:02:19Z</time>
      </trkpt>
      <trkpt lat="42.5126" lon="2.3888">
        <ele>1271</ele>
        <time>2024-07-13T08:02:22Z</time>
      </trkpt>
      <trkpt lat="42.51259" lon="2.38884">
        <ele>1271.4</ele>
        <time>2024-07-13T08:02:25Z</time>
      </trkpt>
      <trkpt lat="42.51257" lon="2.38889">
        <ele>1272.2</ele>
        <time>2024-07-13T08:02:29Z</time>
      </trkpt>
      <trkpt lat="42.51255" lon="2.38892">
        <ele>1272.6</ele>
        <time>2024-07-13T08:02:31Z</time>
      </trkpt>
      <trkpt lat="42.51249" lon="2.38899">
        <ele>1276</ele>
        <time>2024-07-13T08:02:39Z</time>
      </trkpt>
      <trkpt lat="42.51246" lon="2.38903">
        <ele>1276</ele>
        <time>2024-07-13T08:02:45Z</time>
      </trkpt>
      <trkpt lat="42.51242" lon="2.3891">
        <ele>1275.8</ele>
        <time>2024-07-13T08:02:54Z</time>
      </trkpt>
      <trkpt lat="42.51241" lon="2.38911">
        <ele>1275.8</ele>
        <time>2024-07-13T08:02:55Z</time>
      </trkpt>
      <trkpt lat="42.51236" lon="2.38915">
        <ele>1275.4</ele>
        <time>2024-07-13T08:03:00Z</time>
      </trkpt>
      <trkpt lat="42.5123" lon="2.38919">
        <ele>1276</ele>
        <time>2024-07-13T08:03:06Z</time>
      </trkpt>
      <trkpt lat="42.51224" lon="2.38923">
        <ele>1279.2</ele>
        <time>2024-07-13T08:03:13Z</time>
      </trkpt>
      <trkpt lat="42.51218" lon="2.3893">
        <ele>1279.4</ele>
        <time>2024-07-13T08:03:22Z</time>
      </trkpt>
      <trkpt lat="42.51215" lon="2.38936">
        <ele>1276.4</ele>
        <time>2024-07-13T08:03:28Z</time>
      </trkpt>
      <trkpt lat="42.51212" lon="2.38939">
        <ele>1275.6</ele>
        <time>2024-07-13T08:03:33Z</time>
      </trkpt>
      <trkpt lat="42.51209" lon="2.38943">
        <ele>1277.2</ele>
        <time>2024-07-13T08:03:38Z</time>
      </trkpt>
      <trkpt lat="42.51205" lon="2.38949">
        <ele>1277.2</ele>
        <time>2024-07-13T08:03:46Z</time>
      </trkpt>
      <trkpt lat="42.51194" lon="2.38956">
        <ele>1279</ele>
        <time>2024-07-13T08:03:56Z</time>
      </trkpt>
      <trkpt lat="42.51192" lon="2.38958">
        <ele>1279.8</ele>
        <time>2024-07-13T08:04:01Z</time>
      </trkpt>
      <trkpt lat="42.5119" lon="2.3896">
        <ele>1283.4</ele>
        <time>2024-07-13T08:04:07Z</time>
      </trkpt>
      <trkpt lat="42.51188" lon="2.38962">
        <ele>1289.8</ele>
        <time>2024-07-13T08:04:12Z</time>
      </trkpt>
      <trkpt lat="42.51186" lon="2.38972">
        <ele>1294.4</ele>
        <time>2024-07-13T08:04:20Z</time>
      </trkpt>
      <trkpt lat="42.51181" lon="2.38978">
        <ele>1295.8</ele>
        <time>2024-07-13T08:04:27Z</time>
      </trkpt>
      <trkpt lat="42.51181" lon="2.38981">
        <ele>1295</ele>
        <time>2024-07-13T08:04:32Z</time>
      </trkpt>
      <trkpt lat="42.51178" lon="2.38987">
        <ele>1297.8</ele>
        <time>2024-07-13T08:04:40Z</time>
      </trkpt>
      <trkpt lat="42.51174" lon="2.38992">
        <ele>1299.6</ele>
        <time>2024-07-13T08:04:47Z</time>
      </trkpt>
      <trkpt lat="42.51172" lon="2.38996">
        <ele>1301.8</ele>
        <time>2024-07-13T08:04:53Z</time>
      </trkpt>
      <trkpt lat="42.5117" lon="2.39005">
        <ele>1303.4</ele>
        <time>2024-07-13T08:05:00Z</time>
      </trkpt>
      <trkpt lat="42.51169" lon="2.39009">
        <ele>1303.4</ele>
        <time>2024-07-13T08:05:03Z</time>
      </trkpt>
      <trkpt lat="42.51168" lon="2.39014">
        <ele>1303.4</ele>
        <time>2024-07-13T08:05:06Z</time>
      </trkpt>
      <trkpt lat="42.51169" lon="2.39017">
        <ele>1303.6</ele>
        <time>2024-07-13T08:05:08Z</time>
      </trkpt>
      <trkpt lat="42.51171" lon="2.39027">
        <ele>1304</ele>
        <time>2024-07-13T08:05:12Z</time>
      </trkpt>
      <trkpt lat="42.51168" lon="2.39037">
        <ele>1306.6</ele>
        <time>2024-07-13T08:05:17Z</time>
      </trkpt>
      <trkpt lat="42.51165" lon="2.3904">
        <ele>1306.8</ele>
        <time>2024-07-13T08:05:20Z</time>
      </trkpt>
      <trkpt lat="42.51162" lon="2.39051">
        <ele>1304.6</ele>
        <time>2024-07-13T08:05:26Z</time>
      </trkpt>
      <trkpt lat="42.51156" lon="2.3906">
        <ele>1303</ele>
        <time>2024-07-13T08:05:34Z</time>
      </trkpt>
      <trkpt lat="42.51151" lon="2.39068">
        <ele>1304.4</ele>
        <time>2024-07-13T08:05:41Z</time>
      </trkpt>
      <trkpt lat="42.5115" lon="2.39069">
        <ele>1304.6</ele>
        <time>2024-07-13T08:05:42Z</time>
      </trkpt>
      <trkpt lat="42.51146" lon="2.39072">
        <ele>1304.6</ele>
        <time>2024-07-13T08:05:45Z</time>
      </trkpt>
      <trkpt lat="42.51144" lon="2.39075">
        <ele>1304.8</ele>
        <time>2024-07-13T08:05:47Z</time>
      </trkpt>
      <trkpt lat="42.51144" lon="2.39076">
        <ele>1305</ele>
        <time>2024-07-13T08:05:48Z</time>
      </trkpt>
      <trkpt lat="42.51143" lon="2.3908">
        <ele>1307.8</ele>
        <time>2024-07-13T08:05:53Z</time>
      </trkpt>
      <trkpt lat="42.51142" lon="2.39081">
        <ele>1308.6</ele>
        <time>2024-07-13T08:05:54Z</time>
      </trkpt>
      <trkpt lat="42.5114" lon="2.39081">
        <ele>1312</ele>
        <time>2024-07-13T08:05:59Z</time>
      </trkpt>
      <trkpt lat="42.51139" lon="2.3908">
        <ele>1316.2</ele>
        <time>2024-07-13T08:06:05Z</time>
      </trkpt>
      <trkpt lat="42.51141" lon="2.39082">
        <ele>1318.2</ele>
        <time>2024-07-13T08:06:11Z</time>
      </trkpt>
      <trkpt lat="42.51146" lon="2.39081">
        <ele>1322</ele>
        <time>2024-07-13T08:06:18Z</time>
      </trkpt>
      <trkpt lat="42.51151" lon="2.39082">
        <ele>1323.8</ele>
        <time>2024-07-13T08:06:27Z</time>
      </trkpt>
      <trkpt lat="42.51153" lon="2.39085">
        <ele>1323.8</ele>
        <time>2024-07-13T08:06:34Z</time>
      </trkpt>
      <trkpt lat="42.51158" lon="2.39087">
        <ele>1322.6</ele>
        <time>2024-07-13T08:06:43Z</time>
      </trkpt>
      <trkpt lat="42.51165" lon="2.3909">
        <ele>1322.4</ele>
        <time>2024-07-13T08:06:49Z</time>
      </trkpt>
      <trkpt lat="42.51173" lon="2.39093">
        <ele>1320.2</ele>
        <time>2024-07-13T08:06:58Z</time>
      </trkpt>
      <trkpt lat="42.51174" lon="2.39097">
        <ele>1321</ele>
        <time>2024-07-13T08:07:03Z</time>
      </trkpt>
      <trkpt lat="42.51172" lon="2.39103">
        <ele>1322.6</ele>
        <time>2024-07-13T08:07:09Z</time>
      </trkpt>
      <trkpt lat="42.51168" lon="2.39107">
        <ele>1320.4</ele>
        <time>2024-07-13T08:07:15Z</time>
      </trkpt>
      <trkpt lat="42.51162" lon="2.3911">
        <ele>1320.2</ele>
        <time>2024-07-13T08:07:22Z</time>
      </trkpt>
      <trkpt lat="42.51157" lon="2.39112">
        <ele>1321.2</ele>
        <time>2024-07-13T08:07:29Z</time>
      </trkpt>
      <trkpt lat="42.51151" lon="2.39112">
        <ele>1321</ele>
        <time>2024-07-13T08:07:35Z</time>
      </trkpt>
      <trkpt lat="42.51149" lon="2.39115">
        <ele>1322</ele>
        <time>2024-07-13T08:07:41Z</time>
      </trkpt>
      <trkpt lat="42.51147" lon="2.39118">
        <ele>1323</ele>
        <time>2024-07-13T08:07:47Z</time>
      </trkpt>
      <trkpt lat="42.51142" lon="2.39121">
        <ele>1324.8</ele>
        <time>2024-07-13T08:07:54Z</time>
      </trkpt>
      <trkpt lat="42.51138" lon="2.39123">
        <ele>1322.8</ele>
        <time>2024-07-13T08:08:02Z</time>
      </trkpt>
      <trkpt lat="42.51134" lon="2.39127">
        <ele>1322.4</ele>
        <time>2024-07-13T08:08:09Z</time>
      </trkpt>
      <trkpt lat="42.5113" lon="2.39129">
        <ele>1322.2</ele>
        <time>2024-07-13T08:08:17Z</time>
      </trkpt>
      <trkpt lat="42.51127" lon="2.39129">
        <ele>1323.4</ele>
        <time>2024-07-13T08:08:22Z</time>
      </trkpt>
      <trkpt lat="42.51127" lon="2.39131">
        <ele>1324.8</ele>
        <time>2024-07-13T08:08:29Z</time>
      </trkpt>
      <trkpt lat="42.51127" lon="2.39133">
        <ele>1324</ele>
        <time>2024-07-13T08:08:35Z</time>
      </trkpt>
      <trkpt lat="42.51122" lon="2.39134">
        <ele>1325</ele>
        <time>2024-07-13T08:08:44Z</time>
      </trkpt>
      <trkpt lat="42.51115" lon="2.39136">
        <ele>1327.4</ele>
        <time>2024-07-13T08:08:52Z</time>
      </trkpt>
      <trkpt lat="42.51111" lon="2.39133">
        <ele>1329</ele>
        <time>2024-07-13T08:08:58Z</time>
      </trkpt>
      <trkpt lat="42.51107" lon="2.39135">
        <ele>1331.4</ele>
        <time>2024-07-13T08:09:05Z</time>
      </trkpt>
      <trkpt lat="42.51101" lon="2.39135">
        <ele>1333.4</ele>
        <time>2024-07-13T08:09:12Z</time>
      </trkpt>
      <trkpt lat="42.51096" lon="2.39137">
        <ele>1336</ele>
        <time>2024-07-13T08:09:20Z</time>
      </trkpt>
      <trkpt lat="42.51091" lon="2.39137">
        <ele>1337.8</ele>
        <time>2024-07-13T08:09:27Z</time>
      </trkpt>
      <trkpt lat="42.51087" lon="2.39136">
        <ele>1338.4</ele>
        <time>2024-07-13T08:09:34Z</time>
      </trkpt>
      <trkpt lat="42.51085" lon="2.39137">
        <ele>1337.4</ele>
        <time>2024-07-13T08:09:40Z</time>
      </trkpt>
      <trkpt lat="42.51083" lon="2.3914">
        <ele>1340.2</ele>
        <time>2024-07-13T08:09:47Z</time>
      </trkpt>
      <trkpt lat="42.51079" lon="2.39141">
        <ele>1344.8</ele>
        <time>2024-07-13T08:09:55Z</time>
      </trkpt>
      <trkpt lat="42.51077" lon="2.39142">
        <ele>1347.8</ele>
        <time>2024-07-13T08:10:01Z</time>
      </trkpt>
      <trkpt lat="42.51073" lon="2.39145">
        <ele>1349.8</ele>
        <time>2024-07-13T08:10:09Z</time>
      </trkpt>
      <trkpt lat="42.51074" lon="2.39144">
        <ele>1352</ele>
        <time>2024-07-13T08:10:16Z</time>
      </trkpt>
      <trkpt lat="42.51077" lon="2.39144">
        <ele>1353.6</ele>
        <time>2024-07-13T08:10:21Z</time>
      </trkpt>
      <trkpt lat="42.5108" lon="2.39145">
        <ele>1353</ele>
        <time>2024-07-13T08:10:28Z</time>
      </trkpt>
      <trkpt lat="42.51085" lon="2.39147">
        <ele>1352.8</ele>
        <time>2024-07-13T08:10:35Z</time>
      </trkpt>
      <trkpt lat="42.51088" lon="2.39152">
        <ele>1354.4</ele>
        <time>2024-07-13T08:10:41Z</time>
      </trkpt>
      <trkpt lat="42.51093" lon="2.39158">
        <ele>1354.4</ele>
        <time>2024-07-13T08:10:49Z</time>
      </trkpt>
      <trkpt lat="42.51094" lon="2.39163">
        <ele>1356.8</ele>
        <time>2024-07-13T08:10:56Z</time>
      </trkpt>
      <trkpt lat="42.51089" lon="2.39165">
        <ele>1357</ele>
        <time>2024-07-13T08:11:02Z</time>
      </trkpt>
      <trkpt lat="42.51088" lon="2.39166">
        <ele>1357</ele>
        <time>2024-07-13T08:11:08Z</time>
      </trkpt>
      <trkpt lat="42.51084" lon="2.39167">
        <ele>1361.8</ele>
        <time>2024-07-13T08:11:15Z</time>
      </trkpt>
      <trkpt lat="42.51081" lon="2.39167">
        <ele>1363.4</ele>
        <time>2024-07-13T08:11:20Z</time>
      </trkpt>
      <trkpt lat="42.51077" lon="2.39172">
        <ele>1364</ele>
        <time>2024-07-13T08:11:27Z</time>
      </trkpt>
      <trkpt lat="42.51075" lon="2.39173">
        <ele>1363.6</ele>
        <time>2024-07-13T08:11:32Z</time>
      </trkpt>
      <trkpt lat="42.51076" lon="2.39173">
        <ele>1363</ele>
        <time>2024-07-13T08:11:37Z</time>
      </trkpt>
      <trkpt lat="42.5108" lon="2.39175">
        <ele>1364.6</ele>
        <time>2024-07-13T08:11:43Z</time>
      </trkpt>
      <trkpt lat="42.51083" lon="2.39183">
        <ele>1364</ele>
        <time>2024-07-13T08:11:53Z</time>
      </trkpt>
      <trkpt lat="42.51075" lon="2.39185">
        <ele>1362.6</ele>
        <time>2024-07-13T08:12:02Z</time>
      </trkpt>
      <trkpt lat="42.51076" lon="2.39188">
        <ele>1361.6</ele>
        <time>2024-07-13T08:12:07Z</time>
      </trkpt>
      <trkpt lat="42.51079" lon="2.3919">
        <ele>1360.6</ele>
        <time>2024-07-13T08:12:14Z</time>
      </trkpt>
      <trkpt lat="42.51084" lon="2.39192">
        <ele>1361.8</ele>
        <time>2024-07-13T08:12:21Z</time>
      </trkpt>
      <trkpt lat="42.51088" lon="2.39193">
        <ele>1365</ele>
        <time>2024-07-13T08:12:26Z</time>
      </trkpt>
      <trkpt lat="42.51089" lon="2.39191">
        <ele>1367.2</ele>
        <time>2024-07-13T08:12:29Z</time>
      </trkpt>
      <trkpt lat="42.51091" lon="2.39191">
        <ele>1368.6</ele>
        <time>2024-07-13T08:12:31Z</time>
      </trkpt>
      <trkpt lat="42.51093" lon="2.39192">
        <ele>1369.6</ele>
        <time>2024-07-13T08:12:32Z</time>
      </trkpt>
      <trkpt lat="42.51099" lon="2.3919">
        <ele>1375.2</ele>
        <time>2024-07-13T08:12:37Z</time>
      </trkpt>
      <trkpt lat="42.511" lon="2.39191">
        <ele>1376.8</ele>
        <time>2024-07-13T08:12:39Z</time>
      </trkpt>
      <trkpt lat="42.51103" lon="2.39194">
        <ele>1381.2</ele>
        <time>2024-07-13T08:12:46Z</time>
      </trkpt>
      <trkpt lat="42.51107" lon="2.39196">
        <ele>1384.4</ele>
        <time>2024-07-13T08:12:56Z</time>
      </trkpt>
      <trkpt lat="42.51109" lon="2.392">
        <ele>1385.8</ele>
        <time>2024-07-13T08:13:02Z</time>
      </trkpt>
      <trkpt lat="42.51114" lon="2.39202">
        <ele>1386.4</ele>
        <time>2024-07-13T08:13:10Z</time>
      </trkpt>
      <trkpt lat="42.51118" lon="2.39206">
        <ele>1386.6</ele>
        <time>2024-07-13T08:13:15Z</time>
      </trkpt>
      <trkpt lat="42.51122" lon="2.3921">
        <ele>1385</ele>
        <time>2024-07-13T08:13:22Z</time>
      </trkpt>
      <trkpt lat="42.51129" lon="2.39217">
        <ele>1384.8</ele>
        <time>2024-07-13T08:13:30Z</time>
      </trkpt>
      <trkpt lat="42.51138" lon="2.3922">
        <ele>1383.4</ele>
        <time>2024-07-13T08:13:38Z</time>
      </trkpt>
      <trkpt lat="42.51144" lon="2.39223">
        <ele>1384.8</ele>
        <time>2024-07-13T08:13:45Z</time>
      </trkpt>
      <trkpt lat="42.51147" lon="2.39226">
        <ele>1388.2</ele>
        <time>2024-07-13T08:13:52Z</time>
      </trkpt>
      <trkpt lat="42.51151" lon="2.39229">
        <ele>1389.8</ele>
        <time>2024-07-13T08:14:00Z</time>
      </trkpt>
      <trkpt lat="42.51149" lon="2.39232">
        <ele>1390.8</ele>
        <time>2024-07-13T08:14:06Z</time>
      </trkpt>
      <trkpt lat="42.51147" lon="2.39236">
        <ele>1392.8</ele>
        <time>2024-07-13T08:14:13Z</time>
      </trkpt>
      <trkpt lat="42.51147" lon="2.39239">
        <ele>1395</ele>
        <time>2024-07-13T08:14:20Z</time>
      </trkpt>
      <trkpt lat="42.5115" lon="2.39243">
        <ele>1394.8</ele>
        <time>2024-07-13T08:14:28Z</time>
      </trkpt>
      <trkpt lat="42.5115" lon="2.39244">
        <ele>1395.8</ele>
        <time>2024-07-13T08:14:35Z</time>
      </trkpt>
      <trkpt lat="42.51153" lon="2.39247">
        <ele>1396.8</ele>
        <time>2024-07-13T08:14:41Z</time>
      </trkpt>
      <trkpt lat="42.51153" lon="2.39249">
        <ele>1397.2</ele>
        <time>2024-07-13T08:14:47Z</time>
      </trkpt>
      <trkpt lat="42.51149" lon="2.39251">
        <ele>1397</ele>
        <time>2024-07-13T08:14:55Z</time>
      </trkpt>
      <trkpt lat="42.51144" lon="2.39256">
        <ele>1398</ele>
        <time>2024-07-13T08:15:03Z</time>
      </trkpt>
      <trkpt lat="42.51139" lon="2.39259">
        <ele>1399.2</ele>
        <time>2024-07-13T08:15:12Z</time>
      </trkpt>
      <trkpt lat="42.51135" lon="2.39258">
        <ele>1399.8</ele>
        <time>2024-07-13T08:15:18Z</time>
      </trkpt>
      <trkpt lat="42.51132" lon="2.39259">
        <ele>1403.4</ele>
        <time>2024-07-13T08:15:24Z</time>
      </trkpt>
      <trkpt lat="42.51134" lon="2.39258">
        <ele>1406.6</ele>
        <time>2024-07-13T08:15:29Z</time>
      </trkpt>
      <trkpt lat="42.51135" lon="2.39258">
        <ele>1410</ele>
        <time>2024-07-13T08:15:35Z</time>
      </trkpt>
      <trkpt lat="42.51131" lon="2.39261">
        <ele>1415.2</ele>
        <time>2024-07-13T08:15:42Z</time>
      </trkpt>
      <trkpt lat="42.51129" lon="2.39261">
        <ele>1417.6</ele>
        <time>2024-07-13T08:15:47Z</time>
      </trkpt>
      <trkpt lat="42.51124" lon="2.39265">
        <ele>1420.8</ele>
        <time>2024-07-13T08:15:56Z</time>
      </trkpt>
      <trkpt lat="42.51121" lon="2.39265">
        <ele>1421.6</ele>
        <time>2024-07-13T08:16:02Z</time>
      </trkpt>
      <trkpt lat="42.51117" lon="2.39267">
        <ele>1421.2</ele>
        <time>2024-07-13T08:16:07Z</time>
      </trkpt>
      <trkpt lat="42.51117" lon="2.39268">
        <ele>1419.8</ele>
        <time>2024-07-13T08:16:14Z</time>
      </trkpt>
      <trkpt lat="42.51123" lon="2.39272">
        <ele>1420</ele>
        <time>2024-07-13T08:16:22Z</time>
      </trkpt>
      <trkpt lat="42.51127" lon="2.39273">
        <ele>1419.8</ele>
        <time>2024-07-13T08:16:30Z</time>
      </trkpt>
      <trkpt lat="42.51131" lon="2.39279">
        <ele>1419.6</ele>
        <time>2024-07-13T08:16:36Z</time>
      </trkpt>
      <trkpt lat="42.51135" lon="2.39285">
        <ele>1418.6</ele>
        <time>2024-07-13T08:16:44Z</time>
      </trkpt>
      <trkpt lat="42.5114" lon="2.39288">
        <ele>1417.2</ele>
        <time>2024-07-13T08:16:51Z</time>
      </trkpt>
      <trkpt lat="42.51147" lon="2.3929">
        <ele>1418</ele>
        <time>2024-07-13T08:16:57Z</time>
      </trkpt>
      <trkpt lat="42.51152" lon="2.39297">
        <ele>1419.2</ele>
        <time>2024-07-13T08:17:04Z</time>
      </trkpt>
      <trkpt lat="42.51159" lon="2.39302">
        <ele>1420.8</ele>
        <time>2024-07-13T08:17:12Z</time>
      </trkpt>
      <trkpt lat="42.51155" lon="2.39303">
        <ele>1422.8</ele>
        <time>2024-07-13T08:17:17Z</time>
      </trkpt>
      <trkpt lat="42.51149" lon="2.39308">
        <ele>1423</ele>
        <time>2024-07-13T08:17:25Z</time>
      </trkpt>
      <trkpt lat="42.51155" lon="2.39312">
        <ele>1422.4</ele>
        <time>2024-07-13T08:17:32Z</time>
      </trkpt>
      <trkpt lat="42.51158" lon="2.39319">
        <ele>1423.2</ele>
        <time>2024-07-13T08:17:41Z</time>
      </trkpt>
      <trkpt lat="42.51153" lon="2.39322">
        <ele>1425.4</ele>
        <time>2024-07-13T08:17:48Z</time>
      </trkpt>
      <trkpt lat="42.51148" lon="2.39324">
        <ele>1427.6</ele>
        <time>2024-07-13T08:17:56Z</time>
      </trkpt>
      <trkpt lat="42.51142" lon="2.39324">
        <ele>1428.8</ele>
        <time>2024-07-13T08:18:07Z</time>
      </trkpt>
      <trkpt lat="42.51137" lon="2.39323">
        <ele>1430.4</ele>
        <time>2024-07-13T08:18:13Z</time>
      </trkpt>
      <trkpt lat="42.51131" lon="2.39321">
        <ele>1429.8</ele>
        <time>2024-07-13T08:18:20Z</time>
      </trkpt>
      <trkpt lat="42.51124" lon="2.3932">
        <ele>1430</ele>
        <time>2024-07-13T08:18:27Z</time>
      </trkpt>
      <trkpt lat="42.51118" lon="2.39321">
        <ele>1430.8</ele>
        <time>2024-07-13T08:18:35Z</time>
      </trkpt>
      <trkpt lat="42.51113" lon="2.39322">
        <ele>1432.8</ele>
        <time>2024-07-13T08:18:41Z</time>
      </trkpt>
      <trkpt lat="42.51104" lon="2.39323">
        <ele>1434.8</ele>
        <time>2024-07-13T08:18:50Z</time>
      </trkpt>
      <trkpt lat="42.51098" lon="2.39324">
        <ele>1435.6</ele>
        <time>2024-07-13T08:18:57Z</time>
      </trkpt>
      <trkpt lat="42.51093" lon="2.39326">
        <ele>1440.2</ele>
        <time>2024-07-13T08:19:06Z</time>
      </trkpt>
      <trkpt lat="42.51091" lon="2.39327">
        <ele>1442</ele>
        <time>2024-07-13T08:19:13Z</time>
      </trkpt>
      <trkpt lat="42.51094" lon="2.39327">
        <ele>1444.2</ele>
        <time>2024-07-13T08:19:18Z</time>
      </trkpt>
      <trkpt lat="42.51102" lon="2.39329">
        <ele>1446.4</ele>
        <time>2024-07-13T08:19:26Z</time>
      </trkpt>
      <trkpt lat="42.51108" lon="2.3933">
        <ele>1446.4</ele>
        <time>2024-07-13T08:19:33Z</time>
      </trkpt>
      <trkpt lat="42.51108" lon="2.39336">
        <ele>1446.6</ele>
        <time>2024-07-13T08:19:40Z</time>
      </trkpt>
      <trkpt lat="42.51104" lon="2.3934">
        <ele>1447.2</ele>
        <time>2024-07-13T08:19:47Z</time>
      </trkpt>
      <trkpt lat="42.51099" lon="2.39344">
        <ele>1447.8</ele>
        <time>2024-07-13T08:19:55Z</time>
      </trkpt>
      <trkpt lat="42.51093" lon="2.39346">
        <ele>1449.8</ele>
        <time>2024-07-13T08:20:04Z</time>
      </trkpt>
      <trkpt lat="42.51089" lon="2.39347">
        <ele>1450.4</ele>
        <time>2024-07-13T08:20:10Z</time>
      </trkpt>
      <trkpt lat="42.51086" lon="2.39347">
        <ele>1450.2</ele>
        <time>2024-07-13T08:20:17Z</time>
      </trkpt>
      <trkpt lat="42.51082" lon="2.39347">
        <ele>1451</ele>
        <time>2024-07-13T08:20:23Z</time>
      </trkpt>
      <trkpt lat="42.51082" lon="2.39352">
        <ele>1451.4</ele>
        <time>2024-07-13T08:20:29Z</time>
      </trkpt>
      <trkpt lat="42.5108" lon="2.39349">
        <ele>1451.4</ele>
        <time>2024-07-13T08:20:33Z</time>
      </trkpt>
      <trkpt lat="42.51077" lon="2.39344">
        <ele>1451.4</ele>
        <time>2024-07-13T08:20:41Z</time>
      </trkpt>
      <trkpt lat="42.51075" lon="2.39344">
        <ele>1451.8</ele>
        <time>2024-07-13T08:20:45Z</time>
      </trkpt>
      <trkpt lat="42.5107" lon="2.39349">
        <ele>1453.6</ele>
        <time>2024-07-13T08:20:55Z</time>
      </trkpt>
      <trkpt lat="42.51068" lon="2.39354">
        <ele>1454</ele>
        <time>2024-07-13T08:21:03Z</time>
      </trkpt>
      <trkpt lat="42.51068" lon="2.39355">
        <ele>1454.8</ele>
        <time>2024-07-13T08:21:12Z</time>
      </trkpt>
      <trkpt lat="42.51062" lon="2.39356">
        <ele>1454.6</ele>
        <time>2024-07-13T08:21:30Z</time>
      </trkpt>
      <trkpt lat="42.51052" lon="2.39355">
        <ele>1453.8</ele>
        <time>2024-07-13T08:21:39Z</time>
      </trkpt>
      <trkpt lat="42.51049" lon="2.39355">
        <ele>1456.4</ele>
        <time>2024-07-13T08:21:48Z</time>
      </trkpt>
      <trkpt lat="42.51048" lon="2.39355">
        <ele>1457.4</ele>
        <time>2024-07-13T08:22:12Z</time>
      </trkpt>
      <trkpt lat="42.51037" lon="2.39358">
        <ele>1458.6</ele>
        <time>2024-07-13T08:22:20Z</time>
      </trkpt>
      <trkpt lat="42.51035" lon="2.39359">
        <ele>1459</ele>
        <time>2024-07-13T08:22:21Z</time>
      </trkpt>
      <trkpt lat="42.51032" lon="2.39363">
        <ele>1461.6</ele>
        <time>2024-07-13T08:22:27Z</time>
      </trkpt>
      <trkpt lat="42.51026" lon="2.39365">
        <ele>1463</ele>
        <time>2024-07-13T08:22:34Z</time>
      </trkpt>
      <trkpt lat="42.51017" lon="2.39367">
        <ele>1465.2</ele>
        <time>2024-07-13T08:22:44Z</time>
      </trkpt>
      <trkpt lat="42.51009" lon="2.39367">
        <ele>1465.2</ele>
        <time>2024-07-13T08:22:51Z</time>
      </trkpt>
      <trkpt lat="42.51007" lon="2.39365">
        <ele>1465.2</ele>
        <time>2024-07-13T08:22:53Z</time>
      </trkpt>
      <trkpt lat="42.51007" lon="2.39365">
        <ele>1465.2</ele>
        <time>2024-07-13T08:22:54Z</time>
      </trkpt>
      <trkpt lat="42.50999" lon="2.39363">
        <ele>1462.6</ele>
        <time>2024-07-13T08:23:03Z</time>
      </trkpt>
      <trkpt lat="42.50996" lon="2.39368">
        <ele>1461.4</ele>
        <time>2024-07-13T08:23:08Z</time>
      </trkpt>
      <trkpt lat="42.50995" lon="2.3937">
        <ele>1461.4</ele>
        <time>2024-07-13T08:23:09Z</time>
      </trkpt>
      <trkpt lat="42.50991" lon="2.39376">
        <ele>1461.8</ele>
        <time>2024-07-13T08:23:15Z</time>
      </trkpt>
      <trkpt lat="42.50989" lon="2.39386">
        <ele>1459.4</ele>
        <time>2024-07-13T08:23:23Z</time>
      </trkpt>
      <trkpt lat="42.50986" lon="2.3939">
        <ele>1459.8</ele>
        <time>2024-07-13T08:23:27Z</time>
      </trkpt>
      <trkpt lat="42.50986" lon="2.3939">
        <ele>1460.2</ele>
        <time>2024-07-13T08:23:29Z</time>
      </trkpt>
      <trkpt lat="42.50976" lon="2.39395">
        <ele>1461.8</ele>
        <time>2024-07-13T08:23:36Z</time>
      </trkpt>
      <trkpt lat="42.50973" lon="2.39399">
        <ele>1463</ele>
        <time>2024-07-13T08:23:41Z</time>
      </trkpt>
      <trkpt lat="42.50968" lon="2.39402">
        <ele>1463</ele>
        <time>2024-07-13T08:23:47Z</time>
      </trkpt>
      <trkpt lat="42.50965" lon="2.39408">
        <ele>1462.6</ele>
        <time>2024-07-13T08:23:53Z</time>
      </trkpt>
      <trkpt lat="42.50963" lon="2.39412">
        <ele>1462.4</ele>
        <time>2024-07-13T08:24:00Z</time>
      </trkpt>
      <trkpt lat="42.50957" lon="2.39417">
        <ele>1462.2</ele>
        <time>2024-07-13T08:24:07Z</time>
      </trkpt>
      <trkpt lat="42.50951" lon="2.39421">
        <ele>1461.8</ele>
        <time>2024-07-13T08:24:11Z</time>
      </trkpt>
      <trkpt lat="42.5095" lon="2.39423">
        <ele>1461.8</ele>
        <time>2024-07-13T08:24:12Z</time>
      </trkpt>
      <trkpt lat="42.50948" lon="2.39428">
        <ele>1461</ele>
        <time>2024-07-13T08:24:17Z</time>
      </trkpt>
      <trkpt lat="42.50948" lon="2.39429">
        <ele>1461</ele>
        <time>2024-07-13T08:24:18Z</time>
      </trkpt>
      <trkpt lat="42.50947" lon="2.39431">
        <ele>1460.8</ele>
        <time>2024-07-13T08:24:19Z</time>
      </trkpt>
      <trkpt lat="42.50942" lon="2.39434">
        <ele>1460.4</ele>
        <time>2024-07-13T08:24:23Z</time>
      </trkpt>
      <trkpt lat="42.50944" lon="2.39438">
        <ele>1459.8</ele>
        <time>2024-07-13T08:24:28Z</time>
      </trkpt>
      <trkpt lat="42.50944" lon="2.39442">
        <ele>1459.2</ele>
        <time>2024-07-13T08:24:31Z</time>
      </trkpt>
      <trkpt lat="42.50941" lon="2.39448">
        <ele>1458.6</ele>
        <time>2024-07-13T08:24:35Z</time>
      </trkpt>
      <trkpt lat="42.50941" lon="2.39452">
        <ele>1458.2</ele>
        <time>2024-07-13T08:24:38Z</time>
      </trkpt>
      <trkpt lat="42.50942" lon="2.39457">
        <ele>1458</ele>
        <time>2024-07-13T08:24:41Z</time>
      </trkpt>
      <trkpt lat="42.50942" lon="2.39459">
        <ele>1458</ele>
        <time>2024-07-13T08:24:42Z</time>
      </trkpt>
      <trkpt lat="42.50941" lon="2.39463">
        <ele>1458.4</ele>
        <time>2024-07-13T08:24:45Z</time>
      </trkpt>
      <trkpt lat="42.5094" lon="2.39466">
        <ele>1458.6</ele>
        <time>2024-07-13T08:24:47Z</time>
      </trkpt>
      <trkpt lat="42.5094" lon="2.39471">
        <ele>1458.8</ele>
        <time>2024-07-13T08:24:50Z</time>
      </trkpt>
      <trkpt lat="42.5094" lon="2.39472">
        <ele>1458.8</ele>
        <time>2024-07-13T08:24:51Z</time>
      </trkpt>
      <trkpt lat="42.50937" lon="2.39476">
        <ele>1458.8</ele>
        <time>2024-07-13T08:24:53Z</time>
      </trkpt>
      <trkpt lat="42.50935" lon="2.39479">
        <ele>1459</ele>
        <time>2024-07-13T08:24:55Z</time>
      </trkpt>
      <trkpt lat="42.50934" lon="2.39485">
        <ele>1460.8</ele>
        <time>2024-07-13T08:24:57Z</time>
      </trkpt>
      <trkpt lat="42.50935" lon="2.39486">
        <ele>1461.4</ele>
        <time>2024-07-13T08:24:58Z</time>
      </trkpt>
      <trkpt lat="42.50934" lon="2.39491">
        <ele>1463</ele>
        <time>2024-07-13T08:25:01Z</time>
      </trkpt>
      <trkpt lat="42.50933" lon="2.39495">
        <ele>1463.4</ele>
        <time>2024-07-13T08:25:03Z</time>
      </trkpt>
      <trkpt lat="42.50932" lon="2.39503">
        <ele>1463.8</ele>
        <time>2024-07-13T08:25:07Z</time>
      </trkpt>
      <trkpt lat="42.50931" lon="2.39507">
        <ele>1463.8</ele>
        <time>2024-07-13T08:25:09Z</time>
      </trkpt>
      <trkpt lat="42.50929" lon="2.39511">
        <ele>1464</ele>
        <time>2024-07-13T08:25:12Z</time>
      </trkpt>
      <trkpt lat="42.50927" lon="2.39516">
        <ele>1464.8</ele>
        <time>2024-07-13T08:25:15Z</time>
      </trkpt>
      <trkpt lat="42.50926" lon="2.39518">
        <ele>1465.6</ele>
        <time>2024-07-13T08:25:17Z</time>
      </trkpt>
      <trkpt lat="42.50924" lon="2.39522">
        <ele>1467.2</ele>
        <time>2024-07-13T08:25:20Z</time>
      </trkpt>
      <trkpt lat="42.50922" lon="2.39524">
        <ele>1468</ele>
        <time>2024-07-13T08:25:23Z</time>
      </trkpt>
      <trkpt lat="42.50918" lon="2.39528">
        <ele>1467.8</ele>
        <time>2024-07-13T08:25:27Z</time>
      </trkpt>
      <trkpt lat="42.50918" lon="2.39529">
        <ele>1467.8</ele>
        <time>2024-07-13T08:25:28Z</time>
      </trkpt>
      <trkpt lat="42.50918" lon="2.39531">
        <ele>1467.6</ele>
        <time>2024-07-13T08:25:29Z</time>
      </trkpt>
      <trkpt lat="42.50919" lon="2.39538">
        <ele>1468.2</ele>
        <time>2024-07-13T08:25:34Z</time>
      </trkpt>
      <trkpt lat="42.50916" lon="2.39543">
        <ele>1468.8</ele>
        <time>2024-07-13T08:25:38Z</time>
      </trkpt>
      <trkpt lat="42.50913" lon="2.39545">
        <ele>1468.4</ele>
        <time>2024-07-13T08:25:40Z</time>
      </trkpt>
      <trkpt lat="42.5091" lon="2.39547">
        <ele>1467.4</ele>
        <time>2024-07-13T08:25:42Z</time>
      </trkpt>
      <trkpt lat="42.50909" lon="2.3955">
        <ele>1466.2</ele>
        <time>2024-07-13T08:25:44Z</time>
      </trkpt>
      <trkpt lat="42.50908" lon="2.39553">
        <ele>1465.6</ele>
        <time>2024-07-13T08:25:47Z</time>
      </trkpt>
      <trkpt lat="42.50904" lon="2.3956">
        <ele>1465.4</ele>
        <time>2024-07-13T08:25:50Z</time>
      </trkpt>
      <trkpt lat="42.50899" lon="2.39566">
        <ele>1464.4</ele>
        <time>2024-07-13T08:25:56Z</time>
      </trkpt>
      <trkpt lat="42.50895" lon="2.39573">
        <ele>1463.4</ele>
        <time>2024-07-13T08:26:02Z</time>
      </trkpt>
      <trkpt lat="42.50894" lon="2.39575">
        <ele>1463</ele>
        <time>2024-07-13T08:26:04Z</time>
      </trkpt>
      <trkpt lat="42.50893" lon="2.39575">
        <ele>1462.6</ele>
        <time>2024-07-13T08:26:08Z</time>
      </trkpt>
      <trkpt lat="42.50889" lon="2.39574">
        <ele>1462</ele>
        <time>2024-07-13T08:26:13Z</time>
      </trkpt>
      <trkpt lat="42.50883" lon="2.39571">
        <ele>1461.2</ele>
        <time>2024-07-13T08:26:19Z</time>
      </trkpt>
      <trkpt lat="42.50881" lon="2.39565">
        <ele>1461.8</ele>
        <time>2024-07-13T08:26:26Z</time>
      </trkpt>
      <trkpt lat="42.5088" lon="2.39564">
        <ele>1461.6</ele>
        <time>2024-07-13T08:26:32Z</time>
      </trkpt>
      <trkpt lat="42.50879" lon="2.39562">
        <ele>1461.4</ele>
        <time>2024-07-13T08:26:36Z</time>
      </trkpt>
      <trkpt lat="42.50878" lon="2.39564">
        <ele>1461.6</ele>
        <time>2024-07-13T08:26:40Z</time>
      </trkpt>
      <trkpt lat="42.50877" lon="2.39566">
        <ele>1462.4</ele>
        <time>2024-07-13T08:26:45Z</time>
      </trkpt>
      <trkpt lat="42.50872" lon="2.39566">
        <ele>1463.2</ele>
        <time>2024-07-13T08:26:51Z</time>
      </trkpt>
      <trkpt lat="42.50867" lon="2.39566">
        <ele>1462.8</ele>
        <time>2024-07-13T08:26:57Z</time>
      </trkpt>
      <trkpt lat="42.50863" lon="2.39565">
        <ele>1462.8</ele>
        <time>2024-07-13T08:27:01Z</time>
      </trkpt>
      <trkpt lat="42.50857" lon="2.39566">
        <ele>1463.6</ele>
        <time>2024-07-13T08:27:07Z</time>
      </trkpt>
      <trkpt lat="42.50855" lon="2.39566">
        <ele>1463.8</ele>
        <time>2024-07-13T08:27:13Z</time>
      </trkpt>
      <trkpt lat="42.50851" lon="2.39565">
        <ele>1464</ele>
        <time>2024-07-13T08:27:17Z</time>
      </trkpt>
      <trkpt lat="42.50846" lon="2.39564">
        <ele>1464.6</ele>
        <time>2024-07-13T08:27:24Z</time>
      </trkpt>
      <trkpt lat="42.50836" lon="2.39569">
        <ele>1466.8</ele>
        <time>2024-07-13T08:27:32Z</time>
      </trkpt>
      <trkpt lat="42.50834" lon="2.3957">
        <ele>1468.6</ele>
        <time>2024-07-13T08:27:35Z</time>
      </trkpt>
      <trkpt lat="42.50834" lon="2.39571">
        <ele>1469</ele>
        <time>2024-07-13T08:27:36Z</time>
      </trkpt>
      <trkpt lat="42.50831" lon="2.39572">
        <ele>1469.8</ele>
        <time>2024-07-13T08:27:39Z</time>
      </trkpt>
      <trkpt lat="42.50827" lon="2.39572">
        <ele>1469.8</ele>
        <time>2024-07-13T08:27:42Z</time>
      </trkpt>
      <trkpt lat="42.50821" lon="2.39573">
        <ele>1468.8</ele>
        <time>2024-07-13T08:27:48Z</time>
      </trkpt>
      <trkpt lat="42.5082" lon="2.39573">
        <ele>1468.6</ele>
        <time>2024-07-13T08:27:49Z</time>
      </trkpt>
      <trkpt lat="42.50819" lon="2.39573">
        <ele>1468.6</ele>
        <time>2024-07-13T08:27:50Z</time>
      </trkpt>
      <trkpt lat="42.50817" lon="2.39573">
        <ele>1468.4</ele>
        <time>2024-07-13T08:27:52Z</time>
      </trkpt>
      <trkpt lat="42.50814" lon="2.39574">
        <ele>1468.2</ele>
        <time>2024-07-13T08:27:54Z</time>
      </trkpt>
      <trkpt lat="42.50808" lon="2.39577">
        <ele>1468.2</ele>
        <time>2024-07-13T08:28:00Z</time>
      </trkpt>
      <trkpt lat="42.50804" lon="2.39575">
        <ele>1468.2</ele>
        <time>2024-07-13T08:28:02Z</time>
      </trkpt>
      <trkpt lat="42.508" lon="2.39573">
        <ele>1469</ele>
        <time>2024-07-13T08:28:07Z</time>
      </trkpt>
      <trkpt lat="42.50796" lon="2.39572">
        <ele>1469.4</ele>
        <time>2024-07-13T08:28:12Z</time>
      </trkpt>
      <trkpt lat="42.50787" lon="2.39573">
        <ele>1469.4</ele>
        <time>2024-07-13T08:28:18Z</time>
      </trkpt>
      <trkpt lat="42.50781" lon="2.39572">
        <ele>1470.8</ele>
        <time>2024-07-13T08:28:22Z</time>
      </trkpt>
      <trkpt lat="42.50777" lon="2.39571">
        <ele>1471.2</ele>
        <time>2024-07-13T08:28:24Z</time>
      </trkpt>
      <trkpt lat="42.50768" lon="2.39572">
        <ele>1472.4</ele>
        <time>2024-07-13T08:28:32Z</time>
      </trkpt>
      <trkpt lat="42.50765" lon="2.39572">
        <ele>1473.2</ele>
        <time>2024-07-13T08:28:38Z</time>
      </trkpt>
      <trkpt lat="42.5076" lon="2.39573">
        <ele>1474</ele>
        <time>2024-07-13T08:28:41Z</time>
      </trkpt>
      <trkpt lat="42.50758" lon="2.39575">
        <ele>1475</ele>
        <time>2024-07-13T08:28:43Z</time>
      </trkpt>
      <trkpt lat="42.50757" lon="2.39575">
        <ele>1475.2</ele>
        <time>2024-07-13T08:28:44Z</time>
      </trkpt>
      <trkpt lat="42.50755" lon="2.39575">
        <ele>1475.8</ele>
        <time>2024-07-13T08:28:46Z</time>
      </trkpt>
      <trkpt lat="42.50754" lon="2.39575">
        <ele>1476</ele>
        <time>2024-07-13T08:28:47Z</time>
      </trkpt>
      <trkpt lat="42.50754" lon="2.39576">
        <ele>1476.2</ele>
        <time>2024-07-13T08:28:48Z</time>
      </trkpt>
      <trkpt lat="42.50754" lon="2.39577">
        <ele>1476.4</ele>
        <time>2024-07-13T08:28:50Z</time>
      </trkpt>
      <trkpt lat="42.50753" lon="2.39579">
        <ele>1477.2</ele>
        <time>2024-07-13T08:28:53Z</time>
      </trkpt>
      <trkpt lat="42.50752" lon="2.39579">
        <ele>1477.4</ele>
        <time>2024-07-13T08:28:54Z</time>
      </trkpt>
      <trkpt lat="42.50744" lon="2.39587">
        <ele>1478.2</ele>
        <time>2024-07-13T08:29:00Z</time>
      </trkpt>
      <trkpt lat="42.50743" lon="2.39588">
        <ele>1478.2</ele>
        <time>2024-07-13T08:29:01Z</time>
      </trkpt>
      <trkpt lat="42.50736" lon="2.39594">
        <ele>1479.6</ele>
        <time>2024-07-13T08:29:06Z</time>
      </trkpt>
      <trkpt lat="42.50733" lon="2.39597">
        <ele>1480.6</ele>
        <time>2024-07-13T08:29:12Z</time>
      </trkpt>
      <trkpt lat="42.50725" lon="2.39602">
        <ele>1481</ele>
        <time>2024-07-13T08:29:18Z</time>
      </trkpt>
      <trkpt lat="42.50723" lon="2.39603">
        <ele>1481</ele>
        <time>2024-07-13T08:29:19Z</time>
      </trkpt>
      <trkpt lat="42.50719" lon="2.39602">
        <ele>1481</ele>
        <time>2024-07-13T08:29:21Z</time>
      </trkpt>
      <trkpt lat="42.50714" lon="2.39603">
        <ele>1480.8</ele>
        <time>2024-07-13T08:29:23Z</time>
      </trkpt>
      <trkpt lat="42.50712" lon="2.39604">
        <ele>1480.2</ele>
        <time>2024-07-13T08:29:24Z</time>
      </trkpt>
      <trkpt lat="42.5071" lon="2.39604">
        <ele>1479.4</ele>
        <time>2024-07-13T08:29:25Z</time>
      </trkpt>
      <trkpt lat="42.50706" lon="2.39605">
        <ele>1476.6</ele>
        <time>2024-07-13T08:29:28Z</time>
      </trkpt>
      <trkpt lat="42.50705" lon="2.39605">
        <ele>1475.8</ele>
        <time>2024-07-13T08:29:29Z</time>
      </trkpt>
      <trkpt lat="42.507" lon="2.39602">
        <ele>1474</ele>
        <time>2024-07-13T08:29:33Z</time>
      </trkpt>
      <trkpt lat="42.50696" lon="2.39604">
        <ele>1473.6</ele>
        <time>2024-07-13T08:29:35Z</time>
      </trkpt>
      <trkpt lat="42.50691" lon="2.39603">
        <ele>1473.6</ele>
        <time>2024-07-13T08:29:38Z</time>
      </trkpt>
      <trkpt lat="42.50689" lon="2.39601">
        <ele>1474.6</ele>
        <time>2024-07-13T08:29:41Z</time>
      </trkpt>
      <trkpt lat="42.50683" lon="2.39598">
        <ele>1477</ele>
        <time>2024-07-13T08:29:46Z</time>
      </trkpt>
      <trkpt lat="42.50682" lon="2.39598">
        <ele>1477.2</ele>
        <time>2024-07-13T08:29:47Z</time>
      </trkpt>
      <trkpt lat="42.50679" lon="2.39598">
        <ele>1477.4</ele>
        <time>2024-07-13T08:29:49Z</time>
      </trkpt>
      <trkpt lat="42.50677" lon="2.39593">
        <ele>1477.2</ele>
        <time>2024-07-13T08:29:52Z</time>
      </trkpt>
      <trkpt lat="42.5067" lon="2.39586">
        <ele>1476</ele>
        <time>2024-07-13T08:29:58Z</time>
      </trkpt>
      <trkpt lat="42.50664" lon="2.39586">
        <ele>1476.2</ele>
        <time>2024-07-13T08:30:02Z</time>
      </trkpt>
      <trkpt lat="42.50661" lon="2.39587">
        <ele>1476.8</ele>
        <time>2024-07-13T08:30:05Z</time>
      </trkpt>
      <trkpt lat="42.50659" lon="2.39585">
        <ele>1477.2</ele>
        <time>2024-07-13T08:30:07Z</time>
      </trkpt>
      <trkpt lat="42.50656" lon="2.39584">
        <ele>1477.2</ele>
        <time>2024-07-13T08:30:09Z</time>
      </trkpt>
      <trkpt lat="42.50653" lon="2.39581">
        <ele>1477.4</ele>
        <time>2024-07-13T08:30:11Z</time>
      </trkpt>
      <trkpt lat="42.50652" lon="2.39581">
        <ele>1477.4</ele>
        <time>2024-07-13T08:30:12Z</time>
      </trkpt>
      <trkpt lat="42.5065" lon="2.39578">
        <ele>1477.4</ele>
        <time>2024-07-13T08:30:15Z</time>
      </trkpt>
      <trkpt lat="42.50649" lon="2.39578">
        <ele>1477.2</ele>
        <time>2024-07-13T08:30:16Z</time>
      </trkpt>
      <trkpt lat="42.50647" lon="2.39577">
        <ele>1477.2</ele>
        <time>2024-07-13T08:30:18Z</time>
      </trkpt>
      <trkpt lat="42.50642" lon="2.39575">
        <ele>1477.2</ele>
        <time>2024-07-13T08:30:22Z</time>
      </trkpt>
      <trkpt lat="42.5064" lon="2.39576">
        <ele>1477.4</ele>
        <time>2024-07-13T08:30:24Z</time>
      </trkpt>
      <trkpt lat="42.50637" lon="2.39575">
        <ele>1477.6</ele>
        <time>2024-07-13T08:30:27Z</time>
      </trkpt>
      <trkpt lat="42.50632" lon="2.39576">
        <ele>1476.8</ele>
        <time>2024-07-13T08:30:32Z</time>
      </trkpt>
      <trkpt lat="42.5063" lon="2.39575">
        <ele>1476.6</ele>
        <time>2024-07-13T08:30:33Z</time>
      </trkpt>
      <trkpt lat="42.50623" lon="2.39578">
        <ele>1475.8</ele>
        <time>2024-07-13T08:30:37Z</time>
      </trkpt>
      <trkpt lat="42.50617" lon="2.39578">
        <ele>1474.6</ele>
        <time>2024-07-13T08:30:41Z</time>
      </trkpt>
      <trkpt lat="42.50615" lon="2.39577">
        <ele>1474.2</ele>
        <time>2024-07-13T08:30:43Z</time>
      </trkpt>
      <trkpt lat="42.50611" lon="2.39573">
        <ele>1475.8</ele>
        <time>2024-07-13T08:30:49Z</time>
      </trkpt>
      <trkpt lat="42.50607" lon="2.39568">
        <ele>1477.2</ele>
        <time>2024-07-13T08:30:56Z</time>
      </trkpt>
      <trkpt lat="42.50603" lon="2.39569">
        <ele>1478.4</ele>
        <time>2024-07-13T08:31:01Z</time>
      </trkpt>
      <trkpt lat="42.506" lon="2.39568">
        <ele>1479.4</ele>
        <time>2024-07-13T08:31:06Z</time>
      </trkpt>
      <trkpt lat="42.50598" lon="2.39568">
        <ele>1479.4</ele>
        <time>2024-07-13T08:31:07Z</time>
      </trkpt>
      <trkpt lat="42.5059" lon="2.39567">
        <ele>1479.4</ele>
        <time>2024-07-13T08:31:13Z</time>
      </trkpt>
      <trkpt lat="42.50588" lon="2.39566">
        <ele>1479.2</ele>
        <time>2024-07-13T08:31:15Z</time>
      </trkpt>
      <trkpt lat="42.50586" lon="2.39566">
        <ele>1478.6</ele>
        <time>2024-07-13T08:31:18Z</time>
      </trkpt>
      <trkpt lat="42.50585" lon="2.39563">
        <ele>1479.2</ele>
        <time>2024-07-13T08:31:23Z</time>
      </trkpt>
      <trkpt lat="42.50587" lon="2.39565">
        <ele>1483.4</ele>
        <time>2024-07-13T08:31:28Z</time>
      </trkpt>
      <trkpt lat="42.50589" lon="2.3957">
        <ele>1484</ele>
        <time>2024-07-13T08:31:35Z</time>
      </trkpt>
      <trkpt lat="42.50588" lon="2.39573">
        <ele>1484</ele>
        <time>2024-07-13T08:31:38Z</time>
      </trkpt>
      <trkpt lat="42.50586" lon="2.39578">
        <ele>1483</ele>
        <time>2024-07-13T08:31:44Z</time>
      </trkpt>
      <trkpt lat="42.50588" lon="2.39583">
        <ele>1482</ele>
        <time>2024-07-13T08:31:50Z</time>
      </trkpt>
      <trkpt lat="42.50589" lon="2.39587">
        <ele>1482</ele>
        <time>2024-07-13T08:31:55Z</time>
      </trkpt>
      <trkpt lat="42.50592" lon="2.39593">
        <ele>1482.4</ele>
        <time>2024-07-13T08:32:01Z</time>
      </trkpt>
      <trkpt lat="42.50594" lon="2.39598">
        <ele>1482.8</ele>
        <time>2024-07-13T08:32:05Z</time>
      </trkpt>
      <trkpt lat="42.50597" lon="2.396">
        <ele>1483.4</ele>
        <time>2024-07-13T08:32:07Z</time>
      </trkpt>
      <trkpt lat="42.506" lon="2.39611">
        <ele>1484</ele>
        <time>2024-07-13T08:32:14Z</time>
      </trkpt>
      <trkpt lat="42.506" lon="2.39618">
        <ele>1483.8</ele>
        <time>2024-07-13T08:32:19Z</time>
      </trkpt>
      <trkpt lat="42.50602" lon="2.39622">
        <ele>1482.6</ele>
        <time>2024-07-13T08:32:25Z</time>
      </trkpt>
      <trkpt lat="42.50605" lon="2.39634">
        <ele>1482.6</ele>
        <time>2024-07-13T08:32:32Z</time>
      </trkpt>
      <trkpt lat="42.50605" lon="2.3964">
        <ele>1482.6</ele>
        <time>2024-07-13T08:32:35Z</time>
      </trkpt>
      <trkpt lat="42.50606" lon="2.39642">
        <ele>1481.8</ele>
        <time>2024-07-13T08:32:37Z</time>
      </trkpt>
      <trkpt lat="42.50606" lon="2.39646">
        <ele>1480.6</ele>
        <time>2024-07-13T08:32:40Z</time>
      </trkpt>
      <trkpt lat="42.50606" lon="2.39651">
        <ele>1480</ele>
        <time>2024-07-13T08:32:43Z</time>
      </trkpt>
      <trkpt lat="42.50607" lon="2.39653">
        <ele>1479.8</ele>
        <time>2024-07-13T08:32:45Z</time>
      </trkpt>
      <trkpt lat="42.50607" lon="2.39657">
        <ele>1479.4</ele>
        <time>2024-07-13T08:32:49Z</time>
      </trkpt>
      <trkpt lat="42.50607" lon="2.3966">
        <ele>1480.4</ele>
        <time>2024-07-13T08:32:52Z</time>
      </trkpt>
      <trkpt lat="42.5061" lon="2.39666">
        <ele>1483</ele>
        <time>2024-07-13T08:32:57Z</time>
      </trkpt>
      <trkpt lat="42.50608" lon="2.39669">
        <ele>1485</ele>
        <time>2024-07-13T08:32:59Z</time>
      </trkpt>
      <trkpt lat="42.50607" lon="2.39666">
        <ele>1486.8</ele>
        <time>2024-07-13T08:33:05Z</time>
      </trkpt>
      <trkpt lat="42.50604" lon="2.39659">
        <ele>1486.6</ele>
        <time>2024-07-13T08:33:13Z</time>
      </trkpt>
      <trkpt lat="42.50603" lon="2.39651">
        <ele>1487.8</ele>
        <time>2024-07-13T08:33:21Z</time>
      </trkpt>
      <trkpt lat="42.50601" lon="2.39648">
        <ele>1489.8</ele>
        <time>2024-07-13T08:33:26Z</time>
      </trkpt>
      <trkpt lat="42.50597" lon="2.39643">
        <ele>1491</ele>
        <time>2024-07-13T08:33:32Z</time>
      </trkpt>
      <trkpt lat="42.50595" lon="2.39644">
        <ele>1490.2</ele>
        <time>2024-07-13T08:33:38Z</time>
      </trkpt>
      <trkpt lat="42.50594" lon="2.39652">
        <ele>1491.2</ele>
        <time>2024-07-13T08:33:45Z</time>
      </trkpt>
      <trkpt lat="42.50591" lon="2.39657">
        <ele>1491</ele>
        <time>2024-07-13T08:33:50Z</time>
      </trkpt>
      <trkpt lat="42.50592" lon="2.39667">
        <ele>1492.2</ele>
        <time>2024-07-13T08:33:58Z</time>
      </trkpt>
      <trkpt lat="42.50594" lon="2.39672">
        <ele>1492.8</ele>
        <time>2024-07-13T08:34:03Z</time>
      </trkpt>
      <trkpt lat="42.50595" lon="2.39672">
        <ele>1492.8</ele>
        <time>2024-07-13T08:34:04Z</time>
      </trkpt>
      <trkpt lat="42.50592" lon="2.39676">
        <ele>1492</ele>
        <time>2024-07-13T08:34:10Z</time>
      </trkpt>
      <trkpt lat="42.50591" lon="2.39674">
        <ele>1492</ele>
        <time>2024-07-13T08:34:13Z</time>
      </trkpt>
      <trkpt lat="42.50591" lon="2.39673">
        <ele>1492.2</ele>
        <time>2024-07-13T08:34:15Z</time>
      </trkpt>
      <trkpt lat="42.5059" lon="2.39668">
        <ele>1493.8</ele>
        <time>2024-07-13T08:34:21Z</time>
      </trkpt>
      <trkpt lat="42.50587" lon="2.39666">
        <ele>1494.2</ele>
        <time>2024-07-13T08:34:25Z</time>
      </trkpt>
      <trkpt lat="42.50585" lon="2.39662">
        <ele>1497</ele>
        <time>2024-07-13T08:34:30Z</time>
      </trkpt>
      <trkpt lat="42.50584" lon="2.39657">
        <ele>1498.4</ele>
        <time>2024-07-13T08:34:37Z</time>
      </trkpt>
      <trkpt lat="42.50581" lon="2.39653">
        <ele>1499.6</ele>
        <time>2024-07-13T08:34:42Z</time>
      </trkpt>
      <trkpt lat="42.50575" lon="2.3965">
        <ele>1502.8</ele>
        <time>2024-07-13T08:34:48Z</time>
      </trkpt>
      <trkpt lat="42.50571" lon="2.39651">
        <ele>1503.8</ele>
        <time>2024-07-13T08:34:54Z</time>
      </trkpt>
      <trkpt lat="42.50572" lon="2.39656">
        <ele>1504.6</ele>
        <time>2024-07-13T08:35:00Z</time>
      </trkpt>
      <trkpt lat="42.50572" lon="2.39664">
        <ele>1506.6</ele>
        <time>2024-07-13T08:35:08Z</time>
      </trkpt>
      <trkpt lat="42.50571" lon="2.39661">
        <ele>1507.6</ele>
        <time>2024-07-13T08:35:12Z</time>
      </trkpt>
      <trkpt lat="42.50567" lon="2.39656">
        <ele>1508.8</ele>
        <time>2024-07-13T08:35:19Z</time>
      </trkpt>
      <trkpt lat="42.50565" lon="2.39653">
        <ele>1510.6</ele>
        <time>2024-07-13T08:35:24Z</time>
      </trkpt>
      <trkpt lat="42.50564" lon="2.39649">
        <ele>1511.2</ele>
        <time>2024-07-13T08:35:32Z</time>
      </trkpt>
      <trkpt lat="42.50562" lon="2.39656">
        <ele>1511.2</ele>
        <time>2024-07-13T08:35:40Z</time>
      </trkpt>
      <trkpt lat="42.50559" lon="2.39659">
        <ele>1512.4</ele>
        <time>2024-07-13T08:35:46Z</time>
      </trkpt>
      <trkpt lat="42.50559" lon="2.39653">
        <ele>1513.8</ele>
        <time>2024-07-13T08:35:52Z</time>
      </trkpt>
      <trkpt lat="42.50558" lon="2.39649">
        <ele>1514.6</ele>
        <time>2024-07-13T08:35:58Z</time>
      </trkpt>
      <trkpt lat="42.50555" lon="2.39644">
        <ele>1515.2</ele>
        <time>2024-07-13T08:36:04Z</time>
      </trkpt>
      <trkpt lat="42.50552" lon="2.39639">
        <ele>1516</ele>
        <time>2024-07-13T08:36:10Z</time>
      </trkpt>
      <trkpt lat="42.50547" lon="2.39633">
        <ele>1515.8</ele>
        <time>2024-07-13T08:36:18Z</time>
      </trkpt>
      <trkpt lat="42.50545" lon="2.39627">
        <ele>1515</ele>
        <time>2024-07-13T08:36:26Z</time>
      </trkpt>
      <trkpt lat="42.50542" lon="2.39621">
        <ele>1516.6</ele>
        <time>2024-07-13T08:36:34Z</time>
      </trkpt>
      <trkpt lat="42.50542" lon="2.39618">
        <ele>1518.4</ele>
        <time>2024-07-13T08:36:39Z</time>
      </trkpt>
      <trkpt lat="42.50535" lon="2.39612">
        <ele>1518.8</ele>
        <time>2024-07-13T08:36:46Z</time>
      </trkpt>
      <trkpt lat="42.5053" lon="2.39609">
        <ele>1518.8</ele>
        <time>2024-07-13T08:36:52Z</time>
      </trkpt>
      <trkpt lat="42.5052" lon="2.39616">
        <ele>1519.6</ele>
        <time>2024-07-13T08:37:02Z</time>
      </trkpt>
      <trkpt lat="42.50518" lon="2.39618">
        <ele>1520</ele>
        <time>2024-07-13T08:37:04Z</time>
      </trkpt>
      <trkpt lat="42.50517" lon="2.39619">
        <ele>1520.2</ele>
        <time>2024-07-13T08:37:06Z</time>
      </trkpt>
      <trkpt lat="42.50514" lon="2.39621">
        <ele>1520.6</ele>
        <time>2024-07-13T08:37:09Z</time>
      </trkpt>
      <trkpt lat="42.50511" lon="2.39622">
        <ele>1520.8</ele>
        <time>2024-07-13T08:37:11Z</time>
      </trkpt>
      <trkpt lat="42.5051" lon="2.39622">
        <ele>1521</ele>
        <time>2024-07-13T08:37:12Z</time>
      </trkpt>
      <trkpt lat="42.50505" lon="2.39623">
        <ele>1521.4</ele>
        <time>2024-07-13T08:37:15Z</time>
      </trkpt>
      <trkpt lat="42.50503" lon="2.39622">
        <ele>1522</ele>
        <time>2024-07-13T08:37:17Z</time>
      </trkpt>
      <trkpt lat="42.50502" lon="2.39622">
        <ele>1522.2</ele>
        <time>2024-07-13T08:37:18Z</time>
      </trkpt>
      <trkpt lat="42.50501" lon="2.39622">
        <ele>1522.4</ele>
        <time>2024-07-13T08:37:19Z</time>
      </trkpt>
      <trkpt lat="42.50498" lon="2.39624">
        <ele>1522.8</ele>
        <time>2024-07-13T08:37:24Z</time>
      </trkpt>
      <trkpt lat="42.50495" lon="2.39625">
        <ele>1525.6</ele>
        <time>2024-07-13T08:37:29Z</time>
      </trkpt>
      <trkpt lat="42.50488" lon="2.39632">
        <ele>1531.4</ele>
        <time>2024-07-13T08:37:35Z</time>
      </trkpt>
      <trkpt lat="42.50479" lon="2.39633">
        <ele>1534.2</ele>
        <time>2024-07-13T08:37:41Z</time>
      </trkpt>
      <trkpt lat="42.50478" lon="2.39633">
        <ele>1536.4</ele>
        <time>2024-07-13T08:37:46Z</time>
      </trkpt>
      <trkpt lat="42.50475" lon="2.39636">
        <ele>1536</ele>
        <time>2024-07-13T08:37:51Z</time>
      </trkpt>
      <trkpt lat="42.50467" lon="2.39643">
        <ele>1535.4</ele>
        <time>2024-07-13T08:37:58Z</time>
      </trkpt>
      <trkpt lat="42.50451" lon="2.39647">
        <ele>1536.6</ele>
        <time>2024-07-13T08:38:05Z</time>
      </trkpt>
      <trkpt lat="42.50447" lon="2.39651">
        <ele>1536</ele>
        <time>2024-07-13T08:38:11Z</time>
      </trkpt>
      <trkpt lat="42.50446" lon="2.39652">
        <ele>1536</ele>
        <time>2024-07-13T08:38:13Z</time>
      </trkpt>
      <trkpt lat="42.50443" lon="2.39656">
        <ele>1536.2</ele>
        <time>2024-07-13T08:38:17Z</time>
      </trkpt>
      <trkpt lat="42.50442" lon="2.39657">
        <ele>1536.2</ele>
        <time>2024-07-13T08:38:19Z</time>
      </trkpt>
      <trkpt lat="42.5044" lon="2.39659">
        <ele>1536.4</ele>
        <time>2024-07-13T08:38:23Z</time>
      </trkpt>
      <trkpt lat="42.50435" lon="2.39663">
        <ele>1536.4</ele>
        <time>2024-07-13T08:38:28Z</time>
      </trkpt>
      <trkpt lat="42.50434" lon="2.39666">
        <ele>1537.2</ele>
        <time>2024-07-13T08:38:31Z</time>
      </trkpt>
      <trkpt lat="42.50432" lon="2.39669">
        <ele>1538.2</ele>
        <time>2024-07-13T08:38:34Z</time>
      </trkpt>
      <trkpt lat="42.50431" lon="2.3967">
        <ele>1538.8</ele>
        <time>2024-07-13T08:38:35Z</time>
      </trkpt>
      <trkpt lat="42.50427" lon="2.39673">
        <ele>1542.4</ele>
        <time>2024-07-13T08:38:42Z</time>
      </trkpt>
      <trkpt lat="42.5042" lon="2.39679">
        <ele>1543</ele>
        <time>2024-07-13T08:38:47Z</time>
      </trkpt>
      <trkpt lat="42.50417" lon="2.39684">
        <ele>1543.2</ele>
        <time>2024-07-13T08:38:50Z</time>
      </trkpt>
      <trkpt lat="42.50415" lon="2.39686">
        <ele>1543.2</ele>
        <time>2024-07-13T08:38:52Z</time>
      </trkpt>
      <trkpt lat="42.50411" lon="2.39688">
        <ele>1542.8</ele>
        <time>2024-07-13T08:38:57Z</time>
      </trkpt>
      <trkpt lat="42.50408" lon="2.39692">
        <ele>1543.2</ele>
        <time>2024-07-13T08:39:02Z</time>
      </trkpt>
      <trkpt lat="42.50406" lon="2.39694">
        <ele>1544.6</ele>
        <time>2024-07-13T08:39:05Z</time>
      </trkpt>
      <trkpt lat="42.50404" lon="2.39695">
        <ele>1545.6</ele>
        <time>2024-07-13T08:39:07Z</time>
      </trkpt>
      <trkpt lat="42.50398" lon="2.39693">
        <ele>1548.6</ele>
        <time>2024-07-13T08:39:12Z</time>
      </trkpt>
      <trkpt lat="42.50391" lon="2.39697">
        <ele>1550.6</ele>
        <time>2024-07-13T08:39:18Z</time>
      </trkpt>
      <trkpt lat="42.50386" lon="2.39699">
        <ele>1550.2</ele>
        <time>2024-07-13T08:39:22Z</time>
      </trkpt>
      <trkpt lat="42.50384" lon="2.39701">
        <ele>1549.4</ele>
        <time>2024-07-13T08:39:24Z</time>
      </trkpt>
      <trkpt lat="42.50384" lon="2.39702">
        <ele>1549.2</ele>
        <time>2024-07-13T08:39:25Z</time>
      </trkpt>
      <trkpt lat="42.50381" lon="2.39706">
        <ele>1549</ele>
        <time>2024-07-13T08:39:28Z</time>
      </trkpt>
      <trkpt lat="42.50379" lon="2.39707">
        <ele>1549</ele>
        <time>2024-07-13T08:39:30Z</time>
      </trkpt>
      <trkpt lat="42.50379" lon="2.39711">
        <ele>1549.8</ele>
        <time>2024-07-13T08:39:35Z</time>
      </trkpt>
      <trkpt lat="42.50377" lon="2.39711">
        <ele>1551</ele>
        <time>2024-07-13T08:39:39Z</time>
      </trkpt>
      <trkpt lat="42.50374" lon="2.39713">
        <ele>1551.6</ele>
        <time>2024-07-13T08:39:41Z</time>
      </trkpt>
      <trkpt lat="42.50372" lon="2.39715">
        <ele>1552</ele>
        <time>2024-07-13T08:39:44Z</time>
      </trkpt>
      <trkpt lat="42.50367" lon="2.39719">
        <ele>1552.6</ele>
        <time>2024-07-13T08:39:49Z</time>
      </trkpt>
      <trkpt lat="42.50359" lon="2.39721">
        <ele>1555</ele>
        <time>2024-07-13T08:39:56Z</time>
      </trkpt>
      <trkpt lat="42.50353" lon="2.39727">
        <ele>1557.2</ele>
        <time>2024-07-13T08:40:02Z</time>
      </trkpt>
      <trkpt lat="42.50347" lon="2.39732">
        <ele>1558.8</ele>
        <time>2024-07-13T08:40:08Z</time>
      </trkpt>
      <trkpt lat="42.50345" lon="2.39735">
        <ele>1559</ele>
        <time>2024-07-13T08:40:11Z</time>
      </trkpt>
      <trkpt lat="42.50343" lon="2.39738">
        <ele>1559</ele>
        <time>2024-07-13T08:40:13Z</time>
      </trkpt>
      <trkpt lat="42.50335" lon="2.39747">
        <ele>1557.2</ele>
        <time>2024-07-13T08:40:20Z</time>
      </trkpt>
      <trkpt lat="42.5033" lon="2.39755">
        <ele>1553.4</ele>
        <time>2024-07-13T08:40:27Z</time>
      </trkpt>
      <trkpt lat="42.50326" lon="2.39758">
        <ele>1552.8</ele>
        <time>2024-07-13T08:40:31Z</time>
      </trkpt>
      <trkpt lat="42.50323" lon="2.3976">
        <ele>1553.2</ele>
        <time>2024-07-13T08:40:34Z</time>
      </trkpt>
      <trkpt lat="42.50316" lon="2.39764">
        <ele>1554</ele>
        <time>2024-07-13T08:40:39Z</time>
      </trkpt>
      <trkpt lat="42.50309" lon="2.39766">
        <ele>1556</ele>
        <time>2024-07-13T08:40:44Z</time>
      </trkpt>
      <trkpt lat="42.50305" lon="2.39771">
        <ele>1555.8</ele>
        <time>2024-07-13T08:40:48Z</time>
      </trkpt>
      <trkpt lat="42.50304" lon="2.3977">
        <ele>1556.4</ele>
        <time>2024-07-13T08:40:52Z</time>
      </trkpt>
      <trkpt lat="42.50295" lon="2.39772">
        <ele>1559.8</ele>
        <time>2024-07-13T08:40:59Z</time>
      </trkpt>
      <trkpt lat="42.50292" lon="2.39772">
        <ele>1561.2</ele>
        <time>2024-07-13T08:41:03Z</time>
      </trkpt>
      <trkpt lat="42.50291" lon="2.39772">
        <ele>1561.4</ele>
        <time>2024-07-13T08:41:04Z</time>
      </trkpt>
      <trkpt lat="42.50287" lon="2.39773">
        <ele>1562.8</ele>
        <time>2024-07-13T08:41:09Z</time>
      </trkpt>
      <trkpt lat="42.50286" lon="2.39772">
        <ele>1563.6</ele>
        <time>2024-07-13T08:41:11Z</time>
      </trkpt>
      <trkpt lat="42.50286" lon="2.39773">
        <ele>1564.2</ele>
        <time>2024-07-13T08:41:13Z</time>
      </trkpt>
      <trkpt lat="42.50287" lon="2.39773">
        <ele>1564.4</ele>
        <time>2024-07-13T08:41:14Z</time>
      </trkpt>
      <trkpt lat="42.50285" lon="2.39775">
        <ele>1564.6</ele>
        <time>2024-07-13T08:41:19Z</time>
      </trkpt>
      <trkpt lat="42.50287" lon="2.39774">
        <ele>1564.6</ele>
        <time>2024-07-13T08:41:20Z</time>
      </trkpt>
      <trkpt lat="42.50288" lon="2.39772">
        <ele>1564.6</ele>
        <time>2024-07-13T08:41:22Z</time>
      </trkpt>
      <trkpt lat="42.50289" lon="2.39772">
        <ele>1564.6</ele>
        <time>2024-07-13T08:41:26Z</time>
      </trkpt>
      <trkpt lat="42.50301" lon="2.39769">
        <ele>1565.2</ele>
        <time>2024-07-13T08:41:32Z</time>
      </trkpt>
      <trkpt lat="42.50304" lon="2.39771">
        <ele>1565</ele>
        <time>2024-07-13T08:41:37Z</time>
      </trkpt>
      <trkpt lat="42.50306" lon="2.39771">
        <ele>1567.2</ele>
        <time>2024-07-13T08:41:44Z</time>
      </trkpt>
      <trkpt lat="42.50305" lon="2.39773">
        <ele>1568.4</ele>
        <time>2024-07-13T08:41:49Z</time>
      </trkpt>
      <trkpt lat="42.50308" lon="2.39776">
        <ele>1568.2</ele>
        <time>2024-07-13T08:41:56Z</time>
      </trkpt>
      <trkpt lat="42.50317" lon="2.39782">
        <ele>1566.4</ele>
        <time>2024-07-13T08:42:02Z</time>
      </trkpt>
      <trkpt lat="42.50318" lon="2.39787">
        <ele>1562.4</ele>
        <time>2024-07-13T08:42:07Z</time>
      </trkpt>
      <trkpt lat="42.50319" lon="2.39787">
        <ele>1561.6</ele>
        <time>2024-07-13T08:42:08Z</time>
      </trkpt>
      <trkpt lat="42.50325" lon="2.39789">
        <ele>1559.8</ele>
        <time>2024-07-13T08:42:12Z</time>
      </trkpt>
      <trkpt lat="42.50333" lon="2.39795">
        <ele>1558</ele>
        <time>2024-07-13T08:42:19Z</time>
      </trkpt>
      <trkpt lat="42.50338" lon="2.39799">
        <ele>1556.8</ele>
        <time>2024-07-13T08:42:25Z</time>
      </trkpt>
      <trkpt lat="42.50345" lon="2.39805">
        <ele>1557.2</ele>
        <time>2024-07-13T08:42:34Z</time>
      </trkpt>
      <trkpt lat="42.50351" lon="2.39814">
        <ele>1555.6</ele>
        <time>2024-07-13T08:42:40Z</time>
      </trkpt>
      <trkpt lat="42.50363" lon="2.39821">
        <ele>1553</ele>
        <time>2024-07-13T08:42:47Z</time>
      </trkpt>
      <trkpt lat="42.50362" lon="2.39833">
        <ele>1552.4</ele>
        <time>2024-07-13T08:42:53Z</time>
      </trkpt>
      <trkpt lat="42.50362" lon="2.39841">
        <ele>1550.4</ele>
        <time>2024-07-13T08:42:58Z</time>
      </trkpt>
      <trkpt lat="42.50366" lon="2.39842">
        <ele>1549.6</ele>
        <time>2024-07-13T08:43:00Z</time>
      </trkpt>
      <trkpt lat="42.50369" lon="2.39847">
        <ele>1547.6</ele>
        <time>2024-07-13T08:43:03Z</time>
      </trkpt>
      <trkpt lat="42.50369" lon="2.3985">
        <ele>1546.8</ele>
        <time>2024-07-13T08:43:05Z</time>
      </trkpt>
      <trkpt lat="42.50369" lon="2.3986">
        <ele>1549.2</ele>
        <time>2024-07-13T08:43:11Z</time>
      </trkpt>
      <trkpt lat="42.5037" lon="2.39863">
        <ele>1550.6</ele>
        <time>2024-07-13T08:43:13Z</time>
      </trkpt>
      <trkpt lat="42.50371" lon="2.3987">
        <ele>1553.4</ele>
        <time>2024-07-13T08:43:18Z</time>
      </trkpt>
      <trkpt lat="42.5037" lon="2.39872">
        <ele>1553.8</ele>
        <time>2024-07-13T08:43:19Z</time>
      </trkpt>
      <trkpt lat="42.5037" lon="2.3988">
        <ele>1557.2</ele>
        <time>2024-07-13T08:43:24Z</time>
      </trkpt>
      <trkpt lat="42.50373" lon="2.39886">
        <ele>1561.2</ele>
        <time>2024-07-13T08:43:30Z</time>
      </trkpt>
      <trkpt lat="42.50373" lon="2.3989">
        <ele>1561.6</ele>
        <time>2024-07-13T08:43:32Z</time>
      </trkpt>
      <trkpt lat="42.50372" lon="2.39895">
        <ele>1561.2</ele>
        <time>2024-07-13T08:43:36Z</time>
      </trkpt>
      <trkpt lat="42.50373" lon="2.39895">
        <ele>1561.2</ele>
        <time>2024-07-13T08:43:37Z</time>
      </trkpt>
      <trkpt lat="42.50373" lon="2.39898">
        <ele>1561</ele>
        <time>2024-07-13T08:43:39Z</time>
      </trkpt>
      <trkpt lat="42.50373" lon="2.399">
        <ele>1560.8</ele>
        <time>2024-07-13T08:43:41Z</time>
      </trkpt>
      <trkpt lat="42.50372" lon="2.39901">
        <ele>1560.2</ele>
        <time>2024-07-13T08:43:43Z</time>
      </trkpt>
      <trkpt lat="42.50371" lon="2.39904">
        <ele>1559.2</ele>
        <time>2024-07-13T08:43:46Z</time>
      </trkpt>
      <trkpt lat="42.50374" lon="2.39911">
        <ele>1559.8</ele>
        <time>2024-07-13T08:43:52Z</time>
      </trkpt>
      <trkpt lat="42.50373" lon="2.39915">
        <ele>1559.8</ele>
        <time>2024-07-13T08:43:57Z</time>
      </trkpt>
      <trkpt lat="42.50374" lon="2.39918">
        <ele>1559</ele>
        <time>2024-07-13T08:44:00Z</time>
      </trkpt>
      <trkpt lat="42.50374" lon="2.3992">
        <ele>1558.2</ele>
        <time>2024-07-13T08:44:02Z</time>
      </trkpt>
      <trkpt lat="42.50371" lon="2.39929">
        <ele>1557.8</ele>
        <time>2024-07-13T08:44:08Z</time>
      </trkpt>
      <trkpt lat="42.50372" lon="2.39934">
        <ele>1559.2</ele>
        <time>2024-07-13T08:44:13Z</time>
      </trkpt>
      <trkpt lat="42.50374" lon="2.39942">
        <ele>1560.8</ele>
        <time>2024-07-13T08:44:19Z</time>
      </trkpt>
      <trkpt lat="42.5038" lon="2.39953">
        <ele>1561.4</ele>
        <time>2024-07-13T08:44:26Z</time>
      </trkpt>
      <trkpt lat="42.50379" lon="2.39959">
        <ele>1560.2</ele>
        <time>2024-07-13T08:44:30Z</time>
      </trkpt>
      <trkpt lat="42.50378" lon="2.39961">
        <ele>1560</ele>
        <time>2024-07-13T08:44:32Z</time>
      </trkpt>
      <trkpt lat="42.50378" lon="2.39967">
        <ele>1562.6</ele>
        <time>2024-07-13T08:44:39Z</time>
      </trkpt>
      <trkpt lat="42.50383" lon="2.3997">
        <ele>1564.2</ele>
        <time>2024-07-13T08:44:42Z</time>
      </trkpt>
      <trkpt lat="42.50383" lon="2.39971">
        <ele>1564.6</ele>
        <time>2024-07-13T08:44:43Z</time>
      </trkpt>
      <trkpt lat="42.50381" lon="2.39976">
        <ele>1566.6</ele>
        <time>2024-07-13T08:44:47Z</time>
      </trkpt>
      <trkpt lat="42.50379" lon="2.39979">
        <ele>1567.6</ele>
        <time>2024-07-13T08:44:50Z</time>
      </trkpt>
      <trkpt lat="42.50377" lon="2.39988">
        <ele>1569</ele>
        <time>2024-07-13T08:44:56Z</time>
      </trkpt>
      <trkpt lat="42.50373" lon="2.39999">
        <ele>1572.4</ele>
        <time>2024-07-13T08:45:02Z</time>
      </trkpt>
      <trkpt lat="42.50373" lon="2.40002">
        <ele>1573</ele>
        <time>2024-07-13T08:45:03Z</time>
      </trkpt>
      <trkpt lat="42.50371" lon="2.40004">
        <ele>1574.2</ele>
        <time>2024-07-13T08:45:06Z</time>
      </trkpt>
      <trkpt lat="42.5037" lon="2.40007">
        <ele>1575.4</ele>
        <time>2024-07-13T08:45:08Z</time>
      </trkpt>
      <trkpt lat="42.50368" lon="2.40011">
        <ele>1577.4</ele>
        <time>2024-07-13T08:45:12Z</time>
      </trkpt>
      <trkpt lat="42.50366" lon="2.40012">
        <ele>1578.4</ele>
        <time>2024-07-13T08:45:15Z</time>
      </trkpt>
      <trkpt lat="42.50366" lon="2.40014">
        <ele>1579</ele>
        <time>2024-07-13T08:45:18Z</time>
      </trkpt>
      <trkpt lat="42.50361" lon="2.40021">
        <ele>1579.2</ele>
        <time>2024-07-13T08:45:23Z</time>
      </trkpt>
      <trkpt lat="42.5036" lon="2.40023">
        <ele>1579</ele>
        <time>2024-07-13T08:45:24Z</time>
      </trkpt>
      <trkpt lat="42.50358" lon="2.40025">
        <ele>1578.6</ele>
        <time>2024-07-13T08:45:29Z</time>
      </trkpt>
      <trkpt lat="42.50354" lon="2.40028">
        <ele>1577.8</ele>
        <time>2024-07-13T08:45:34Z</time>
      </trkpt>
      <trkpt lat="42.50353" lon="2.40031">
        <ele>1577.6</ele>
        <time>2024-07-13T08:45:36Z</time>
      </trkpt>
      <trkpt lat="42.50354" lon="2.40034">
        <ele>1577.6</ele>
        <time>2024-07-13T08:45:40Z</time>
      </trkpt>
      <trkpt lat="42.50353" lon="2.40036">
        <ele>1579.8</ele>
        <time>2024-07-13T08:45:44Z</time>
      </trkpt>
      <trkpt lat="42.50349" lon="2.4004">
        <ele>1581.4</ele>
        <time>2024-07-13T08:45:47Z</time>
      </trkpt>
      <trkpt lat="42.50342" lon="2.40044">
        <ele>1582.4</ele>
        <time>2024-07-13T08:45:54Z</time>
      </trkpt>
      <trkpt lat="42.50343" lon="2.40047">
        <ele>1582.6</ele>
        <time>2024-07-13T08:45:57Z</time>
      </trkpt>
      <trkpt lat="42.50342" lon="2.40048">
        <ele>1583.4</ele>
        <time>2024-07-13T08:45:59Z</time>
      </trkpt>
      <trkpt lat="42.50341" lon="2.4005">
        <ele>1583.8</ele>
        <time>2024-07-13T08:46:00Z</time>
      </trkpt>
      <trkpt lat="42.5034" lon="2.40052">
        <ele>1585.8</ele>
        <time>2024-07-13T08:46:04Z</time>
      </trkpt>
      <trkpt lat="42.50335" lon="2.40055">
        <ele>1588.8</ele>
        <time>2024-07-13T08:46:11Z</time>
      </trkpt>
      <trkpt lat="42.50333" lon="2.40062">
        <ele>1592.6</ele>
        <time>2024-07-13T08:46:18Z</time>
      </trkpt>
      <trkpt lat="42.50333" lon="2.40063">
        <ele>1593</ele>
        <time>2024-07-13T08:46:19Z</time>
      </trkpt>
      <trkpt lat="42.50332" lon="2.40067">
        <ele>1596.2</ele>
        <time>2024-07-13T08:46:24Z</time>
      </trkpt>
      <trkpt lat="42.50331" lon="2.40069">
        <ele>1596.6</ele>
        <time>2024-07-13T08:46:25Z</time>
      </trkpt>
      <trkpt lat="42.50331" lon="2.40071">
        <ele>1597</ele>
        <time>2024-07-13T08:46:27Z</time>
      </trkpt>
      <trkpt lat="42.50328" lon="2.40073">
        <ele>1597.4</ele>
        <time>2024-07-13T08:46:30Z</time>
      </trkpt>
      <trkpt lat="42.50324" lon="2.40078">
        <ele>1597.2</ele>
        <time>2024-07-13T08:46:35Z</time>
      </trkpt>
      <trkpt lat="42.50321" lon="2.40082">
        <ele>1599.2</ele>
        <time>2024-07-13T08:46:40Z</time>
      </trkpt>
      <trkpt lat="42.50317" lon="2.40087">
        <ele>1601</ele>
        <time>2024-07-13T08:46:46Z</time>
      </trkpt>
      <trkpt lat="42.50313" lon="2.4009">
        <ele>1601.2</ele>
        <time>2024-07-13T08:46:49Z</time>
      </trkpt>
      <trkpt lat="42.50313" lon="2.40093">
        <ele>1600.4</ele>
        <time>2024-07-13T08:46:53Z</time>
      </trkpt>
      <trkpt lat="42.50309" lon="2.40099">
        <ele>1600.8</ele>
        <time>2024-07-13T08:47:00Z</time>
      </trkpt>
      <trkpt lat="42.50307" lon="2.40101">
        <ele>1601</ele>
        <time>2024-07-13T08:47:02Z</time>
      </trkpt>
      <trkpt lat="42.50306" lon="2.40102">
        <ele>1601.2</ele>
        <time>2024-07-13T08:47:04Z</time>
      </trkpt>
      <trkpt lat="42.50306" lon="2.40105">
        <ele>1598.6</ele>
        <time>2024-07-13T08:47:10Z</time>
      </trkpt>
      <trkpt lat="42.50301" lon="2.40107">
        <ele>1597.4</ele>
        <time>2024-07-13T08:47:16Z</time>
      </trkpt>
      <trkpt lat="42.50296" lon="2.40114">
        <ele>1595.8</ele>
        <time>2024-07-13T08:47:22Z</time>
      </trkpt>
      <trkpt lat="42.50293" lon="2.40121">
        <ele>1597</ele>
        <time>2024-07-13T08:47:29Z</time>
      </trkpt>
      <trkpt lat="42.5029" lon="2.40128">
        <ele>1599.2</ele>
        <time>2024-07-13T08:47:37Z</time>
      </trkpt>
      <trkpt lat="42.50288" lon="2.40133">
        <ele>1600.2</ele>
        <time>2024-07-13T08:47:42Z</time>
      </trkpt>
      <trkpt lat="42.50282" lon="2.4014">
        <ele>1600.6</ele>
        <time>2024-07-13T08:47:47Z</time>
      </trkpt>
      <trkpt lat="42.50278" lon="2.40141">
        <ele>1602.2</ele>
        <time>2024-07-13T08:47:52Z</time>
      </trkpt>
      <trkpt lat="42.50273" lon="2.40146">
        <ele>1604.8</ele>
        <time>2024-07-13T08:47:59Z</time>
      </trkpt>
      <trkpt lat="42.50272" lon="2.40149">
        <ele>1605</ele>
        <time>2024-07-13T08:48:01Z</time>
      </trkpt>
      <trkpt lat="42.50266" lon="2.40154">
        <ele>1605.6</ele>
        <time>2024-07-13T08:48:05Z</time>
      </trkpt>
      <trkpt lat="42.50257" lon="2.40159">
        <ele>1607.8</ele>
        <time>2024-07-13T08:48:12Z</time>
      </trkpt>
      <trkpt lat="42.50256" lon="2.40159">
        <ele>1608.2</ele>
        <time>2024-07-13T08:48:13Z</time>
      </trkpt>
      <trkpt lat="42.50256" lon="2.40161">
        <ele>1608.8</ele>
        <time>2024-07-13T08:48:16Z</time>
      </trkpt>
      <trkpt lat="42.50254" lon="2.40164">
        <ele>1610.8</ele>
        <time>2024-07-13T08:48:20Z</time>
      </trkpt>
      <trkpt lat="42.50245" lon="2.40167">
        <ele>1614.8</ele>
        <time>2024-07-13T08:48:27Z</time>
      </trkpt>
      <trkpt lat="42.50242" lon="2.40168">
        <ele>1614.8</ele>
        <time>2024-07-13T08:48:30Z</time>
      </trkpt>
      <trkpt lat="42.50239" lon="2.40171">
        <ele>1614.4</ele>
        <time>2024-07-13T08:48:32Z</time>
      </trkpt>
      <trkpt lat="42.50236" lon="2.40176">
        <ele>1614.2</ele>
        <time>2024-07-13T08:48:35Z</time>
      </trkpt>
      <trkpt lat="42.50235" lon="2.40179">
        <ele>1614.4</ele>
        <time>2024-07-13T08:48:37Z</time>
      </trkpt>
      <trkpt lat="42.5023" lon="2.40182">
        <ele>1615.6</ele>
        <time>2024-07-13T08:48:40Z</time>
      </trkpt>
      <trkpt lat="42.50228" lon="2.40182">
        <ele>1616.6</ele>
        <time>2024-07-13T08:48:42Z</time>
      </trkpt>
      <trkpt lat="42.50225" lon="2.40184">
        <ele>1617.4</ele>
        <time>2024-07-13T08:48:45Z</time>
      </trkpt>
      <trkpt lat="42.50224" lon="2.40184">
        <ele>1617.6</ele>
        <time>2024-07-13T08:48:46Z</time>
      </trkpt>
      <trkpt lat="42.50217" lon="2.40191">
        <ele>1614.4</ele>
        <time>2024-07-13T08:48:52Z</time>
      </trkpt>
      <trkpt lat="42.50217" lon="2.40191">
        <ele>1613.4</ele>
        <time>2024-07-13T08:48:53Z</time>
      </trkpt>
      <trkpt lat="42.50212" lon="2.40196">
        <ele>1610</ele>
        <time>2024-07-13T08:49:00Z</time>
      </trkpt>
      <trkpt lat="42.5021" lon="2.40203">
        <ele>1610.8</ele>
        <time>2024-07-13T08:49:05Z</time>
      </trkpt>
      <trkpt lat="42.5021" lon="2.40204">
        <ele>1611</ele>
        <time>2024-07-13T08:49:06Z</time>
      </trkpt>
      <trkpt lat="42.50205" lon="2.40207">
        <ele>1612.4</ele>
        <time>2024-07-13T08:49:10Z</time>
      </trkpt>
      <trkpt lat="42.50197" lon="2.40214">
        <ele>1616.2</ele>
        <time>2024-07-13T08:49:17Z</time>
      </trkpt>
      <trkpt lat="42.50194" lon="2.40218">
        <ele>1617</ele>
        <time>2024-07-13T08:49:21Z</time>
      </trkpt>
      <trkpt lat="42.50193" lon="2.40221">
        <ele>1617.2</ele>
        <time>2024-07-13T08:49:22Z</time>
      </trkpt>
      <trkpt lat="42.50193" lon="2.40222">
        <ele>1617.2</ele>
        <time>2024-07-13T08:49:23Z</time>
      </trkpt>
      <trkpt lat="42.5019" lon="2.40225">
        <ele>1617.4</ele>
        <time>2024-07-13T08:49:26Z</time>
      </trkpt>
      <trkpt lat="42.50187" lon="2.40227">
        <ele>1617.4</ele>
        <time>2024-07-13T08:49:29Z</time>
      </trkpt>
      <trkpt lat="42.50182" lon="2.40233">
        <ele>1616.4</ele>
        <time>2024-07-13T08:49:33Z</time>
      </trkpt>
      <trkpt lat="42.50181" lon="2.40234">
        <ele>1615.8</ele>
        <time>2024-07-13T08:49:34Z</time>
      </trkpt>
      <trkpt lat="42.50178" lon="2.40235">
        <ele>1615</ele>
        <time>2024-07-13T08:49:36Z</time>
      </trkpt>
      <trkpt lat="42.50176" lon="2.40237">
        <ele>1614.6</ele>
        <time>2024-07-13T08:49:38Z</time>
      </trkpt>
      <trkpt lat="42.50172" lon="2.40241">
        <ele>1615.2</ele>
        <time>2024-07-13T08:49:45Z</time>
      </trkpt>
      <trkpt lat="42.50165" lon="2.40247">
        <ele>1614</ele>
        <time>2024-07-13T08:49:52Z</time>
      </trkpt>
      <trkpt lat="42.50164" lon="2.40248">
        <ele>1613.6</ele>
        <time>2024-07-13T08:49:53Z</time>
      </trkpt>
      <trkpt lat="42.50162" lon="2.4025">
        <ele>1613.2</ele>
        <time>2024-07-13T08:49:55Z</time>
      </trkpt>
      <trkpt lat="42.50161" lon="2.40253">
        <ele>1613</ele>
        <time>2024-07-13T08:49:58Z</time>
      </trkpt>
      <trkpt lat="42.50158" lon="2.40256">
        <ele>1615</ele>
        <time>2024-07-13T08:50:03Z</time>
      </trkpt>
      <trkpt lat="42.50152" lon="2.40258">
        <ele>1615.8</ele>
        <time>2024-07-13T08:50:09Z</time>
      </trkpt>
      <trkpt lat="42.5015" lon="2.40258">
        <ele>1615</ele>
        <time>2024-07-13T08:50:14Z</time>
      </trkpt>
      <trkpt lat="42.50145" lon="2.40258">
        <ele>1615</ele>
        <time>2024-07-13T08:50:20Z</time>
      </trkpt>
      <trkpt lat="42.50137" lon="2.4026">
        <ele>1615.4</ele>
        <time>2024-07-13T08:50:27Z</time>
      </trkpt>
      <trkpt lat="42.50133" lon="2.40265">
        <ele>1616.2</ele>
        <time>2024-07-13T08:50:34Z</time>
      </trkpt>
      <trkpt lat="42.50129" lon="2.4027">
        <ele>1619.2</ele>
        <time>2024-07-13T08:50:40Z</time>
      </trkpt>
      <trkpt lat="42.50125" lon="2.40271">
        <ele>1621.8</ele>
        <time>2024-07-13T08:50:46Z</time>
      </trkpt>
      <trkpt lat="42.5012" lon="2.40272">
        <ele>1622.2</ele>
        <time>2024-07-13T08:50:51Z</time>
      </trkpt>
      <trkpt lat="42.50114" lon="2.40276">
        <ele>1623.6</ele>
        <time>2024-07-13T08:50:59Z</time>
      </trkpt>
      <trkpt lat="42.50109" lon="2.40279">
        <ele>1624.2</ele>
        <time>2024-07-13T08:51:04Z</time>
      </trkpt>
      <trkpt lat="42.50104" lon="2.40281">
        <ele>1624.6</ele>
        <time>2024-07-13T08:51:08Z</time>
      </trkpt>
      <trkpt lat="42.50102" lon="2.40285">
        <ele>1625.2</ele>
        <time>2024-07-13T08:51:12Z</time>
      </trkpt>
      <trkpt lat="42.50099" lon="2.40288">
        <ele>1626.2</ele>
        <time>2024-07-13T08:51:16Z</time>
      </trkpt>
      <trkpt lat="42.50091" lon="2.40292">
        <ele>1625.8</ele>
        <time>2024-07-13T08:51:23Z</time>
      </trkpt>
      <trkpt lat="42.50089" lon="2.40296">
        <ele>1625.2</ele>
        <time>2024-07-13T08:51:29Z</time>
      </trkpt>
      <trkpt lat="42.50084" lon="2.40297">
        <ele>1625.2</ele>
        <time>2024-07-13T08:51:34Z</time>
      </trkpt>
      <trkpt lat="42.50078" lon="2.40299">
        <ele>1626</ele>
        <time>2024-07-13T08:51:39Z</time>
      </trkpt>
      <trkpt lat="42.50076" lon="2.40303">
        <ele>1627.2</ele>
        <time>2024-07-13T08:51:44Z</time>
      </trkpt>
      <trkpt lat="42.50062" lon="2.40306">
        <ele>1627.6</ele>
        <time>2024-07-13T08:51:52Z</time>
      </trkpt>
      <trkpt lat="42.50062" lon="2.40311">
        <ele>1626.6</ele>
        <time>2024-07-13T08:51:59Z</time>
      </trkpt>
      <trkpt lat="42.50051" lon="2.4032">
        <ele>1628.4</ele>
        <time>2024-07-13T08:52:05Z</time>
      </trkpt>
      <trkpt lat="42.50051" lon="2.40322">
        <ele>1629</ele>
        <time>2024-07-13T08:52:06Z</time>
      </trkpt>
      <trkpt lat="42.50048" lon="2.40332">
        <ele>1632.4</ele>
        <time>2024-07-13T08:52:12Z</time>
      </trkpt>
      <trkpt lat="42.50048" lon="2.40333">
        <ele>1634</ele>
        <time>2024-07-13T08:52:14Z</time>
      </trkpt>
      <trkpt lat="42.50046" lon="2.40336">
        <ele>1635.4</ele>
        <time>2024-07-13T08:52:16Z</time>
      </trkpt>
      <trkpt lat="42.50044" lon="2.40338">
        <ele>1635.8</ele>
        <time>2024-07-13T08:52:17Z</time>
      </trkpt>
      <trkpt lat="42.50041" lon="2.40341">
        <ele>1638</ele>
        <time>2024-07-13T08:52:21Z</time>
      </trkpt>
      <trkpt lat="42.5004" lon="2.40342">
        <ele>1638.4</ele>
        <time>2024-07-13T08:52:22Z</time>
      </trkpt>
      <trkpt lat="42.50036" lon="2.40342">
        <ele>1639</ele>
        <time>2024-07-13T08:52:24Z</time>
      </trkpt>
      <trkpt lat="42.50033" lon="2.40342">
        <ele>1639.4</ele>
        <time>2024-07-13T08:52:27Z</time>
      </trkpt>
      <trkpt lat="42.50032" lon="2.40342">
        <ele>1639.2</ele>
        <time>2024-07-13T08:52:30Z</time>
      </trkpt>
      <trkpt lat="42.50032" lon="2.40342">
        <ele>1639.2</ele>
        <time>2024-07-13T08:52:31Z</time>
      </trkpt>
      <trkpt lat="42.50029" lon="2.40343">
        <ele>1639.2</ele>
        <time>2024-07-13T08:52:34Z</time>
      </trkpt>
      <trkpt lat="42.50028" lon="2.40343">
        <ele>1639.2</ele>
        <time>2024-07-13T08:52:36Z</time>
      </trkpt>
      <trkpt lat="42.50027" lon="2.40348">
        <ele>1639.2</ele>
        <time>2024-07-13T08:52:41Z</time>
      </trkpt>
      <trkpt lat="42.50025" lon="2.40351">
        <ele>1640.2</ele>
        <time>2024-07-13T08:52:46Z</time>
      </trkpt>
      <trkpt lat="42.50024" lon="2.40355">
        <ele>1642.4</ele>
        <time>2024-07-13T08:52:51Z</time>
      </trkpt>
      <trkpt lat="42.50017" lon="2.40361">
        <ele>1646</ele>
        <time>2024-07-13T08:52:58Z</time>
      </trkpt>
      <trkpt lat="42.50012" lon="2.40364">
        <ele>1645.2</ele>
        <time>2024-07-13T08:53:04Z</time>
      </trkpt>
      <trkpt lat="42.50008" lon="2.40367">
        <ele>1644.4</ele>
        <time>2024-07-13T08:53:09Z</time>
      </trkpt>
      <trkpt lat="42.50006" lon="2.40367">
        <ele>1644.6</ele>
        <time>2024-07-13T08:53:11Z</time>
      </trkpt>
      <trkpt lat="42.49998" lon="2.40372">
        <ele>1646.6</ele>
        <time>2024-07-13T08:53:17Z</time>
      </trkpt>
      <trkpt lat="42.49997" lon="2.40373">
        <ele>1646.8</ele>
        <time>2024-07-13T08:53:19Z</time>
      </trkpt>
      <trkpt lat="42.49996" lon="2.40374">
        <ele>1647</ele>
        <time>2024-07-13T08:53:20Z</time>
      </trkpt>
      <trkpt lat="42.49995" lon="2.40377">
        <ele>1647.2</ele>
        <time>2024-07-13T08:53:24Z</time>
      </trkpt>
      <trkpt lat="42.4999" lon="2.40378">
        <ele>1648.2</ele>
        <time>2024-07-13T08:53:29Z</time>
      </trkpt>
      <trkpt lat="42.49988" lon="2.40378">
        <ele>1648.4</ele>
        <time>2024-07-13T08:53:30Z</time>
      </trkpt>
      <trkpt lat="42.49986" lon="2.40382">
        <ele>1650</ele>
        <time>2024-07-13T08:53:37Z</time>
      </trkpt>
      <trkpt lat="42.49986" lon="2.40385">
        <ele>1650.4</ele>
        <time>2024-07-13T08:53:40Z</time>
      </trkpt>
      <trkpt lat="42.49984" lon="2.40386">
        <ele>1650.4</ele>
        <time>2024-07-13T08:53:41Z</time>
      </trkpt>
      <trkpt lat="42.49984" lon="2.40387">
        <ele>1650.6</ele>
        <time>2024-07-13T08:53:42Z</time>
      </trkpt>
      <trkpt lat="42.49984" lon="2.40389">
        <ele>1650.6</ele>
        <time>2024-07-13T08:53:45Z</time>
      </trkpt>
      <trkpt lat="42.49985" lon="2.40392">
        <ele>1650.8</ele>
        <time>2024-07-13T08:53:47Z</time>
      </trkpt>
      <trkpt lat="42.49988" lon="2.40392">
        <ele>1650.8</ele>
        <time>2024-07-13T08:53:49Z</time>
      </trkpt>
      <trkpt lat="42.49988" lon="2.40393">
        <ele>1650.8</ele>
        <time>2024-07-13T08:53:50Z</time>
      </trkpt>
      <trkpt lat="42.49988" lon="2.40394">
        <ele>1650.2</ele>
        <time>2024-07-13T08:53:52Z</time>
      </trkpt>
      <trkpt lat="42.49989" lon="2.40397">
        <ele>1647.6</ele>
        <time>2024-07-13T08:53:57Z</time>
      </trkpt>
      <trkpt lat="42.49991" lon="2.40401">
        <ele>1646</ele>
        <time>2024-07-13T08:54:03Z</time>
      </trkpt>
      <trkpt lat="42.49995" lon="2.40404">
        <ele>1645.8</ele>
        <time>2024-07-13T08:54:07Z</time>
      </trkpt>
      <trkpt lat="42.49998" lon="2.40406">
        <ele>1645.2</ele>
        <time>2024-07-13T08:54:10Z</time>
      </trkpt>
      <trkpt lat="42.50004" lon="2.40406">
        <ele>1643.4</ele>
        <time>2024-07-13T08:54:15Z</time>
      </trkpt>
      <trkpt lat="42.50007" lon="2.40412">
        <ele>1639.8</ele>
        <time>2024-07-13T08:54:19Z</time>
      </trkpt>
      <trkpt lat="42.50008" lon="2.40413">
        <ele>1639.2</ele>
        <time>2024-07-13T08:54:20Z</time>
      </trkpt>
      <trkpt lat="42.50011" lon="2.40411">
        <ele>1638</ele>
        <time>2024-07-13T08:54:25Z</time>
      </trkpt>
      <trkpt lat="42.50012" lon="2.40412">
        <ele>1638.4</ele>
        <time>2024-07-13T08:54:26Z</time>
      </trkpt>
      <trkpt lat="42.50013" lon="2.40413">
        <ele>1639</ele>
        <time>2024-07-13T08:54:27Z</time>
      </trkpt>
      <trkpt lat="42.50018" lon="2.40415">
        <ele>1640</ele>
        <time>2024-07-13T08:54:31Z</time>
      </trkpt>
      <trkpt lat="42.50018" lon="2.40416">
        <ele>1640</ele>
        <time>2024-07-13T08:54:35Z</time>
      </trkpt>
      <trkpt lat="42.50019" lon="2.40418">
        <ele>1639.8</ele>
        <time>2024-07-13T08:54:42Z</time>
      </trkpt>
      <trkpt lat="42.50022" lon="2.40417">
        <ele>1640.2</ele>
        <time>2024-07-13T08:54:47Z</time>
      </trkpt>
      <trkpt lat="42.50027" lon="2.40418">
        <ele>1641</ele>
        <time>2024-07-13T08:54:55Z</time>
      </trkpt>
      <trkpt lat="42.50032" lon="2.40419">
        <ele>1643.8</ele>
        <time>2024-07-13T08:55:04Z</time>
      </trkpt>
      <trkpt lat="42.50034" lon="2.4042">
        <ele>1644.8</ele>
        <time>2024-07-13T08:55:08Z</time>
      </trkpt>
      <trkpt lat="42.50036" lon="2.40422">
        <ele>1646.8</ele>
        <time>2024-07-13T08:55:15Z</time>
      </trkpt>
      <trkpt lat="42.50045" lon="2.40424">
        <ele>1648.2</ele>
        <time>2024-07-13T08:55:22Z</time>
      </trkpt>
      <trkpt lat="42.50049" lon="2.40426">
        <ele>1651</ele>
        <time>2024-07-13T08:55:29Z</time>
      </trkpt>
      <trkpt lat="42.50052" lon="2.4043">
        <ele>1652.2</ele>
        <time>2024-07-13T08:55:34Z</time>
      </trkpt>
      <trkpt lat="42.50056" lon="2.40438">
        <ele>1652</ele>
        <time>2024-07-13T08:55:40Z</time>
      </trkpt>
      <trkpt lat="42.50057" lon="2.40442">
        <ele>1652.4</ele>
        <time>2024-07-13T08:55:46Z</time>
      </trkpt>
      <trkpt lat="42.50063" lon="2.40449">
        <ele>1654</ele>
        <time>2024-07-13T08:55:51Z</time>
      </trkpt>
      <trkpt lat="42.50068" lon="2.40453">
        <ele>1654.8</ele>
        <time>2024-07-13T08:55:54Z</time>
      </trkpt>
      <trkpt lat="42.50069" lon="2.40457">
        <ele>1655</ele>
        <time>2024-07-13T08:55:56Z</time>
      </trkpt>
      <trkpt lat="42.50069" lon="2.40458">
        <ele>1655.2</ele>
        <time>2024-07-13T08:55:57Z</time>
      </trkpt>
      <trkpt lat="42.50076" lon="2.4047">
        <ele>1653</ele>
        <time>2024-07-13T08:56:04Z</time>
      </trkpt>
      <trkpt lat="42.50075" lon="2.40476">
        <ele>1652.2</ele>
        <time>2024-07-13T08:56:09Z</time>
      </trkpt>
      <trkpt lat="42.50075" lon="2.4048">
        <ele>1651.6</ele>
        <time>2024-07-13T08:56:12Z</time>
      </trkpt>
      <trkpt lat="42.50072" lon="2.40486">
        <ele>1649</ele>
        <time>2024-07-13T08:56:17Z</time>
      </trkpt>
      <trkpt lat="42.50072" lon="2.40487">
        <ele>1648.6</ele>
        <time>2024-07-13T08:56:18Z</time>
      </trkpt>
      <trkpt lat="42.50073" lon="2.40488">
        <ele>1648.2</ele>
        <time>2024-07-13T08:56:20Z</time>
      </trkpt>
      <trkpt lat="42.50079" lon="2.40491">
        <ele>1648.6</ele>
        <time>2024-07-13T08:56:25Z</time>
      </trkpt>
      <trkpt lat="42.50079" lon="2.40492">
        <ele>1649</ele>
        <time>2024-07-13T08:56:26Z</time>
      </trkpt>
      <trkpt lat="42.5008" lon="2.40495">
        <ele>1650.4</ele>
        <time>2024-07-13T08:56:28Z</time>
      </trkpt>
      <trkpt lat="42.50083" lon="2.40498">
        <ele>1654.2</ele>
        <time>2024-07-13T08:56:32Z</time>
      </trkpt>
      <trkpt lat="42.50087" lon="2.40501">
        <ele>1656</ele>
        <time>2024-07-13T08:56:35Z</time>
      </trkpt>
      <trkpt lat="42.50089" lon="2.40507">
        <ele>1657.2</ele>
        <time>2024-07-13T08:56:39Z</time>
      </trkpt>
      <trkpt lat="42.50088" lon="2.40511">
        <ele>1657.4</ele>
        <time>2024-07-13T08:56:43Z</time>
      </trkpt>
      <trkpt lat="42.50089" lon="2.40513">
        <ele>1657.4</ele>
        <time>2024-07-13T08:56:45Z</time>
      </trkpt>
      <trkpt lat="42.5009" lon="2.40514">
        <ele>1657.4</ele>
        <time>2024-07-13T08:56:46Z</time>
      </trkpt>
      <trkpt lat="42.5009" lon="2.4052">
        <ele>1658</ele>
        <time>2024-07-13T08:56:53Z</time>
      </trkpt>
      <trkpt lat="42.5009" lon="2.40521">
        <ele>1658</ele>
        <time>2024-07-13T08:56:54Z</time>
      </trkpt>
      <trkpt lat="42.5009" lon="2.40525">
        <ele>1658</ele>
        <time>2024-07-13T08:56:57Z</time>
      </trkpt>
      <trkpt lat="42.50091" lon="2.40527">
        <ele>1657.8</ele>
        <time>2024-07-13T08:56:58Z</time>
      </trkpt>
      <trkpt lat="42.50092" lon="2.4053">
        <ele>1657</ele>
        <time>2024-07-13T08:57:03Z</time>
      </trkpt>
      <trkpt lat="42.5009" lon="2.40532">
        <ele>1658.8</ele>
        <time>2024-07-13T08:57:13Z</time>
      </trkpt>
      <trkpt lat="42.5009" lon="2.40533">
        <ele>1660.8</ele>
        <time>2024-07-13T08:57:20Z</time>
      </trkpt>
      <trkpt lat="42.5009" lon="2.40533">
        <ele>1661.8</ele>
        <time>2024-07-13T08:57:27Z</time>
      </trkpt>
      <trkpt lat="42.50079" lon="2.4054">
        <ele>1667.2</ele>
        <time>2024-07-13T08:59:39Z</time>
      </trkpt>
      <trkpt lat="42.50081" lon="2.40551">
        <ele>1665.4</ele>
        <time>2024-07-13T08:59:45Z</time>
      </trkpt>
      <trkpt lat="42.50083" lon="2.40551">
        <ele>1664.4</ele>
        <time>2024-07-13T08:59:50Z</time>
      </trkpt>
      <trkpt lat="42.50086" lon="2.40551">
        <ele>1665</ele>
        <time>2024-07-13T08:59:55Z</time>
      </trkpt>
      <trkpt lat="42.50086" lon="2.4055">
        <ele>1668</ele>
        <time>2024-07-13T09:00:06Z</time>
      </trkpt>
      <trkpt lat="42.50086" lon="2.40554">
        <ele>1668.6</ele>
        <time>2024-07-13T09:00:12Z</time>
      </trkpt>
      <trkpt lat="42.50088" lon="2.40559">
        <ele>1670</ele>
        <time>2024-07-13T09:00:17Z</time>
      </trkpt>
      <trkpt lat="42.50088" lon="2.40563">
        <ele>1673.2</ele>
        <time>2024-07-13T09:00:23Z</time>
      </trkpt>
      <trkpt lat="42.50088" lon="2.40564">
        <ele>1675</ele>
        <time>2024-07-13T09:00:28Z</time>
      </trkpt>
      <trkpt lat="42.50091" lon="2.4057">
        <ele>1676.6</ele>
        <time>2024-07-13T09:00:34Z</time>
      </trkpt>
      <trkpt lat="42.50088" lon="2.40576">
        <ele>1677.4</ele>
        <time>2024-07-13T09:00:39Z</time>
      </trkpt>
      <trkpt lat="42.50088" lon="2.40583">
        <ele>1676.6</ele>
        <time>2024-07-13T09:00:47Z</time>
      </trkpt>
      <trkpt lat="42.5009" lon="2.4059">
        <ele>1673.8</ele>
        <time>2024-07-13T09:00:53Z</time>
      </trkpt>
      <trkpt lat="42.50089" lon="2.40597">
        <ele>1673.8</ele>
        <time>2024-07-13T09:01:00Z</time>
      </trkpt>
      <trkpt lat="42.50084" lon="2.40605">
        <ele>1675.6</ele>
        <time>2024-07-13T09:01:10Z</time>
      </trkpt>
      <trkpt lat="42.5008" lon="2.4061">
        <ele>1675.6</ele>
        <time>2024-07-13T09:01:16Z</time>
      </trkpt>
      <trkpt lat="42.50076" lon="2.40612">
        <ele>1675.6</ele>
        <time>2024-07-13T09:01:21Z</time>
      </trkpt>
      <trkpt lat="42.50072" lon="2.40616">
        <ele>1675.2</ele>
        <time>2024-07-13T09:01:28Z</time>
      </trkpt>
      <trkpt lat="42.50073" lon="2.40622">
        <ele>1676.2</ele>
        <time>2024-07-13T09:01:34Z</time>
      </trkpt>
      <trkpt lat="42.50077" lon="2.40624">
        <ele>1678.8</ele>
        <time>2024-07-13T09:01:39Z</time>
      </trkpt>
      <trkpt lat="42.50075" lon="2.40629">
        <ele>1683.2</ele>
        <time>2024-07-13T09:01:46Z</time>
      </trkpt>
      <trkpt lat="42.50065" lon="2.40638">
        <ele>1685.2</ele>
        <time>2024-07-13T09:01:53Z</time>
      </trkpt>
      <trkpt lat="42.50063" lon="2.40641">
        <ele>1684.6</ele>
        <time>2024-07-13T09:01:56Z</time>
      </trkpt>
      <trkpt lat="42.50063" lon="2.40644">
        <ele>1684.4</ele>
        <time>2024-07-13T09:01:58Z</time>
      </trkpt>
      <trkpt lat="42.50063" lon="2.40651">
        <ele>1682.4</ele>
        <time>2024-07-13T09:02:05Z</time>
      </trkpt>
      <trkpt lat="42.50064" lon="2.40658">
        <ele>1683.4</ele>
        <time>2024-07-13T09:02:12Z</time>
      </trkpt>
      <trkpt lat="42.50065" lon="2.40662">
        <ele>1686.6</ele>
        <time>2024-07-13T09:02:18Z</time>
      </trkpt>
      <trkpt lat="42.50067" lon="2.40669">
        <ele>1688.4</ele>
        <time>2024-07-13T09:02:24Z</time>
      </trkpt>
      <trkpt lat="42.50067" lon="2.40674">
        <ele>1687.4</ele>
        <time>2024-07-13T09:02:29Z</time>
      </trkpt>
      <trkpt lat="42.50068" lon="2.40676">
        <ele>1686.6</ele>
        <time>2024-07-13T09:02:32Z</time>
      </trkpt>
      <trkpt lat="42.50071" lon="2.40678">
        <ele>1686.2</ele>
        <time>2024-07-13T09:02:34Z</time>
      </trkpt>
      <trkpt lat="42.50071" lon="2.40679">
        <ele>1686</ele>
        <time>2024-07-13T09:02:35Z</time>
      </trkpt>
      <trkpt lat="42.5007" lon="2.40681">
        <ele>1685.8</ele>
        <time>2024-07-13T09:02:36Z</time>
      </trkpt>
      <trkpt lat="42.50071" lon="2.40685">
        <ele>1684.4</ele>
        <time>2024-07-13T09:02:39Z</time>
      </trkpt>
      <trkpt lat="42.50073" lon="2.40687">
        <ele>1685</ele>
        <time>2024-07-13T09:02:45Z</time>
      </trkpt>
      <trkpt lat="42.50072" lon="2.40691">
        <ele>1686.6</ele>
        <time>2024-07-13T09:02:47Z</time>
      </trkpt>
      <trkpt lat="42.50071" lon="2.40693">
        <ele>1689.2</ele>
        <time>2024-07-13T09:02:50Z</time>
      </trkpt>
      <trkpt lat="42.5007" lon="2.40694">
        <ele>1689.8</ele>
        <time>2024-07-13T09:02:51Z</time>
      </trkpt>
      <trkpt lat="42.5007" lon="2.40699">
        <ele>1691</ele>
        <time>2024-07-13T09:02:54Z</time>
      </trkpt>
      <trkpt lat="42.50069" lon="2.40703">
        <ele>1691.2</ele>
        <time>2024-07-13T09:02:56Z</time>
      </trkpt>
      <trkpt lat="42.5007" lon="2.40704">
        <ele>1691.4</ele>
        <time>2024-07-13T09:02:57Z</time>
      </trkpt>
      <trkpt lat="42.50072" lon="2.40711">
        <ele>1689.8</ele>
        <time>2024-07-13T09:03:02Z</time>
      </trkpt>
      <trkpt lat="42.50078" lon="2.40719">
        <ele>1689.2</ele>
        <time>2024-07-13T09:03:08Z</time>
      </trkpt>
      <trkpt lat="42.50079" lon="2.40725">
        <ele>1690.4</ele>
        <time>2024-07-13T09:03:12Z</time>
      </trkpt>
      <trkpt lat="42.50081" lon="2.40727">
        <ele>1690.6</ele>
        <time>2024-07-13T09:03:14Z</time>
      </trkpt>
      <trkpt lat="42.50093" lon="2.40734">
        <ele>1691.2</ele>
        <time>2024-07-13T09:03:21Z</time>
      </trkpt>
      <trkpt lat="42.50098" lon="2.40742">
        <ele>1691.2</ele>
        <time>2024-07-13T09:03:27Z</time>
      </trkpt>
      <trkpt lat="42.50101" lon="2.40747">
        <ele>1690.8</ele>
        <time>2024-07-13T09:03:30Z</time>
      </trkpt>
      <trkpt lat="42.50103" lon="2.40751">
        <ele>1690.6</ele>
        <time>2024-07-13T09:03:33Z</time>
      </trkpt>
      <trkpt lat="42.50109" lon="2.40752">
        <ele>1690.6</ele>
        <time>2024-07-13T09:03:37Z</time>
      </trkpt>
      <trkpt lat="42.50116" lon="2.40755">
        <ele>1690.8</ele>
        <time>2024-07-13T09:03:40Z</time>
      </trkpt>
      <trkpt lat="42.50122" lon="2.4076">
        <ele>1692</ele>
        <time>2024-07-13T09:03:44Z</time>
      </trkpt>
      <trkpt lat="42.50121" lon="2.40763">
        <ele>1692.6</ele>
        <time>2024-07-13T09:03:46Z</time>
      </trkpt>
      <trkpt lat="42.50119" lon="2.40766">
        <ele>1693.4</ele>
        <time>2024-07-13T09:03:48Z</time>
      </trkpt>
      <trkpt lat="42.5012" lon="2.40771">
        <ele>1695.4</ele>
        <time>2024-07-13T09:03:52Z</time>
      </trkpt>
      <trkpt lat="42.50126" lon="2.40778">
        <ele>1698.2</ele>
        <time>2024-07-13T09:03:59Z</time>
      </trkpt>
      <trkpt lat="42.50135" lon="2.40783">
        <ele>1699.4</ele>
        <time>2024-07-13T09:04:07Z</time>
      </trkpt>
      <trkpt lat="42.50135" lon="2.40784">
        <ele>1699.6</ele>
        <time>2024-07-13T09:04:09Z</time>
      </trkpt>
      <trkpt lat="42.50136" lon="2.40784">
        <ele>1699.8</ele>
        <time>2024-07-13T09:04:10Z</time>
      </trkpt>
      <trkpt lat="42.50143" lon="2.40782">
        <ele>1699</ele>
        <time>2024-07-13T09:04:17Z</time>
      </trkpt>
      <trkpt lat="42.50155" lon="2.40779">
        <ele>1693.4</ele>
        <time>2024-07-13T09:04:29Z</time>
      </trkpt>
      <trkpt lat="42.50162" lon="2.40776">
        <ele>1692.2</ele>
        <time>2024-07-13T09:04:38Z</time>
      </trkpt>
      <trkpt lat="42.50172" lon="2.40798">
        <ele>1727</ele>
        <time>2024-07-13T11:43:21Z</time>
      </trkpt>
      <trkpt lat="42.5017" lon="2.40799">
        <ele>1726.8</ele>
        <time>2024-07-13T11:43:31Z</time>
      </trkpt>
      <trkpt lat="42.50157" lon="2.40803">
        <ele>1724.8</ele>
        <time>2024-07-13T11:43:37Z</time>
      </trkpt>
      <trkpt lat="42.50147" lon="2.40805">
        <ele>1722</ele>
        <time>2024-07-13T11:43:41Z</time>
      </trkpt>
      <trkpt lat="42.50142" lon="2.40807">
        <ele>1719.2</ele>
        <time>2024-07-13T11:43:44Z</time>
      </trkpt>
      <trkpt lat="42.50131" lon="2.40808">
        <ele>1712</ele>
        <time>2024-07-13T11:43:52Z</time>
      </trkpt>
      <trkpt lat="42.50119" lon="2.40811">
        <ele>1707</ele>
        <time>2024-07-13T11:44:00Z</time>
      </trkpt>
      <trkpt lat="42.50108" lon="2.40815">
        <ele>1707</ele>
        <time>2024-07-13T11:44:10Z</time>
      </trkpt>
      <trkpt lat="42.501" lon="2.40821">
        <ele>1707.8</ele>
        <time>2024-07-13T11:44:20Z</time>
      </trkpt>
      <trkpt lat="42.50098" lon="2.40824">
        <ele>1709.2</ele>
        <time>2024-07-13T11:44:27Z</time>
      </trkpt>
      <trkpt lat="42.50092" lon="2.40831">
        <ele>1711.4</ele>
        <time>2024-07-13T11:44:34Z</time>
      </trkpt>
      <trkpt lat="42.50082" lon="2.40835">
        <ele>1708.2</ele>
        <time>2024-07-13T11:44:42Z</time>
      </trkpt>
      <trkpt lat="42.50075" lon="2.40837">
        <ele>1706</ele>
        <time>2024-07-13T11:44:49Z</time>
      </trkpt>
      <trkpt lat="42.50073" lon="2.40838">
        <ele>1705.4</ele>
        <time>2024-07-13T11:44:51Z</time>
      </trkpt>
      <trkpt lat="42.50069" lon="2.40837">
        <ele>1705</ele>
        <time>2024-07-13T11:44:59Z</time>
      </trkpt>
      <trkpt lat="42.50061" lon="2.40839">
        <ele>1708.4</ele>
        <time>2024-07-13T11:45:09Z</time>
      </trkpt>
      <trkpt lat="42.50057" lon="2.4084">
        <ele>1709.4</ele>
        <time>2024-07-13T11:45:15Z</time>
      </trkpt>
      <trkpt lat="42.50051" lon="2.40843">
        <ele>1709.2</ele>
        <time>2024-07-13T11:45:22Z</time>
      </trkpt>
      <trkpt lat="42.50042" lon="2.40847">
        <ele>1709.8</ele>
        <time>2024-07-13T11:45:33Z</time>
      </trkpt>
      <trkpt lat="42.50037" lon="2.40851">
        <ele>1711.8</ele>
        <time>2024-07-13T11:45:40Z</time>
      </trkpt>
      <trkpt lat="42.50031" lon="2.40856">
        <ele>1713</ele>
        <time>2024-07-13T11:45:47Z</time>
      </trkpt>
      <trkpt lat="42.50024" lon="2.40862">
        <ele>1714</ele>
        <time>2024-07-13T11:45:55Z</time>
      </trkpt>
      <trkpt lat="42.50017" lon="2.40865">
        <ele>1714</ele>
        <time>2024-07-13T11:46:02Z</time>
      </trkpt>
      <trkpt lat="42.5001" lon="2.40869">
        <ele>1715.2</ele>
        <time>2024-07-13T11:46:11Z</time>
      </trkpt>
      <trkpt lat="42.5001" lon="2.4087">
        <ele>1715.4</ele>
        <time>2024-07-13T11:46:18Z</time>
      </trkpt>
      <trkpt lat="42.5001" lon="2.4087">
        <ele>1715.6</ele>
        <time>2024-07-13T11:46:31Z</time>
      </trkpt>
      <trkpt lat="42.50007" lon="2.40877">
        <ele>1715.6</ele>
        <time>2024-07-13T11:46:38Z</time>
      </trkpt>
      <trkpt lat="42.50006" lon="2.40878">
        <ele>1715.8</ele>
        <time>2024-07-13T11:46:39Z</time>
      </trkpt>
      <trkpt lat="42.50003" lon="2.40883">
        <ele>1716.4</ele>
        <time>2024-07-13T11:46:43Z</time>
      </trkpt>
      <trkpt lat="42.49993" lon="2.4089">
        <ele>1717.4</ele>
        <time>2024-07-13T11:46:50Z</time>
      </trkpt>
      <trkpt lat="42.49981" lon="2.40899">
        <ele>1719.2</ele>
        <time>2024-07-13T11:46:59Z</time>
      </trkpt>
      <trkpt lat="42.49972" lon="2.40902">
        <ele>1720.2</ele>
        <time>2024-07-13T11:47:06Z</time>
      </trkpt>
      <trkpt lat="42.49971" lon="2.40903">
        <ele>1720.2</ele>
        <time>2024-07-13T11:47:07Z</time>
      </trkpt>
      <trkpt lat="42.4996" lon="2.40906">
        <ele>1720.6</ele>
        <time>2024-07-13T11:47:15Z</time>
      </trkpt>
      <trkpt lat="42.49956" lon="2.40907">
        <ele>1721</ele>
        <time>2024-07-13T11:47:19Z</time>
      </trkpt>
      <trkpt lat="42.49953" lon="2.40908">
        <ele>1721.2</ele>
        <time>2024-07-13T11:47:22Z</time>
      </trkpt>
      <trkpt lat="42.49946" lon="2.40915">
        <ele>1721.6</ele>
        <time>2024-07-13T11:47:29Z</time>
      </trkpt>
      <trkpt lat="42.49945" lon="2.40916">
        <ele>1721.8</ele>
        <time>2024-07-13T11:47:30Z</time>
      </trkpt>
      <trkpt lat="42.49944" lon="2.40917">
        <ele>1722.2</ele>
        <time>2024-07-13T11:47:31Z</time>
      </trkpt>
      <trkpt lat="42.49943" lon="2.40919">
        <ele>1722.8</ele>
        <time>2024-07-13T11:47:33Z</time>
      </trkpt>
      <trkpt lat="42.49941" lon="2.40921">
        <ele>1723.4</ele>
        <time>2024-07-13T11:47:35Z</time>
      </trkpt>
      <trkpt lat="42.49939" lon="2.40923">
        <ele>1724.6</ele>
        <time>2024-07-13T11:47:37Z</time>
      </trkpt>
      <trkpt lat="42.49933" lon="2.40924">
        <ele>1726.8</ele>
        <time>2024-07-13T11:47:42Z</time>
      </trkpt>
      <trkpt lat="42.4993" lon="2.40924">
        <ele>1727.2</ele>
        <time>2024-07-13T11:47:44Z</time>
      </trkpt>
      <trkpt lat="42.49927" lon="2.40927">
        <ele>1727</ele>
        <time>2024-07-13T11:47:46Z</time>
      </trkpt>
      <trkpt lat="42.49926" lon="2.40928">
        <ele>1727</ele>
        <time>2024-07-13T11:47:47Z</time>
      </trkpt>
      <trkpt lat="42.49925" lon="2.40927">
        <ele>1727</ele>
        <time>2024-07-13T11:47:48Z</time>
      </trkpt>
      <trkpt lat="42.49921" lon="2.40929">
        <ele>1726.2</ele>
        <time>2024-07-13T11:47:52Z</time>
      </trkpt>
      <trkpt lat="42.49915" lon="2.40934">
        <ele>1725</ele>
        <time>2024-07-13T11:47:58Z</time>
      </trkpt>
      <trkpt lat="42.49913" lon="2.40937">
        <ele>1724.6</ele>
        <time>2024-07-13T11:48:01Z</time>
      </trkpt>
      <trkpt lat="42.49911" lon="2.40938">
        <ele>1724.8</ele>
        <time>2024-07-13T11:48:03Z</time>
      </trkpt>
      <trkpt lat="42.49908" lon="2.40939">
        <ele>1725.4</ele>
        <time>2024-07-13T11:48:06Z</time>
      </trkpt>
      <trkpt lat="42.49905" lon="2.40938">
        <ele>1725.6</ele>
        <time>2024-07-13T11:48:08Z</time>
      </trkpt>
      <trkpt lat="42.49903" lon="2.40938">
        <ele>1725.6</ele>
        <time>2024-07-13T11:48:09Z</time>
      </trkpt>
      <trkpt lat="42.49902" lon="2.40938">
        <ele>1725.6</ele>
        <time>2024-07-13T11:48:10Z</time>
      </trkpt>
      <trkpt lat="42.49902" lon="2.40939">
        <ele>1725.8</ele>
        <time>2024-07-13T11:48:12Z</time>
      </trkpt>
      <trkpt lat="42.49894" lon="2.40945">
        <ele>1726.4</ele>
        <time>2024-07-13T11:48:17Z</time>
      </trkpt>
      <trkpt lat="42.49891" lon="2.40945">
        <ele>1726.6</ele>
        <time>2024-07-13T11:48:19Z</time>
      </trkpt>
      <trkpt lat="42.4989" lon="2.40945">
        <ele>1727</ele>
        <time>2024-07-13T11:48:24Z</time>
      </trkpt>
      <trkpt lat="42.4989" lon="2.40948">
        <ele>1728.4</ele>
        <time>2024-07-13T11:48:31Z</time>
      </trkpt>
      <trkpt lat="42.49884" lon="2.40953">
        <ele>1729.6</ele>
        <time>2024-07-13T11:48:37Z</time>
      </trkpt>
      <trkpt lat="42.49881" lon="2.40954">
        <ele>1730</ele>
        <time>2024-07-13T11:48:40Z</time>
      </trkpt>
      <trkpt lat="42.49879" lon="2.40958">
        <ele>1730.2</ele>
        <time>2024-07-13T11:48:43Z</time>
      </trkpt>
      <trkpt lat="42.49878" lon="2.40958">
        <ele>1730.2</ele>
        <time>2024-07-13T11:48:44Z</time>
      </trkpt>
      <trkpt lat="42.49872" lon="2.40961">
        <ele>1731.2</ele>
        <time>2024-07-13T11:48:48Z</time>
      </trkpt>
      <trkpt lat="42.49869" lon="2.40963">
        <ele>1733</ele>
        <time>2024-07-13T11:48:51Z</time>
      </trkpt>
      <trkpt lat="42.49865" lon="2.40969">
        <ele>1734.6</ele>
        <time>2024-07-13T11:48:55Z</time>
      </trkpt>
      <trkpt lat="42.49859" lon="2.40972">
        <ele>1735.2</ele>
        <time>2024-07-13T11:49:00Z</time>
      </trkpt>
      <trkpt lat="42.49858" lon="2.40973">
        <ele>1735.2</ele>
        <time>2024-07-13T11:49:01Z</time>
      </trkpt>
      <trkpt lat="42.49855" lon="2.40977">
        <ele>1735</ele>
        <time>2024-07-13T11:49:05Z</time>
      </trkpt>
      <trkpt lat="42.49852" lon="2.40982">
        <ele>1734.4</ele>
        <time>2024-07-13T11:49:08Z</time>
      </trkpt>
      <trkpt lat="42.49851" lon="2.40981">
        <ele>1733.8</ele>
        <time>2024-07-13T11:49:10Z</time>
      </trkpt>
      <trkpt lat="42.4985" lon="2.40983">
        <ele>1733.6</ele>
        <time>2024-07-13T11:49:12Z</time>
      </trkpt>
      <trkpt lat="42.49849" lon="2.40985">
        <ele>1733.4</ele>
        <time>2024-07-13T11:49:13Z</time>
      </trkpt>
      <trkpt lat="42.49845" lon="2.40989">
        <ele>1734</ele>
        <time>2024-07-13T11:49:18Z</time>
      </trkpt>
      <trkpt lat="42.49843" lon="2.4099">
        <ele>1734.2</ele>
        <time>2024-07-13T11:49:19Z</time>
      </trkpt>
      <trkpt lat="42.49842" lon="2.40991">
        <ele>1734.4</ele>
        <time>2024-07-13T11:49:20Z</time>
      </trkpt>
      <trkpt lat="42.49841" lon="2.40995">
        <ele>1734.6</ele>
        <time>2024-07-13T11:49:23Z</time>
      </trkpt>
      <trkpt lat="42.49839" lon="2.40997">
        <ele>1734.8</ele>
        <time>2024-07-13T11:49:25Z</time>
      </trkpt>
      <trkpt lat="42.49834" lon="2.40999">
        <ele>1735</ele>
        <time>2024-07-13T11:49:29Z</time>
      </trkpt>
      <trkpt lat="42.49833" lon="2.40999">
        <ele>1734.8</ele>
        <time>2024-07-13T11:49:30Z</time>
      </trkpt>
      <trkpt lat="42.4983" lon="2.41003">
        <ele>1734</ele>
        <time>2024-07-13T11:49:33Z</time>
      </trkpt>
      <trkpt lat="42.49824" lon="2.41019">
        <ele>1732.6</ele>
        <time>2024-07-13T11:49:42Z</time>
      </trkpt>
      <trkpt lat="42.49822" lon="2.41022">
        <ele>1732.6</ele>
        <time>2024-07-13T11:49:44Z</time>
      </trkpt>
      <trkpt lat="42.49819" lon="2.41024">
        <ele>1732.6</ele>
        <time>2024-07-13T11:49:46Z</time>
      </trkpt>
      <trkpt lat="42.49818" lon="2.41027">
        <ele>1732.8</ele>
        <time>2024-07-13T11:49:48Z</time>
      </trkpt>
      <trkpt lat="42.49815" lon="2.41036">
        <ele>1732.8</ele>
        <time>2024-07-13T11:49:52Z</time>
      </trkpt>
      <trkpt lat="42.49814" lon="2.41038">
        <ele>1732.8</ele>
        <time>2024-07-13T11:49:54Z</time>
      </trkpt>
      <trkpt lat="42.49813" lon="2.41042">
        <ele>1732.8</ele>
        <time>2024-07-13T11:49:55Z</time>
      </trkpt>
      <trkpt lat="42.49812" lon="2.41044">
        <ele>1732.6</ele>
        <time>2024-07-13T11:49:57Z</time>
      </trkpt>
      <trkpt lat="42.49811" lon="2.41046">
        <ele>1732.2</ele>
        <time>2024-07-13T11:49:59Z</time>
      </trkpt>
      <trkpt lat="42.4981" lon="2.41048">
        <ele>1732</ele>
        <time>2024-07-13T11:50:01Z</time>
      </trkpt>
      <trkpt lat="42.49809" lon="2.41051">
        <ele>1732</ele>
        <time>2024-07-13T11:50:03Z</time>
      </trkpt>
      <trkpt lat="42.49802" lon="2.41062">
        <ele>1733.6</ele>
        <time>2024-07-13T11:50:10Z</time>
      </trkpt>
      <trkpt lat="42.49801" lon="2.41062">
        <ele>1733.8</ele>
        <time>2024-07-13T11:50:11Z</time>
      </trkpt>
      <trkpt lat="42.49799" lon="2.41064">
        <ele>1734</ele>
        <time>2024-07-13T11:50:14Z</time>
      </trkpt>
      <trkpt lat="42.49798" lon="2.41065">
        <ele>1733.8</ele>
        <time>2024-07-13T11:50:15Z</time>
      </trkpt>
      <trkpt lat="42.49797" lon="2.41068">
        <ele>1733.8</ele>
        <time>2024-07-13T11:50:16Z</time>
      </trkpt>
      <trkpt lat="42.49794" lon="2.41075">
        <ele>1733.4</ele>
        <time>2024-07-13T11:50:18Z</time>
      </trkpt>
      <trkpt lat="42.49792" lon="2.41079">
        <ele>1732.6</ele>
        <time>2024-07-13T11:50:21Z</time>
      </trkpt>
      <trkpt lat="42.49789" lon="2.41085">
        <ele>1732.4</ele>
        <time>2024-07-13T11:50:26Z</time>
      </trkpt>
      <trkpt lat="42.49787" lon="2.41085">
        <ele>1732.8</ele>
        <time>2024-07-13T11:50:28Z</time>
      </trkpt>
      <trkpt lat="42.49785" lon="2.41086">
        <ele>1733</ele>
        <time>2024-07-13T11:50:30Z</time>
      </trkpt>
      <trkpt lat="42.49783" lon="2.41084">
        <ele>1733</ele>
        <time>2024-07-13T11:50:33Z</time>
      </trkpt>
      <trkpt lat="42.49776" lon="2.41089">
        <ele>1730.8</ele>
        <time>2024-07-13T11:50:37Z</time>
      </trkpt>
      <trkpt lat="42.49775" lon="2.41091">
        <ele>1730.2</ele>
        <time>2024-07-13T11:50:38Z</time>
      </trkpt>
      <trkpt lat="42.49773" lon="2.4109">
        <ele>1728.6</ele>
        <time>2024-07-13T11:50:40Z</time>
      </trkpt>
      <trkpt lat="42.4977" lon="2.4109">
        <ele>1727.2</ele>
        <time>2024-07-13T11:50:42Z</time>
      </trkpt>
      <trkpt lat="42.49763" lon="2.41101">
        <ele>1724.8</ele>
        <time>2024-07-13T11:50:48Z</time>
      </trkpt>
      <trkpt lat="42.49757" lon="2.41112">
        <ele>1723.4</ele>
        <time>2024-07-13T11:50:54Z</time>
      </trkpt>
      <trkpt lat="42.49756" lon="2.41112">
        <ele>1723.2</ele>
        <time>2024-07-13T11:50:55Z</time>
      </trkpt>
      <trkpt lat="42.49752" lon="2.41112">
        <ele>1723</ele>
        <time>2024-07-13T11:50:58Z</time>
      </trkpt>
      <trkpt lat="42.4975" lon="2.41114">
        <ele>1722.6</ele>
        <time>2024-07-13T11:51:01Z</time>
      </trkpt>
      <trkpt lat="42.49745" lon="2.4112">
        <ele>1722</ele>
        <time>2024-07-13T11:51:04Z</time>
      </trkpt>
      <trkpt lat="42.4974" lon="2.41136">
        <ele>1721.2</ele>
        <time>2024-07-13T11:51:12Z</time>
      </trkpt>
      <trkpt lat="42.49735" lon="2.41143">
        <ele>1720.4</ele>
        <time>2024-07-13T11:51:20Z</time>
      </trkpt>
      <trkpt lat="42.49727" lon="2.41157">
        <ele>1720</ele>
        <time>2024-07-13T11:51:28Z</time>
      </trkpt>
      <trkpt lat="42.49723" lon="2.41162">
        <ele>1718.8</ele>
        <time>2024-07-13T11:51:31Z</time>
      </trkpt>
      <trkpt lat="42.49718" lon="2.41162">
        <ele>1717.8</ele>
        <time>2024-07-13T11:51:34Z</time>
      </trkpt>
      <trkpt lat="42.49716" lon="2.4116">
        <ele>1717.4</ele>
        <time>2024-07-13T11:51:35Z</time>
      </trkpt>
      <trkpt lat="42.49713" lon="2.41152">
        <ele>1715.8</ele>
        <time>2024-07-13T11:51:38Z</time>
      </trkpt>
      <trkpt lat="42.49704" lon="2.4114">
        <ele>1712.6</ele>
        <time>2024-07-13T11:51:46Z</time>
      </trkpt>
      <trkpt lat="42.49699" lon="2.4114">
        <ele>1712.2</ele>
        <time>2024-07-13T11:51:50Z</time>
      </trkpt>
      <trkpt lat="42.49697" lon="2.41137">
        <ele>1711.8</ele>
        <time>2024-07-13T11:51:52Z</time>
      </trkpt>
      <trkpt lat="42.49696" lon="2.41135">
        <ele>1711.6</ele>
        <time>2024-07-13T11:51:53Z</time>
      </trkpt>
      <trkpt lat="42.49687" lon="2.41131">
        <ele>1710.8</ele>
        <time>2024-07-13T11:52:01Z</time>
      </trkpt>
      <trkpt lat="42.49681" lon="2.41129">
        <ele>1710.6</ele>
        <time>2024-07-13T11:52:08Z</time>
      </trkpt>
      <trkpt lat="42.49679" lon="2.41125">
        <ele>1710.2</ele>
        <time>2024-07-13T11:52:11Z</time>
      </trkpt>
      <trkpt lat="42.49675" lon="2.41124">
        <ele>1710</ele>
        <time>2024-07-13T11:52:14Z</time>
      </trkpt>
      <trkpt lat="42.4967" lon="2.41123">
        <ele>1708.8</ele>
        <time>2024-07-13T11:52:18Z</time>
      </trkpt>
      <trkpt lat="42.49668" lon="2.41121">
        <ele>1708.2</ele>
        <time>2024-07-13T11:52:20Z</time>
      </trkpt>
      <trkpt lat="42.49666" lon="2.41119">
        <ele>1708</ele>
        <time>2024-07-13T11:52:22Z</time>
      </trkpt>
      <trkpt lat="42.49662" lon="2.41117">
        <ele>1707.6</ele>
        <time>2024-07-13T11:52:25Z</time>
      </trkpt>
      <trkpt lat="42.49658" lon="2.41111">
        <ele>1707.6</ele>
        <time>2024-07-13T11:52:28Z</time>
      </trkpt>
      <trkpt lat="42.49654" lon="2.4111">
        <ele>1708</ele>
        <time>2024-07-13T11:52:31Z</time>
      </trkpt>
      <trkpt lat="42.4965" lon="2.41108">
        <ele>1708</ele>
        <time>2024-07-13T11:52:34Z</time>
      </trkpt>
      <trkpt lat="42.49648" lon="2.41105">
        <ele>1708.2</ele>
        <time>2024-07-13T11:52:37Z</time>
      </trkpt>
      <trkpt lat="42.49647" lon="2.41104">
        <ele>1707.8</ele>
        <time>2024-07-13T11:52:40Z</time>
      </trkpt>
      <trkpt lat="42.49646" lon="2.41104">
        <ele>1707.4</ele>
        <time>2024-07-13T11:52:42Z</time>
      </trkpt>
      <trkpt lat="42.49644" lon="2.411">
        <ele>1706.6</ele>
        <time>2024-07-13T11:52:46Z</time>
      </trkpt>
      <trkpt lat="42.49636" lon="2.41091">
        <ele>1706.4</ele>
        <time>2024-07-13T11:52:52Z</time>
      </trkpt>
      <trkpt lat="42.49635" lon="2.41088">
        <ele>1706.4</ele>
        <time>2024-07-13T11:52:53Z</time>
      </trkpt>
      <trkpt lat="42.49633" lon="2.4108">
        <ele>1706.6</ele>
        <time>2024-07-13T11:52:56Z</time>
      </trkpt>
      <trkpt lat="42.4963" lon="2.41079">
        <ele>1706.4</ele>
        <time>2024-07-13T11:52:59Z</time>
      </trkpt>
      <trkpt lat="42.49628" lon="2.41079">
        <ele>1706.2</ele>
        <time>2024-07-13T11:53:01Z</time>
      </trkpt>
      <trkpt lat="42.49625" lon="2.41076">
        <ele>1706.2</ele>
        <time>2024-07-13T11:53:04Z</time>
      </trkpt>
      <trkpt lat="42.4962" lon="2.41077">
        <ele>1706.6</ele>
        <time>2024-07-13T11:53:07Z</time>
      </trkpt>
      <trkpt lat="42.49616" lon="2.41073">
        <ele>1707.8</ele>
        <time>2024-07-13T11:53:10Z</time>
      </trkpt>
      <trkpt lat="42.49614" lon="2.41074">
        <ele>1708.8</ele>
        <time>2024-07-13T11:53:12Z</time>
      </trkpt>
      <trkpt lat="42.4961" lon="2.41073">
        <ele>1709.6</ele>
        <time>2024-07-13T11:53:14Z</time>
      </trkpt>
      <trkpt lat="42.49605" lon="2.41073">
        <ele>1710.8</ele>
        <time>2024-07-13T11:53:17Z</time>
      </trkpt>
      <trkpt lat="42.49599" lon="2.41072">
        <ele>1711.4</ele>
        <time>2024-07-13T11:53:21Z</time>
      </trkpt>
      <trkpt lat="42.49594" lon="2.41076">
        <ele>1711.4</ele>
        <time>2024-07-13T11:53:23Z</time>
      </trkpt>
      <trkpt lat="42.49592" lon="2.41076">
        <ele>1711.4</ele>
        <time>2024-07-13T11:53:24Z</time>
      </trkpt>
      <trkpt lat="42.49586" lon="2.41074">
        <ele>1711.4</ele>
        <time>2024-07-13T11:53:27Z</time>
      </trkpt>
      <trkpt lat="42.49586" lon="2.41073">
        <ele>1711.6</ele>
        <time>2024-07-13T11:53:28Z</time>
      </trkpt>
      <trkpt lat="42.49583" lon="2.41074">
        <ele>1711.8</ele>
        <time>2024-07-13T11:53:31Z</time>
      </trkpt>
      <trkpt lat="42.49573" lon="2.41078">
        <ele>1710.6</ele>
        <time>2024-07-13T11:53:37Z</time>
      </trkpt>
      <trkpt lat="42.49566" lon="2.4108">
        <ele>1709.6</ele>
        <time>2024-07-13T11:53:42Z</time>
      </trkpt>
      <trkpt lat="42.49564" lon="2.41082">
        <ele>1709.6</ele>
        <time>2024-07-13T11:53:43Z</time>
      </trkpt>
      <trkpt lat="42.4956" lon="2.4108">
        <ele>1709.4</ele>
        <time>2024-07-13T11:53:46Z</time>
      </trkpt>
      <trkpt lat="42.49554" lon="2.41081">
        <ele>1709</ele>
        <time>2024-07-13T11:53:51Z</time>
      </trkpt>
      <trkpt lat="42.49553" lon="2.41081">
        <ele>1708.6</ele>
        <time>2024-07-13T11:53:52Z</time>
      </trkpt>
      <trkpt lat="42.49552" lon="2.41082">
        <ele>1708.2</ele>
        <time>2024-07-13T11:53:53Z</time>
      </trkpt>
      <trkpt lat="42.49551" lon="2.41084">
        <ele>1707.8</ele>
        <time>2024-07-13T11:53:55Z</time>
      </trkpt>
      <trkpt lat="42.4955" lon="2.41085">
        <ele>1707.6</ele>
        <time>2024-07-13T11:53:57Z</time>
      </trkpt>
      <trkpt lat="42.49549" lon="2.4109">
        <ele>1708</ele>
        <time>2024-07-13T11:54:00Z</time>
      </trkpt>
      <trkpt lat="42.49546" lon="2.41095">
        <ele>1708.8</ele>
        <time>2024-07-13T11:54:03Z</time>
      </trkpt>
      <trkpt lat="42.49544" lon="2.41098">
        <ele>1710</ele>
        <time>2024-07-13T11:54:05Z</time>
      </trkpt>
      <trkpt lat="42.49542" lon="2.41098">
        <ele>1711.8</ele>
        <time>2024-07-13T11:54:08Z</time>
      </trkpt>
      <trkpt lat="42.4954" lon="2.411">
        <ele>1713</ele>
        <time>2024-07-13T11:54:10Z</time>
      </trkpt>
      <trkpt lat="42.49538" lon="2.41099">
        <ele>1714.2</ele>
        <time>2024-07-13T11:54:12Z</time>
      </trkpt>
      <trkpt lat="42.49537" lon="2.411">
        <ele>1714.8</ele>
        <time>2024-07-13T11:54:13Z</time>
      </trkpt>
      <trkpt lat="42.49534" lon="2.41104">
        <ele>1716.2</ele>
        <time>2024-07-13T11:54:17Z</time>
      </trkpt>
      <trkpt lat="42.49533" lon="2.41105">
        <ele>1716.6</ele>
        <time>2024-07-13T11:54:18Z</time>
      </trkpt>
      <trkpt lat="42.49531" lon="2.41111">
        <ele>1717.8</ele>
        <time>2024-07-13T11:54:23Z</time>
      </trkpt>
      <trkpt lat="42.49525" lon="2.41119">
        <ele>1719.6</ele>
        <time>2024-07-13T11:54:29Z</time>
      </trkpt>
      <trkpt lat="42.49519" lon="2.41127">
        <ele>1719.8</ele>
        <time>2024-07-13T11:54:37Z</time>
      </trkpt>
      <trkpt lat="42.49518" lon="2.41128">
        <ele>1719.8</ele>
        <time>2024-07-13T11:54:39Z</time>
      </trkpt>
      <trkpt lat="42.49517" lon="2.41129">
        <ele>1719.8</ele>
        <time>2024-07-13T11:54:41Z</time>
      </trkpt>
      <trkpt lat="42.49513" lon="2.41133">
        <ele>1720</ele>
        <time>2024-07-13T11:54:44Z</time>
      </trkpt>
      <trkpt lat="42.49513" lon="2.4113">
        <ele>1719.6</ele>
        <time>2024-07-13T11:54:48Z</time>
      </trkpt>
      <trkpt lat="42.49512" lon="2.41129">
        <ele>1719.2</ele>
        <time>2024-07-13T11:54:52Z</time>
      </trkpt>
      <trkpt lat="42.49512" lon="2.41129">
        <ele>1719.2</ele>
        <time>2024-07-13T11:54:53Z</time>
      </trkpt>
      <trkpt lat="42.49509" lon="2.41131">
        <ele>1718.6</ele>
        <time>2024-07-13T11:54:56Z</time>
      </trkpt>
      <trkpt lat="42.49508" lon="2.4113">
        <ele>1718.4</ele>
        <time>2024-07-13T11:54:57Z</time>
      </trkpt>
      <trkpt lat="42.49507" lon="2.4113">
        <ele>1716.6</ele>
        <time>2024-07-13T11:55:02Z</time>
      </trkpt>
      <trkpt lat="42.49504" lon="2.4113">
        <ele>1716</ele>
        <time>2024-07-13T11:55:06Z</time>
      </trkpt>
      <trkpt lat="42.49502" lon="2.41131">
        <ele>1715.8</ele>
        <time>2024-07-13T11:55:08Z</time>
      </trkpt>
      <trkpt lat="42.495" lon="2.41131">
        <ele>1715.8</ele>
        <time>2024-07-13T11:55:09Z</time>
      </trkpt>
      <trkpt lat="42.49494" lon="2.41138">
        <ele>1716.2</ele>
        <time>2024-07-13T11:55:13Z</time>
      </trkpt>
      <trkpt lat="42.49491" lon="2.41139">
        <ele>1716.4</ele>
        <time>2024-07-13T11:55:15Z</time>
      </trkpt>
      <trkpt lat="42.49489" lon="2.4114">
        <ele>1716.4</ele>
        <time>2024-07-13T11:55:17Z</time>
      </trkpt>
      <trkpt lat="42.49487" lon="2.41142">
        <ele>1716.4</ele>
        <time>2024-07-13T11:55:18Z</time>
      </trkpt>
      <trkpt lat="42.49486" lon="2.41144">
        <ele>1716.4</ele>
        <time>2024-07-13T11:55:19Z</time>
      </trkpt>
      <trkpt lat="42.49485" lon="2.41146">
        <ele>1716</ele>
        <time>2024-07-13T11:55:21Z</time>
      </trkpt>
      <trkpt lat="42.49483" lon="2.41147">
        <ele>1715.8</ele>
        <time>2024-07-13T11:55:23Z</time>
      </trkpt>
      <trkpt lat="42.49482" lon="2.41148">
        <ele>1715.6</ele>
        <time>2024-07-13T11:55:24Z</time>
      </trkpt>
      <trkpt lat="42.49477" lon="2.41154">
        <ele>1715.6</ele>
        <time>2024-07-13T11:55:29Z</time>
      </trkpt>
      <trkpt lat="42.49476" lon="2.41155">
        <ele>1715.8</ele>
        <time>2024-07-13T11:55:30Z</time>
      </trkpt>
      <trkpt lat="42.49474" lon="2.41156">
        <ele>1716.2</ele>
        <time>2024-07-13T11:55:32Z</time>
      </trkpt>
      <trkpt lat="42.49473" lon="2.41157">
        <ele>1716.4</ele>
        <time>2024-07-13T11:55:33Z</time>
      </trkpt>
      <trkpt lat="42.49472" lon="2.41159">
        <ele>1716.6</ele>
        <time>2024-07-13T11:55:36Z</time>
      </trkpt>
      <trkpt lat="42.49473" lon="2.4116">
        <ele>1716.2</ele>
        <time>2024-07-13T11:55:38Z</time>
      </trkpt>
      <trkpt lat="42.49472" lon="2.4116">
        <ele>1716.2</ele>
        <time>2024-07-13T11:55:39Z</time>
      </trkpt>
      <trkpt lat="42.4947" lon="2.41162">
        <ele>1716</ele>
        <time>2024-07-13T11:55:43Z</time>
      </trkpt>
      <trkpt lat="42.49468" lon="2.41164">
        <ele>1716.4</ele>
        <time>2024-07-13T11:55:46Z</time>
      </trkpt>
      <trkpt lat="42.49467" lon="2.41165">
        <ele>1716.6</ele>
        <time>2024-07-13T11:55:47Z</time>
      </trkpt>
      <trkpt lat="42.49463" lon="2.4117">
        <ele>1717.2</ele>
        <time>2024-07-13T11:55:51Z</time>
      </trkpt>
      <trkpt lat="42.49459" lon="2.41173">
        <ele>1716.8</ele>
        <time>2024-07-13T11:55:56Z</time>
      </trkpt>
      <trkpt lat="42.49457" lon="2.4117">
        <ele>1715.6</ele>
        <time>2024-07-13T11:56:00Z</time>
      </trkpt>
      <trkpt lat="42.49458" lon="2.41172">
        <ele>1715.4</ele>
        <time>2024-07-13T11:56:04Z</time>
      </trkpt>
      <trkpt lat="42.49463" lon="2.41174">
        <ele>1715.8</ele>
        <time>2024-07-13T11:56:08Z</time>
      </trkpt>
      <trkpt lat="42.49468" lon="2.41176">
        <ele>1716.8</ele>
        <time>2024-07-13T11:56:12Z</time>
      </trkpt>
      <trkpt lat="42.49468" lon="2.41176">
        <ele>1717</ele>
        <time>2024-07-13T11:56:13Z</time>
      </trkpt>
      <trkpt lat="42.49468" lon="2.41179">
        <ele>1718</ele>
        <time>2024-07-13T11:56:16Z</time>
      </trkpt>
      <trkpt lat="42.49469" lon="2.41179">
        <ele>1718.8</ele>
        <time>2024-07-13T11:56:19Z</time>
      </trkpt>
      <trkpt lat="42.49475" lon="2.41177">
        <ele>1720</ele>
        <time>2024-07-13T11:56:24Z</time>
      </trkpt>
      <trkpt lat="42.49477" lon="2.41176">
        <ele>1721</ele>
        <time>2024-07-13T11:56:29Z</time>
      </trkpt>
      <trkpt lat="42.49485" lon="2.41174">
        <ele>1720</ele>
        <time>2024-07-13T11:56:38Z</time>
      </trkpt>
      <trkpt lat="42.4949" lon="2.41169">
        <ele>1718.6</ele>
        <time>2024-07-13T11:56:44Z</time>
      </trkpt>
      <trkpt lat="42.49491" lon="2.41169">
        <ele>1718.4</ele>
        <time>2024-07-13T11:56:45Z</time>
      </trkpt>
      <trkpt lat="42.49494" lon="2.41168">
        <ele>1717.8</ele>
        <time>2024-07-13T11:56:49Z</time>
      </trkpt>
      <trkpt lat="42.49495" lon="2.41162">
        <ele>1718</ele>
        <time>2024-07-13T11:56:52Z</time>
      </trkpt>
      <trkpt lat="42.495" lon="2.41154">
        <ele>1719.8</ele>
        <time>2024-07-13T11:56:58Z</time>
      </trkpt>
      <trkpt lat="42.49501" lon="2.41152">
        <ele>1720</ele>
        <time>2024-07-13T11:56:59Z</time>
      </trkpt>
      <trkpt lat="42.49502" lon="2.41149">
        <ele>1720.8</ele>
        <time>2024-07-13T11:57:01Z</time>
      </trkpt>
      <trkpt lat="42.49505" lon="2.41147">
        <ele>1721.2</ele>
        <time>2024-07-13T11:57:03Z</time>
      </trkpt>
      <trkpt lat="42.49506" lon="2.41144">
        <ele>1722</ele>
        <time>2024-07-13T11:57:05Z</time>
      </trkpt>
      <trkpt lat="42.4951" lon="2.41141">
        <ele>1724.4</ele>
        <time>2024-07-13T11:57:09Z</time>
      </trkpt>
      <trkpt lat="42.49518" lon="2.41135">
        <ele>1730.8</ele>
        <time>2024-07-13T11:57:17Z</time>
      </trkpt>
      <trkpt lat="42.49521" lon="2.41137">
        <ele>1734.4</ele>
        <time>2024-07-13T11:57:20Z</time>
      </trkpt>
      <trkpt lat="42.49525" lon="2.41141">
        <ele>1736.4</ele>
        <time>2024-07-13T11:57:23Z</time>
      </trkpt>
      <trkpt lat="42.49533" lon="2.4115">
        <ele>1735</ele>
        <time>2024-07-13T11:57:31Z</time>
      </trkpt>
      <trkpt lat="42.49539" lon="2.41159">
        <ele>1733</ele>
        <time>2024-07-13T11:57:36Z</time>
      </trkpt>
      <trkpt lat="42.49541" lon="2.41165">
        <ele>1731.8</ele>
        <time>2024-07-13T11:57:38Z</time>
      </trkpt>
      <trkpt lat="42.49545" lon="2.41172">
        <ele>1729.2</ele>
        <time>2024-07-13T11:57:44Z</time>
      </trkpt>
      <trkpt lat="42.4955" lon="2.41187">
        <ele>1726.8</ele>
        <time>2024-07-13T11:57:51Z</time>
      </trkpt>
      <trkpt lat="42.49556" lon="2.412">
        <ele>1724.8</ele>
        <time>2024-07-13T11:57:58Z</time>
      </trkpt>
      <trkpt lat="42.4956" lon="2.41202">
        <ele>1724.8</ele>
        <time>2024-07-13T11:57:59Z</time>
      </trkpt>
      <trkpt lat="42.49565" lon="2.41211">
        <ele>1727.6</ele>
        <time>2024-07-13T11:58:04Z</time>
      </trkpt>
      <trkpt lat="42.49568" lon="2.41221">
        <ele>1731.4</ele>
        <time>2024-07-13T11:58:11Z</time>
      </trkpt>
      <trkpt lat="42.49567" lon="2.41233">
        <ele>1731.8</ele>
        <time>2024-07-13T11:58:18Z</time>
      </trkpt>
      <trkpt lat="42.49567" lon="2.41244">
        <ele>1728.4</ele>
        <time>2024-07-13T11:58:27Z</time>
      </trkpt>
      <trkpt lat="42.49565" lon="2.41255">
        <ele>1726</ele>
        <time>2024-07-13T11:58:33Z</time>
      </trkpt>
      <trkpt lat="42.49566" lon="2.4126">
        <ele>1722.6</ele>
        <time>2024-07-13T11:58:37Z</time>
      </trkpt>
      <trkpt lat="42.49564" lon="2.41263">
        <ele>1721.8</ele>
        <time>2024-07-13T11:58:39Z</time>
      </trkpt>
      <trkpt lat="42.49563" lon="2.41264">
        <ele>1721.6</ele>
        <time>2024-07-13T11:58:40Z</time>
      </trkpt>
      <trkpt lat="42.4956" lon="2.41265">
        <ele>1720.8</ele>
        <time>2024-07-13T11:58:42Z</time>
      </trkpt>
      <trkpt lat="42.49559" lon="2.41266">
        <ele>1719</ele>
        <time>2024-07-13T11:58:45Z</time>
      </trkpt>
      <trkpt lat="42.49562" lon="2.41267">
        <ele>1719.4</ele>
        <time>2024-07-13T11:58:50Z</time>
      </trkpt>
      <trkpt lat="42.49561" lon="2.41271">
        <ele>1721</ele>
        <time>2024-07-13T11:58:52Z</time>
      </trkpt>
      <trkpt lat="42.49562" lon="2.41275">
        <ele>1722.4</ele>
        <time>2024-07-13T11:58:55Z</time>
      </trkpt>
      <trkpt lat="42.49563" lon="2.41278">
        <ele>1723</ele>
        <time>2024-07-13T11:58:57Z</time>
      </trkpt>
      <trkpt lat="42.49567" lon="2.41287">
        <ele>1723.8</ele>
        <time>2024-07-13T11:59:05Z</time>
      </trkpt>
      <trkpt lat="42.49568" lon="2.41291">
        <ele>1726.8</ele>
        <time>2024-07-13T11:59:11Z</time>
      </trkpt>
      <trkpt lat="42.49568" lon="2.41293">
        <ele>1727.6</ele>
        <time>2024-07-13T11:59:12Z</time>
      </trkpt>
      <trkpt lat="42.49569" lon="2.41294">
        <ele>1728.6</ele>
        <time>2024-07-13T11:59:14Z</time>
      </trkpt>
      <trkpt lat="42.49566" lon="2.41304">
        <ele>1729.2</ele>
        <time>2024-07-13T11:59:17Z</time>
      </trkpt>
      <trkpt lat="42.49563" lon="2.4131">
        <ele>1726.6</ele>
        <time>2024-07-13T11:59:21Z</time>
      </trkpt>
      <trkpt lat="42.49564" lon="2.41312">
        <ele>1724.4</ele>
        <time>2024-07-13T11:59:23Z</time>
      </trkpt>
      <trkpt lat="42.49563" lon="2.41313">
        <ele>1723</ele>
        <time>2024-07-13T11:59:25Z</time>
      </trkpt>
      <trkpt lat="42.49562" lon="2.41313">
        <ele>1722</ele>
        <time>2024-07-13T11:59:27Z</time>
      </trkpt>
      <trkpt lat="42.49561" lon="2.41317">
        <ele>1721.6</ele>
        <time>2024-07-13T11:59:30Z</time>
      </trkpt>
      <trkpt lat="42.49562" lon="2.4132">
        <ele>1721.8</ele>
        <time>2024-07-13T11:59:32Z</time>
      </trkpt>
      <trkpt lat="42.49565" lon="2.4132">
        <ele>1722.6</ele>
        <time>2024-07-13T11:59:35Z</time>
      </trkpt>
      <trkpt lat="42.49566" lon="2.41324">
        <ele>1724.6</ele>
        <time>2024-07-13T11:59:39Z</time>
      </trkpt>
      <trkpt lat="42.4957" lon="2.41331">
        <ele>1730</ele>
        <time>2024-07-13T11:59:46Z</time>
      </trkpt>
      <trkpt lat="42.49573" lon="2.41337">
        <ele>1733</ele>
        <time>2024-07-13T11:59:51Z</time>
      </trkpt>
      <trkpt lat="42.49576" lon="2.41346">
        <ele>1735.6</ele>
        <time>2024-07-13T11:59:56Z</time>
      </trkpt>
      <trkpt lat="42.49577" lon="2.41348">
        <ele>1735.8</ele>
        <time>2024-07-13T11:59:57Z</time>
      </trkpt>
      <trkpt lat="42.49578" lon="2.41349">
        <ele>1736</ele>
        <time>2024-07-13T11:59:58Z</time>
      </trkpt>
      <trkpt lat="42.49579" lon="2.41362">
        <ele>1734.4</ele>
        <time>2024-07-13T12:00:04Z</time>
      </trkpt>
      <trkpt lat="42.49582" lon="2.41367">
        <ele>1732.4</ele>
        <time>2024-07-13T12:00:07Z</time>
      </trkpt>
      <trkpt lat="42.49583" lon="2.41372">
        <ele>1731.4</ele>
        <time>2024-07-13T12:00:11Z</time>
      </trkpt>
      <trkpt lat="42.49584" lon="2.4138">
        <ele>1730.8</ele>
        <time>2024-07-13T12:00:17Z</time>
      </trkpt>
      <trkpt lat="42.49584" lon="2.41383">
        <ele>1729</ele>
        <time>2024-07-13T12:00:22Z</time>
      </trkpt>
      <trkpt lat="42.49585" lon="2.4139">
        <ele>1729.2</ele>
        <time>2024-07-13T12:00:27Z</time>
      </trkpt>
      <trkpt lat="42.49587" lon="2.41401">
        <ele>1728.8</ele>
        <time>2024-07-13T12:00:34Z</time>
      </trkpt>
      <trkpt lat="42.4959" lon="2.4141">
        <ele>1728</ele>
        <time>2024-07-13T12:00:40Z</time>
      </trkpt>
      <trkpt lat="42.49594" lon="2.4142">
        <ele>1728.6</ele>
        <time>2024-07-13T12:00:48Z</time>
      </trkpt>
      <trkpt lat="42.49594" lon="2.41432">
        <ele>1729.2</ele>
        <time>2024-07-13T12:00:54Z</time>
      </trkpt>
      <trkpt lat="42.49593" lon="2.41435">
        <ele>1726.4</ele>
        <time>2024-07-13T12:00:59Z</time>
      </trkpt>
      <trkpt lat="42.49591" lon="2.41442">
        <ele>1725.4</ele>
        <time>2024-07-13T12:01:04Z</time>
      </trkpt>
      <trkpt lat="42.49594" lon="2.41449">
        <ele>1726</ele>
        <time>2024-07-13T12:01:09Z</time>
      </trkpt>
      <trkpt lat="42.49599" lon="2.41452">
        <ele>1724.6</ele>
        <time>2024-07-13T12:01:15Z</time>
      </trkpt>
      <trkpt lat="42.49599" lon="2.41458">
        <ele>1725</ele>
        <time>2024-07-13T12:01:20Z</time>
      </trkpt>
      <trkpt lat="42.49601" lon="2.41461">
        <ele>1725.6</ele>
        <time>2024-07-13T12:01:23Z</time>
      </trkpt>
      <trkpt lat="42.49602" lon="2.41462">
        <ele>1726</ele>
        <time>2024-07-13T12:01:25Z</time>
      </trkpt>
      <trkpt lat="42.49612" lon="2.4147">
        <ele>1728.2</ele>
        <time>2024-07-13T12:01:33Z</time>
      </trkpt>
      <trkpt lat="42.49614" lon="2.41476">
        <ele>1728.4</ele>
        <time>2024-07-13T12:01:38Z</time>
      </trkpt>
      <trkpt lat="42.49616" lon="2.41477">
        <ele>1727</ele>
        <time>2024-07-13T12:01:44Z</time>
      </trkpt>
      <trkpt lat="42.49619" lon="2.41483">
        <ele>1724.8</ele>
        <time>2024-07-13T12:01:49Z</time>
      </trkpt>
      <trkpt lat="42.49627" lon="2.41493">
        <ele>1728</ele>
        <time>2024-07-13T12:01:57Z</time>
      </trkpt>
      <trkpt lat="42.49628" lon="2.41497">
        <ele>1729.8</ele>
        <time>2024-07-13T12:02:02Z</time>
      </trkpt>
      <trkpt lat="42.4963" lon="2.41503">
        <ele>1731.8</ele>
        <time>2024-07-13T12:02:10Z</time>
      </trkpt>
      <trkpt lat="42.49635" lon="2.41511">
        <ele>1733.4</ele>
        <time>2024-07-13T12:02:18Z</time>
      </trkpt>
      <trkpt lat="42.4964" lon="2.4152">
        <ele>1735.4</ele>
        <time>2024-07-13T12:02:25Z</time>
      </trkpt>
      <trkpt lat="42.49642" lon="2.41524">
        <ele>1735.8</ele>
        <time>2024-07-13T12:02:29Z</time>
      </trkpt>
      <trkpt lat="42.49651" lon="2.41539">
        <ele>1737.6</ele>
        <time>2024-07-13T12:02:36Z</time>
      </trkpt>
      <trkpt lat="42.49657" lon="2.41542">
        <ele>1738.6</ele>
        <time>2024-07-13T12:02:44Z</time>
      </trkpt>
      <trkpt lat="42.49664" lon="2.41549">
        <ele>1740.2</ele>
        <time>2024-07-13T12:02:53Z</time>
      </trkpt>
      <trkpt lat="42.49669" lon="2.41555">
        <ele>1740</ele>
        <time>2024-07-13T12:03:01Z</time>
      </trkpt>
      <trkpt lat="42.49672" lon="2.41559">
        <ele>1738.8</ele>
        <time>2024-07-13T12:03:07Z</time>
      </trkpt>
      <trkpt lat="42.49677" lon="2.41564">
        <ele>1739.8</ele>
        <time>2024-07-13T12:03:14Z</time>
      </trkpt>
      <trkpt lat="42.49677" lon="2.41568">
        <ele>1742</ele>
        <time>2024-07-13T12:03:20Z</time>
      </trkpt>
      <trkpt lat="42.49682" lon="2.41573">
        <ele>1742.4</ele>
        <time>2024-07-13T12:03:26Z</time>
      </trkpt>
      <trkpt lat="42.49688" lon="2.4158">
        <ele>1742.8</ele>
        <time>2024-07-13T12:03:32Z</time>
      </trkpt>
      <trkpt lat="42.49697" lon="2.41587">
        <ele>1745.2</ele>
        <time>2024-07-13T12:03:40Z</time>
      </trkpt>
      <trkpt lat="42.49701" lon="2.41587">
        <ele>1745.4</ele>
        <time>2024-07-13T12:03:43Z</time>
      </trkpt>
      <trkpt lat="42.49705" lon="2.4159">
        <ele>1745.2</ele>
        <time>2024-07-13T12:03:47Z</time>
      </trkpt>
      <trkpt lat="42.49711" lon="2.41598">
        <ele>1747.4</ele>
        <time>2024-07-13T12:03:55Z</time>
      </trkpt>
      <trkpt lat="42.49715" lon="2.41604">
        <ele>1746</ele>
        <time>2024-07-13T12:04:02Z</time>
      </trkpt>
      <trkpt lat="42.49717" lon="2.41604">
        <ele>1745.6</ele>
        <time>2024-07-13T12:04:03Z</time>
      </trkpt>
      <trkpt lat="42.49721" lon="2.41604">
        <ele>1745.4</ele>
        <time>2024-07-13T12:04:09Z</time>
      </trkpt>
      <trkpt lat="42.4973" lon="2.41611">
        <ele>1748.8</ele>
        <time>2024-07-13T12:04:16Z</time>
      </trkpt>
      <trkpt lat="42.49737" lon="2.4162">
        <ele>1750.8</ele>
        <time>2024-07-13T12:04:22Z</time>
      </trkpt>
      <trkpt lat="42.4974" lon="2.41623">
        <ele>1751</ele>
        <time>2024-07-13T12:04:25Z</time>
      </trkpt>
      <trkpt lat="42.49742" lon="2.41626">
        <ele>1751.2</ele>
        <time>2024-07-13T12:04:28Z</time>
      </trkpt>
      <trkpt lat="42.49743" lon="2.41627">
        <ele>1751</ele>
        <time>2024-07-13T12:04:30Z</time>
      </trkpt>
      <trkpt lat="42.49745" lon="2.41631">
        <ele>1750.8</ele>
        <time>2024-07-13T12:04:33Z</time>
      </trkpt>
      <trkpt lat="42.49748" lon="2.4164">
        <ele>1751.2</ele>
        <time>2024-07-13T12:04:39Z</time>
      </trkpt>
      <trkpt lat="42.49747" lon="2.41644">
        <ele>1750</ele>
        <time>2024-07-13T12:04:43Z</time>
      </trkpt>
      <trkpt lat="42.49746" lon="2.41645">
        <ele>1749.2</ele>
        <time>2024-07-13T12:04:44Z</time>
      </trkpt>
      <trkpt lat="42.49746" lon="2.41654">
        <ele>1743.6</ele>
        <time>2024-07-13T12:04:51Z</time>
      </trkpt>
      <trkpt lat="42.49746" lon="2.41655">
        <ele>1743.2</ele>
        <time>2024-07-13T12:04:52Z</time>
      </trkpt>
      <trkpt lat="42.49746" lon="2.41661">
        <ele>1744.6</ele>
        <time>2024-07-13T12:04:58Z</time>
      </trkpt>
      <trkpt lat="42.49743" lon="2.41669">
        <ele>1747</ele>
        <time>2024-07-13T12:05:04Z</time>
      </trkpt>
      <trkpt lat="42.49743" lon="2.4167">
        <ele>1747.4</ele>
        <time>2024-07-13T12:05:05Z</time>
      </trkpt>
      <trkpt lat="42.49747" lon="2.41679">
        <ele>1750.4</ele>
        <time>2024-07-13T12:05:12Z</time>
      </trkpt>
      <trkpt lat="42.49747" lon="2.4168">
        <ele>1751</ele>
        <time>2024-07-13T12:05:13Z</time>
      </trkpt>
      <trkpt lat="42.49747" lon="2.41695">
        <ele>1752.8</ele>
        <time>2024-07-13T12:05:19Z</time>
      </trkpt>
      <trkpt lat="42.49747" lon="2.41696">
        <ele>1752.8</ele>
        <time>2024-07-13T12:05:20Z</time>
      </trkpt>
      <trkpt lat="42.49746" lon="2.41702">
        <ele>1753.8</ele>
        <time>2024-07-13T12:05:24Z</time>
      </trkpt>
      <trkpt lat="42.49742" lon="2.41704">
        <ele>1754.4</ele>
        <time>2024-07-13T12:05:26Z</time>
      </trkpt>
      <trkpt lat="42.49739" lon="2.41706">
        <ele>1755</ele>
        <time>2024-07-13T12:05:28Z</time>
      </trkpt>
      <trkpt lat="42.49738" lon="2.41708">
        <ele>1755.2</ele>
        <time>2024-07-13T12:05:29Z</time>
      </trkpt>
      <trkpt lat="42.49736" lon="2.41712">
        <ele>1755.4</ele>
        <time>2024-07-13T12:05:31Z</time>
      </trkpt>
      <trkpt lat="42.49734" lon="2.41713">
        <ele>1755.4</ele>
        <time>2024-07-13T12:05:32Z</time>
      </trkpt>
      <trkpt lat="42.49733" lon="2.41715">
        <ele>1755.2</ele>
        <time>2024-07-13T12:05:33Z</time>
      </trkpt>
      <trkpt lat="42.49733" lon="2.41721">
        <ele>1754.6</ele>
        <time>2024-07-13T12:05:35Z</time>
      </trkpt>
      <trkpt lat="42.49733" lon="2.41724">
        <ele>1753.8</ele>
        <time>2024-07-13T12:05:36Z</time>
      </trkpt>
      <trkpt lat="42.49733" lon="2.41725">
        <ele>1753.2</ele>
        <time>2024-07-13T12:05:37Z</time>
      </trkpt>
      <trkpt lat="42.49733" lon="2.41726">
        <ele>1752.2</ele>
        <time>2024-07-13T12:05:39Z</time>
      </trkpt>
      <trkpt lat="42.49733" lon="2.41728">
        <ele>1751.8</ele>
        <time>2024-07-13T12:05:40Z</time>
      </trkpt>
      <trkpt lat="42.49734" lon="2.4173">
        <ele>1751.2</ele>
        <time>2024-07-13T12:05:43Z</time>
      </trkpt>
      <trkpt lat="42.49734" lon="2.41731">
        <ele>1751.4</ele>
        <time>2024-07-13T12:05:44Z</time>
      </trkpt>
      <trkpt lat="42.49733" lon="2.41736">
        <ele>1752.4</ele>
        <time>2024-07-13T12:05:48Z</time>
      </trkpt>
      <trkpt lat="42.49731" lon="2.41741">
        <ele>1753</ele>
        <time>2024-07-13T12:05:52Z</time>
      </trkpt>
      <trkpt lat="42.49731" lon="2.41743">
        <ele>1753</ele>
        <time>2024-07-13T12:05:53Z</time>
      </trkpt>
      <trkpt lat="42.4973" lon="2.41744">
        <ele>1752.8</ele>
        <time>2024-07-13T12:05:55Z</time>
      </trkpt>
      <trkpt lat="42.49728" lon="2.41744">
        <ele>1752.6</ele>
        <time>2024-07-13T12:05:57Z</time>
      </trkpt>
      <trkpt lat="42.49729" lon="2.41745">
        <ele>1752.2</ele>
        <time>2024-07-13T12:05:59Z</time>
      </trkpt>
      <trkpt lat="42.49729" lon="2.41746">
        <ele>1752</ele>
        <time>2024-07-13T12:06:01Z</time>
      </trkpt>
      <trkpt lat="42.4973" lon="2.41751">
        <ele>1752.8</ele>
        <time>2024-07-13T12:06:05Z</time>
      </trkpt>
      <trkpt lat="42.49728" lon="2.4176">
        <ele>1753.2</ele>
        <time>2024-07-13T12:06:11Z</time>
      </trkpt>
      <trkpt lat="42.49726" lon="2.4176">
        <ele>1753.2</ele>
        <time>2024-07-13T12:06:13Z</time>
      </trkpt>
      <trkpt lat="42.49725" lon="2.41762">
        <ele>1753.2</ele>
        <time>2024-07-13T12:06:14Z</time>
      </trkpt>
      <trkpt lat="42.49725" lon="2.41764">
        <ele>1753.4</ele>
        <time>2024-07-13T12:06:15Z</time>
      </trkpt>
      <trkpt lat="42.49723" lon="2.41772">
        <ele>1754.6</ele>
        <time>2024-07-13T12:06:20Z</time>
      </trkpt>
      <trkpt lat="42.49722" lon="2.41773">
        <ele>1754.8</ele>
        <time>2024-07-13T12:06:21Z</time>
      </trkpt>
      <trkpt lat="42.4972" lon="2.41776">
        <ele>1754.8</ele>
        <time>2024-07-13T12:06:23Z</time>
      </trkpt>
      <trkpt lat="42.49717" lon="2.41778">
        <ele>1755.8</ele>
        <time>2024-07-13T12:06:26Z</time>
      </trkpt>
      <trkpt lat="42.4972" lon="2.41783">
        <ele>1757.2</ele>
        <time>2024-07-13T12:06:31Z</time>
      </trkpt>
      <trkpt lat="42.49721" lon="2.41795">
        <ele>1758.2</ele>
        <time>2024-07-13T12:06:36Z</time>
      </trkpt>
      <trkpt lat="42.49719" lon="2.41797">
        <ele>1758.4</ele>
        <time>2024-07-13T12:06:37Z</time>
      </trkpt>
      <trkpt lat="42.49717" lon="2.41798">
        <ele>1758.6</ele>
        <time>2024-07-13T12:06:39Z</time>
      </trkpt>
      <trkpt lat="42.49716" lon="2.41801">
        <ele>1758.6</ele>
        <time>2024-07-13T12:06:41Z</time>
      </trkpt>
      <trkpt lat="42.49716" lon="2.41803">
        <ele>1758.6</ele>
        <time>2024-07-13T12:06:42Z</time>
      </trkpt>
      <trkpt lat="42.49717" lon="2.41808">
        <ele>1758.2</ele>
        <time>2024-07-13T12:06:44Z</time>
      </trkpt>
      <trkpt lat="42.49718" lon="2.41811">
        <ele>1758</ele>
        <time>2024-07-13T12:06:46Z</time>
      </trkpt>
      <trkpt lat="42.49719" lon="2.41817">
        <ele>1757.8</ele>
        <time>2024-07-13T12:06:50Z</time>
      </trkpt>
      <trkpt lat="42.49717" lon="2.41818">
        <ele>1758.2</ele>
        <time>2024-07-13T12:06:52Z</time>
      </trkpt>
      <trkpt lat="42.49715" lon="2.41823">
        <ele>1759.2</ele>
        <time>2024-07-13T12:06:56Z</time>
      </trkpt>
      <trkpt lat="42.49717" lon="2.41827">
        <ele>1759.8</ele>
        <time>2024-07-13T12:06:59Z</time>
      </trkpt>
      <trkpt lat="42.49716" lon="2.41827">
        <ele>1759.8</ele>
        <time>2024-07-13T12:07:00Z</time>
      </trkpt>
      <trkpt lat="42.49711" lon="2.41829">
        <ele>1760.2</ele>
        <time>2024-07-13T12:07:04Z</time>
      </trkpt>
      <trkpt lat="42.49707" lon="2.41828">
        <ele>1760.2</ele>
        <time>2024-07-13T12:07:05Z</time>
      </trkpt>
      <trkpt lat="42.49701" lon="2.41826">
        <ele>1760.6</ele>
        <time>2024-07-13T12:07:09Z</time>
      </trkpt>
      <trkpt lat="42.49699" lon="2.41831">
        <ele>1763.4</ele>
        <time>2024-07-13T12:07:14Z</time>
      </trkpt>
      <trkpt lat="42.49698" lon="2.41838">
        <ele>1766.6</ele>
        <time>2024-07-13T12:07:18Z</time>
      </trkpt>
      <trkpt lat="42.49699" lon="2.41847">
        <ele>1769.2</ele>
        <time>2024-07-13T12:07:22Z</time>
      </trkpt>
      <trkpt lat="42.49696" lon="2.41851">
        <ele>1770.6</ele>
        <time>2024-07-13T12:07:27Z</time>
      </trkpt>
      <trkpt lat="42.49696" lon="2.4185">
        <ele>1771.6</ele>
        <time>2024-07-13T12:07:32Z</time>
      </trkpt>
      <trkpt lat="42.49691" lon="2.41842">
        <ele>1772.6</ele>
        <time>2024-07-13T12:07:35Z</time>
      </trkpt>
      <trkpt lat="42.49691" lon="2.41838">
        <ele>1773.6</ele>
        <time>2024-07-13T12:07:38Z</time>
      </trkpt>
      <trkpt lat="42.49685" lon="2.41832">
        <ele>1774.2</ele>
        <time>2024-07-13T12:07:40Z</time>
      </trkpt>
      <trkpt lat="42.49675" lon="2.41823">
        <ele>1775.8</ele>
        <time>2024-07-13T12:07:43Z</time>
      </trkpt>
      <trkpt lat="42.49673" lon="2.41818">
        <ele>1777.8</ele>
        <time>2024-07-13T12:07:46Z</time>
      </trkpt>
      <trkpt lat="42.4967" lon="2.41813">
        <ele>1780.2</ele>
        <time>2024-07-13T12:07:49Z</time>
      </trkpt>
      <trkpt lat="42.49675" lon="2.41814">
        <ele>1781.4</ele>
        <time>2024-07-13T12:07:52Z</time>
      </trkpt>
      <trkpt lat="42.49671" lon="2.41809">
        <ele>1782.8</ele>
        <time>2024-07-13T12:07:55Z</time>
      </trkpt>
      <trkpt lat="42.49667" lon="2.41805">
        <ele>1783.4</ele>
        <time>2024-07-13T12:07:57Z</time>
      </trkpt>
      <trkpt lat="42.49674" lon="2.41807">
        <ele>1782.8</ele>
        <time>2024-07-13T12:08:01Z</time>
      </trkpt>
      <trkpt lat="42.49679" lon="2.41806">
        <ele>1779.8</ele>
        <time>2024-07-13T12:08:07Z</time>
      </trkpt>
      <trkpt lat="42.49684" lon="2.41802">
        <ele>1779</ele>
        <time>2024-07-13T12:08:12Z</time>
      </trkpt>
      <trkpt lat="42.49683" lon="2.418">
        <ele>1778.8</ele>
        <time>2024-07-13T12:08:17Z</time>
      </trkpt>
      <trkpt lat="42.4968" lon="2.41794">
        <ele>1778.8</ele>
        <time>2024-07-13T12:08:21Z</time>
      </trkpt>
      <trkpt lat="42.49673" lon="2.41784">
        <ele>1779.4</ele>
        <time>2024-07-13T12:08:26Z</time>
      </trkpt>
      <trkpt lat="42.49673" lon="2.41776">
        <ele>1779.8</ele>
        <time>2024-07-13T12:08:32Z</time>
      </trkpt>
      <trkpt lat="42.49674" lon="2.41769">
        <ele>1780.6</ele>
        <time>2024-07-13T12:08:37Z</time>
      </trkpt>
      <trkpt lat="42.49672" lon="2.41766">
        <ele>1781.4</ele>
        <time>2024-07-13T12:08:41Z</time>
      </trkpt>
      <trkpt lat="42.49678" lon="2.4177">
        <ele>1782.2</ele>
        <time>2024-07-13T12:08:45Z</time>
      </trkpt>
      <trkpt lat="42.49682" lon="2.41772">
        <ele>1782.6</ele>
        <time>2024-07-13T12:08:46Z</time>
      </trkpt>
      <trkpt lat="42.49684" lon="2.41778">
        <ele>1784.4</ele>
        <time>2024-07-13T12:08:50Z</time>
      </trkpt>
      <trkpt lat="42.49686" lon="2.41788">
        <ele>1785.6</ele>
        <time>2024-07-13T12:08:54Z</time>
      </trkpt>
      <trkpt lat="42.49685" lon="2.4179">
        <ele>1785.4</ele>
        <time>2024-07-13T12:08:56Z</time>
      </trkpt>
      <trkpt lat="42.49685" lon="2.41791">
        <ele>1785.2</ele>
        <time>2024-07-13T12:08:58Z</time>
      </trkpt>
      <trkpt lat="42.49686" lon="2.41793">
        <ele>1785.2</ele>
        <time>2024-07-13T12:08:59Z</time>
      </trkpt>
      <trkpt lat="42.49684" lon="2.41794">
        <ele>1785.2</ele>
        <time>2024-07-13T12:09:02Z</time>
      </trkpt>
      <trkpt lat="42.49682" lon="2.41796">
        <ele>1785.6</ele>
        <time>2024-07-13T12:09:04Z</time>
      </trkpt>
      <trkpt lat="42.49681" lon="2.41801">
        <ele>1785.8</ele>
        <time>2024-07-13T12:09:06Z</time>
      </trkpt>
      <trkpt lat="42.4968" lon="2.41802">
        <ele>1786</ele>
        <time>2024-07-13T12:09:07Z</time>
      </trkpt>
      <trkpt lat="42.4968" lon="2.41801">
        <ele>1786</ele>
        <time>2024-07-13T12:09:08Z</time>
      </trkpt>
      <trkpt lat="42.49681" lon="2.41803">
        <ele>1786.4</ele>
        <time>2024-07-13T12:09:10Z</time>
      </trkpt>
      <trkpt lat="42.49683" lon="2.41808">
        <ele>1787</ele>
        <time>2024-07-13T12:09:13Z</time>
      </trkpt>
      <trkpt lat="42.49681" lon="2.4181">
        <ele>1787.4</ele>
        <time>2024-07-13T12:09:15Z</time>
      </trkpt>
      <trkpt lat="42.4968" lon="2.41813">
        <ele>1787.8</ele>
        <time>2024-07-13T12:09:19Z</time>
      </trkpt>
      <trkpt lat="42.4968" lon="2.41819">
        <ele>1789.2</ele>
        <time>2024-07-13T12:09:26Z</time>
      </trkpt>
      <trkpt lat="42.49676" lon="2.41823">
        <ele>1789.8</ele>
        <time>2024-07-13T12:09:31Z</time>
      </trkpt>
      <trkpt lat="42.49671" lon="2.41826">
        <ele>1787.4</ele>
        <time>2024-07-13T12:09:36Z</time>
      </trkpt>
      <trkpt lat="42.49671" lon="2.41833">
        <ele>1788</ele>
        <time>2024-07-13T12:09:41Z</time>
      </trkpt>
      <trkpt lat="42.49667" lon="2.41837">
        <ele>1789.6</ele>
        <time>2024-07-13T12:09:45Z</time>
      </trkpt>
      <trkpt lat="42.4966" lon="2.41844">
        <ele>1788.8</ele>
        <time>2024-07-13T12:09:51Z</time>
      </trkpt>
      <trkpt lat="42.49659" lon="2.41851">
        <ele>1788.4</ele>
        <time>2024-07-13T12:09:56Z</time>
      </trkpt>
      <trkpt lat="42.49659" lon="2.4186">
        <ele>1788.6</ele>
        <time>2024-07-13T12:10:03Z</time>
      </trkpt>
      <trkpt lat="42.49662" lon="2.41868">
        <ele>1789.6</ele>
        <time>2024-07-13T12:10:08Z</time>
      </trkpt>
      <trkpt lat="42.49664" lon="2.41871">
        <ele>1790.6</ele>
        <time>2024-07-13T12:10:11Z</time>
      </trkpt>
      <trkpt lat="42.49662" lon="2.41871">
        <ele>1792.2</ele>
        <time>2024-07-13T12:10:15Z</time>
      </trkpt>
      <trkpt lat="42.49659" lon="2.41878">
        <ele>1794.6</ele>
        <time>2024-07-13T12:10:22Z</time>
      </trkpt>
      <trkpt lat="42.49655" lon="2.41881">
        <ele>1795.6</ele>
        <time>2024-07-13T12:10:27Z</time>
      </trkpt>
      <trkpt lat="42.49653" lon="2.41883">
        <ele>1797.6</ele>
        <time>2024-07-13T12:10:30Z</time>
      </trkpt>
      <trkpt lat="42.49651" lon="2.41886">
        <ele>1800.8</ele>
        <time>2024-07-13T12:10:34Z</time>
      </trkpt>
      <trkpt lat="42.49647" lon="2.41892">
        <ele>1802.6</ele>
        <time>2024-07-13T12:10:41Z</time>
      </trkpt>
      <trkpt lat="42.49642" lon="2.41897">
        <ele>1801.6</ele>
        <time>2024-07-13T12:10:48Z</time>
      </trkpt>
      <trkpt lat="42.49639" lon="2.41902">
        <ele>1800</ele>
        <time>2024-07-13T12:10:54Z</time>
      </trkpt>
      <trkpt lat="42.49636" lon="2.41907">
        <ele>1799.4</ele>
        <time>2024-07-13T12:10:59Z</time>
      </trkpt>
      <trkpt lat="42.49633" lon="2.41907">
        <ele>1800</ele>
        <time>2024-07-13T12:11:03Z</time>
      </trkpt>
      <trkpt lat="42.49624" lon="2.41905">
        <ele>1800.6</ele>
        <time>2024-07-13T12:11:08Z</time>
      </trkpt>
      <trkpt lat="42.49617" lon="2.41903">
        <ele>1801</ele>
        <time>2024-07-13T12:11:11Z</time>
      </trkpt>
      <trkpt lat="42.49613" lon="2.41902">
        <ele>1801</ele>
        <time>2024-07-13T12:11:13Z</time>
      </trkpt>
      <trkpt lat="42.49613" lon="2.41903">
        <ele>1801.2</ele>
        <time>2024-07-13T12:11:14Z</time>
      </trkpt>
      <trkpt lat="42.49614" lon="2.41907">
        <ele>1801.4</ele>
        <time>2024-07-13T12:11:16Z</time>
      </trkpt>
      <trkpt lat="42.4961" lon="2.41907">
        <ele>1801.6</ele>
        <time>2024-07-13T12:11:18Z</time>
      </trkpt>
      <trkpt lat="42.49609" lon="2.41907">
        <ele>1801.8</ele>
        <time>2024-07-13T12:11:19Z</time>
      </trkpt>
      <trkpt lat="42.49608" lon="2.4191">
        <ele>1802</ele>
        <time>2024-07-13T12:11:21Z</time>
      </trkpt>
      <trkpt lat="42.49609" lon="2.41915">
        <ele>1802.2</ele>
        <time>2024-07-13T12:11:25Z</time>
      </trkpt>
      <trkpt lat="42.49609" lon="2.41918">
        <ele>1802.8</ele>
        <time>2024-07-13T12:11:27Z</time>
      </trkpt>
      <trkpt lat="42.49611" lon="2.41924">
        <ele>1803.4</ele>
        <time>2024-07-13T12:11:29Z</time>
      </trkpt>
      <trkpt lat="42.49611" lon="2.41926">
        <ele>1803.8</ele>
        <time>2024-07-13T12:11:30Z</time>
      </trkpt>
      <trkpt lat="42.49613" lon="2.4193">
        <ele>1804.4</ele>
        <time>2024-07-13T12:11:32Z</time>
      </trkpt>
      <trkpt lat="42.49614" lon="2.41932">
        <ele>1804.6</ele>
        <time>2024-07-13T12:11:33Z</time>
      </trkpt>
      <trkpt lat="42.49613" lon="2.41935">
        <ele>1805</ele>
        <time>2024-07-13T12:11:35Z</time>
      </trkpt>
      <trkpt lat="42.4961" lon="2.41937">
        <ele>1805.8</ele>
        <time>2024-07-13T12:11:38Z</time>
      </trkpt>
      <trkpt lat="42.4961" lon="2.41938">
        <ele>1806</ele>
        <time>2024-07-13T12:11:39Z</time>
      </trkpt>
      <trkpt lat="42.49612" lon="2.41946">
        <ele>1806.4</ele>
        <time>2024-07-13T12:11:44Z</time>
      </trkpt>
      <trkpt lat="42.49614" lon="2.41958">
        <ele>1807</ele>
        <time>2024-07-13T12:11:51Z</time>
      </trkpt>
      <trkpt lat="42.49614" lon="2.41961">
        <ele>1807</ele>
        <time>2024-07-13T12:11:52Z</time>
      </trkpt>
      <trkpt lat="42.49615" lon="2.41965">
        <ele>1806.8</ele>
        <time>2024-07-13T12:11:54Z</time>
      </trkpt>
      <trkpt lat="42.49617" lon="2.41968">
        <ele>1806.8</ele>
        <time>2024-07-13T12:11:55Z</time>
      </trkpt>
      <trkpt lat="42.49617" lon="2.41969">
        <ele>1806.8</ele>
        <time>2024-07-13T12:11:56Z</time>
      </trkpt>
      <trkpt lat="42.49616" lon="2.41974">
        <ele>1806.8</ele>
        <time>2024-07-13T12:11:59Z</time>
      </trkpt>
      <trkpt lat="42.49619" lon="2.41984">
        <ele>1807</ele>
        <time>2024-07-13T12:12:03Z</time>
      </trkpt>
      <trkpt lat="42.49622" lon="2.41992">
        <ele>1807.4</ele>
        <time>2024-07-13T12:12:06Z</time>
      </trkpt>
      <trkpt lat="42.49623" lon="2.41997">
        <ele>1807.4</ele>
        <time>2024-07-13T12:12:08Z</time>
      </trkpt>
      <trkpt lat="42.49624" lon="2.41999">
        <ele>1807.6</ele>
        <time>2024-07-13T12:12:09Z</time>
      </trkpt>
      <trkpt lat="42.49626" lon="2.42002">
        <ele>1807.6</ele>
        <time>2024-07-13T12:12:11Z</time>
      </trkpt>
      <trkpt lat="42.49626" lon="2.42004">
        <ele>1807.6</ele>
        <time>2024-07-13T12:12:12Z</time>
      </trkpt>
      <trkpt lat="42.49624" lon="2.4201">
        <ele>1807</ele>
        <time>2024-07-13T12:12:19Z</time>
      </trkpt>
      <trkpt lat="42.49623" lon="2.4201">
        <ele>1806.8</ele>
        <time>2024-07-13T12:12:20Z</time>
      </trkpt>
      <trkpt lat="42.49617" lon="2.42008">
        <ele>1806.2</ele>
        <time>2024-07-13T12:12:24Z</time>
      </trkpt>
      <trkpt lat="42.49615" lon="2.42007">
        <ele>1806</ele>
        <time>2024-07-13T12:12:28Z</time>
      </trkpt>
      <trkpt lat="42.49615" lon="2.42008">
        <ele>1806.2</ele>
        <time>2024-07-13T12:12:29Z</time>
      </trkpt>
      <trkpt lat="42.49615" lon="2.42009">
        <ele>1806.4</ele>
        <time>2024-07-13T12:12:30Z</time>
      </trkpt>
      <trkpt lat="42.49616" lon="2.4201">
        <ele>1807</ele>
        <time>2024-07-13T12:12:33Z</time>
      </trkpt>
      <trkpt lat="42.49617" lon="2.4201">
        <ele>1806.2</ele>
        <time>2024-07-13T12:12:38Z</time>
      </trkpt>
      <trkpt lat="42.49618" lon="2.42006">
        <ele>1806</ele>
        <time>2024-07-13T12:12:45Z</time>
      </trkpt>
      <trkpt lat="42.49621" lon="2.42002">
        <ele>1810</ele>
        <time>2024-07-13T12:12:54Z</time>
      </trkpt>
      <trkpt lat="42.49625" lon="2.41995">
        <ele>1813.2</ele>
        <time>2024-07-13T12:13:01Z</time>
      </trkpt>
      <trkpt lat="42.49627" lon="2.41985">
        <ele>1817.8</ele>
        <time>2024-07-13T12:13:07Z</time>
      </trkpt>
      <trkpt lat="42.49627" lon="2.4198">
        <ele>1820</ele>
        <time>2024-07-13T12:13:10Z</time>
      </trkpt>
      <trkpt lat="42.49627" lon="2.41978">
        <ele>1821.4</ele>
        <time>2024-07-13T12:13:12Z</time>
      </trkpt>
      <trkpt lat="42.49629" lon="2.41977">
        <ele>1823.6</ele>
        <time>2024-07-13T12:13:14Z</time>
      </trkpt>
      <trkpt lat="42.49634" lon="2.4197">
        <ele>1827.6</ele>
        <time>2024-07-13T12:13:22Z</time>
      </trkpt>
      <trkpt lat="42.49641" lon="2.41968">
        <ele>1831.2</ele>
        <time>2024-07-13T12:13:31Z</time>
      </trkpt>
      <trkpt lat="42.49645" lon="2.41966">
        <ele>1832.4</ele>
        <time>2024-07-13T12:13:38Z</time>
      </trkpt>
      <trkpt lat="42.49648" lon="2.41964">
        <ele>1833.4</ele>
        <time>2024-07-13T12:13:43Z</time>
      </trkpt>
      <trkpt lat="42.49654" lon="2.41969">
        <ele>1834.8</ele>
        <time>2024-07-13T12:13:51Z</time>
      </trkpt>
      <trkpt lat="42.4966" lon="2.41977">
        <ele>1838.4</ele>
        <time>2024-07-13T12:13:57Z</time>
      </trkpt>
      <trkpt lat="42.49667" lon="2.41984">
        <ele>1839.8</ele>
        <time>2024-07-13T12:14:07Z</time>
      </trkpt>
      <trkpt lat="42.49671" lon="2.41987">
        <ele>1840.4</ele>
        <time>2024-07-13T12:14:12Z</time>
      </trkpt>
      <trkpt lat="42.49673" lon="2.41991">
        <ele>1840.4</ele>
        <time>2024-07-13T12:14:14Z</time>
      </trkpt>
      <trkpt lat="42.49677" lon="2.41994">
        <ele>1840.8</ele>
        <time>2024-07-13T12:14:20Z</time>
      </trkpt>
      <trkpt lat="42.4968" lon="2.41998">
        <ele>1841</ele>
        <time>2024-07-13T12:14:24Z</time>
      </trkpt>
      <trkpt lat="42.49686" lon="2.42007">
        <ele>1840.6</ele>
        <time>2024-07-13T12:14:31Z</time>
      </trkpt>
      <trkpt lat="42.49687" lon="2.4201">
        <ele>1839.8</ele>
        <time>2024-07-13T12:14:36Z</time>
      </trkpt>
      <trkpt lat="42.49692" lon="2.42014">
        <ele>1842.4</ele>
        <time>2024-07-13T12:14:45Z</time>
      </trkpt>
      <trkpt lat="42.49697" lon="2.42019">
        <ele>1844.6</ele>
        <time>2024-07-13T12:14:53Z</time>
      </trkpt>
      <trkpt lat="42.49701" lon="2.42023">
        <ele>1844.8</ele>
        <time>2024-07-13T12:14:59Z</time>
      </trkpt>
      <trkpt lat="42.49708" lon="2.42032">
        <ele>1844.6</ele>
        <time>2024-07-13T12:15:06Z</time>
      </trkpt>
      <trkpt lat="42.49712" lon="2.42036">
        <ele>1845.6</ele>
        <time>2024-07-13T12:15:12Z</time>
      </trkpt>
      <trkpt lat="42.49716" lon="2.42042">
        <ele>1848.4</ele>
        <time>2024-07-13T12:15:20Z</time>
      </trkpt>
      <trkpt lat="42.49719" lon="2.42046">
        <ele>1850</ele>
        <time>2024-07-13T12:15:27Z</time>
      </trkpt>
      <trkpt lat="42.49722" lon="2.42052">
        <ele>1849.4</ele>
        <time>2024-07-13T12:15:32Z</time>
      </trkpt>
      <trkpt lat="42.49727" lon="2.42055">
        <ele>1848.6</ele>
        <time>2024-07-13T12:15:39Z</time>
      </trkpt>
      <trkpt lat="42.4973" lon="2.42058">
        <ele>1849.8</ele>
        <time>2024-07-13T12:15:45Z</time>
      </trkpt>
      <trkpt lat="42.49738" lon="2.42063">
        <ele>1851.8</ele>
        <time>2024-07-13T12:15:54Z</time>
      </trkpt>
      <trkpt lat="42.49746" lon="2.42067">
        <ele>1853.6</ele>
        <time>2024-07-13T12:16:02Z</time>
      </trkpt>
      <trkpt lat="42.49751" lon="2.42073">
        <ele>1855.8</ele>
        <time>2024-07-13T12:16:09Z</time>
      </trkpt>
      <trkpt lat="42.49757" lon="2.42078">
        <ele>1855.6</ele>
        <time>2024-07-13T12:16:17Z</time>
      </trkpt>
      <trkpt lat="42.4976" lon="2.42081">
        <ele>1855.4</ele>
        <time>2024-07-13T12:16:20Z</time>
      </trkpt>
      <trkpt lat="42.49762" lon="2.42082">
        <ele>1855.2</ele>
        <time>2024-07-13T12:16:22Z</time>
      </trkpt>
      <trkpt lat="42.49764" lon="2.42084">
        <ele>1855</ele>
        <time>2024-07-13T12:16:24Z</time>
      </trkpt>
      <trkpt lat="42.49771" lon="2.4209">
        <ele>1855.4</ele>
        <time>2024-07-13T12:16:33Z</time>
      </trkpt>
      <trkpt lat="42.49772" lon="2.42089">
        <ele>1855.6</ele>
        <time>2024-07-13T12:16:34Z</time>
      </trkpt>
      <trkpt lat="42.4978" lon="2.42089">
        <ele>1856.4</ele>
        <time>2024-07-13T12:16:39Z</time>
      </trkpt>
      <trkpt lat="42.49787" lon="2.42092">
        <ele>1859.8</ele>
        <time>2024-07-13T12:16:46Z</time>
      </trkpt>
      <trkpt lat="42.49793" lon="2.42096">
        <ele>1861.4</ele>
        <time>2024-07-13T12:16:52Z</time>
      </trkpt>
      <trkpt lat="42.49793" lon="2.42096">
        <ele>1862.6</ele>
        <time>2024-07-13T12:16:59Z</time>
      </trkpt>
      <trkpt lat="42.49799" lon="2.42099">
        <ele>1863.2</ele>
        <time>2024-07-13T12:17:05Z</time>
      </trkpt>
      <trkpt lat="42.49802" lon="2.42102">
        <ele>1862.6</ele>
        <time>2024-07-13T12:17:10Z</time>
      </trkpt>
      <trkpt lat="42.49809" lon="2.42104">
        <ele>1862.8</ele>
        <time>2024-07-13T12:17:18Z</time>
      </trkpt>
      <trkpt lat="42.4982" lon="2.42112">
        <ele>1864.8</ele>
        <time>2024-07-13T12:17:28Z</time>
      </trkpt>
      <trkpt lat="42.49828" lon="2.42127">
        <ele>1866</ele>
        <time>2024-07-13T12:17:37Z</time>
      </trkpt>
      <trkpt lat="42.49828" lon="2.42127">
        <ele>1866</ele>
        <time>2024-07-13T12:17:44Z</time>
      </trkpt>
      <trkpt lat="42.49829" lon="2.42131">
        <ele>1867.6</ele>
        <time>2024-07-13T12:17:56Z</time>
      </trkpt>
      <trkpt lat="42.49831" lon="2.42142">
        <ele>1869.2</ele>
        <time>2024-07-13T12:18:02Z</time>
      </trkpt>
      <trkpt lat="42.49829" lon="2.42148">
        <ele>1870</ele>
        <time>2024-07-13T12:18:08Z</time>
      </trkpt>
      <trkpt lat="42.49826" lon="2.42159">
        <ele>1871.4</ele>
        <time>2024-07-13T12:18:16Z</time>
      </trkpt>
      <trkpt lat="42.49824" lon="2.42166">
        <ele>1872.8</ele>
        <time>2024-07-13T12:18:22Z</time>
      </trkpt>
      <trkpt lat="42.49826" lon="2.42177">
        <ele>1874.8</ele>
        <time>2024-07-13T12:18:30Z</time>
      </trkpt>
      <trkpt lat="42.49826" lon="2.4218">
        <ele>1875</ele>
        <time>2024-07-13T12:18:32Z</time>
      </trkpt>
      <trkpt lat="42.49824" lon="2.42183">
        <ele>1875</ele>
        <time>2024-07-13T12:18:34Z</time>
      </trkpt>
      <trkpt lat="42.49824" lon="2.42185">
        <ele>1875</ele>
        <time>2024-07-13T12:18:35Z</time>
      </trkpt>
      <trkpt lat="42.49823" lon="2.42187">
        <ele>1874.4</ele>
        <time>2024-07-13T12:18:37Z</time>
      </trkpt>
      <trkpt lat="42.49822" lon="2.42191">
        <ele>1872.8</ele>
        <time>2024-07-13T12:18:40Z</time>
      </trkpt>
      <trkpt lat="42.49823" lon="2.42193">
        <ele>1872.6</ele>
        <time>2024-07-13T12:18:41Z</time>
      </trkpt>
      <trkpt lat="42.49823" lon="2.42196">
        <ele>1872.2</ele>
        <time>2024-07-13T12:18:43Z</time>
      </trkpt>
      <trkpt lat="42.49823" lon="2.42197">
        <ele>1872.2</ele>
        <time>2024-07-13T12:18:44Z</time>
      </trkpt>
      <trkpt lat="42.49825" lon="2.42209">
        <ele>1872.2</ele>
        <time>2024-07-13T12:18:51Z</time>
      </trkpt>
      <trkpt lat="42.49824" lon="2.42214">
        <ele>1874</ele>
        <time>2024-07-13T12:18:57Z</time>
      </trkpt>
      <trkpt lat="42.49823" lon="2.42223">
        <ele>1878.2</ele>
        <time>2024-07-13T12:19:05Z</time>
      </trkpt>
      <trkpt lat="42.49822" lon="2.4223">
        <ele>1880.2</ele>
        <time>2024-07-13T12:19:11Z</time>
      </trkpt>
      <trkpt lat="42.49821" lon="2.42238">
        <ele>1881.2</ele>
        <time>2024-07-13T12:19:17Z</time>
      </trkpt>
      <trkpt lat="42.49821" lon="2.42243">
        <ele>1882</ele>
        <time>2024-07-13T12:19:21Z</time>
      </trkpt>
      <trkpt lat="42.49821" lon="2.42244">
        <ele>1882</ele>
        <time>2024-07-13T12:19:23Z</time>
      </trkpt>
      <trkpt lat="42.49821" lon="2.42255">
        <ele>1882.4</ele>
        <time>2024-07-13T12:19:28Z</time>
      </trkpt>
      <trkpt lat="42.4982" lon="2.42259">
        <ele>1882.6</ele>
        <time>2024-07-13T12:19:30Z</time>
      </trkpt>
      <trkpt lat="42.49819" lon="2.42267">
        <ele>1882.6</ele>
        <time>2024-07-13T12:19:37Z</time>
      </trkpt>
      <trkpt lat="42.49819" lon="2.42275">
        <ele>1884.4</ele>
        <time>2024-07-13T12:19:43Z</time>
      </trkpt>
      <trkpt lat="42.49818" lon="2.42289">
        <ele>1886.6</ele>
        <time>2024-07-13T12:19:51Z</time>
      </trkpt>
      <trkpt lat="42.49818" lon="2.42295">
        <ele>1887.4</ele>
        <time>2024-07-13T12:19:56Z</time>
      </trkpt>
      <trkpt lat="42.49819" lon="2.42297">
        <ele>1888.4</ele>
        <time>2024-07-13T12:19:59Z</time>
      </trkpt>
      <trkpt lat="42.49816" lon="2.423">
        <ele>1889.2</ele>
        <time>2024-07-13T12:20:03Z</time>
      </trkpt>
      <trkpt lat="42.49819" lon="2.42304">
        <ele>1888.6</ele>
        <time>2024-07-13T12:20:08Z</time>
      </trkpt>
      <trkpt lat="42.49822" lon="2.42314">
        <ele>1888.4</ele>
        <time>2024-07-13T12:20:15Z</time>
      </trkpt>
      <trkpt lat="42.49827" lon="2.42327">
        <ele>1890.6</ele>
        <time>2024-07-13T12:20:22Z</time>
      </trkpt>
      <trkpt lat="42.49826" lon="2.42328">
        <ele>1891</ele>
        <time>2024-07-13T12:20:23Z</time>
      </trkpt>
      <trkpt lat="42.49825" lon="2.42331">
        <ele>1892</ele>
        <time>2024-07-13T12:20:26Z</time>
      </trkpt>
      <trkpt lat="42.49825" lon="2.42332">
        <ele>1892</ele>
        <time>2024-07-13T12:20:27Z</time>
      </trkpt>
      <trkpt lat="42.49825" lon="2.42342">
        <ele>1892.2</ele>
        <time>2024-07-13T12:20:34Z</time>
      </trkpt>
      <trkpt lat="42.49824" lon="2.42352">
        <ele>1891.6</ele>
        <time>2024-07-13T12:20:40Z</time>
      </trkpt>
      <trkpt lat="42.49827" lon="2.42361">
        <ele>1888.8</ele>
        <time>2024-07-13T12:20:47Z</time>
      </trkpt>
      <trkpt lat="42.49829" lon="2.42372">
        <ele>1891.2</ele>
        <time>2024-07-13T12:20:55Z</time>
      </trkpt>
      <trkpt lat="42.49829" lon="2.42379">
        <ele>1892.2</ele>
        <time>2024-07-13T12:21:00Z</time>
      </trkpt>
      <trkpt lat="42.49831" lon="2.42389">
        <ele>1891.8</ele>
        <time>2024-07-13T12:21:06Z</time>
      </trkpt>
      <trkpt lat="42.49836" lon="2.42406">
        <ele>1894.4</ele>
        <time>2024-07-13T12:21:16Z</time>
      </trkpt>
      <trkpt lat="42.4984" lon="2.4242">
        <ele>1894.8</ele>
        <time>2024-07-13T12:21:25Z</time>
      </trkpt>
      <trkpt lat="42.49839" lon="2.42422">
        <ele>1894.8</ele>
        <time>2024-07-13T12:21:27Z</time>
      </trkpt>
      <trkpt lat="42.49841" lon="2.42428">
        <ele>1894.6</ele>
        <time>2024-07-13T12:21:32Z</time>
      </trkpt>
      <trkpt lat="42.49841" lon="2.42429">
        <ele>1894.6</ele>
        <time>2024-07-13T12:21:33Z</time>
      </trkpt>
      <trkpt lat="42.4984" lon="2.42435">
        <ele>1894</ele>
        <time>2024-07-13T12:21:38Z</time>
      </trkpt>
      <trkpt lat="42.49842" lon="2.42444">
        <ele>1892.6</ele>
        <time>2024-07-13T12:21:44Z</time>
      </trkpt>
      <trkpt lat="42.49843" lon="2.42452">
        <ele>1892.4</ele>
        <time>2024-07-13T12:21:49Z</time>
      </trkpt>
      <trkpt lat="42.49843" lon="2.42454">
        <ele>1892.4</ele>
        <time>2024-07-13T12:21:50Z</time>
      </trkpt>
      <trkpt lat="42.49846" lon="2.42465">
        <ele>1894</ele>
        <time>2024-07-13T12:21:58Z</time>
      </trkpt>
      <trkpt lat="42.49845" lon="2.42469">
        <ele>1894.8</ele>
        <time>2024-07-13T12:22:01Z</time>
      </trkpt>
      <trkpt lat="42.49845" lon="2.42474">
        <ele>1895.2</ele>
        <time>2024-07-13T12:22:05Z</time>
      </trkpt>
      <trkpt lat="42.49845" lon="2.42476">
        <ele>1895.2</ele>
        <time>2024-07-13T12:22:06Z</time>
      </trkpt>
      <trkpt lat="42.49844" lon="2.42481">
        <ele>1895</ele>
        <time>2024-07-13T12:22:10Z</time>
      </trkpt>
      <trkpt lat="42.49842" lon="2.42483">
        <ele>1895</ele>
        <time>2024-07-13T12:22:12Z</time>
      </trkpt>
      <trkpt lat="42.49837" lon="2.42494">
        <ele>1894</ele>
        <time>2024-07-13T12:22:21Z</time>
      </trkpt>
      <trkpt lat="42.49833" lon="2.42501">
        <ele>1893.4</ele>
        <time>2024-07-13T12:22:28Z</time>
      </trkpt>
      <trkpt lat="42.49829" lon="2.42508">
        <ele>1894.2</ele>
        <time>2024-07-13T12:22:35Z</time>
      </trkpt>
      <trkpt lat="42.49829" lon="2.42515">
        <ele>1898.4</ele>
        <time>2024-07-13T12:22:41Z</time>
      </trkpt>
      <trkpt lat="42.49827" lon="2.42521">
        <ele>1901.2</ele>
        <time>2024-07-13T12:22:48Z</time>
      </trkpt>
      <trkpt lat="42.49825" lon="2.42523">
        <ele>1902.6</ele>
        <time>2024-07-13T12:22:53Z</time>
      </trkpt>
      <trkpt lat="42.49824" lon="2.42528">
        <ele>1903.4</ele>
        <time>2024-07-13T12:22:59Z</time>
      </trkpt>
      <trkpt lat="42.49824" lon="2.42534">
        <ele>1904.2</ele>
        <time>2024-07-13T12:23:06Z</time>
      </trkpt>
      <trkpt lat="42.49827" lon="2.42546">
        <ele>1905</ele>
        <time>2024-07-13T12:23:14Z</time>
      </trkpt>
      <trkpt lat="42.49835" lon="2.42556">
        <ele>1905.2</ele>
        <time>2024-07-13T12:23:17Z</time>
      </trkpt>
      <trkpt lat="42.49837" lon="2.42559">
        <ele>1906</ele>
        <time>2024-07-13T12:23:20Z</time>
      </trkpt>
      <trkpt lat="42.49841" lon="2.42569">
        <ele>1907.6</ele>
        <time>2024-07-13T12:23:26Z</time>
      </trkpt>
      <trkpt lat="42.49843" lon="2.42572">
        <ele>1907.2</ele>
        <time>2024-07-13T12:23:28Z</time>
      </trkpt>
      <trkpt lat="42.49845" lon="2.42583">
        <ele>1906.4</ele>
        <time>2024-07-13T12:23:36Z</time>
      </trkpt>
      <trkpt lat="42.49849" lon="2.42592">
        <ele>1907.4</ele>
        <time>2024-07-13T12:23:43Z</time>
      </trkpt>
      <trkpt lat="42.49849" lon="2.42594">
        <ele>1907.6</ele>
        <time>2024-07-13T12:23:44Z</time>
      </trkpt>
      <trkpt lat="42.49851" lon="2.42603">
        <ele>1910.4</ele>
        <time>2024-07-13T12:23:51Z</time>
      </trkpt>
      <trkpt lat="42.49854" lon="2.42609">
        <ele>1912.8</ele>
        <time>2024-07-13T12:23:57Z</time>
      </trkpt>
      <trkpt lat="42.49858" lon="2.42623">
        <ele>1914.4</ele>
        <time>2024-07-13T12:24:06Z</time>
      </trkpt>
      <trkpt lat="42.4986" lon="2.42629">
        <ele>1914</ele>
        <time>2024-07-13T12:24:11Z</time>
      </trkpt>
      <trkpt lat="42.49861" lon="2.42631">
        <ele>1913.8</ele>
        <time>2024-07-13T12:24:13Z</time>
      </trkpt>
      <trkpt lat="42.49863" lon="2.42643">
        <ele>1911.6</ele>
        <time>2024-07-13T12:24:22Z</time>
      </trkpt>
      <trkpt lat="42.49866" lon="2.42654">
        <ele>1911</ele>
        <time>2024-07-13T12:24:29Z</time>
      </trkpt>
      <trkpt lat="42.49866" lon="2.42655">
        <ele>1911.4</ele>
        <time>2024-07-13T12:24:30Z</time>
      </trkpt>
      <trkpt lat="42.49865" lon="2.42666">
        <ele>1912.2</ele>
        <time>2024-07-13T12:24:36Z</time>
      </trkpt>
      <trkpt lat="42.49864" lon="2.42671">
        <ele>1912.4</ele>
        <time>2024-07-13T12:24:39Z</time>
      </trkpt>
      <trkpt lat="42.49862" lon="2.42674">
        <ele>1913</ele>
        <time>2024-07-13T12:24:42Z</time>
      </trkpt>
      <trkpt lat="42.49856" lon="2.42676">
        <ele>1913.8</ele>
        <time>2024-07-13T12:24:45Z</time>
      </trkpt>
      <trkpt lat="42.49854" lon="2.42677">
        <ele>1914.8</ele>
        <time>2024-07-13T12:24:48Z</time>
      </trkpt>
      <trkpt lat="42.49853" lon="2.42682">
        <ele>1917.2</ele>
        <time>2024-07-13T12:24:54Z</time>
      </trkpt>
      <trkpt lat="42.49855" lon="2.42685">
        <ele>1917.6</ele>
        <time>2024-07-13T12:25:00Z</time>
      </trkpt>
      <trkpt lat="42.49856" lon="2.42687">
        <ele>1917.6</ele>
        <time>2024-07-13T12:25:02Z</time>
      </trkpt>
      <trkpt lat="42.49856" lon="2.42689">
        <ele>1917.6</ele>
        <time>2024-07-13T12:25:04Z</time>
      </trkpt>
      <trkpt lat="42.49856" lon="2.42689">
        <ele>1917.8</ele>
        <time>2024-07-13T12:25:05Z</time>
      </trkpt>
      <trkpt lat="42.4986" lon="2.42692">
        <ele>1921.6</ele>
        <time>2024-07-13T12:25:12Z</time>
      </trkpt>
      <trkpt lat="42.49865" lon="2.42694">
        <ele>1923</ele>
        <time>2024-07-13T12:25:18Z</time>
      </trkpt>
      <trkpt lat="42.49867" lon="2.42697">
        <ele>1923.4</ele>
        <time>2024-07-13T12:25:20Z</time>
      </trkpt>
      <trkpt lat="42.49872" lon="2.42709">
        <ele>1924.8</ele>
        <time>2024-07-13T12:25:27Z</time>
      </trkpt>
      <trkpt lat="42.49872" lon="2.4271">
        <ele>1924.8</ele>
        <time>2024-07-13T12:25:29Z</time>
      </trkpt>
      <trkpt lat="42.49873" lon="2.42712">
        <ele>1924.8</ele>
        <time>2024-07-13T12:25:31Z</time>
      </trkpt>
      <trkpt lat="42.49877" lon="2.42722">
        <ele>1924.8</ele>
        <time>2024-07-13T12:25:37Z</time>
      </trkpt>
      <trkpt lat="42.49877" lon="2.42724">
        <ele>1924.8</ele>
        <time>2024-07-13T12:25:38Z</time>
      </trkpt>
      <trkpt lat="42.4988" lon="2.42731">
        <ele>1924.2</ele>
        <time>2024-07-13T12:25:43Z</time>
      </trkpt>
      <trkpt lat="42.4988" lon="2.42738">
        <ele>1924.2</ele>
        <time>2024-07-13T12:25:49Z</time>
      </trkpt>
      <trkpt lat="42.49881" lon="2.42742">
        <ele>1924</ele>
        <time>2024-07-13T12:25:52Z</time>
      </trkpt>
      <trkpt lat="42.49882" lon="2.42745">
        <ele>1923.8</ele>
        <time>2024-07-13T12:25:54Z</time>
      </trkpt>
      <trkpt lat="42.49887" lon="2.42753">
        <ele>1923.4</ele>
        <time>2024-07-13T12:25:59Z</time>
      </trkpt>
      <trkpt lat="42.49889" lon="2.42758">
        <ele>1924.4</ele>
        <time>2024-07-13T12:26:03Z</time>
      </trkpt>
      <trkpt lat="42.49893" lon="2.42771">
        <ele>1925.2</ele>
        <time>2024-07-13T12:26:12Z</time>
      </trkpt>
      <trkpt lat="42.49894" lon="2.42786">
        <ele>1924.2</ele>
        <time>2024-07-13T12:26:23Z</time>
      </trkpt>
      <trkpt lat="42.49894" lon="2.42798">
        <ele>1924.8</ele>
        <time>2024-07-13T12:26:31Z</time>
      </trkpt>
      <trkpt lat="42.49894" lon="2.42799">
        <ele>1924.8</ele>
        <time>2024-07-13T12:26:32Z</time>
      </trkpt>
      <trkpt lat="42.49897" lon="2.42815">
        <ele>1926.6</ele>
        <time>2024-07-13T12:26:41Z</time>
      </trkpt>
      <trkpt lat="42.49899" lon="2.4282">
        <ele>1927</ele>
        <time>2024-07-13T12:26:44Z</time>
      </trkpt>
      <trkpt lat="42.49899" lon="2.42823">
        <ele>1927.4</ele>
        <time>2024-07-13T12:26:46Z</time>
      </trkpt>
      <trkpt lat="42.49898" lon="2.42825">
        <ele>1927.4</ele>
        <time>2024-07-13T12:26:47Z</time>
      </trkpt>
      <trkpt lat="42.49896" lon="2.42841">
        <ele>1928</ele>
        <time>2024-07-13T12:26:56Z</time>
      </trkpt>
      <trkpt lat="42.49896" lon="2.42848">
        <ele>1928</ele>
        <time>2024-07-13T12:27:00Z</time>
      </trkpt>
      <trkpt lat="42.49896" lon="2.42852">
        <ele>1928.2</ele>
        <time>2024-07-13T12:27:03Z</time>
      </trkpt>
      <trkpt lat="42.49897" lon="2.42858">
        <ele>1929.2</ele>
        <time>2024-07-13T12:27:07Z</time>
      </trkpt>
      <trkpt lat="42.49898" lon="2.42863">
        <ele>1929.8</ele>
        <time>2024-07-13T12:27:10Z</time>
      </trkpt>
      <trkpt lat="42.49898" lon="2.42868">
        <ele>1930.8</ele>
        <time>2024-07-13T12:27:14Z</time>
      </trkpt>
      <trkpt lat="42.49897" lon="2.4287">
        <ele>1930.8</ele>
        <time>2024-07-13T12:27:15Z</time>
      </trkpt>
      <trkpt lat="42.49898" lon="2.42875">
        <ele>1931.4</ele>
        <time>2024-07-13T12:27:18Z</time>
      </trkpt>
      <trkpt lat="42.49898" lon="2.42875">
        <ele>1931.6</ele>
        <time>2024-07-13T12:27:19Z</time>
      </trkpt>
      <trkpt lat="42.49899" lon="2.42877">
        <ele>1931.8</ele>
        <time>2024-07-13T12:27:20Z</time>
      </trkpt>
      <trkpt lat="42.49901" lon="2.42883">
        <ele>1932.6</ele>
        <time>2024-07-13T12:27:25Z</time>
      </trkpt>
      <trkpt lat="42.49906" lon="2.42891">
        <ele>1934</ele>
        <time>2024-07-13T12:27:33Z</time>
      </trkpt>
      <trkpt lat="42.49913" lon="2.42908">
        <ele>1933.6</ele>
        <time>2024-07-13T12:27:44Z</time>
      </trkpt>
      <trkpt lat="42.49912" lon="2.4291">
        <ele>1933.6</ele>
        <time>2024-07-13T12:27:45Z</time>
      </trkpt>
      <trkpt lat="42.49909" lon="2.42914">
        <ele>1933.6</ele>
        <time>2024-07-13T12:27:49Z</time>
      </trkpt>
      <trkpt lat="42.49902" lon="2.42919">
        <ele>1932.8</ele>
        <time>2024-07-13T12:27:55Z</time>
      </trkpt>
      <trkpt lat="42.499" lon="2.4292">
        <ele>1932.6</ele>
        <time>2024-07-13T12:27:57Z</time>
      </trkpt>
      <trkpt lat="42.49899" lon="2.42926">
        <ele>1933.8</ele>
        <time>2024-07-13T12:28:03Z</time>
      </trkpt>
      <trkpt lat="42.49897" lon="2.4293">
        <ele>1935.6</ele>
        <time>2024-07-13T12:28:09Z</time>
      </trkpt>
      <trkpt lat="42.49892" lon="2.42935">
        <ele>1936</ele>
        <time>2024-07-13T12:28:14Z</time>
      </trkpt>
      <trkpt lat="42.49887" lon="2.42946">
        <ele>1935.4</ele>
        <time>2024-07-13T12:28:23Z</time>
      </trkpt>
      <trkpt lat="42.49888" lon="2.42948">
        <ele>1935.4</ele>
        <time>2024-07-13T12:28:24Z</time>
      </trkpt>
      <trkpt lat="42.49889" lon="2.42953">
        <ele>1936.2</ele>
        <time>2024-07-13T12:28:28Z</time>
      </trkpt>
      <trkpt lat="42.49888" lon="2.42955">
        <ele>1936.6</ele>
        <time>2024-07-13T12:28:30Z</time>
      </trkpt>
      <trkpt lat="42.49885" lon="2.42959">
        <ele>1937.2</ele>
        <time>2024-07-13T12:28:33Z</time>
      </trkpt>
      <trkpt lat="42.49885" lon="2.42963">
        <ele>1935.2</ele>
        <time>2024-07-13T12:28:36Z</time>
      </trkpt>
      <trkpt lat="42.49884" lon="2.42963">
        <ele>1934.6</ele>
        <time>2024-07-13T12:28:37Z</time>
      </trkpt>
      <trkpt lat="42.49883" lon="2.42964">
        <ele>1934.2</ele>
        <time>2024-07-13T12:28:38Z</time>
      </trkpt>
      <trkpt lat="42.49882" lon="2.42967">
        <ele>1933.2</ele>
        <time>2024-07-13T12:28:41Z</time>
      </trkpt>
      <trkpt lat="42.49881" lon="2.42971">
        <ele>1934.2</ele>
        <time>2024-07-13T12:28:46Z</time>
      </trkpt>
      <trkpt lat="42.4988" lon="2.42977">
        <ele>1936.4</ele>
        <time>2024-07-13T12:28:52Z</time>
      </trkpt>
      <trkpt lat="42.49879" lon="2.42982">
        <ele>1937.8</ele>
        <time>2024-07-13T12:28:59Z</time>
      </trkpt>
      <trkpt lat="42.49881" lon="2.42983">
        <ele>1938</ele>
        <time>2024-07-13T12:29:00Z</time>
      </trkpt>
      <trkpt lat="42.49886" lon="2.42987">
        <ele>1939.6</ele>
        <time>2024-07-13T12:29:05Z</time>
      </trkpt>
      <trkpt lat="42.49886" lon="2.42988">
        <ele>1940</ele>
        <time>2024-07-13T12:29:07Z</time>
      </trkpt>
      <trkpt lat="42.49887" lon="2.42991">
        <ele>1940.2</ele>
        <time>2024-07-13T12:29:09Z</time>
      </trkpt>
      <trkpt lat="42.49888" lon="2.42995">
        <ele>1940.2</ele>
        <time>2024-07-13T12:29:11Z</time>
      </trkpt>
      <trkpt lat="42.49889" lon="2.43006">
        <ele>1938.6</ele>
        <time>2024-07-13T12:29:18Z</time>
      </trkpt>
      <trkpt lat="42.49889" lon="2.43014">
        <ele>1937.6</ele>
        <time>2024-07-13T12:29:24Z</time>
      </trkpt>
      <trkpt lat="42.49889" lon="2.43016">
        <ele>1937.4</ele>
        <time>2024-07-13T12:29:26Z</time>
      </trkpt>
      <trkpt lat="42.49888" lon="2.43018">
        <ele>1937.8</ele>
        <time>2024-07-13T12:29:28Z</time>
      </trkpt>
      <trkpt lat="42.49888" lon="2.43019">
        <ele>1938.6</ele>
        <time>2024-07-13T12:29:31Z</time>
      </trkpt>
      <trkpt lat="42.49888" lon="2.43019">
        <ele>1939.4</ele>
        <time>2024-07-13T12:29:35Z</time>
      </trkpt>
      <trkpt lat="42.4989" lon="2.4302">
        <ele>1939.6</ele>
        <time>2024-07-13T12:29:36Z</time>
      </trkpt>
      <trkpt lat="42.49892" lon="2.43024">
        <ele>1940.8</ele>
        <time>2024-07-13T12:29:40Z</time>
      </trkpt>
      <trkpt lat="42.49898" lon="2.43026">
        <ele>1941.4</ele>
        <time>2024-07-13T12:29:47Z</time>
      </trkpt>
      <trkpt lat="42.49906" lon="2.43033">
        <ele>1944.2</ele>
        <time>2024-07-13T12:29:55Z</time>
      </trkpt>
      <trkpt lat="42.49915" lon="2.4304">
        <ele>1945.6</ele>
        <time>2024-07-13T12:30:03Z</time>
      </trkpt>
      <trkpt lat="42.49921" lon="2.43049">
        <ele>1947.4</ele>
        <time>2024-07-13T12:30:09Z</time>
      </trkpt>
      <trkpt lat="42.49925" lon="2.43052">
        <ele>1947.2</ele>
        <time>2024-07-13T12:30:15Z</time>
      </trkpt>
      <trkpt lat="42.49927" lon="2.43053">
        <ele>1947.2</ele>
        <time>2024-07-13T12:30:17Z</time>
      </trkpt>
      <trkpt lat="42.49929" lon="2.43059">
        <ele>1946.8</ele>
        <time>2024-07-13T12:30:21Z</time>
      </trkpt>
      <trkpt lat="42.49933" lon="2.43068">
        <ele>1946.6</ele>
        <time>2024-07-13T12:30:27Z</time>
      </trkpt>
      <trkpt lat="42.4994" lon="2.43083">
        <ele>1945.8</ele>
        <time>2024-07-13T12:30:33Z</time>
      </trkpt>
      <trkpt lat="42.49944" lon="2.43105">
        <ele>1946</ele>
        <time>2024-07-13T12:30:43Z</time>
      </trkpt>
      <trkpt lat="42.49941" lon="2.43115">
        <ele>1945</ele>
        <time>2024-07-13T12:30:49Z</time>
      </trkpt>
      <trkpt lat="42.49947" lon="2.43128">
        <ele>1943</ele>
        <time>2024-07-13T12:30:56Z</time>
      </trkpt>
      <trkpt lat="42.49949" lon="2.43135">
        <ele>1943.8</ele>
        <time>2024-07-13T12:31:00Z</time>
      </trkpt>
      <trkpt lat="42.49947" lon="2.43142">
        <ele>1944.4</ele>
        <time>2024-07-13T12:31:03Z</time>
      </trkpt>
      <trkpt lat="42.49949" lon="2.43149">
        <ele>1944.4</ele>
        <time>2024-07-13T12:31:07Z</time>
      </trkpt>
      <trkpt lat="42.4995" lon="2.43154">
        <ele>1944.2</ele>
        <time>2024-07-13T12:31:10Z</time>
      </trkpt>
      <trkpt lat="42.49953" lon="2.43168">
        <ele>1943.8</ele>
        <time>2024-07-13T12:31:16Z</time>
      </trkpt>
      <trkpt lat="42.49953" lon="2.4318">
        <ele>1944</ele>
        <time>2024-07-13T12:31:23Z</time>
      </trkpt>
      <trkpt lat="42.49954" lon="2.43186">
        <ele>1943.8</ele>
        <time>2024-07-13T12:31:26Z</time>
      </trkpt>
      <trkpt lat="42.49954" lon="2.43189">
        <ele>1943.4</ele>
        <time>2024-07-13T12:31:28Z</time>
      </trkpt>
      <trkpt lat="42.49954" lon="2.43191">
        <ele>1943.2</ele>
        <time>2024-07-13T12:31:30Z</time>
      </trkpt>
      <trkpt lat="42.49954" lon="2.43194">
        <ele>1942.8</ele>
        <time>2024-07-13T12:31:32Z</time>
      </trkpt>
      <trkpt lat="42.49954" lon="2.43197">
        <ele>1942.6</ele>
        <time>2024-07-13T12:31:34Z</time>
      </trkpt>
      <trkpt lat="42.49953" lon="2.43208">
        <ele>1942.2</ele>
        <time>2024-07-13T12:31:41Z</time>
      </trkpt>
      <trkpt lat="42.49954" lon="2.43211">
        <ele>1942.4</ele>
        <time>2024-07-13T12:31:43Z</time>
      </trkpt>
      <trkpt lat="42.49956" lon="2.4322">
        <ele>1942.6</ele>
        <time>2024-07-13T12:31:49Z</time>
      </trkpt>
      <trkpt lat="42.49956" lon="2.43222">
        <ele>1942.6</ele>
        <time>2024-07-13T12:31:50Z</time>
      </trkpt>
      <trkpt lat="42.49952" lon="2.43229">
        <ele>1941.6</ele>
        <time>2024-07-13T12:31:55Z</time>
      </trkpt>
      <trkpt lat="42.49953" lon="2.4323">
        <ele>1941.4</ele>
        <time>2024-07-13T12:31:56Z</time>
      </trkpt>
      <trkpt lat="42.49954" lon="2.43231">
        <ele>1941</ele>
        <time>2024-07-13T12:32:00Z</time>
      </trkpt>
      <trkpt lat="42.49954" lon="2.43235">
        <ele>1942.2</ele>
        <time>2024-07-13T12:32:02Z</time>
      </trkpt>
      <trkpt lat="42.49951" lon="2.43239">
        <ele>1943</ele>
        <time>2024-07-13T12:32:05Z</time>
      </trkpt>
      <trkpt lat="42.4995" lon="2.43242">
        <ele>1943.2</ele>
        <time>2024-07-13T12:32:07Z</time>
      </trkpt>
      <trkpt lat="42.49951" lon="2.43246">
        <ele>1943.2</ele>
        <time>2024-07-13T12:32:10Z</time>
      </trkpt>
      <trkpt lat="42.49959" lon="2.43254">
        <ele>1943.6</ele>
        <time>2024-07-13T12:32:17Z</time>
      </trkpt>
      <trkpt lat="42.49959" lon="2.43254">
        <ele>1943.8</ele>
        <time>2024-07-13T12:32:18Z</time>
      </trkpt>
      <trkpt lat="42.49958" lon="2.43255">
        <ele>1944</ele>
        <time>2024-07-13T12:32:19Z</time>
      </trkpt>
      <trkpt lat="42.49959" lon="2.4326">
        <ele>1945.8</ele>
        <time>2024-07-13T12:32:22Z</time>
      </trkpt>
      <trkpt lat="42.49959" lon="2.43261">
        <ele>1946.6</ele>
        <time>2024-07-13T12:32:24Z</time>
      </trkpt>
      <trkpt lat="42.49961" lon="2.43264">
        <ele>1947.6</ele>
        <time>2024-07-13T12:32:29Z</time>
      </trkpt>
      <trkpt lat="42.49964" lon="2.4327">
        <ele>1949.4</ele>
        <time>2024-07-13T12:32:35Z</time>
      </trkpt>
      <trkpt lat="42.49965" lon="2.43272">
        <ele>1950.6</ele>
        <time>2024-07-13T12:32:37Z</time>
      </trkpt>
      <trkpt lat="42.49968" lon="2.43276">
        <ele>1952.6</ele>
        <time>2024-07-13T12:32:44Z</time>
      </trkpt>
      <trkpt lat="42.4997" lon="2.43276">
        <ele>1955.2</ele>
        <time>2024-07-13T12:32:49Z</time>
      </trkpt>
      <trkpt lat="42.49974" lon="2.43282">
        <ele>1957.4</ele>
        <time>2024-07-13T12:32:56Z</time>
      </trkpt>
      <trkpt lat="42.49975" lon="2.43293">
        <ele>1955.8</ele>
        <time>2024-07-13T12:33:04Z</time>
      </trkpt>
      <trkpt lat="42.49977" lon="2.43299">
        <ele>1954.8</ele>
        <time>2024-07-13T12:33:09Z</time>
      </trkpt>
      <trkpt lat="42.49977" lon="2.43304">
        <ele>1953.8</ele>
        <time>2024-07-13T12:33:14Z</time>
      </trkpt>
      <trkpt lat="42.49977" lon="2.43305">
        <ele>1953.2</ele>
        <time>2024-07-13T12:33:19Z</time>
      </trkpt>
      <trkpt lat="42.4998" lon="2.43314">
        <ele>1953.2</ele>
        <time>2024-07-13T12:33:24Z</time>
      </trkpt>
      <trkpt lat="42.49982" lon="2.43325">
        <ele>1954.6</ele>
        <time>2024-07-13T12:33:30Z</time>
      </trkpt>
      <trkpt lat="42.49982" lon="2.43331">
        <ele>1956.8</ele>
        <time>2024-07-13T12:33:34Z</time>
      </trkpt>
      <trkpt lat="42.49983" lon="2.43337">
        <ele>1957.6</ele>
        <time>2024-07-13T12:33:38Z</time>
      </trkpt>
      <trkpt lat="42.49981" lon="2.43341">
        <ele>1957.8</ele>
        <time>2024-07-13T12:33:41Z</time>
      </trkpt>
      <trkpt lat="42.49981" lon="2.43347">
        <ele>1958.4</ele>
        <time>2024-07-13T12:33:44Z</time>
      </trkpt>
      <trkpt lat="42.49981" lon="2.43348">
        <ele>1958.6</ele>
        <time>2024-07-13T12:33:45Z</time>
      </trkpt>
      <trkpt lat="42.49981" lon="2.43349">
        <ele>1958.8</ele>
        <time>2024-07-13T12:33:46Z</time>
      </trkpt>
      <trkpt lat="42.49982" lon="2.43352">
        <ele>1959.2</ele>
        <time>2024-07-13T12:33:48Z</time>
      </trkpt>
      <trkpt lat="42.49983" lon="2.43357">
        <ele>1959.6</ele>
        <time>2024-07-13T12:33:51Z</time>
      </trkpt>
      <trkpt lat="42.49983" lon="2.43363">
        <ele>1959.8</ele>
        <time>2024-07-13T12:33:56Z</time>
      </trkpt>
      <trkpt lat="42.49982" lon="2.43365">
        <ele>1959.8</ele>
        <time>2024-07-13T12:33:58Z</time>
      </trkpt>
      <trkpt lat="42.49978" lon="2.43371">
        <ele>1958.4</ele>
        <time>2024-07-13T12:34:04Z</time>
      </trkpt>
      <trkpt lat="42.4998" lon="2.43378">
        <ele>1955.4</ele>
        <time>2024-07-13T12:34:11Z</time>
      </trkpt>
      <trkpt lat="42.49981" lon="2.43391">
        <ele>1955.6</ele>
        <time>2024-07-13T12:34:20Z</time>
      </trkpt>
      <trkpt lat="42.49977" lon="2.43398">
        <ele>1956.8</ele>
        <time>2024-07-13T12:34:27Z</time>
      </trkpt>
      <trkpt lat="42.49978" lon="2.43399">
        <ele>1957</ele>
        <time>2024-07-13T12:34:28Z</time>
      </trkpt>
      <trkpt lat="42.4998" lon="2.4341">
        <ele>1958.2</ele>
        <time>2024-07-13T12:34:36Z</time>
      </trkpt>
      <trkpt lat="42.49982" lon="2.43422">
        <ele>1959.8</ele>
        <time>2024-07-13T12:34:46Z</time>
      </trkpt>
      <trkpt lat="42.49986" lon="2.43432">
        <ele>1961.2</ele>
        <time>2024-07-13T12:34:53Z</time>
      </trkpt>
      <trkpt lat="42.49987" lon="2.43437">
        <ele>1963</ele>
        <time>2024-07-13T12:34:58Z</time>
      </trkpt>
      <trkpt lat="42.49987" lon="2.43443">
        <ele>1963.8</ele>
        <time>2024-07-13T12:35:02Z</time>
      </trkpt>
      <trkpt lat="42.4999" lon="2.43453">
        <ele>1964.6</ele>
        <time>2024-07-13T12:35:10Z</time>
      </trkpt>
      <trkpt lat="42.49995" lon="2.43466">
        <ele>1965.2</ele>
        <time>2024-07-13T12:35:21Z</time>
      </trkpt>
      <trkpt lat="42.49995" lon="2.43473">
        <ele>1965</ele>
        <time>2024-07-13T12:35:26Z</time>
      </trkpt>
      <trkpt lat="42.49994" lon="2.43476">
        <ele>1964.8</ele>
        <time>2024-07-13T12:35:28Z</time>
      </trkpt>
      <trkpt lat="42.49992" lon="2.43479">
        <ele>1964.8</ele>
        <time>2024-07-13T12:35:32Z</time>
      </trkpt>
      <trkpt lat="42.4999" lon="2.43481">
        <ele>1965.2</ele>
        <time>2024-07-13T12:35:35Z</time>
      </trkpt>
      <trkpt lat="42.49987" lon="2.43485">
        <ele>1966</ele>
        <time>2024-07-13T12:35:42Z</time>
      </trkpt>
      <trkpt lat="42.49988" lon="2.4349">
        <ele>1966.6</ele>
        <time>2024-07-13T12:35:49Z</time>
      </trkpt>
      <trkpt lat="42.49993" lon="2.43495">
        <ele>1966.6</ele>
        <time>2024-07-13T12:35:55Z</time>
      </trkpt>
      <trkpt lat="42.49992" lon="2.43507">
        <ele>1967</ele>
        <time>2024-07-13T12:36:02Z</time>
      </trkpt>
      <trkpt lat="42.49991" lon="2.43508">
        <ele>1967</ele>
        <time>2024-07-13T12:36:03Z</time>
      </trkpt>
      <trkpt lat="42.49988" lon="2.43513">
        <ele>1967.4</ele>
        <time>2024-07-13T12:36:08Z</time>
      </trkpt>
      <trkpt lat="42.49988" lon="2.43518">
        <ele>1967.4</ele>
        <time>2024-07-13T12:36:11Z</time>
      </trkpt>
      <trkpt lat="42.49986" lon="2.43524">
        <ele>1967.8</ele>
        <time>2024-07-13T12:36:15Z</time>
      </trkpt>
      <trkpt lat="42.49985" lon="2.43528">
        <ele>1968</ele>
        <time>2024-07-13T12:36:17Z</time>
      </trkpt>
      <trkpt lat="42.49986" lon="2.43544">
        <ele>1968</ele>
        <time>2024-07-13T12:36:27Z</time>
      </trkpt>
      <trkpt lat="42.49986" lon="2.43555">
        <ele>1969.2</ele>
        <time>2024-07-13T12:36:34Z</time>
      </trkpt>
      <trkpt lat="42.49982" lon="2.4357">
        <ele>1969.6</ele>
        <time>2024-07-13T12:36:44Z</time>
      </trkpt>
      <trkpt lat="42.49979" lon="2.43584">
        <ele>1970.2</ele>
        <time>2024-07-13T12:36:53Z</time>
      </trkpt>
      <trkpt lat="42.49976" lon="2.43593">
        <ele>1971.8</ele>
        <time>2024-07-13T12:37:00Z</time>
      </trkpt>
      <trkpt lat="42.49978" lon="2.43607">
        <ele>1973.4</ele>
        <time>2024-07-13T12:37:09Z</time>
      </trkpt>
      <trkpt lat="42.4998" lon="2.43612">
        <ele>1973.2</ele>
        <time>2024-07-13T12:37:13Z</time>
      </trkpt>
      <trkpt lat="42.49981" lon="2.4362">
        <ele>1973.6</ele>
        <time>2024-07-13T12:37:18Z</time>
      </trkpt>
      <trkpt lat="42.49984" lon="2.43633">
        <ele>1976.8</ele>
        <time>2024-07-13T12:37:28Z</time>
      </trkpt>
      <trkpt lat="42.49985" lon="2.43641">
        <ele>1978.2</ele>
        <time>2024-07-13T12:37:34Z</time>
      </trkpt>
      <trkpt lat="42.49989" lon="2.43654">
        <ele>1978.2</ele>
        <time>2024-07-13T12:37:44Z</time>
      </trkpt>
      <trkpt lat="42.49994" lon="2.4367">
        <ele>1978</ele>
        <time>2024-07-13T12:37:54Z</time>
      </trkpt>
      <trkpt lat="42.49994" lon="2.43675">
        <ele>1977.4</ele>
        <time>2024-07-13T12:37:57Z</time>
      </trkpt>
      <trkpt lat="42.49993" lon="2.4368">
        <ele>1977.2</ele>
        <time>2024-07-13T12:38:00Z</time>
      </trkpt>
      <trkpt lat="42.49991" lon="2.4369">
        <ele>1977.6</ele>
        <time>2024-07-13T12:38:05Z</time>
      </trkpt>
      <trkpt lat="42.4999" lon="2.43693">
        <ele>1977.8</ele>
        <time>2024-07-13T12:38:07Z</time>
      </trkpt>
      <trkpt lat="42.4999" lon="2.43696">
        <ele>1978.2</ele>
        <time>2024-07-13T12:38:09Z</time>
      </trkpt>
      <trkpt lat="42.49985" lon="2.43702">
        <ele>1979.4</ele>
        <time>2024-07-13T12:38:13Z</time>
      </trkpt>
      <trkpt lat="42.49983" lon="2.43706">
        <ele>1979.6</ele>
        <time>2024-07-13T12:38:16Z</time>
      </trkpt>
      <trkpt lat="42.49981" lon="2.43711">
        <ele>1979.4</ele>
        <time>2024-07-13T12:38:20Z</time>
      </trkpt>
      <trkpt lat="42.4998" lon="2.43727">
        <ele>1977.4</ele>
        <time>2024-07-13T12:38:28Z</time>
      </trkpt>
      <trkpt lat="42.49979" lon="2.43729">
        <ele>1976.8</ele>
        <time>2024-07-13T12:38:30Z</time>
      </trkpt>
      <trkpt lat="42.49977" lon="2.43734">
        <ele>1975.8</ele>
        <time>2024-07-13T12:38:35Z</time>
      </trkpt>
      <trkpt lat="42.49978" lon="2.43739">
        <ele>1976.4</ele>
        <time>2024-07-13T12:38:39Z</time>
      </trkpt>
      <trkpt lat="42.49977" lon="2.43745">
        <ele>1978.4</ele>
        <time>2024-07-13T12:38:42Z</time>
      </trkpt>
      <trkpt lat="42.49977" lon="2.43751">
        <ele>1980.4</ele>
        <time>2024-07-13T12:38:45Z</time>
      </trkpt>
      <trkpt lat="42.49978" lon="2.43753">
        <ele>1980.8</ele>
        <time>2024-07-13T12:38:46Z</time>
      </trkpt>
      <trkpt lat="42.49976" lon="2.43762">
        <ele>1982</ele>
        <time>2024-07-13T12:38:53Z</time>
      </trkpt>
      <trkpt lat="42.49977" lon="2.43765">
        <ele>1982.2</ele>
        <time>2024-07-13T12:38:54Z</time>
      </trkpt>
      <trkpt lat="42.4998" lon="2.43774">
        <ele>1982.4</ele>
        <time>2024-07-13T12:38:59Z</time>
      </trkpt>
      <trkpt lat="42.49981" lon="2.43777">
        <ele>1982.6</ele>
        <time>2024-07-13T12:39:01Z</time>
      </trkpt>
      <trkpt lat="42.49981" lon="2.43781">
        <ele>1984</ele>
        <time>2024-07-13T12:39:04Z</time>
      </trkpt>
      <trkpt lat="42.49982" lon="2.43782">
        <ele>1985</ele>
        <time>2024-07-13T12:39:05Z</time>
      </trkpt>
      <trkpt lat="42.49982" lon="2.43785">
        <ele>1986.4</ele>
        <time>2024-07-13T12:39:07Z</time>
      </trkpt>
      <trkpt lat="42.49981" lon="2.43787">
        <ele>1987</ele>
        <time>2024-07-13T12:39:08Z</time>
      </trkpt>
      <trkpt lat="42.49977" lon="2.43796">
        <ele>1988.2</ele>
        <time>2024-07-13T12:39:13Z</time>
      </trkpt>
      <trkpt lat="42.49976" lon="2.43798">
        <ele>1987.8</ele>
        <time>2024-07-13T12:39:14Z</time>
      </trkpt>
      <trkpt lat="42.49971" lon="2.43806">
        <ele>1985.8</ele>
        <time>2024-07-13T12:39:20Z</time>
      </trkpt>
      <trkpt lat="42.49971" lon="2.43812">
        <ele>1985.8</ele>
        <time>2024-07-13T12:39:27Z</time>
      </trkpt>
      <trkpt lat="42.49971" lon="2.43813">
        <ele>1986</ele>
        <time>2024-07-13T12:39:28Z</time>
      </trkpt>
      <trkpt lat="42.49968" lon="2.43817">
        <ele>1986.8</ele>
        <time>2024-07-13T12:39:31Z</time>
      </trkpt>
      <trkpt lat="42.49967" lon="2.43822">
        <ele>1987.2</ele>
        <time>2024-07-13T12:39:33Z</time>
      </trkpt>
      <trkpt lat="42.49968" lon="2.43827">
        <ele>1987.4</ele>
        <time>2024-07-13T12:39:35Z</time>
      </trkpt>
      <trkpt lat="42.49968" lon="2.43834">
        <ele>1986.4</ele>
        <time>2024-07-13T12:39:38Z</time>
      </trkpt>
      <trkpt lat="42.49967" lon="2.43842">
        <ele>1984.8</ele>
        <time>2024-07-13T12:39:43Z</time>
      </trkpt>
      <trkpt lat="42.49967" lon="2.43851">
        <ele>1984.2</ele>
        <time>2024-07-13T12:39:46Z</time>
      </trkpt>
      <trkpt lat="42.49966" lon="2.43855">
        <ele>1983.2</ele>
        <time>2024-07-13T12:39:48Z</time>
      </trkpt>
      <trkpt lat="42.49965" lon="2.43859">
        <ele>1982.2</ele>
        <time>2024-07-13T12:39:50Z</time>
      </trkpt>
      <trkpt lat="42.49963" lon="2.43861">
        <ele>1981.2</ele>
        <time>2024-07-13T12:39:52Z</time>
      </trkpt>
      <trkpt lat="42.49962" lon="2.43863">
        <ele>1980.8</ele>
        <time>2024-07-13T12:39:54Z</time>
      </trkpt>
      <trkpt lat="42.49959" lon="2.43868">
        <ele>1980.6</ele>
        <time>2024-07-13T12:39:58Z</time>
      </trkpt>
      <trkpt lat="42.49953" lon="2.43872">
        <ele>1981.4</ele>
        <time>2024-07-13T12:40:03Z</time>
      </trkpt>
      <trkpt lat="42.49953" lon="2.43873">
        <ele>1982</ele>
        <time>2024-07-13T12:40:05Z</time>
      </trkpt>
      <trkpt lat="42.4995" lon="2.43877">
        <ele>1984</ele>
        <time>2024-07-13T12:40:11Z</time>
      </trkpt>
      <trkpt lat="42.4995" lon="2.43883">
        <ele>1984.4</ele>
        <time>2024-07-13T12:40:14Z</time>
      </trkpt>
      <trkpt lat="42.4995" lon="2.43888">
        <ele>1983.8</ele>
        <time>2024-07-13T12:40:17Z</time>
      </trkpt>
      <trkpt lat="42.4995" lon="2.43891">
        <ele>1983.2</ele>
        <time>2024-07-13T12:40:20Z</time>
      </trkpt>
      <trkpt lat="42.49949" lon="2.43892">
        <ele>1983</ele>
        <time>2024-07-13T12:40:21Z</time>
      </trkpt>
      <trkpt lat="42.49948" lon="2.43892">
        <ele>1983.2</ele>
        <time>2024-07-13T12:40:23Z</time>
      </trkpt>
      <trkpt lat="42.49951" lon="2.43897">
        <ele>1983.6</ele>
        <time>2024-07-13T12:40:25Z</time>
      </trkpt>
      <trkpt lat="42.49951" lon="2.43899">
        <ele>1983.6</ele>
        <time>2024-07-13T12:40:26Z</time>
      </trkpt>
      <trkpt lat="42.49949" lon="2.43901">
        <ele>1983.4</ele>
        <time>2024-07-13T12:40:28Z</time>
      </trkpt>
      <trkpt lat="42.49951" lon="2.43907">
        <ele>1981.8</ele>
        <time>2024-07-13T12:40:33Z</time>
      </trkpt>
      <trkpt lat="42.4995" lon="2.43907">
        <ele>1981.6</ele>
        <time>2024-07-13T12:40:34Z</time>
      </trkpt>
      <trkpt lat="42.49949" lon="2.43906">
        <ele>1981.4</ele>
        <time>2024-07-13T12:40:36Z</time>
      </trkpt>
      <trkpt lat="42.49949" lon="2.43907">
        <ele>1980.8</ele>
        <time>2024-07-13T12:40:42Z</time>
      </trkpt>
      <trkpt lat="42.49948" lon="2.43915">
        <ele>1980.8</ele>
        <time>2024-07-13T12:40:46Z</time>
      </trkpt>
      <trkpt lat="42.49946" lon="2.43917">
        <ele>1980.8</ele>
        <time>2024-07-13T12:40:48Z</time>
      </trkpt>
      <trkpt lat="42.49944" lon="2.43922">
        <ele>1980.4</ele>
        <time>2024-07-13T12:40:53Z</time>
      </trkpt>
      <trkpt lat="42.49945" lon="2.43922">
        <ele>1980.4</ele>
        <time>2024-07-13T12:40:55Z</time>
      </trkpt>
      <trkpt lat="42.49945" lon="2.43923">
        <ele>1980.2</ele>
        <time>2024-07-13T12:40:58Z</time>
      </trkpt>
      <trkpt lat="42.49949" lon="2.43927">
        <ele>1979.6</ele>
        <time>2024-07-13T12:41:02Z</time>
      </trkpt>
      <trkpt lat="42.49954" lon="2.43933">
        <ele>1976.6</ele>
        <time>2024-07-13T12:41:10Z</time>
      </trkpt>
      <trkpt lat="42.49956" lon="2.43937">
        <ele>1977</ele>
        <time>2024-07-13T12:41:16Z</time>
      </trkpt>
      <trkpt lat="42.49958" lon="2.43943">
        <ele>1978.8</ele>
        <time>2024-07-13T12:41:22Z</time>
      </trkpt>
      <trkpt lat="42.49961" lon="2.43946">
        <ele>1979.6</ele>
        <time>2024-07-13T12:41:28Z</time>
      </trkpt>
      <trkpt lat="42.49961" lon="2.43943">
        <ele>1978.6</ele>
        <time>2024-07-13T12:41:30Z</time>
      </trkpt>
      <trkpt lat="42.49963" lon="2.43944">
        <ele>1977.6</ele>
        <time>2024-07-13T12:41:32Z</time>
      </trkpt>
      <trkpt lat="42.49965" lon="2.43947">
        <ele>1976.6</ele>
        <time>2024-07-13T12:41:34Z</time>
      </trkpt>
      <trkpt lat="42.49967" lon="2.43948">
        <ele>1975.2</ele>
        <time>2024-07-13T12:41:38Z</time>
      </trkpt>
      <trkpt lat="42.49968" lon="2.43948">
        <ele>1975</ele>
        <time>2024-07-13T12:41:40Z</time>
      </trkpt>
      <trkpt lat="42.4997" lon="2.43948">
        <ele>1974.8</ele>
        <time>2024-07-13T12:41:41Z</time>
      </trkpt>
      <trkpt lat="42.49974" lon="2.4395">
        <ele>1974.4</ele>
        <time>2024-07-13T12:41:45Z</time>
      </trkpt>
      <trkpt lat="42.49977" lon="2.43953">
        <ele>1974.2</ele>
        <time>2024-07-13T12:41:50Z</time>
      </trkpt>
      <trkpt lat="42.49979" lon="2.43954">
        <ele>1974</ele>
        <time>2024-07-13T12:41:52Z</time>
      </trkpt>
      <trkpt lat="42.49983" lon="2.43955">
        <ele>1973.8</ele>
        <time>2024-07-13T12:41:58Z</time>
      </trkpt>
      <trkpt lat="42.49989" lon="2.43956">
        <ele>1974.6</ele>
        <time>2024-07-13T12:42:05Z</time>
      </trkpt>
      <trkpt lat="42.49996" lon="2.43961">
        <ele>1975</ele>
        <time>2024-07-13T12:42:12Z</time>
      </trkpt>
      <trkpt lat="42.50001" lon="2.43962">
        <ele>1976.4</ele>
        <time>2024-07-13T12:42:20Z</time>
      </trkpt>
      <trkpt lat="42.50007" lon="2.43966">
        <ele>1979.2</ele>
        <time>2024-07-13T12:42:28Z</time>
      </trkpt>
      <trkpt lat="42.50011" lon="2.43964">
        <ele>1981.4</ele>
        <time>2024-07-13T12:42:35Z</time>
      </trkpt>
      <trkpt lat="42.50012" lon="2.43962">
        <ele>1983.6</ele>
        <time>2024-07-13T12:42:40Z</time>
      </trkpt>
      <trkpt lat="42.50014" lon="2.43962">
        <ele>1985</ele>
        <time>2024-07-13T12:42:46Z</time>
      </trkpt>
      <trkpt lat="42.50018" lon="2.43961">
        <ele>1985</ele>
        <time>2024-07-13T12:43:23Z</time>
      </trkpt>
      <trkpt lat="42.5002" lon="2.43949">
        <ele>1984.2</ele>
        <time>2024-07-13T12:43:30Z</time>
      </trkpt>
      <trkpt lat="42.5002" lon="2.43936">
        <ele>1984.2</ele>
        <time>2024-07-13T12:43:38Z</time>
      </trkpt>
      <trkpt lat="42.50023" lon="2.4393">
        <ele>1984.4</ele>
        <time>2024-07-13T12:43:43Z</time>
      </trkpt>
      <trkpt lat="42.50023" lon="2.43927">
        <ele>1984</ele>
        <time>2024-07-13T12:43:45Z</time>
      </trkpt>
      <trkpt lat="42.50023" lon="2.43925">
        <ele>1983.4</ele>
        <time>2024-07-13T12:43:51Z</time>
      </trkpt>
      <trkpt lat="42.50025" lon="2.43919">
        <ele>1983.4</ele>
        <time>2024-07-13T12:43:55Z</time>
      </trkpt>
      <trkpt lat="42.50031" lon="2.43912">
        <ele>1982.8</ele>
        <time>2024-07-13T12:44:01Z</time>
      </trkpt>
      <trkpt lat="42.50033" lon="2.4391">
        <ele>1982.6</ele>
        <time>2024-07-13T12:44:03Z</time>
      </trkpt>
      <trkpt lat="42.50037" lon="2.43904">
        <ele>1982.6</ele>
        <time>2024-07-13T12:44:07Z</time>
      </trkpt>
      <trkpt lat="42.50043" lon="2.43894">
        <ele>1984.2</ele>
        <time>2024-07-13T12:44:16Z</time>
      </trkpt>
      <trkpt lat="42.50048" lon="2.43884">
        <ele>1984.6</ele>
        <time>2024-07-13T12:44:23Z</time>
      </trkpt>
      <trkpt lat="42.50052" lon="2.43869">
        <ele>1987.4</ele>
        <time>2024-07-13T12:44:33Z</time>
      </trkpt>
      <trkpt lat="42.50057" lon="2.43858">
        <ele>1988.8</ele>
        <time>2024-07-13T12:44:42Z</time>
      </trkpt>
      <trkpt lat="42.50059" lon="2.43856">
        <ele>1989</ele>
        <time>2024-07-13T12:44:44Z</time>
      </trkpt>
      <trkpt lat="42.50062" lon="2.43855">
        <ele>1989.2</ele>
        <time>2024-07-13T12:44:47Z</time>
      </trkpt>
      <trkpt lat="42.50062" lon="2.43854">
        <ele>1989.2</ele>
        <time>2024-07-13T12:44:48Z</time>
      </trkpt>
      <trkpt lat="42.50067" lon="2.43845">
        <ele>1989.6</ele>
        <time>2024-07-13T12:44:54Z</time>
      </trkpt>
      <trkpt lat="42.50072" lon="2.43839">
        <ele>1990.4</ele>
        <time>2024-07-13T12:45:01Z</time>
      </trkpt>
      <trkpt lat="42.50073" lon="2.43837">
        <ele>1990.4</ele>
        <time>2024-07-13T12:45:02Z</time>
      </trkpt>
      <trkpt lat="42.50073" lon="2.43836">
        <ele>1990.4</ele>
        <time>2024-07-13T12:45:03Z</time>
      </trkpt>
      <trkpt lat="42.50077" lon="2.43829">
        <ele>1990.2</ele>
        <time>2024-07-13T12:45:09Z</time>
      </trkpt>
      <trkpt lat="42.50085" lon="2.43819">
        <ele>1990.6</ele>
        <time>2024-07-13T12:45:18Z</time>
      </trkpt>
      <trkpt lat="42.50091" lon="2.43814">
        <ele>1991.2</ele>
        <time>2024-07-13T12:45:24Z</time>
      </trkpt>
      <trkpt lat="42.50092" lon="2.43814">
        <ele>1991.4</ele>
        <time>2024-07-13T12:45:25Z</time>
      </trkpt>
      <trkpt lat="42.50096" lon="2.4381">
        <ele>1992.2</ele>
        <time>2024-07-13T12:45:29Z</time>
      </trkpt>
      <trkpt lat="42.50097" lon="2.43809">
        <ele>1992.4</ele>
        <time>2024-07-13T12:45:31Z</time>
      </trkpt>
      <trkpt lat="42.501" lon="2.43806">
        <ele>1993.2</ele>
        <time>2024-07-13T12:45:34Z</time>
      </trkpt>
      <trkpt lat="42.50102" lon="2.43804">
        <ele>1993.6</ele>
        <time>2024-07-13T12:45:36Z</time>
      </trkpt>
      <trkpt lat="42.50103" lon="2.43802">
        <ele>1993.8</ele>
        <time>2024-07-13T12:45:37Z</time>
      </trkpt>
      <trkpt lat="42.50104" lon="2.438">
        <ele>1994.2</ele>
        <time>2024-07-13T12:45:39Z</time>
      </trkpt>
      <trkpt lat="42.50106" lon="2.43799">
        <ele>1994.8</ele>
        <time>2024-07-13T12:45:41Z</time>
      </trkpt>
      <trkpt lat="42.50109" lon="2.43798">
        <ele>1995.6</ele>
        <time>2024-07-13T12:45:43Z</time>
      </trkpt>
      <trkpt lat="42.50117" lon="2.43794">
        <ele>1996.2</ele>
        <time>2024-07-13T12:45:51Z</time>
      </trkpt>
      <trkpt lat="42.50126" lon="2.43789">
        <ele>1996</ele>
        <time>2024-07-13T12:45:59Z</time>
      </trkpt>
      <trkpt lat="42.50135" lon="2.43784">
        <ele>1995.6</ele>
        <time>2024-07-13T12:46:08Z</time>
      </trkpt>
      <trkpt lat="42.50145" lon="2.43784">
        <ele>1996</ele>
        <time>2024-07-13T12:46:16Z</time>
      </trkpt>
      <trkpt lat="42.50149" lon="2.43784">
        <ele>1996.2</ele>
        <time>2024-07-13T12:46:20Z</time>
      </trkpt>
      <trkpt lat="42.50152" lon="2.43781">
        <ele>1996.2</ele>
        <time>2024-07-13T12:46:23Z</time>
      </trkpt>
      <trkpt lat="42.50158" lon="2.43777">
        <ele>1996.2</ele>
        <time>2024-07-13T12:46:29Z</time>
      </trkpt>
      <trkpt lat="42.50161" lon="2.43777">
        <ele>1996.2</ele>
        <time>2024-07-13T12:46:31Z</time>
      </trkpt>
      <trkpt lat="42.50164" lon="2.43777">
        <ele>1996.2</ele>
        <time>2024-07-13T12:46:33Z</time>
      </trkpt>
      <trkpt lat="42.50165" lon="2.43774">
        <ele>1996.4</ele>
        <time>2024-07-13T12:46:36Z</time>
      </trkpt>
      <trkpt lat="42.50169" lon="2.43769">
        <ele>1996.4</ele>
        <time>2024-07-13T12:46:42Z</time>
      </trkpt>
      <trkpt lat="42.5017" lon="2.43767">
        <ele>1996.2</ele>
        <time>2024-07-13T12:46:44Z</time>
      </trkpt>
      <trkpt lat="42.50171" lon="2.43764">
        <ele>1996</ele>
        <time>2024-07-13T12:46:46Z</time>
      </trkpt>
      <trkpt lat="42.50174" lon="2.43761">
        <ele>1995.4</ele>
        <time>2024-07-13T12:46:50Z</time>
      </trkpt>
      <trkpt lat="42.5018" lon="2.43754">
        <ele>1995.8</ele>
        <time>2024-07-13T12:46:58Z</time>
      </trkpt>
      <trkpt lat="42.50186" lon="2.43748">
        <ele>1997.4</ele>
        <time>2024-07-13T12:47:05Z</time>
      </trkpt>
      <trkpt lat="42.5019" lon="2.43743">
        <ele>1997.6</ele>
        <time>2024-07-13T12:47:10Z</time>
      </trkpt>
      <trkpt lat="42.50191" lon="2.43742">
        <ele>1997.4</ele>
        <time>2024-07-13T12:47:11Z</time>
      </trkpt>
      <trkpt lat="42.50193" lon="2.43741">
        <ele>1997.4</ele>
        <time>2024-07-13T12:47:13Z</time>
      </trkpt>
      <trkpt lat="42.50198" lon="2.43735">
        <ele>1996.2</ele>
        <time>2024-07-13T12:47:18Z</time>
      </trkpt>
      <trkpt lat="42.50201" lon="2.43733">
        <ele>1995.6</ele>
        <time>2024-07-13T12:47:21Z</time>
      </trkpt>
      <trkpt lat="42.50204" lon="2.43733">
        <ele>1995.4</ele>
        <time>2024-07-13T12:47:23Z</time>
      </trkpt>
      <trkpt lat="42.50205" lon="2.43733">
        <ele>1995.4</ele>
        <time>2024-07-13T12:47:24Z</time>
      </trkpt>
      <trkpt lat="42.50214" lon="2.43734">
        <ele>1998.4</ele>
        <time>2024-07-13T12:47:33Z</time>
      </trkpt>
      <trkpt lat="42.50223" lon="2.43733">
        <ele>2000.8</ele>
        <time>2024-07-13T12:47:40Z</time>
      </trkpt>
      <trkpt lat="42.50224" lon="2.43733">
        <ele>2001</ele>
        <time>2024-07-13T12:47:41Z</time>
      </trkpt>
      <trkpt lat="42.50228" lon="2.43732">
        <ele>2001.8</ele>
        <time>2024-07-13T12:47:45Z</time>
      </trkpt>
      <trkpt lat="42.50228" lon="2.4373">
        <ele>2002</ele>
        <time>2024-07-13T12:47:47Z</time>
      </trkpt>
      <trkpt lat="42.50232" lon="2.4373">
        <ele>2004</ele>
        <time>2024-07-13T12:47:51Z</time>
      </trkpt>
      <trkpt lat="42.50239" lon="2.43727">
        <ele>2006.4</ele>
        <time>2024-07-13T12:47:57Z</time>
      </trkpt>
      <trkpt lat="42.5025" lon="2.43726">
        <ele>2007.2</ele>
        <time>2024-07-13T12:48:05Z</time>
      </trkpt>
      <trkpt lat="42.50255" lon="2.43726">
        <ele>2007</ele>
        <time>2024-07-13T12:48:13Z</time>
      </trkpt>
      <trkpt lat="42.50254" lon="2.43727">
        <ele>2007</ele>
        <time>2024-07-13T12:48:20Z</time>
      </trkpt>
      <trkpt lat="42.50253" lon="2.43727">
        <ele>2007.8</ele>
        <time>2024-07-13T12:48:37Z</time>
      </trkpt>
      <trkpt lat="42.50255" lon="2.4373">
        <ele>2008.8</ele>
        <time>2024-07-13T12:48:56Z</time>
      </trkpt>
      <trkpt lat="42.50254" lon="2.43734">
        <ele>2009.8</ele>
        <time>2024-07-13T12:49:04Z</time>
      </trkpt>
      <trkpt lat="42.50252" lon="2.43732">
        <ele>2011.2</ele>
        <time>2024-07-13T12:49:09Z</time>
      </trkpt>
      <trkpt lat="42.50251" lon="2.43731">
        <ele>2013</ele>
        <time>2024-07-13T12:49:16Z</time>
      </trkpt>
      <trkpt lat="42.5025" lon="2.43731">
        <ele>2017.8</ele>
        <time>2024-07-13T12:49:25Z</time>
      </trkpt>
      <trkpt lat="42.50249" lon="2.43731">
        <ele>2026</ele>
        <time>2024-07-13T12:49:34Z</time>
      </trkpt>
      <trkpt lat="42.50248" lon="2.43729">
        <ele>2028.6</ele>
        <time>2024-07-13T12:49:39Z</time>
      </trkpt>
      <trkpt lat="42.50249" lon="2.43728">
        <ele>2029</ele>
        <time>2024-07-13T12:49:44Z</time>
      </trkpt>
      <trkpt lat="42.50249" lon="2.43728">
        <ele>2027.8</ele>
        <time>2024-07-13T12:49:51Z</time>
      </trkpt>
      <trkpt lat="42.50247" lon="2.43722">
        <ele>2024</ele>
        <time>2024-07-13T12:51:23Z</time>
      </trkpt>
      <trkpt lat="42.50245" lon="2.4372">
        <ele>2025.8</ele>
        <time>2024-07-13T12:51:30Z</time>
      </trkpt>
      <trkpt lat="42.50246" lon="2.43722">
        <ele>2027</ele>
        <time>2024-07-13T12:51:36Z</time>
      </trkpt>
      <trkpt lat="42.50245" lon="2.43722">
        <ele>2027.4</ele>
        <time>2024-07-13T12:51:41Z</time>
      </trkpt>
      <trkpt lat="42.50244" lon="2.43722">
        <ele>2028.2</ele>
        <time>2024-07-13T12:51:53Z</time>
      </trkpt>
      <trkpt lat="42.50244" lon="2.43723">
        <ele>2027.8</ele>
        <time>2024-07-13T12:51:58Z</time>
      </trkpt>
      <trkpt lat="42.50244" lon="2.43723">
        <ele>2028.2</ele>
        <time>2024-07-13T12:52:12Z</time>
      </trkpt>
      <trkpt lat="42.50249" lon="2.43717">
        <ele>2029.2</ele>
        <time>2024-07-13T12:52:46Z</time>
      </trkpt>
      <trkpt lat="42.50252" lon="2.43706">
        <ele>2027</ele>
        <time>2024-07-13T12:52:53Z</time>
      </trkpt>
      <trkpt lat="42.50252" lon="2.43697">
        <ele>2019.6</ele>
        <time>2024-07-13T12:53:02Z</time>
      </trkpt>
      <trkpt lat="42.50253" lon="2.43691">
        <ele>2017.6</ele>
        <time>2024-07-13T12:53:07Z</time>
      </trkpt>
      <trkpt lat="42.50253" lon="2.43689">
        <ele>2017.4</ele>
        <time>2024-07-13T12:53:09Z</time>
      </trkpt>
      <trkpt lat="42.50254" lon="2.43682">
        <ele>2017.8</ele>
        <time>2024-07-13T12:53:14Z</time>
      </trkpt>
      <trkpt lat="42.50255" lon="2.43681">
        <ele>2018</ele>
        <time>2024-07-13T12:53:15Z</time>
      </trkpt>
      <trkpt lat="42.50256" lon="2.43676">
        <ele>2018</ele>
        <time>2024-07-13T12:53:19Z</time>
      </trkpt>
      <trkpt lat="42.5026" lon="2.43674">
        <ele>2014.8</ele>
        <time>2024-07-13T12:53:22Z</time>
      </trkpt>
      <trkpt lat="42.50261" lon="2.4367">
        <ele>2013.4</ele>
        <time>2024-07-13T12:53:24Z</time>
      </trkpt>
      <trkpt lat="42.50264" lon="2.43667">
        <ele>2012.4</ele>
        <time>2024-07-13T12:53:28Z</time>
      </trkpt>
      <trkpt lat="42.50265" lon="2.43666">
        <ele>2012.6</ele>
        <time>2024-07-13T12:53:29Z</time>
      </trkpt>
      <trkpt lat="42.50265" lon="2.43665">
        <ele>2013</ele>
        <time>2024-07-13T12:53:30Z</time>
      </trkpt>
      <trkpt lat="42.50266" lon="2.43661">
        <ele>2014.2</ele>
        <time>2024-07-13T12:53:33Z</time>
      </trkpt>
      <trkpt lat="42.50267" lon="2.43656">
        <ele>2015.2</ele>
        <time>2024-07-13T12:53:36Z</time>
      </trkpt>
      <trkpt lat="42.50267" lon="2.43655">
        <ele>2015.4</ele>
        <time>2024-07-13T12:53:37Z</time>
      </trkpt>
      <trkpt lat="42.50271" lon="2.43647">
        <ele>2017.6</ele>
        <time>2024-07-13T12:53:43Z</time>
      </trkpt>
      <trkpt lat="42.50274" lon="2.43642">
        <ele>2019.4</ele>
        <time>2024-07-13T12:53:49Z</time>
      </trkpt>
      <trkpt lat="42.50276" lon="2.43635">
        <ele>2020.4</ele>
        <time>2024-07-13T12:53:55Z</time>
      </trkpt>
      <trkpt lat="42.50283" lon="2.43619">
        <ele>2021.8</ele>
        <time>2024-07-13T12:54:04Z</time>
      </trkpt>
      <trkpt lat="42.50287" lon="2.43611">
        <ele>2023.2</ele>
        <time>2024-07-13T12:54:10Z</time>
      </trkpt>
      <trkpt lat="42.50288" lon="2.43609">
        <ele>2023.8</ele>
        <time>2024-07-13T12:54:12Z</time>
      </trkpt>
      <trkpt lat="42.50293" lon="2.43597">
        <ele>2024</ele>
        <time>2024-07-13T12:54:21Z</time>
      </trkpt>
      <trkpt lat="42.50296" lon="2.43592">
        <ele>2023.6</ele>
        <time>2024-07-13T12:54:25Z</time>
      </trkpt>
      <trkpt lat="42.50299" lon="2.43586">
        <ele>2021.4</ele>
        <time>2024-07-13T12:54:30Z</time>
      </trkpt>
      <trkpt lat="42.50302" lon="2.43576">
        <ele>2019.4</ele>
        <time>2024-07-13T12:54:37Z</time>
      </trkpt>
      <trkpt lat="42.50302" lon="2.43575">
        <ele>2019.4</ele>
        <time>2024-07-13T12:54:38Z</time>
      </trkpt>
      <trkpt lat="42.50307" lon="2.43559">
        <ele>2021.2</ele>
        <time>2024-07-13T12:54:49Z</time>
      </trkpt>
      <trkpt lat="42.5031" lon="2.43553">
        <ele>2022.4</ele>
        <time>2024-07-13T12:54:54Z</time>
      </trkpt>
      <trkpt lat="42.50311" lon="2.4355">
        <ele>2022.6</ele>
        <time>2024-07-13T12:54:56Z</time>
      </trkpt>
      <trkpt lat="42.50317" lon="2.43537">
        <ele>2021.4</ele>
        <time>2024-07-13T12:55:06Z</time>
      </trkpt>
      <trkpt lat="42.50318" lon="2.43536">
        <ele>2021.2</ele>
        <time>2024-07-13T12:55:07Z</time>
      </trkpt>
      <trkpt lat="42.5032" lon="2.43531">
        <ele>2020.4</ele>
        <time>2024-07-13T12:55:11Z</time>
      </trkpt>
      <trkpt lat="42.50323" lon="2.43525">
        <ele>2020.8</ele>
        <time>2024-07-13T12:55:17Z</time>
      </trkpt>
      <trkpt lat="42.50323" lon="2.43523">
        <ele>2021.6</ele>
        <time>2024-07-13T12:55:19Z</time>
      </trkpt>
      <trkpt lat="42.50325" lon="2.43516">
        <ele>2023.2</ele>
        <time>2024-07-13T12:55:24Z</time>
      </trkpt>
      <trkpt lat="42.50328" lon="2.43514">
        <ele>2023.4</ele>
        <time>2024-07-13T12:55:26Z</time>
      </trkpt>
      <trkpt lat="42.50329" lon="2.4351">
        <ele>2022.6</ele>
        <time>2024-07-13T12:55:29Z</time>
      </trkpt>
      <trkpt lat="42.50332" lon="2.43506">
        <ele>2021.8</ele>
        <time>2024-07-13T12:55:32Z</time>
      </trkpt>
      <trkpt lat="42.50335" lon="2.43492">
        <ele>2023.6</ele>
        <time>2024-07-13T12:55:41Z</time>
      </trkpt>
      <trkpt lat="42.50336" lon="2.4349">
        <ele>2024.4</ele>
        <time>2024-07-13T12:55:43Z</time>
      </trkpt>
      <trkpt lat="42.50336" lon="2.43489">
        <ele>2025</ele>
        <time>2024-07-13T12:55:47Z</time>
      </trkpt>
      <trkpt lat="42.50336" lon="2.4349">
        <ele>2026.4</ele>
        <time>2024-07-13T12:56:03Z</time>
      </trkpt>
      <trkpt lat="42.50335" lon="2.43502">
        <ele>2026.8</ele>
        <time>2024-07-13T12:56:09Z</time>
      </trkpt>
      <trkpt lat="42.50335" lon="2.43507">
        <ele>2027.2</ele>
        <time>2024-07-13T12:56:11Z</time>
      </trkpt>
      <trkpt lat="42.50337" lon="2.43517">
        <ele>2030.4</ele>
        <time>2024-07-13T12:56:17Z</time>
      </trkpt>
      <trkpt lat="42.50335" lon="2.43524">
        <ele>2030.6</ele>
        <time>2024-07-13T12:56:24Z</time>
      </trkpt>
      <trkpt lat="42.50336" lon="2.43538">
        <ele>2029</ele>
        <time>2024-07-13T12:56:32Z</time>
      </trkpt>
      <trkpt lat="42.50336" lon="2.4355">
        <ele>2027.2</ele>
        <time>2024-07-13T12:56:40Z</time>
      </trkpt>
      <trkpt lat="42.50334" lon="2.43554">
        <ele>2027.2</ele>
        <time>2024-07-13T12:56:45Z</time>
      </trkpt>
      <trkpt lat="42.50332" lon="2.43564">
        <ele>2029</ele>
        <time>2024-07-13T12:56:53Z</time>
      </trkpt>
      <trkpt lat="42.50329" lon="2.43574">
        <ele>2029.4</ele>
        <time>2024-07-13T12:56:59Z</time>
      </trkpt>
      <trkpt lat="42.50328" lon="2.43579">
        <ele>2029.4</ele>
        <time>2024-07-13T12:57:01Z</time>
      </trkpt>
      <trkpt lat="42.50327" lon="2.43584">
        <ele>2029.8</ele>
        <time>2024-07-13T12:57:05Z</time>
      </trkpt>
      <trkpt lat="42.50327" lon="2.43593">
        <ele>2030.8</ele>
        <time>2024-07-13T12:57:11Z</time>
      </trkpt>
      <trkpt lat="42.50327" lon="2.43604">
        <ele>2031.2</ele>
        <time>2024-07-13T12:57:19Z</time>
      </trkpt>
      <trkpt lat="42.50327" lon="2.43612">
        <ele>2033.8</ele>
        <time>2024-07-13T12:57:25Z</time>
      </trkpt>
      <trkpt lat="42.50327" lon="2.43614">
        <ele>2034</ele>
        <time>2024-07-13T12:57:26Z</time>
      </trkpt>
      <trkpt lat="42.50328" lon="2.43622">
        <ele>2035</ele>
        <time>2024-07-13T12:57:30Z</time>
      </trkpt>
      <trkpt lat="42.50328" lon="2.43625">
        <ele>2035.6</ele>
        <time>2024-07-13T12:57:33Z</time>
      </trkpt>
      <trkpt lat="42.50327" lon="2.43626">
        <ele>2035.8</ele>
        <time>2024-07-13T12:57:34Z</time>
      </trkpt>
      <trkpt lat="42.50326" lon="2.43627">
        <ele>2035.8</ele>
        <time>2024-07-13T12:57:35Z</time>
      </trkpt>
      <trkpt lat="42.50325" lon="2.43629">
        <ele>2036.4</ele>
        <time>2024-07-13T12:57:37Z</time>
      </trkpt>
      <trkpt lat="42.50325" lon="2.43631">
        <ele>2036.6</ele>
        <time>2024-07-13T12:57:38Z</time>
      </trkpt>
      <trkpt lat="42.50325" lon="2.43639">
        <ele>2038.8</ele>
        <time>2024-07-13T12:57:44Z</time>
      </trkpt>
      <trkpt lat="42.50326" lon="2.4364">
        <ele>2039</ele>
        <time>2024-07-13T12:57:45Z</time>
      </trkpt>
      <trkpt lat="42.50327" lon="2.43647">
        <ele>2040</ele>
        <time>2024-07-13T12:57:50Z</time>
      </trkpt>
      <trkpt lat="42.50327" lon="2.43648">
        <ele>2040</ele>
        <time>2024-07-13T12:57:51Z</time>
      </trkpt>
      <trkpt lat="42.50326" lon="2.43655">
        <ele>2040.2</ele>
        <time>2024-07-13T12:57:56Z</time>
      </trkpt>
      <trkpt lat="42.50326" lon="2.43658">
        <ele>2039.8</ele>
        <time>2024-07-13T12:57:58Z</time>
      </trkpt>
      <trkpt lat="42.50325" lon="2.43661">
        <ele>2039.2</ele>
        <time>2024-07-13T12:58:00Z</time>
      </trkpt>
      <trkpt lat="42.50324" lon="2.43667">
        <ele>2038.4</ele>
        <time>2024-07-13T12:58:04Z</time>
      </trkpt>
      <trkpt lat="42.50321" lon="2.43676">
        <ele>2037.6</ele>
        <time>2024-07-13T12:58:12Z</time>
      </trkpt>
      <trkpt lat="42.50318" lon="2.43684">
        <ele>2037.2</ele>
        <time>2024-07-13T12:58:18Z</time>
      </trkpt>
      <trkpt lat="42.50317" lon="2.43685">
        <ele>2037</ele>
        <time>2024-07-13T12:58:19Z</time>
      </trkpt>
      <trkpt lat="42.50318" lon="2.43689">
        <ele>2037</ele>
        <time>2024-07-13T12:58:21Z</time>
      </trkpt>
      <trkpt lat="42.50318" lon="2.43703">
        <ele>2039.2</ele>
        <time>2024-07-13T12:58:27Z</time>
      </trkpt>
      <trkpt lat="42.50318" lon="2.43706">
        <ele>2038.2</ele>
        <time>2024-07-13T12:58:29Z</time>
      </trkpt>
      <trkpt lat="42.50316" lon="2.43711">
        <ele>2037.2</ele>
        <time>2024-07-13T12:58:34Z</time>
      </trkpt>
      <trkpt lat="42.50317" lon="2.43723">
        <ele>2037.6</ele>
        <time>2024-07-13T12:58:40Z</time>
      </trkpt>
      <trkpt lat="42.50315" lon="2.43728">
        <ele>2037.2</ele>
        <time>2024-07-13T12:58:43Z</time>
      </trkpt>
      <trkpt lat="42.50317" lon="2.43732">
        <ele>2035.4</ele>
        <time>2024-07-13T12:58:46Z</time>
      </trkpt>
      <trkpt lat="42.5032" lon="2.43735">
        <ele>2034.6</ele>
        <time>2024-07-13T12:58:49Z</time>
      </trkpt>
      <trkpt lat="42.50327" lon="2.43744">
        <ele>2036.4</ele>
        <time>2024-07-13T12:58:58Z</time>
      </trkpt>
      <trkpt lat="42.50336" lon="2.43754">
        <ele>2039.2</ele>
        <time>2024-07-13T12:59:07Z</time>
      </trkpt>
      <trkpt lat="42.50342" lon="2.43765">
        <ele>2039.4</ele>
        <time>2024-07-13T12:59:16Z</time>
      </trkpt>
      <trkpt lat="42.50347" lon="2.43775">
        <ele>2039.8</ele>
        <time>2024-07-13T12:59:25Z</time>
      </trkpt>
      <trkpt lat="42.50349" lon="2.43782">
        <ele>2041.2</ele>
        <time>2024-07-13T12:59:30Z</time>
      </trkpt>
      <trkpt lat="42.5035" lon="2.43784">
        <ele>2041.6</ele>
        <time>2024-07-13T12:59:32Z</time>
      </trkpt>
      <trkpt lat="42.50353" lon="2.43795">
        <ele>2044</ele>
        <time>2024-07-13T12:59:40Z</time>
      </trkpt>
      <trkpt lat="42.50356" lon="2.43805">
        <ele>2050.8</ele>
        <time>2024-07-13T12:59:48Z</time>
      </trkpt>
      <trkpt lat="42.5036" lon="2.43819">
        <ele>2055.4</ele>
        <time>2024-07-13T12:59:57Z</time>
      </trkpt>
      <trkpt lat="42.5036" lon="2.43829">
        <ele>2056.2</ele>
        <time>2024-07-13T13:00:03Z</time>
      </trkpt>
      <trkpt lat="42.5036" lon="2.43831">
        <ele>2056.2</ele>
        <time>2024-07-13T13:00:06Z</time>
      </trkpt>
      <trkpt lat="42.50358" lon="2.43831">
        <ele>2056</ele>
        <time>2024-07-13T13:00:08Z</time>
      </trkpt>
      <trkpt lat="42.50354" lon="2.43841">
        <ele>2055</ele>
        <time>2024-07-13T13:00:16Z</time>
      </trkpt>
      <trkpt lat="42.5035" lon="2.43851">
        <ele>2051</ele>
        <time>2024-07-13T13:00:22Z</time>
      </trkpt>
      <trkpt lat="42.50351" lon="2.4386">
        <ele>2051</ele>
        <time>2024-07-13T13:00:30Z</time>
      </trkpt>
      <trkpt lat="42.50348" lon="2.4387">
        <ele>2051.8</ele>
        <time>2024-07-13T13:00:36Z</time>
      </trkpt>
      <trkpt lat="42.50347" lon="2.43873">
        <ele>2052.2</ele>
        <time>2024-07-13T13:00:39Z</time>
      </trkpt>
      <trkpt lat="42.50341" lon="2.43876">
        <ele>2053.6</ele>
        <time>2024-07-13T13:00:43Z</time>
      </trkpt>
      <trkpt lat="42.50339" lon="2.43877">
        <ele>2055.4</ele>
        <time>2024-07-13T13:00:45Z</time>
      </trkpt>
      <trkpt lat="42.50336" lon="2.43878">
        <ele>2059</ele>
        <time>2024-07-13T13:00:48Z</time>
      </trkpt>
      <trkpt lat="42.50328" lon="2.43879">
        <ele>2063</ele>
        <time>2024-07-13T13:00:56Z</time>
      </trkpt>
      <trkpt lat="42.5032" lon="2.43878">
        <ele>2062.6</ele>
        <time>2024-07-13T13:01:03Z</time>
      </trkpt>
      <trkpt lat="42.50317" lon="2.43878">
        <ele>2062.2</ele>
        <time>2024-07-13T13:01:06Z</time>
      </trkpt>
      <trkpt lat="42.50311" lon="2.43877">
        <ele>2061.6</ele>
        <time>2024-07-13T13:01:11Z</time>
      </trkpt>
      <trkpt lat="42.503" lon="2.43871">
        <ele>2061.4</ele>
        <time>2024-07-13T13:01:21Z</time>
      </trkpt>
      <trkpt lat="42.50299" lon="2.43869">
        <ele>2061.4</ele>
        <time>2024-07-13T13:01:23Z</time>
      </trkpt>
      <trkpt lat="42.50294" lon="2.43867">
        <ele>2061.6</ele>
        <time>2024-07-13T13:01:29Z</time>
      </trkpt>
      <trkpt lat="42.50293" lon="2.43867">
        <ele>2061.6</ele>
        <time>2024-07-13T13:01:30Z</time>
      </trkpt>
      <trkpt lat="42.50288" lon="2.4387">
        <ele>2060.8</ele>
        <time>2024-07-13T13:01:35Z</time>
      </trkpt>
      <trkpt lat="42.50282" lon="2.43878">
        <ele>2059.8</ele>
        <time>2024-07-13T13:01:43Z</time>
      </trkpt>
      <trkpt lat="42.50281" lon="2.43885">
        <ele>2059.4</ele>
        <time>2024-07-13T13:01:48Z</time>
      </trkpt>
      <trkpt lat="42.50281" lon="2.43888">
        <ele>2059.2</ele>
        <time>2024-07-13T13:01:50Z</time>
      </trkpt>
      <trkpt lat="42.50282" lon="2.43891">
        <ele>2058.8</ele>
        <time>2024-07-13T13:01:52Z</time>
      </trkpt>
      <trkpt lat="42.50282" lon="2.43895">
        <ele>2058.6</ele>
        <time>2024-07-13T13:01:55Z</time>
      </trkpt>
      <trkpt lat="42.50281" lon="2.43901">
        <ele>2058.8</ele>
        <time>2024-07-13T13:02:00Z</time>
      </trkpt>
      <trkpt lat="42.50283" lon="2.43917">
        <ele>2062</ele>
        <time>2024-07-13T13:02:10Z</time>
      </trkpt>
      <trkpt lat="42.50284" lon="2.43926">
        <ele>2063.4</ele>
        <time>2024-07-13T13:02:17Z</time>
      </trkpt>
      <trkpt lat="42.50285" lon="2.43937">
        <ele>2064</ele>
        <time>2024-07-13T13:02:25Z</time>
      </trkpt>
      <trkpt lat="42.50286" lon="2.4394">
        <ele>2064</ele>
        <time>2024-07-13T13:02:27Z</time>
      </trkpt>
      <trkpt lat="42.50287" lon="2.43947">
        <ele>2065.2</ele>
        <time>2024-07-13T13:02:34Z</time>
      </trkpt>
      <trkpt lat="42.50287" lon="2.43949">
        <ele>2065.4</ele>
        <time>2024-07-13T13:02:36Z</time>
      </trkpt>
      <trkpt lat="42.50287" lon="2.43954">
        <ele>2065.8</ele>
        <time>2024-07-13T13:02:40Z</time>
      </trkpt>
      <trkpt lat="42.50289" lon="2.43967">
        <ele>2069</ele>
        <time>2024-07-13T13:02:49Z</time>
      </trkpt>
      <trkpt lat="42.5029" lon="2.43981">
        <ele>2071.4</ele>
        <time>2024-07-13T13:02:59Z</time>
      </trkpt>
      <trkpt lat="42.50289" lon="2.43985">
        <ele>2072</ele>
        <time>2024-07-13T13:03:02Z</time>
      </trkpt>
      <trkpt lat="42.50291" lon="2.4399">
        <ele>2072.4</ele>
        <time>2024-07-13T13:03:05Z</time>
      </trkpt>
      <trkpt lat="42.50291" lon="2.43997">
        <ele>2070.8</ele>
        <time>2024-07-13T13:03:10Z</time>
      </trkpt>
      <trkpt lat="42.5029" lon="2.43999">
        <ele>2070.6</ele>
        <time>2024-07-13T13:03:12Z</time>
      </trkpt>
      <trkpt lat="42.5029" lon="2.44007">
        <ele>2071.6</ele>
        <time>2024-07-13T13:03:19Z</time>
      </trkpt>
      <trkpt lat="42.50291" lon="2.44012">
        <ele>2071.8</ele>
        <time>2024-07-13T13:03:22Z</time>
      </trkpt>
      <trkpt lat="42.50292" lon="2.44016">
        <ele>2071.6</ele>
        <time>2024-07-13T13:03:24Z</time>
      </trkpt>
      <trkpt lat="42.50292" lon="2.4403">
        <ele>2071.8</ele>
        <time>2024-07-13T13:03:32Z</time>
      </trkpt>
      <trkpt lat="42.50291" lon="2.4404">
        <ele>2070.4</ele>
        <time>2024-07-13T13:03:39Z</time>
      </trkpt>
      <trkpt lat="42.50283" lon="2.44049">
        <ele>2070</ele>
        <time>2024-07-13T13:03:47Z</time>
      </trkpt>
      <trkpt lat="42.50275" lon="2.44058">
        <ele>2069</ele>
        <time>2024-07-13T13:03:56Z</time>
      </trkpt>
      <trkpt lat="42.50267" lon="2.44068">
        <ele>2069</ele>
        <time>2024-07-13T13:04:06Z</time>
      </trkpt>
      <trkpt lat="42.50261" lon="2.44079">
        <ele>2071.6</ele>
        <time>2024-07-13T13:04:16Z</time>
      </trkpt>
      <trkpt lat="42.5026" lon="2.4409">
        <ele>2074</ele>
        <time>2024-07-13T13:04:24Z</time>
      </trkpt>
      <trkpt lat="42.50261" lon="2.44101">
        <ele>2078.2</ele>
        <time>2024-07-13T13:04:32Z</time>
      </trkpt>
      <trkpt lat="42.50261" lon="2.44103">
        <ele>2078.6</ele>
        <time>2024-07-13T13:04:33Z</time>
      </trkpt>
      <trkpt lat="42.50258" lon="2.4411">
        <ele>2080.6</ele>
        <time>2024-07-13T13:04:39Z</time>
      </trkpt>
      <trkpt lat="42.50258" lon="2.44118">
        <ele>2081</ele>
        <time>2024-07-13T13:04:45Z</time>
      </trkpt>
      <trkpt lat="42.50258" lon="2.4412">
        <ele>2081</ele>
        <time>2024-07-13T13:04:47Z</time>
      </trkpt>
      <trkpt lat="42.50255" lon="2.44127">
        <ele>2082.6</ele>
        <time>2024-07-13T13:04:53Z</time>
      </trkpt>
      <trkpt lat="42.50255" lon="2.44128">
        <ele>2082.8</ele>
        <time>2024-07-13T13:04:54Z</time>
      </trkpt>
      <trkpt lat="42.50251" lon="2.44134">
        <ele>2083.6</ele>
        <time>2024-07-13T13:04:58Z</time>
      </trkpt>
      <trkpt lat="42.50251" lon="2.44137">
        <ele>2083.8</ele>
        <time>2024-07-13T13:05:00Z</time>
      </trkpt>
      <trkpt lat="42.5025" lon="2.44144">
        <ele>2083.6</ele>
        <time>2024-07-13T13:05:04Z</time>
      </trkpt>
      <trkpt lat="42.50248" lon="2.44151">
        <ele>2083.4</ele>
        <time>2024-07-13T13:05:10Z</time>
      </trkpt>
      <trkpt lat="42.50248" lon="2.44152">
        <ele>2083.6</ele>
        <time>2024-07-13T13:05:11Z</time>
      </trkpt>
      <trkpt lat="42.50247" lon="2.44154">
        <ele>2083.8</ele>
        <time>2024-07-13T13:05:12Z</time>
      </trkpt>
      <trkpt lat="42.50246" lon="2.44157">
        <ele>2084.8</ele>
        <time>2024-07-13T13:05:15Z</time>
      </trkpt>
      <trkpt lat="42.50245" lon="2.44168">
        <ele>2084.8</ele>
        <time>2024-07-13T13:05:24Z</time>
      </trkpt>
      <trkpt lat="42.50242" lon="2.44178">
        <ele>2085</ele>
        <time>2024-07-13T13:05:31Z</time>
      </trkpt>
      <trkpt lat="42.5024" lon="2.44189">
        <ele>2086.4</ele>
        <time>2024-07-13T13:05:39Z</time>
      </trkpt>
      <trkpt lat="42.50239" lon="2.44202">
        <ele>2089.4</ele>
        <time>2024-07-13T13:05:48Z</time>
      </trkpt>
      <trkpt lat="42.50241" lon="2.4421">
        <ele>2091.8</ele>
        <time>2024-07-13T13:05:54Z</time>
      </trkpt>
      <trkpt lat="42.50242" lon="2.44219">
        <ele>2089.2</ele>
        <time>2024-07-13T13:06:01Z</time>
      </trkpt>
      <trkpt lat="42.50245" lon="2.44229">
        <ele>2088.6</ele>
        <time>2024-07-13T13:06:09Z</time>
      </trkpt>
      <trkpt lat="42.50245" lon="2.4423">
        <ele>2088.8</ele>
        <time>2024-07-13T13:06:10Z</time>
      </trkpt>
      <trkpt lat="42.50248" lon="2.44237">
        <ele>2089.4</ele>
        <time>2024-07-13T13:06:16Z</time>
      </trkpt>
      <trkpt lat="42.50248" lon="2.4424">
        <ele>2090</ele>
        <time>2024-07-13T13:06:19Z</time>
      </trkpt>
      <trkpt lat="42.50249" lon="2.44245">
        <ele>2090.8</ele>
        <time>2024-07-13T13:06:24Z</time>
      </trkpt>
      <trkpt lat="42.50252" lon="2.4425">
        <ele>2091</ele>
        <time>2024-07-13T13:06:29Z</time>
      </trkpt>
      <trkpt lat="42.50254" lon="2.44254">
        <ele>2091</ele>
        <time>2024-07-13T13:06:32Z</time>
      </trkpt>
      <trkpt lat="42.50257" lon="2.44263">
        <ele>2092</ele>
        <time>2024-07-13T13:06:41Z</time>
      </trkpt>
      <trkpt lat="42.50262" lon="2.44271">
        <ele>2093.4</ele>
        <time>2024-07-13T13:06:49Z</time>
      </trkpt>
      <trkpt lat="42.50264" lon="2.4428">
        <ele>2094.4</ele>
        <time>2024-07-13T13:06:57Z</time>
      </trkpt>
      <trkpt lat="42.50268" lon="2.4429">
        <ele>2096</ele>
        <time>2024-07-13T13:07:06Z</time>
      </trkpt>
      <trkpt lat="42.50273" lon="2.44301">
        <ele>2098.4</ele>
        <time>2024-07-13T13:07:16Z</time>
      </trkpt>
      <trkpt lat="42.50277" lon="2.44308">
        <ele>2100.8</ele>
        <time>2024-07-13T13:07:24Z</time>
      </trkpt>
      <trkpt lat="42.50282" lon="2.4432">
        <ele>2103.4</ele>
        <time>2024-07-13T13:07:35Z</time>
      </trkpt>
      <trkpt lat="42.50285" lon="2.44326">
        <ele>2103.8</ele>
        <time>2024-07-13T13:07:41Z</time>
      </trkpt>
      <trkpt lat="42.50285" lon="2.44327">
        <ele>2104</ele>
        <time>2024-07-13T13:07:42Z</time>
      </trkpt>
      <trkpt lat="42.5029" lon="2.44335">
        <ele>2105.4</ele>
        <time>2024-07-13T13:07:50Z</time>
      </trkpt>
      <trkpt lat="42.50293" lon="2.4434">
        <ele>2107.4</ele>
        <time>2024-07-13T13:07:55Z</time>
      </trkpt>
      <trkpt lat="42.50294" lon="2.44342">
        <ele>2108</ele>
        <time>2024-07-13T13:07:57Z</time>
      </trkpt>
      <trkpt lat="42.503" lon="2.44352">
        <ele>2109.2</ele>
        <time>2024-07-13T13:08:06Z</time>
      </trkpt>
      <trkpt lat="42.50311" lon="2.44364">
        <ele>2110.4</ele>
        <time>2024-07-13T13:08:20Z</time>
      </trkpt>
      <trkpt lat="42.5032" lon="2.44374">
        <ele>2111.2</ele>
        <time>2024-07-13T13:08:31Z</time>
      </trkpt>
      <trkpt lat="42.50327" lon="2.44382">
        <ele>2112</ele>
        <time>2024-07-13T13:08:39Z</time>
      </trkpt>
      <trkpt lat="42.50334" lon="2.44393">
        <ele>2113.2</ele>
        <time>2024-07-13T13:08:49Z</time>
      </trkpt>
      <trkpt lat="42.5034" lon="2.44402">
        <ele>2114.6</ele>
        <time>2024-07-13T13:08:58Z</time>
      </trkpt>
      <trkpt lat="42.50344" lon="2.44407">
        <ele>2115.8</ele>
        <time>2024-07-13T13:09:04Z</time>
      </trkpt>
      <trkpt lat="42.50344" lon="2.44408">
        <ele>2115.8</ele>
        <time>2024-07-13T13:09:05Z</time>
      </trkpt>
      <trkpt lat="42.50348" lon="2.44417">
        <ele>2116.8</ele>
        <time>2024-07-13T13:09:11Z</time>
      </trkpt>
      <trkpt lat="42.50353" lon="2.44429">
        <ele>2118.6</ele>
        <time>2024-07-13T13:09:20Z</time>
      </trkpt>
      <trkpt lat="42.50361" lon="2.4444">
        <ele>2119.8</ele>
        <time>2024-07-13T13:09:30Z</time>
      </trkpt>
      <trkpt lat="42.50362" lon="2.44443">
        <ele>2119.8</ele>
        <time>2024-07-13T13:09:36Z</time>
      </trkpt>
      <trkpt lat="42.50365" lon="2.44448">
        <ele>2119.8</ele>
        <time>2024-07-13T13:09:42Z</time>
      </trkpt>
      <trkpt lat="42.5037" lon="2.44459">
        <ele>2120.8</ele>
        <time>2024-07-13T13:09:51Z</time>
      </trkpt>
      <trkpt lat="42.50376" lon="2.44471">
        <ele>2122.6</ele>
        <time>2024-07-13T13:10:01Z</time>
      </trkpt>
      <trkpt lat="42.50381" lon="2.44481">
        <ele>2122.2</ele>
        <time>2024-07-13T13:10:09Z</time>
      </trkpt>
      <trkpt lat="42.50384" lon="2.4449">
        <ele>2122.2</ele>
        <time>2024-07-13T13:10:15Z</time>
      </trkpt>
      <trkpt lat="42.50384" lon="2.44502">
        <ele>2122.4</ele>
        <time>2024-07-13T13:10:23Z</time>
      </trkpt>
      <trkpt lat="42.50388" lon="2.44513">
        <ele>2122.4</ele>
        <time>2024-07-13T13:10:32Z</time>
      </trkpt>
      <trkpt lat="42.50388" lon="2.44513">
        <ele>2122</ele>
        <time>2024-07-13T13:10:37Z</time>
      </trkpt>
      <trkpt lat="42.50388" lon="2.44513">
        <ele>2121.6</ele>
        <time>2024-07-13T13:10:43Z</time>
      </trkpt>
      <trkpt lat="42.50392" lon="2.44519">
        <ele>2119.2</ele>
        <time>2024-07-13T13:12:05Z</time>
      </trkpt>
      <trkpt lat="42.50396" lon="2.44531">
        <ele>2121.6</ele>
        <time>2024-07-13T13:12:12Z</time>
      </trkpt>
      <trkpt lat="42.50402" lon="2.44543">
        <ele>2123.8</ele>
        <time>2024-07-13T13:12:20Z</time>
      </trkpt>
      <trkpt lat="42.50405" lon="2.44555">
        <ele>2126.2</ele>
        <time>2024-07-13T13:12:28Z</time>
      </trkpt>
      <trkpt lat="42.50408" lon="2.44571">
        <ele>2127.6</ele>
        <time>2024-07-13T13:12:37Z</time>
      </trkpt>
      <trkpt lat="42.50408" lon="2.44578">
        <ele>2127.8</ele>
        <time>2024-07-13T13:12:41Z</time>
      </trkpt>
      <trkpt lat="42.50409" lon="2.44582">
        <ele>2127.8</ele>
        <time>2024-07-13T13:12:44Z</time>
      </trkpt>
      <trkpt lat="42.50409" lon="2.44584">
        <ele>2128</ele>
        <time>2024-07-13T13:12:45Z</time>
      </trkpt>
      <trkpt lat="42.50408" lon="2.44596">
        <ele>2129.6</ele>
        <time>2024-07-13T13:12:54Z</time>
      </trkpt>
      <trkpt lat="42.50414" lon="2.4461">
        <ele>2131.4</ele>
        <time>2024-07-13T13:13:05Z</time>
      </trkpt>
      <trkpt lat="42.50419" lon="2.44621">
        <ele>2134.2</ele>
        <time>2024-07-13T13:13:14Z</time>
      </trkpt>
      <trkpt lat="42.5042" lon="2.44623">
        <ele>2134.4</ele>
        <time>2024-07-13T13:13:16Z</time>
      </trkpt>
      <trkpt lat="42.50425" lon="2.44627">
        <ele>2134.6</ele>
        <time>2024-07-13T13:13:22Z</time>
      </trkpt>
      <trkpt lat="42.50428" lon="2.4463">
        <ele>2134.8</ele>
        <time>2024-07-13T13:13:26Z</time>
      </trkpt>
      <trkpt lat="42.50432" lon="2.44634">
        <ele>2136</ele>
        <time>2024-07-13T13:13:31Z</time>
      </trkpt>
      <trkpt lat="42.50435" lon="2.44636">
        <ele>2137.6</ele>
        <time>2024-07-13T13:13:37Z</time>
      </trkpt>
      <trkpt lat="42.5044" lon="2.44642">
        <ele>2139.2</ele>
        <time>2024-07-13T13:13:44Z</time>
      </trkpt>
      <trkpt lat="42.50444" lon="2.44651">
        <ele>2140</ele>
        <time>2024-07-13T13:13:53Z</time>
      </trkpt>
      <trkpt lat="42.50445" lon="2.44652">
        <ele>2140</ele>
        <time>2024-07-13T13:13:54Z</time>
      </trkpt>
      <trkpt lat="42.50448" lon="2.44662">
        <ele>2140</ele>
        <time>2024-07-13T13:14:02Z</time>
      </trkpt>
      <trkpt lat="42.5045" lon="2.44677">
        <ele>2141.2</ele>
        <time>2024-07-13T13:14:12Z</time>
      </trkpt>
      <trkpt lat="42.50449" lon="2.44684">
        <ele>2141.2</ele>
        <time>2024-07-13T13:14:17Z</time>
      </trkpt>
      <trkpt lat="42.50448" lon="2.44688">
        <ele>2141.2</ele>
        <time>2024-07-13T13:14:19Z</time>
      </trkpt>
      <trkpt lat="42.50448" lon="2.44689">
        <ele>2141.2</ele>
        <time>2024-07-13T13:14:20Z</time>
      </trkpt>
      <trkpt lat="42.50447" lon="2.44697">
        <ele>2141.4</ele>
        <time>2024-07-13T13:14:25Z</time>
      </trkpt>
      <trkpt lat="42.50448" lon="2.44712">
        <ele>2141.8</ele>
        <time>2024-07-13T13:14:34Z</time>
      </trkpt>
      <trkpt lat="42.50453" lon="2.44722">
        <ele>2143.8</ele>
        <time>2024-07-13T13:14:42Z</time>
      </trkpt>
      <trkpt lat="42.50453" lon="2.4473">
        <ele>2144.6</ele>
        <time>2024-07-13T13:14:48Z</time>
      </trkpt>
      <trkpt lat="42.50455" lon="2.44737">
        <ele>2144.4</ele>
        <time>2024-07-13T13:14:54Z</time>
      </trkpt>
      <trkpt lat="42.50456" lon="2.44741">
        <ele>2144.2</ele>
        <time>2024-07-13T13:14:58Z</time>
      </trkpt>
      <trkpt lat="42.50458" lon="2.44748">
        <ele>2144.4</ele>
        <time>2024-07-13T13:15:04Z</time>
      </trkpt>
      <trkpt lat="42.50462" lon="2.44754">
        <ele>2144.6</ele>
        <time>2024-07-13T13:15:10Z</time>
      </trkpt>
      <trkpt lat="42.50466" lon="2.4476">
        <ele>2146.4</ele>
        <time>2024-07-13T13:15:16Z</time>
      </trkpt>
      <trkpt lat="42.50472" lon="2.44769">
        <ele>2149.4</ele>
        <time>2024-07-13T13:15:23Z</time>
      </trkpt>
      <trkpt lat="42.50478" lon="2.44776">
        <ele>2150.4</ele>
        <time>2024-07-13T13:15:30Z</time>
      </trkpt>
      <trkpt lat="42.50484" lon="2.44785">
        <ele>2151.8</ele>
        <time>2024-07-13T13:15:39Z</time>
      </trkpt>
      <trkpt lat="42.50489" lon="2.44794">
        <ele>2152.8</ele>
        <time>2024-07-13T13:15:47Z</time>
      </trkpt>
      <trkpt lat="42.50494" lon="2.44801">
        <ele>2154</ele>
        <time>2024-07-13T13:15:55Z</time>
      </trkpt>
      <trkpt lat="42.50497" lon="2.44805">
        <ele>2154.4</ele>
        <time>2024-07-13T13:16:00Z</time>
      </trkpt>
      <trkpt lat="42.50501" lon="2.44811">
        <ele>2155</ele>
        <time>2024-07-13T13:16:05Z</time>
      </trkpt>
      <trkpt lat="42.50505" lon="2.44816">
        <ele>2155.6</ele>
        <time>2024-07-13T13:16:10Z</time>
      </trkpt>
      <trkpt lat="42.50507" lon="2.44819">
        <ele>2157.6</ele>
        <time>2024-07-13T13:16:15Z</time>
      </trkpt>
      <trkpt lat="42.50508" lon="2.44819">
        <ele>2158.4</ele>
        <time>2024-07-13T13:16:17Z</time>
      </trkpt>
      <trkpt lat="42.50512" lon="2.44821">
        <ele>2159.8</ele>
        <time>2024-07-13T13:16:21Z</time>
      </trkpt>
      <trkpt lat="42.50513" lon="2.44822">
        <ele>2160.4</ele>
        <time>2024-07-13T13:16:23Z</time>
      </trkpt>
      <trkpt lat="42.5052" lon="2.44829">
        <ele>2162.6</ele>
        <time>2024-07-13T13:16:31Z</time>
      </trkpt>
      <trkpt lat="42.50522" lon="2.44833">
        <ele>2163.4</ele>
        <time>2024-07-13T13:16:35Z</time>
      </trkpt>
      <trkpt lat="42.50524" lon="2.44839">
        <ele>2164.4</ele>
        <time>2024-07-13T13:16:41Z</time>
      </trkpt>
      <trkpt lat="42.50527" lon="2.44847">
        <ele>2165.8</ele>
        <time>2024-07-13T13:16:49Z</time>
      </trkpt>
      <trkpt lat="42.5053" lon="2.44855">
        <ele>2168</ele>
        <time>2024-07-13T13:16:57Z</time>
      </trkpt>
      <trkpt lat="42.50533" lon="2.44861">
        <ele>2168.8</ele>
        <time>2024-07-13T13:17:03Z</time>
      </trkpt>
      <trkpt lat="42.50535" lon="2.44869">
        <ele>2170.6</ele>
        <time>2024-07-13T13:17:10Z</time>
      </trkpt>
      <trkpt lat="42.5054" lon="2.44882">
        <ele>2172.2</ele>
        <time>2024-07-13T13:17:20Z</time>
      </trkpt>
      <trkpt lat="42.50541" lon="2.44885">
        <ele>2172.4</ele>
        <time>2024-07-13T13:17:23Z</time>
      </trkpt>
      <trkpt lat="42.50543" lon="2.44889">
        <ele>2172.4</ele>
        <time>2024-07-13T13:17:27Z</time>
      </trkpt>
      <trkpt lat="42.50551" lon="2.44897">
        <ele>2173.4</ele>
        <time>2024-07-13T13:17:37Z</time>
      </trkpt>
      <trkpt lat="42.50555" lon="2.44904">
        <ele>2173.8</ele>
        <time>2024-07-13T13:17:45Z</time>
      </trkpt>
      <trkpt lat="42.50557" lon="2.44912">
        <ele>2174.6</ele>
        <time>2024-07-13T13:17:51Z</time>
      </trkpt>
      <trkpt lat="42.50558" lon="2.44922">
        <ele>2174.6</ele>
        <time>2024-07-13T13:18:00Z</time>
      </trkpt>
      <trkpt lat="42.50561" lon="2.44929">
        <ele>2175.8</ele>
        <time>2024-07-13T13:18:08Z</time>
      </trkpt>
      <trkpt lat="42.50563" lon="2.44935">
        <ele>2178.6</ele>
        <time>2024-07-13T13:18:15Z</time>
      </trkpt>
      <trkpt lat="42.50566" lon="2.44943">
        <ele>2180.4</ele>
        <time>2024-07-13T13:18:23Z</time>
      </trkpt>
      <trkpt lat="42.50568" lon="2.4495">
        <ele>2182.2</ele>
        <time>2024-07-13T13:18:29Z</time>
      </trkpt>
      <trkpt lat="42.50569" lon="2.44958">
        <ele>2185</ele>
        <time>2024-07-13T13:18:36Z</time>
      </trkpt>
      <trkpt lat="42.50572" lon="2.44969">
        <ele>2187</ele>
        <time>2024-07-13T13:18:46Z</time>
      </trkpt>
      <trkpt lat="42.50577" lon="2.44973">
        <ele>2189</ele>
        <time>2024-07-13T13:18:54Z</time>
      </trkpt>
      <trkpt lat="42.50583" lon="2.44979">
        <ele>2191.4</ele>
        <time>2024-07-13T13:19:05Z</time>
      </trkpt>
      <trkpt lat="42.50588" lon="2.44983">
        <ele>2192</ele>
        <time>2024-07-13T13:19:13Z</time>
      </trkpt>
      <trkpt lat="42.50591" lon="2.44986">
        <ele>2193.8</ele>
        <time>2024-07-13T13:19:20Z</time>
      </trkpt>
      <trkpt lat="42.50597" lon="2.44987">
        <ele>2194.6</ele>
        <time>2024-07-13T13:19:26Z</time>
      </trkpt>
      <trkpt lat="42.50599" lon="2.44993">
        <ele>2196.2</ele>
        <time>2024-07-13T13:19:33Z</time>
      </trkpt>
      <trkpt lat="42.50601" lon="2.44998">
        <ele>2197.8</ele>
        <time>2024-07-13T13:19:41Z</time>
      </trkpt>
      <trkpt lat="42.50605" lon="2.45002">
        <ele>2199.8</ele>
        <time>2024-07-13T13:19:49Z</time>
      </trkpt>
      <trkpt lat="42.50609" lon="2.45002">
        <ele>2202.4</ele>
        <time>2024-07-13T13:19:57Z</time>
      </trkpt>
      <trkpt lat="42.50612" lon="2.45002">
        <ele>2203</ele>
        <time>2024-07-13T13:20:00Z</time>
      </trkpt>
      <trkpt lat="42.50613" lon="2.45004">
        <ele>2203.4</ele>
        <time>2024-07-13T13:20:02Z</time>
      </trkpt>
      <trkpt lat="42.50615" lon="2.45011">
        <ele>2205</ele>
        <time>2024-07-13T13:20:10Z</time>
      </trkpt>
      <trkpt lat="42.50617" lon="2.45013">
        <ele>2205.4</ele>
        <time>2024-07-13T13:20:16Z</time>
      </trkpt>
      <trkpt lat="42.5062" lon="2.4502">
        <ele>2206.4</ele>
        <time>2024-07-13T13:20:25Z</time>
      </trkpt>
      <trkpt lat="42.50623" lon="2.45027">
        <ele>2206.8</ele>
        <time>2024-07-13T13:20:33Z</time>
      </trkpt>
      <trkpt lat="42.50626" lon="2.45036">
        <ele>2207.2</ele>
        <time>2024-07-13T13:20:43Z</time>
      </trkpt>
      <trkpt lat="42.50629" lon="2.45041">
        <ele>2208.4</ele>
        <time>2024-07-13T13:20:50Z</time>
      </trkpt>
      <trkpt lat="42.50631" lon="2.45048">
        <ele>2210.8</ele>
        <time>2024-07-13T13:20:58Z</time>
      </trkpt>
      <trkpt lat="42.50635" lon="2.45054">
        <ele>2212.2</ele>
        <time>2024-07-13T13:21:05Z</time>
      </trkpt>
      <trkpt lat="42.50641" lon="2.45062">
        <ele>2213.4</ele>
        <time>2024-07-13T13:21:14Z</time>
      </trkpt>
      <trkpt lat="42.50646" lon="2.45071">
        <ele>2215.4</ele>
        <time>2024-07-13T13:21:24Z</time>
      </trkpt>
      <trkpt lat="42.50649" lon="2.45076">
        <ele>2216.6</ele>
        <time>2024-07-13T13:21:30Z</time>
      </trkpt>
      <trkpt lat="42.50651" lon="2.45083">
        <ele>2217.8</ele>
        <time>2024-07-13T13:21:36Z</time>
      </trkpt>
      <trkpt lat="42.50652" lon="2.4509">
        <ele>2219</ele>
        <time>2024-07-13T13:21:43Z</time>
      </trkpt>
      <trkpt lat="42.50655" lon="2.45097">
        <ele>2220.8</ele>
        <time>2024-07-13T13:21:50Z</time>
      </trkpt>
      <trkpt lat="42.5066" lon="2.45103">
        <ele>2223.6</ele>
        <time>2024-07-13T13:21:59Z</time>
      </trkpt>
      <trkpt lat="42.50665" lon="2.45109">
        <ele>2226.2</ele>
        <time>2024-07-13T13:22:08Z</time>
      </trkpt>
      <trkpt lat="42.50668" lon="2.45113">
        <ele>2228.4</ele>
        <time>2024-07-13T13:22:13Z</time>
      </trkpt>
      <trkpt lat="42.50668" lon="2.45116">
        <ele>2230.4</ele>
        <time>2024-07-13T13:22:18Z</time>
      </trkpt>
      <trkpt lat="42.50671" lon="2.45121">
        <ele>2231.4</ele>
        <time>2024-07-13T13:22:25Z</time>
      </trkpt>
      <trkpt lat="42.50674" lon="2.45129">
        <ele>2232.8</ele>
        <time>2024-07-13T13:22:33Z</time>
      </trkpt>
      <trkpt lat="42.50677" lon="2.45137">
        <ele>2232.8</ele>
        <time>2024-07-13T13:22:42Z</time>
      </trkpt>
      <trkpt lat="42.50681" lon="2.45142">
        <ele>2233.6</ele>
        <time>2024-07-13T13:22:51Z</time>
      </trkpt>
      <trkpt lat="42.50685" lon="2.45143">
        <ele>2234.2</ele>
        <time>2024-07-13T13:22:56Z</time>
      </trkpt>
      <trkpt lat="42.50687" lon="2.45148">
        <ele>2236.4</ele>
        <time>2024-07-13T13:23:03Z</time>
      </trkpt>
      <trkpt lat="42.5069" lon="2.45151">
        <ele>2238.6</ele>
        <time>2024-07-13T13:23:10Z</time>
      </trkpt>
      <trkpt lat="42.50694" lon="2.45157">
        <ele>2241.6</ele>
        <time>2024-07-13T13:23:21Z</time>
      </trkpt>
      <trkpt lat="42.50699" lon="2.4516">
        <ele>2242.6</ele>
        <time>2024-07-13T13:23:29Z</time>
      </trkpt>
      <trkpt lat="42.50701" lon="2.45164">
        <ele>2243.6</ele>
        <time>2024-07-13T13:23:35Z</time>
      </trkpt>
      <trkpt lat="42.50704" lon="2.45171">
        <ele>2244</ele>
        <time>2024-07-13T13:23:43Z</time>
      </trkpt>
      <trkpt lat="42.50706" lon="2.45175">
        <ele>2244</ele>
        <time>2024-07-13T13:23:48Z</time>
      </trkpt>
      <trkpt lat="42.5071" lon="2.4518">
        <ele>2245</ele>
        <time>2024-07-13T13:23:55Z</time>
      </trkpt>
      <trkpt lat="42.50711" lon="2.45188">
        <ele>2246</ele>
        <time>2024-07-13T13:24:02Z</time>
      </trkpt>
      <trkpt lat="42.50714" lon="2.45193">
        <ele>2247.6</ele>
        <time>2024-07-13T13:24:09Z</time>
      </trkpt>
      <trkpt lat="42.50718" lon="2.45195">
        <ele>2250.4</ele>
        <time>2024-07-13T13:24:16Z</time>
      </trkpt>
      <trkpt lat="42.50723" lon="2.452">
        <ele>2252.2</ele>
        <time>2024-07-13T13:24:25Z</time>
      </trkpt>
      <trkpt lat="42.5073" lon="2.45206">
        <ele>2253.8</ele>
        <time>2024-07-13T13:24:35Z</time>
      </trkpt>
      <trkpt lat="42.50732" lon="2.45213">
        <ele>2256.2</ele>
        <time>2024-07-13T13:24:44Z</time>
      </trkpt>
      <trkpt lat="42.50734" lon="2.45219">
        <ele>2257.2</ele>
        <time>2024-07-13T13:24:51Z</time>
      </trkpt>
      <trkpt lat="42.50737" lon="2.45221">
        <ele>2258.4</ele>
        <time>2024-07-13T13:24:58Z</time>
      </trkpt>
      <trkpt lat="42.50741" lon="2.45229">
        <ele>2260.6</ele>
        <time>2024-07-13T13:25:08Z</time>
      </trkpt>
      <trkpt lat="42.50744" lon="2.45232">
        <ele>2261</ele>
        <time>2024-07-13T13:25:14Z</time>
      </trkpt>
      <trkpt lat="42.50749" lon="2.45234">
        <ele>2261.8</ele>
        <time>2024-07-13T13:25:21Z</time>
      </trkpt>
      <trkpt lat="42.50751" lon="2.45239">
        <ele>2263</ele>
        <time>2024-07-13T13:25:27Z</time>
      </trkpt>
      <trkpt lat="42.50754" lon="2.45243">
        <ele>2263.6</ele>
        <time>2024-07-13T13:25:34Z</time>
      </trkpt>
      <trkpt lat="42.5076" lon="2.45248">
        <ele>2264.8</ele>
        <time>2024-07-13T13:25:44Z</time>
      </trkpt>
      <trkpt lat="42.50764" lon="2.45258">
        <ele>2266.6</ele>
        <time>2024-07-13T13:25:53Z</time>
      </trkpt>
      <trkpt lat="42.50764" lon="2.45269">
        <ele>2268.2</ele>
        <time>2024-07-13T13:26:01Z</time>
      </trkpt>
      <trkpt lat="42.50764" lon="2.45284">
        <ele>2268.6</ele>
        <time>2024-07-13T13:26:12Z</time>
      </trkpt>
      <trkpt lat="42.50768" lon="2.45289">
        <ele>2268.2</ele>
        <time>2024-07-13T13:26:17Z</time>
      </trkpt>
      <trkpt lat="42.50768" lon="2.4529">
        <ele>2268</ele>
        <time>2024-07-13T13:26:19Z</time>
      </trkpt>
      <trkpt lat="42.50771" lon="2.45297">
        <ele>2267.6</ele>
        <time>2024-07-13T13:26:35Z</time>
      </trkpt>
      <trkpt lat="42.50776" lon="2.45303">
        <ele>2267.6</ele>
        <time>2024-07-13T13:26:43Z</time>
      </trkpt>
      <trkpt lat="42.50779" lon="2.45307">
        <ele>2268.8</ele>
        <time>2024-07-13T13:26:49Z</time>
      </trkpt>
      <trkpt lat="42.50785" lon="2.45311">
        <ele>2269.2</ele>
        <time>2024-07-13T13:26:57Z</time>
      </trkpt>
      <trkpt lat="42.50793" lon="2.45315">
        <ele>2269</ele>
        <time>2024-07-13T13:27:06Z</time>
      </trkpt>
      <trkpt lat="42.50793" lon="2.45315">
        <ele>2269</ele>
        <time>2024-07-13T13:27:07Z</time>
      </trkpt>
      <trkpt lat="42.50799" lon="2.45324">
        <ele>2270.6</ele>
        <time>2024-07-13T13:27:16Z</time>
      </trkpt>
      <trkpt lat="42.50799" lon="2.45325">
        <ele>2271.4</ele>
        <time>2024-07-13T13:27:21Z</time>
      </trkpt>
      <trkpt lat="42.50799" lon="2.45324">
        <ele>2272</ele>
        <time>2024-07-13T13:27:30Z</time>
      </trkpt>
      <trkpt lat="42.50802" lon="2.45328">
        <ele>2274</ele>
        <time>2024-07-13T13:27:43Z</time>
      </trkpt>
      <trkpt lat="42.50809" lon="2.45339">
        <ele>2274</ele>
        <time>2024-07-13T13:27:51Z</time>
      </trkpt>
      <trkpt lat="42.50815" lon="2.45348">
        <ele>2274.8</ele>
        <time>2024-07-13T13:27:59Z</time>
      </trkpt>
      <trkpt lat="42.50821" lon="2.45359">
        <ele>2275.6</ele>
        <time>2024-07-13T13:28:09Z</time>
      </trkpt>
      <trkpt lat="42.50827" lon="2.45373">
        <ele>2278</ele>
        <time>2024-07-13T13:28:20Z</time>
      </trkpt>
      <trkpt lat="42.50834" lon="2.45387">
        <ele>2281.2</ele>
        <time>2024-07-13T13:28:32Z</time>
      </trkpt>
      <trkpt lat="42.50835" lon="2.45389">
        <ele>2281.2</ele>
        <time>2024-07-13T13:28:34Z</time>
      </trkpt>
      <trkpt lat="42.50837" lon="2.45393">
        <ele>2281.2</ele>
        <time>2024-07-13T13:28:38Z</time>
      </trkpt>
      <trkpt lat="42.50836" lon="2.45394">
        <ele>2281.2</ele>
        <time>2024-07-13T13:28:39Z</time>
      </trkpt>
      <trkpt lat="42.50836" lon="2.45395">
        <ele>2281</ele>
        <time>2024-07-13T13:28:40Z</time>
      </trkpt>
      <trkpt lat="42.50835" lon="2.45399">
        <ele>2281</ele>
        <time>2024-07-13T13:28:43Z</time>
      </trkpt>
      <trkpt lat="42.50834" lon="2.454">
        <ele>2281</ele>
        <time>2024-07-13T13:28:44Z</time>
      </trkpt>
      <trkpt lat="42.50829" lon="2.454">
        <ele>2281.2</ele>
        <time>2024-07-13T13:28:50Z</time>
      </trkpt>
      <trkpt lat="42.50821" lon="2.45399">
        <ele>2281.4</ele>
        <time>2024-07-13T13:28:57Z</time>
      </trkpt>
      <trkpt lat="42.50812" lon="2.45395">
        <ele>2281.6</ele>
        <time>2024-07-13T13:29:05Z</time>
      </trkpt>
      <trkpt lat="42.50802" lon="2.45391">
        <ele>2282.6</ele>
        <time>2024-07-13T13:29:15Z</time>
      </trkpt>
      <trkpt lat="42.50801" lon="2.45392">
        <ele>2282.6</ele>
        <time>2024-07-13T13:29:16Z</time>
      </trkpt>
      <trkpt lat="42.50797" lon="2.45398">
        <ele>2282.8</ele>
        <time>2024-07-13T13:29:22Z</time>
      </trkpt>
      <trkpt lat="42.50791" lon="2.45409">
        <ele>2283.6</ele>
        <time>2024-07-13T13:29:31Z</time>
      </trkpt>
      <trkpt lat="42.50786" lon="2.45419">
        <ele>2283.6</ele>
        <time>2024-07-13T13:29:39Z</time>
      </trkpt>
      <trkpt lat="42.50782" lon="2.45431">
        <ele>2284</ele>
        <time>2024-07-13T13:29:49Z</time>
      </trkpt>
      <trkpt lat="42.50778" lon="2.45446">
        <ele>2285.8</ele>
        <time>2024-07-13T13:30:00Z</time>
      </trkpt>
      <trkpt lat="42.50776" lon="2.45451">
        <ele>2286.6</ele>
        <time>2024-07-13T13:30:04Z</time>
      </trkpt>
      <trkpt lat="42.50776" lon="2.45456">
        <ele>2287.4</ele>
        <time>2024-07-13T13:30:07Z</time>
      </trkpt>
      <trkpt lat="42.50772" lon="2.45471">
        <ele>2288.2</ele>
        <time>2024-07-13T13:30:17Z</time>
      </trkpt>
      <trkpt lat="42.50769" lon="2.45482">
        <ele>2288.6</ele>
        <time>2024-07-13T13:30:25Z</time>
      </trkpt>
      <trkpt lat="42.50766" lon="2.45493">
        <ele>2289.6</ele>
        <time>2024-07-13T13:30:33Z</time>
      </trkpt>
      <trkpt lat="42.50762" lon="2.45503">
        <ele>2290.4</ele>
        <time>2024-07-13T13:30:41Z</time>
      </trkpt>
      <trkpt lat="42.50757" lon="2.45515">
        <ele>2290</ele>
        <time>2024-07-13T13:30:51Z</time>
      </trkpt>
      <trkpt lat="42.50749" lon="2.45524">
        <ele>2291.4</ele>
        <time>2024-07-13T13:31:01Z</time>
      </trkpt>
      <trkpt lat="42.50741" lon="2.45534">
        <ele>2292.4</ele>
        <time>2024-07-13T13:31:11Z</time>
      </trkpt>
      <trkpt lat="42.5074" lon="2.45545">
        <ele>2293.2</ele>
        <time>2024-07-13T13:31:18Z</time>
      </trkpt>
      <trkpt lat="42.50744" lon="2.45559">
        <ele>2295.4</ele>
        <time>2024-07-13T13:31:28Z</time>
      </trkpt>
      <trkpt lat="42.50748" lon="2.45568">
        <ele>2296.2</ele>
        <time>2024-07-13T13:31:36Z</time>
      </trkpt>
      <trkpt lat="42.50752" lon="2.45584">
        <ele>2297.4</ele>
        <time>2024-07-13T13:31:49Z</time>
      </trkpt>
      <trkpt lat="42.50753" lon="2.45593">
        <ele>2298.6</ele>
        <time>2024-07-13T13:31:56Z</time>
      </trkpt>
      <trkpt lat="42.50755" lon="2.45604">
        <ele>2300.6</ele>
        <time>2024-07-13T13:32:05Z</time>
      </trkpt>
      <trkpt lat="42.50756" lon="2.45616">
        <ele>2303.2</ele>
        <time>2024-07-13T13:32:16Z</time>
      </trkpt>
      <trkpt lat="42.50756" lon="2.45624">
        <ele>2304.2</ele>
        <time>2024-07-13T13:32:22Z</time>
      </trkpt>
      <trkpt lat="42.50756" lon="2.45628">
        <ele>2304.6</ele>
        <time>2024-07-13T13:32:25Z</time>
      </trkpt>
      <trkpt lat="42.50756" lon="2.4564">
        <ele>2305</ele>
        <time>2024-07-13T13:32:35Z</time>
      </trkpt>
      <trkpt lat="42.50756" lon="2.45652">
        <ele>2305.8</ele>
        <time>2024-07-13T13:32:45Z</time>
      </trkpt>
      <trkpt lat="42.50756" lon="2.45663">
        <ele>2308.4</ele>
        <time>2024-07-13T13:32:55Z</time>
      </trkpt>
      <trkpt lat="42.50758" lon="2.45676">
        <ele>2309.2</ele>
        <time>2024-07-13T13:33:05Z</time>
      </trkpt>
      <trkpt lat="42.50759" lon="2.45686">
        <ele>2311.4</ele>
        <time>2024-07-13T13:33:13Z</time>
      </trkpt>
      <trkpt lat="42.50762" lon="2.45688">
        <ele>2312.6</ele>
        <time>2024-07-13T13:33:20Z</time>
      </trkpt>
      <trkpt lat="42.50763" lon="2.45687">
        <ele>2312.8</ele>
        <time>2024-07-13T13:33:21Z</time>
      </trkpt>
      <trkpt lat="42.50766" lon="2.45676">
        <ele>2312.6</ele>
        <time>2024-07-13T13:33:28Z</time>
      </trkpt>
      <trkpt lat="42.50767" lon="2.45672">
        <ele>2312.6</ele>
        <time>2024-07-13T13:33:31Z</time>
      </trkpt>
      <trkpt lat="42.5077" lon="2.45665">
        <ele>2313</ele>
        <time>2024-07-13T13:33:36Z</time>
      </trkpt>
      <trkpt lat="42.50779" lon="2.45656">
        <ele>2314.2</ele>
        <time>2024-07-13T13:33:45Z</time>
      </trkpt>
      <trkpt lat="42.5079" lon="2.45648">
        <ele>2314.8</ele>
        <time>2024-07-13T13:33:55Z</time>
      </trkpt>
      <trkpt lat="42.50799" lon="2.45646">
        <ele>2315.8</ele>
        <time>2024-07-13T13:34:04Z</time>
      </trkpt>
      <trkpt lat="42.50808" lon="2.45646">
        <ele>2316.4</ele>
        <time>2024-07-13T13:34:12Z</time>
      </trkpt>
      <trkpt lat="42.50816" lon="2.45649">
        <ele>2316.8</ele>
        <time>2024-07-13T13:34:20Z</time>
      </trkpt>
      <trkpt lat="42.50823" lon="2.45653">
        <ele>2317.4</ele>
        <time>2024-07-13T13:34:27Z</time>
      </trkpt>
      <trkpt lat="42.50832" lon="2.45661">
        <ele>2316.6</ele>
        <time>2024-07-13T13:34:37Z</time>
      </trkpt>
      <trkpt lat="42.50842" lon="2.45673">
        <ele>2319.2</ele>
        <time>2024-07-13T13:34:50Z</time>
      </trkpt>
      <trkpt lat="42.50847" lon="2.45686">
        <ele>2320.8</ele>
        <time>2024-07-13T13:34:59Z</time>
      </trkpt>
      <trkpt lat="42.50853" lon="2.45692">
        <ele>2320.6</ele>
        <time>2024-07-13T13:35:06Z</time>
      </trkpt>
      <trkpt lat="42.50864" lon="2.45699">
        <ele>2320.6</ele>
        <time>2024-07-13T13:35:17Z</time>
      </trkpt>
      <trkpt lat="42.50874" lon="2.45707">
        <ele>2321.2</ele>
        <time>2024-07-13T13:35:27Z</time>
      </trkpt>
      <trkpt lat="42.50879" lon="2.45714">
        <ele>2322.2</ele>
        <time>2024-07-13T13:35:35Z</time>
      </trkpt>
      <trkpt lat="42.50884" lon="2.4572">
        <ele>2324</ele>
        <time>2024-07-13T13:35:43Z</time>
      </trkpt>
      <trkpt lat="42.50889" lon="2.45728">
        <ele>2326.4</ele>
        <time>2024-07-13T13:35:52Z</time>
      </trkpt>
      <trkpt lat="42.50894" lon="2.45731">
        <ele>2327.2</ele>
        <time>2024-07-13T13:36:00Z</time>
      </trkpt>
      <trkpt lat="42.50898" lon="2.45737">
        <ele>2330</ele>
        <time>2024-07-13T13:36:10Z</time>
      </trkpt>
      <trkpt lat="42.50901" lon="2.45744">
        <ele>2331.2</ele>
        <time>2024-07-13T13:36:19Z</time>
      </trkpt>
      <trkpt lat="42.50904" lon="2.45752">
        <ele>2332</ele>
        <time>2024-07-13T13:36:29Z</time>
      </trkpt>
      <trkpt lat="42.50906" lon="2.45759">
        <ele>2334</ele>
        <time>2024-07-13T13:36:39Z</time>
      </trkpt>
      <trkpt lat="42.50909" lon="2.45764">
        <ele>2335.2</ele>
        <time>2024-07-13T13:36:46Z</time>
      </trkpt>
      <trkpt lat="42.5091" lon="2.45764">
        <ele>2337.4</ele>
        <time>2024-07-13T13:36:54Z</time>
      </trkpt>
      <trkpt lat="42.5091" lon="2.45764">
        <ele>2338</ele>
        <time>2024-07-13T13:37:11Z</time>
      </trkpt>
      <trkpt lat="42.50913" lon="2.45771">
        <ele>2339.6</ele>
        <time>2024-07-13T13:37:41Z</time>
      </trkpt>
      <trkpt lat="42.50916" lon="2.45777">
        <ele>2340.2</ele>
        <time>2024-07-13T13:37:47Z</time>
      </trkpt>
      <trkpt lat="42.50921" lon="2.45782">
        <ele>2341.8</ele>
        <time>2024-07-13T13:37:54Z</time>
      </trkpt>
      <trkpt lat="42.50928" lon="2.45785">
        <ele>2344.4</ele>
        <time>2024-07-13T13:38:02Z</time>
      </trkpt>
      <trkpt lat="42.50931" lon="2.45791">
        <ele>2345.6</ele>
        <time>2024-07-13T13:38:08Z</time>
      </trkpt>
      <trkpt lat="42.50932" lon="2.45801">
        <ele>2347.6</ele>
        <time>2024-07-13T13:38:16Z</time>
      </trkpt>
      <trkpt lat="42.50938" lon="2.45802">
        <ele>2348.6</ele>
        <time>2024-07-13T13:38:23Z</time>
      </trkpt>
      <trkpt lat="42.50942" lon="2.45808">
        <ele>2349.8</ele>
        <time>2024-07-13T13:38:29Z</time>
      </trkpt>
      <trkpt lat="42.50943" lon="2.45812">
        <ele>2350.4</ele>
        <time>2024-07-13T13:38:32Z</time>
      </trkpt>
      <trkpt lat="42.50943" lon="2.4582">
        <ele>2351.4</ele>
        <time>2024-07-13T13:38:38Z</time>
      </trkpt>
      <trkpt lat="42.50945" lon="2.45826">
        <ele>2352.2</ele>
        <time>2024-07-13T13:38:42Z</time>
      </trkpt>
      <trkpt lat="42.50946" lon="2.45828">
        <ele>2352.4</ele>
        <time>2024-07-13T13:38:44Z</time>
      </trkpt>
      <trkpt lat="42.50947" lon="2.45829">
        <ele>2352.6</ele>
        <time>2024-07-13T13:38:45Z</time>
      </trkpt>
      <trkpt lat="42.50954" lon="2.45827">
        <ele>2351.8</ele>
        <time>2024-07-13T13:38:53Z</time>
      </trkpt>
      <trkpt lat="42.50964" lon="2.45828">
        <ele>2351.8</ele>
        <time>2024-07-13T13:39:02Z</time>
      </trkpt>
      <trkpt lat="42.50965" lon="2.45828">
        <ele>2351.8</ele>
        <time>2024-07-13T13:39:03Z</time>
      </trkpt>
      <trkpt lat="42.50966" lon="2.4583">
        <ele>2351.8</ele>
        <time>2024-07-13T13:39:05Z</time>
      </trkpt>
      <trkpt lat="42.50967" lon="2.45833">
        <ele>2351.8</ele>
        <time>2024-07-13T13:39:07Z</time>
      </trkpt>
      <trkpt lat="42.50966" lon="2.45835">
        <ele>2352.2</ele>
        <time>2024-07-13T13:39:13Z</time>
      </trkpt>
      <trkpt lat="42.50967" lon="2.45834">
        <ele>2352.4</ele>
        <time>2024-07-13T13:39:27Z</time>
      </trkpt>
      <trkpt lat="42.50967" lon="2.45828">
        <ele>2353.2</ele>
        <time>2024-07-13T13:39:46Z</time>
      </trkpt>
      <trkpt lat="42.50972" lon="2.4582">
        <ele>2354</ele>
        <time>2024-07-13T13:39:52Z</time>
      </trkpt>
      <trkpt lat="42.50975" lon="2.4582">
        <ele>2354.6</ele>
        <time>2024-07-13T13:39:54Z</time>
      </trkpt>
      <trkpt lat="42.50979" lon="2.45825">
        <ele>2355.6</ele>
        <time>2024-07-13T13:39:59Z</time>
      </trkpt>
      <trkpt lat="42.50984" lon="2.45835">
        <ele>2355</ele>
        <time>2024-07-13T13:40:10Z</time>
      </trkpt>
      <trkpt lat="42.5099" lon="2.45843">
        <ele>2356.4</ele>
        <time>2024-07-13T13:40:19Z</time>
      </trkpt>
      <trkpt lat="42.50995" lon="2.45853">
        <ele>2357.4</ele>
        <time>2024-07-13T13:40:29Z</time>
      </trkpt>
      <trkpt lat="42.51005" lon="2.45864">
        <ele>2358.4</ele>
        <time>2024-07-13T13:40:42Z</time>
      </trkpt>
      <trkpt lat="42.51012" lon="2.45871">
        <ele>2361.2</ele>
        <time>2024-07-13T13:40:52Z</time>
      </trkpt>
      <trkpt lat="42.51022" lon="2.4588">
        <ele>2362.2</ele>
        <time>2024-07-13T13:41:02Z</time>
      </trkpt>
      <trkpt lat="42.51032" lon="2.45889">
        <ele>2364.6</ele>
        <time>2024-07-13T13:41:14Z</time>
      </trkpt>
      <trkpt lat="42.51041" lon="2.45894">
        <ele>2365.6</ele>
        <time>2024-07-13T13:41:24Z</time>
      </trkpt>
      <trkpt lat="42.51052" lon="2.45895">
        <ele>2365.4</ele>
        <time>2024-07-13T13:41:34Z</time>
      </trkpt>
      <trkpt lat="42.51063" lon="2.45894">
        <ele>2365.8</ele>
        <time>2024-07-13T13:41:44Z</time>
      </trkpt>
      <trkpt lat="42.51071" lon="2.45895">
        <ele>2366.8</ele>
        <time>2024-07-13T13:41:53Z</time>
      </trkpt>
      <trkpt lat="42.5108" lon="2.45892">
        <ele>2367.2</ele>
        <time>2024-07-13T13:42:02Z</time>
      </trkpt>
      <trkpt lat="42.51089" lon="2.45894">
        <ele>2367.8</ele>
        <time>2024-07-13T13:42:11Z</time>
      </trkpt>
      <trkpt lat="42.51097" lon="2.45902">
        <ele>2369.4</ele>
        <time>2024-07-13T13:42:21Z</time>
      </trkpt>
      <trkpt lat="42.51102" lon="2.45905">
        <ele>2371.6</ele>
        <time>2024-07-13T13:42:27Z</time>
      </trkpt>
      <trkpt lat="42.51106" lon="2.45904">
        <ele>2372.6</ele>
        <time>2024-07-13T13:42:31Z</time>
      </trkpt>
      <trkpt lat="42.51109" lon="2.45906">
        <ele>2373.6</ele>
        <time>2024-07-13T13:42:37Z</time>
      </trkpt>
      <trkpt lat="42.5111" lon="2.45906">
        <ele>2374.6</ele>
        <time>2024-07-13T13:42:39Z</time>
      </trkpt>
      <trkpt lat="42.51114" lon="2.45905">
        <ele>2376.4</ele>
        <time>2024-07-13T13:42:44Z</time>
      </trkpt>
      <trkpt lat="42.5112" lon="2.45898">
        <ele>2376.6</ele>
        <time>2024-07-13T13:42:51Z</time>
      </trkpt>
      <trkpt lat="42.51121" lon="2.45891">
        <ele>2375.8</ele>
        <time>2024-07-13T13:42:56Z</time>
      </trkpt>
      <trkpt lat="42.51121" lon="2.45884">
        <ele>2375.6</ele>
        <time>2024-07-13T13:43:01Z</time>
      </trkpt>
      <trkpt lat="42.51123" lon="2.45869">
        <ele>2376.6</ele>
        <time>2024-07-13T13:43:12Z</time>
      </trkpt>
      <trkpt lat="42.51124" lon="2.45867">
        <ele>2376.8</ele>
        <time>2024-07-13T13:43:13Z</time>
      </trkpt>
      <trkpt lat="42.51129" lon="2.45861">
        <ele>2377.6</ele>
        <time>2024-07-13T13:43:20Z</time>
      </trkpt>
      <trkpt lat="42.51139" lon="2.45856">
        <ele>2378.4</ele>
        <time>2024-07-13T13:43:31Z</time>
      </trkpt>
      <trkpt lat="42.51147" lon="2.45855">
        <ele>2378.2</ele>
        <time>2024-07-13T13:43:40Z</time>
      </trkpt>
      <trkpt lat="42.51151" lon="2.45856">
        <ele>2377.2</ele>
        <time>2024-07-13T13:43:46Z</time>
      </trkpt>
      <trkpt lat="42.51154" lon="2.45857">
        <ele>2377</ele>
        <time>2024-07-13T13:43:51Z</time>
      </trkpt>
      <trkpt lat="42.5116" lon="2.45857">
        <ele>2377.2</ele>
        <time>2024-07-13T13:43:57Z</time>
      </trkpt>
      <trkpt lat="42.51163" lon="2.45861">
        <ele>2378.2</ele>
        <time>2024-07-13T13:44:03Z</time>
      </trkpt>
      <trkpt lat="42.51164" lon="2.4586">
        <ele>2380.4</ele>
        <time>2024-07-13T13:44:10Z</time>
      </trkpt>
      <trkpt lat="42.51165" lon="2.45861">
        <ele>2380.4</ele>
        <time>2024-07-13T13:44:23Z</time>
      </trkpt>
      <trkpt lat="42.51172" lon="2.4587">
        <ele>2381.2</ele>
        <time>2024-07-13T13:44:31Z</time>
      </trkpt>
      <trkpt lat="42.51176" lon="2.45876">
        <ele>2385</ele>
        <time>2024-07-13T13:44:39Z</time>
      </trkpt>
      <trkpt lat="42.51181" lon="2.45883">
        <ele>2386.2</ele>
        <time>2024-07-13T13:44:46Z</time>
      </trkpt>
      <trkpt lat="42.51188" lon="2.45887">
        <ele>2387.6</ele>
        <time>2024-07-13T13:44:54Z</time>
      </trkpt>
      <trkpt lat="42.51197" lon="2.45888">
        <ele>2389.8</ele>
        <time>2024-07-13T13:45:04Z</time>
      </trkpt>
      <trkpt lat="42.51203" lon="2.45892">
        <ele>2392</ele>
        <time>2024-07-13T13:45:12Z</time>
      </trkpt>
      <trkpt lat="42.51211" lon="2.45893">
        <ele>2390.8</ele>
        <time>2024-07-13T13:45:23Z</time>
      </trkpt>
      <trkpt lat="42.51222" lon="2.45892">
        <ele>2389.4</ele>
        <time>2024-07-13T13:45:37Z</time>
      </trkpt>
      <trkpt lat="42.51232" lon="2.45887">
        <ele>2392.8</ele>
        <time>2024-07-13T13:45:50Z</time>
      </trkpt>
      <trkpt lat="42.51236" lon="2.45883">
        <ele>2395.4</ele>
        <time>2024-07-13T13:45:56Z</time>
      </trkpt>
      <trkpt lat="42.51237" lon="2.45881">
        <ele>2396.6</ele>
        <time>2024-07-13T13:45:59Z</time>
      </trkpt>
      <trkpt lat="42.51242" lon="2.45873">
        <ele>2398.2</ele>
        <time>2024-07-13T13:46:10Z</time>
      </trkpt>
      <trkpt lat="42.51246" lon="2.45875">
        <ele>2399.6</ele>
        <time>2024-07-13T13:46:16Z</time>
      </trkpt>
      <trkpt lat="42.51247" lon="2.45881">
        <ele>2400.4</ele>
        <time>2024-07-13T13:46:21Z</time>
      </trkpt>
      <trkpt lat="42.51246" lon="2.45885">
        <ele>2401</ele>
        <time>2024-07-13T13:46:24Z</time>
      </trkpt>
      <trkpt lat="42.51244" lon="2.45895">
        <ele>2401.2</ele>
        <time>2024-07-13T13:46:32Z</time>
      </trkpt>
      <trkpt lat="42.51237" lon="2.45906">
        <ele>2401.8</ele>
        <time>2024-07-13T13:46:41Z</time>
      </trkpt>
      <trkpt lat="42.5123" lon="2.45919">
        <ele>2401</ele>
        <time>2024-07-13T13:46:53Z</time>
      </trkpt>
      <trkpt lat="42.51228" lon="2.45921">
        <ele>2400.8</ele>
        <time>2024-07-13T13:46:55Z</time>
      </trkpt>
      <trkpt lat="42.51224" lon="2.45927">
        <ele>2401.6</ele>
        <time>2024-07-13T13:47:00Z</time>
      </trkpt>
      <trkpt lat="42.51218" lon="2.45936">
        <ele>2404.6</ele>
        <time>2024-07-13T13:47:09Z</time>
      </trkpt>
      <trkpt lat="42.51217" lon="2.45943">
        <ele>2408.6</ele>
        <time>2024-07-13T13:47:18Z</time>
      </trkpt>
      <trkpt lat="42.51213" lon="2.45954">
        <ele>2413.8</ele>
        <time>2024-07-13T13:47:29Z</time>
      </trkpt>
      <trkpt lat="42.51209" lon="2.45961">
        <ele>2413.4</ele>
        <time>2024-07-13T13:47:36Z</time>
      </trkpt>
      <trkpt lat="42.51206" lon="2.45965">
        <ele>2413</ele>
        <time>2024-07-13T13:47:40Z</time>
      </trkpt>
      <trkpt lat="42.51203" lon="2.45969">
        <ele>2413</ele>
        <time>2024-07-13T13:47:45Z</time>
      </trkpt>
      <trkpt lat="42.512" lon="2.45973">
        <ele>2413</ele>
        <time>2024-07-13T13:47:49Z</time>
      </trkpt>
      <trkpt lat="42.51197" lon="2.45976">
        <ele>2412.8</ele>
        <time>2024-07-13T13:47:53Z</time>
      </trkpt>
      <trkpt lat="42.51196" lon="2.45984">
        <ele>2413</ele>
        <time>2024-07-13T13:48:01Z</time>
      </trkpt>
      <trkpt lat="42.51194" lon="2.45989">
        <ele>2414.4</ele>
        <time>2024-07-13T13:48:07Z</time>
      </trkpt>
      <trkpt lat="42.51191" lon="2.45997">
        <ele>2416.2</ele>
        <time>2024-07-13T13:48:15Z</time>
      </trkpt>
      <trkpt lat="42.51189" lon="2.46005">
        <ele>2417.6</ele>
        <time>2024-07-13T13:48:22Z</time>
      </trkpt>
      <trkpt lat="42.51188" lon="2.46006">
        <ele>2417.6</ele>
        <time>2024-07-13T13:48:23Z</time>
      </trkpt>
      <trkpt lat="42.51186" lon="2.46009">
        <ele>2418.2</ele>
        <time>2024-07-13T13:48:30Z</time>
      </trkpt>
      <trkpt lat="42.51185" lon="2.46011">
        <ele>2419.6</ele>
        <time>2024-07-13T13:48:39Z</time>
      </trkpt>
      <trkpt lat="42.5118" lon="2.46021">
        <ele>2418.2</ele>
        <time>2024-07-13T13:48:48Z</time>
      </trkpt>
      <trkpt lat="42.51177" lon="2.4603">
        <ele>2417.8</ele>
        <time>2024-07-13T13:48:55Z</time>
      </trkpt>
      <trkpt lat="42.51171" lon="2.46041">
        <ele>2418.6</ele>
        <time>2024-07-13T13:49:04Z</time>
      </trkpt>
      <trkpt lat="42.5117" lon="2.46041">
        <ele>2418.6</ele>
        <time>2024-07-13T13:49:05Z</time>
      </trkpt>
      <trkpt lat="42.51166" lon="2.46047">
        <ele>2420</ele>
        <time>2024-07-13T13:49:14Z</time>
      </trkpt>
      <trkpt lat="42.51165" lon="2.46048">
        <ele>2420.6</ele>
        <time>2024-07-13T13:49:21Z</time>
      </trkpt>
      <trkpt lat="42.51165" lon="2.46042">
        <ele>2430.4</ele>
        <time>2024-07-13T13:55:22Z</time>
      </trkpt>
      <trkpt lat="42.51167" lon="2.46038">
        <ele>2437.4</ele>
        <time>2024-07-13T13:56:52Z</time>
      </trkpt>
      <trkpt lat="42.51168" lon="2.46042">
        <ele>2430</ele>
        <time>2024-07-13T13:57:25Z</time>
      </trkpt>
      <trkpt lat="42.51169" lon="2.46042">
        <ele>2425.2</ele>
        <time>2024-07-13T13:59:11Z</time>
      </trkpt>
      <trkpt lat="42.51175" lon="2.46039">
        <ele>2425</ele>
        <time>2024-07-13T13:59:17Z</time>
      </trkpt>
      <trkpt lat="42.51181" lon="2.46034">
        <ele>2423.4</ele>
        <time>2024-07-13T13:59:25Z</time>
      </trkpt>
      <trkpt lat="42.51184" lon="2.46032">
        <ele>2423.6</ele>
        <time>2024-07-13T13:59:31Z</time>
      </trkpt>
      <trkpt lat="42.51192" lon="2.46029">
        <ele>2424.8</ele>
        <time>2024-07-13T13:59:40Z</time>
      </trkpt>
      <trkpt lat="42.51197" lon="2.46023">
        <ele>2426</ele>
        <time>2024-07-13T13:59:47Z</time>
      </trkpt>
      <trkpt lat="42.51205" lon="2.4602">
        <ele>2425.8</ele>
        <time>2024-07-13T13:59:57Z</time>
      </trkpt>
      <trkpt lat="42.51209" lon="2.4602">
        <ele>2426</ele>
        <time>2024-07-13T14:00:04Z</time>
      </trkpt>
      <trkpt lat="42.51216" lon="2.46017">
        <ele>2428.4</ele>
        <time>2024-07-13T14:00:15Z</time>
      </trkpt>
      <trkpt lat="42.51222" lon="2.46014">
        <ele>2429.4</ele>
        <time>2024-07-13T14:00:23Z</time>
      </trkpt>
      <trkpt lat="42.51223" lon="2.46013">
        <ele>2431.6</ele>
        <time>2024-07-13T14:00:31Z</time>
      </trkpt>
      <trkpt lat="42.51225" lon="2.46011">
        <ele>2432.4</ele>
        <time>2024-07-13T14:00:55Z</time>
      </trkpt>
      <trkpt lat="42.51235" lon="2.46001">
        <ele>2431.6</ele>
        <time>2024-07-13T14:01:03Z</time>
      </trkpt>
      <trkpt lat="42.51242" lon="2.45998">
        <ele>2431.4</ele>
        <time>2024-07-13T14:01:13Z</time>
      </trkpt>
      <trkpt lat="42.51246" lon="2.45996">
        <ele>2431.6</ele>
        <time>2024-07-13T14:01:19Z</time>
      </trkpt>
      <trkpt lat="42.5125" lon="2.45994">
        <ele>2432.4</ele>
        <time>2024-07-13T14:01:26Z</time>
      </trkpt>
      <trkpt lat="42.51256" lon="2.45991">
        <ele>2435</ele>
        <time>2024-07-13T14:01:36Z</time>
      </trkpt>
      <trkpt lat="42.51264" lon="2.4599">
        <ele>2438.4</ele>
        <time>2024-07-13T14:01:47Z</time>
      </trkpt>
      <trkpt lat="42.51269" lon="2.45989">
        <ele>2440.6</ele>
        <time>2024-07-13T14:01:56Z</time>
      </trkpt>
      <trkpt lat="42.51276" lon="2.45985">
        <ele>2442.8</ele>
        <time>2024-07-13T14:02:06Z</time>
      </trkpt>
      <trkpt lat="42.51283" lon="2.45988">
        <ele>2446.4</ele>
        <time>2024-07-13T14:02:16Z</time>
      </trkpt>
      <trkpt lat="42.51281" lon="2.4599">
        <ele>2446.8</ele>
        <time>2024-07-13T14:02:19Z</time>
      </trkpt>
      <trkpt lat="42.51279" lon="2.45991">
        <ele>2447.2</ele>
        <time>2024-07-13T14:02:21Z</time>
      </trkpt>
      <trkpt lat="42.51274" lon="2.45999">
        <ele>2446.8</ele>
        <time>2024-07-13T14:02:30Z</time>
      </trkpt>
      <trkpt lat="42.51269" lon="2.46004">
        <ele>2445.8</ele>
        <time>2024-07-13T14:02:36Z</time>
      </trkpt>
      <trkpt lat="42.51265" lon="2.4601">
        <ele>2445.2</ele>
        <time>2024-07-13T14:02:42Z</time>
      </trkpt>
      <trkpt lat="42.51262" lon="2.46017">
        <ele>2446.4</ele>
        <time>2024-07-13T14:02:51Z</time>
      </trkpt>
      <trkpt lat="42.51262" lon="2.46022">
        <ele>2449</ele>
        <time>2024-07-13T14:03:01Z</time>
      </trkpt>
      <trkpt lat="42.51264" lon="2.46024">
        <ele>2450.6</ele>
        <time>2024-07-13T14:03:08Z</time>
      </trkpt>
      <trkpt lat="42.51266" lon="2.46024">
        <ele>2452.2</ele>
        <time>2024-07-13T14:03:16Z</time>
      </trkpt>
      <trkpt lat="42.51271" lon="2.46021">
        <ele>2454.4</ele>
        <time>2024-07-13T14:03:25Z</time>
      </trkpt>
      <trkpt lat="42.51275" lon="2.46019">
        <ele>2455.8</ele>
        <time>2024-07-13T14:03:31Z</time>
      </trkpt>
      <trkpt lat="42.51278" lon="2.46016">
        <ele>2457.2</ele>
        <time>2024-07-13T14:03:36Z</time>
      </trkpt>
      <trkpt lat="42.51287" lon="2.46014">
        <ele>2460.4</ele>
        <time>2024-07-13T14:03:49Z</time>
      </trkpt>
      <trkpt lat="42.51292" lon="2.46013">
        <ele>2462.4</ele>
        <time>2024-07-13T14:03:56Z</time>
      </trkpt>
      <trkpt lat="42.51298" lon="2.46011">
        <ele>2463.8</ele>
        <time>2024-07-13T14:04:06Z</time>
      </trkpt>
      <trkpt lat="42.51303" lon="2.46013">
        <ele>2464.2</ele>
        <time>2024-07-13T14:04:14Z</time>
      </trkpt>
      <trkpt lat="42.51307" lon="2.46013">
        <ele>2464.2</ele>
        <time>2024-07-13T14:04:22Z</time>
      </trkpt>
      <trkpt lat="42.51307" lon="2.46012">
        <ele>2466.8</ele>
        <time>2024-07-13T14:04:32Z</time>
      </trkpt>
      <trkpt lat="42.51305" lon="2.46022">
        <ele>2467.6</ele>
        <time>2024-07-13T14:05:01Z</time>
      </trkpt>
      <trkpt lat="42.51301" lon="2.46034">
        <ele>2471.4</ele>
        <time>2024-07-13T14:05:12Z</time>
      </trkpt>
      <trkpt lat="42.51294" lon="2.46044">
        <ele>2473</ele>
        <time>2024-07-13T14:05:24Z</time>
      </trkpt>
      <trkpt lat="42.51291" lon="2.46048">
        <ele>2471.4</ele>
        <time>2024-07-13T14:05:31Z</time>
      </trkpt>
      <trkpt lat="42.51287" lon="2.46054">
        <ele>2471.6</ele>
        <time>2024-07-13T14:05:40Z</time>
      </trkpt>
      <trkpt lat="42.51282" lon="2.46059">
        <ele>2473.2</ele>
        <time>2024-07-13T14:05:50Z</time>
      </trkpt>
      <trkpt lat="42.5128" lon="2.46061">
        <ele>2476</ele>
        <time>2024-07-13T14:05:57Z</time>
      </trkpt>
      <trkpt lat="42.51278" lon="2.46064">
        <ele>2478.8</ele>
        <time>2024-07-13T14:06:05Z</time>
      </trkpt>
      <trkpt lat="42.51277" lon="2.46068">
        <ele>2481.2</ele>
        <time>2024-07-13T14:06:14Z</time>
      </trkpt>
      <trkpt lat="42.51274" lon="2.46071">
        <ele>2483.8</ele>
        <time>2024-07-13T14:06:20Z</time>
      </trkpt>
      <trkpt lat="42.51271" lon="2.46076">
        <ele>2486</ele>
        <time>2024-07-13T14:06:29Z</time>
      </trkpt>
      <trkpt lat="42.51266" lon="2.46083">
        <ele>2486</ele>
        <time>2024-07-13T14:06:38Z</time>
      </trkpt>
      <trkpt lat="42.51262" lon="2.46088">
        <ele>2486.2</ele>
        <time>2024-07-13T14:06:47Z</time>
      </trkpt>
      <trkpt lat="42.51256" lon="2.46094">
        <ele>2486.8</ele>
        <time>2024-07-13T14:06:56Z</time>
      </trkpt>
      <trkpt lat="42.51252" lon="2.461">
        <ele>2488.6</ele>
        <time>2024-07-13T14:07:05Z</time>
      </trkpt>
      <trkpt lat="42.51244" lon="2.46105">
        <ele>2488</ele>
        <time>2024-07-13T14:07:14Z</time>
      </trkpt>
      <trkpt lat="42.51238" lon="2.46111">
        <ele>2487.6</ele>
        <time>2024-07-13T14:07:24Z</time>
      </trkpt>
      <trkpt lat="42.5124" lon="2.46112">
        <ele>2488.8</ele>
        <time>2024-07-13T14:07:32Z</time>
      </trkpt>
      <trkpt lat="42.51245" lon="2.46112">
        <ele>2492.2</ele>
        <time>2024-07-13T14:07:40Z</time>
      </trkpt>
      <trkpt lat="42.51252" lon="2.4611">
        <ele>2495</ele>
        <time>2024-07-13T14:07:51Z</time>
      </trkpt>
      <trkpt lat="42.51258" lon="2.46108">
        <ele>2495</ele>
        <time>2024-07-13T14:08:01Z</time>
      </trkpt>
      <trkpt lat="42.51264" lon="2.46104">
        <ele>2495.4</ele>
        <time>2024-07-13T14:08:10Z</time>
      </trkpt>
      <trkpt lat="42.51265" lon="2.46107">
        <ele>2496</ele>
        <time>2024-07-13T14:08:17Z</time>
      </trkpt>
      <trkpt lat="42.51266" lon="2.46108">
        <ele>2499</ele>
        <time>2024-07-13T14:08:24Z</time>
      </trkpt>
      <trkpt lat="42.5127" lon="2.46107">
        <ele>2501.4</ele>
        <time>2024-07-13T14:08:31Z</time>
      </trkpt>
      <trkpt lat="42.51272" lon="2.46107">
        <ele>2503</ele>
        <time>2024-07-13T14:08:38Z</time>
      </trkpt>
      <trkpt lat="42.51276" lon="2.46107">
        <ele>2506.2</ele>
        <time>2024-07-13T14:08:48Z</time>
      </trkpt>
      <trkpt lat="42.51279" lon="2.46108">
        <ele>2507.2</ele>
        <time>2024-07-13T14:08:55Z</time>
      </trkpt>
      <trkpt lat="42.51282" lon="2.4611">
        <ele>2507.2</ele>
        <time>2024-07-13T14:09:03Z</time>
      </trkpt>
      <trkpt lat="42.51284" lon="2.46113">
        <ele>2508.6</ele>
        <time>2024-07-13T14:09:10Z</time>
      </trkpt>
      <trkpt lat="42.51281" lon="2.46119">
        <ele>2511.2</ele>
        <time>2024-07-13T14:09:20Z</time>
      </trkpt>
      <trkpt lat="42.51279" lon="2.46123">
        <ele>2512</ele>
        <time>2024-07-13T14:09:26Z</time>
      </trkpt>
      <trkpt lat="42.51276" lon="2.46126">
        <ele>2512.2</ele>
        <time>2024-07-13T14:09:33Z</time>
      </trkpt>
      <trkpt lat="42.51274" lon="2.46131">
        <ele>2512.4</ele>
        <time>2024-07-13T14:09:42Z</time>
      </trkpt>
      <trkpt lat="42.51273" lon="2.46133">
        <ele>2512.4</ele>
        <time>2024-07-13T14:09:49Z</time>
      </trkpt>
      <trkpt lat="42.51263" lon="2.46149">
        <ele>2513</ele>
        <time>2024-07-13T14:10:23Z</time>
      </trkpt>
      <trkpt lat="42.51255" lon="2.46155">
        <ele>2513.8</ele>
        <time>2024-07-13T14:10:30Z</time>
      </trkpt>
      <trkpt lat="42.51246" lon="2.46164">
        <ele>2517.2</ele>
        <time>2024-07-13T14:10:40Z</time>
      </trkpt>
      <trkpt lat="42.51241" lon="2.4617">
        <ele>2520</ele>
        <time>2024-07-13T14:10:48Z</time>
      </trkpt>
      <trkpt lat="42.51237" lon="2.4617">
        <ele>2521</ele>
        <time>2024-07-13T14:10:53Z</time>
      </trkpt>
      <trkpt lat="42.51232" lon="2.46171">
        <ele>2521.6</ele>
        <time>2024-07-13T14:10:58Z</time>
      </trkpt>
      <trkpt lat="42.51224" lon="2.46177">
        <ele>2522.6</ele>
        <time>2024-07-13T14:11:08Z</time>
      </trkpt>
      <trkpt lat="42.51217" lon="2.46181">
        <ele>2524.4</ele>
        <time>2024-07-13T14:11:19Z</time>
      </trkpt>
      <trkpt lat="42.51212" lon="2.46184">
        <ele>2525.4</ele>
        <time>2024-07-13T14:11:26Z</time>
      </trkpt>
      <trkpt lat="42.51209" lon="2.46187">
        <ele>2527</ele>
        <time>2024-07-13T14:11:33Z</time>
      </trkpt>
      <trkpt lat="42.51202" lon="2.46192">
        <ele>2528.4</ele>
        <time>2024-07-13T14:11:41Z</time>
      </trkpt>
      <trkpt lat="42.51197" lon="2.46195">
        <ele>2527</ele>
        <time>2024-07-13T14:11:47Z</time>
      </trkpt>
      <trkpt lat="42.512" lon="2.46194">
        <ele>2526.4</ele>
        <time>2024-07-13T14:11:53Z</time>
      </trkpt>
      <trkpt lat="42.51206" lon="2.46193">
        <ele>2527.2</ele>
        <time>2024-07-13T14:12:00Z</time>
      </trkpt>
      <trkpt lat="42.51211" lon="2.46191">
        <ele>2528.4</ele>
        <time>2024-07-13T14:12:07Z</time>
      </trkpt>
      <trkpt lat="42.51218" lon="2.46191">
        <ele>2529.8</ele>
        <time>2024-07-13T14:12:17Z</time>
      </trkpt>
      <trkpt lat="42.51224" lon="2.46192">
        <ele>2530.2</ele>
        <time>2024-07-13T14:12:25Z</time>
      </trkpt>
      <trkpt lat="42.51232" lon="2.46192">
        <ele>2534.6</ele>
        <time>2024-07-13T14:12:37Z</time>
      </trkpt>
      <trkpt lat="42.5124" lon="2.46191">
        <ele>2537.4</ele>
        <time>2024-07-13T14:12:45Z</time>
      </trkpt>
      <trkpt lat="42.51244" lon="2.46191">
        <ele>2539.8</ele>
        <time>2024-07-13T14:12:52Z</time>
      </trkpt>
      <trkpt lat="42.5125" lon="2.46191">
        <ele>2540.2</ele>
        <time>2024-07-13T14:13:00Z</time>
      </trkpt>
      <trkpt lat="42.51256" lon="2.46188">
        <ele>2540.8</ele>
        <time>2024-07-13T14:13:08Z</time>
      </trkpt>
      <trkpt lat="42.51264" lon="2.46187">
        <ele>2543</ele>
        <time>2024-07-13T14:13:17Z</time>
      </trkpt>
      <trkpt lat="42.5127" lon="2.46185">
        <ele>2545.2</ele>
        <time>2024-07-13T14:13:24Z</time>
      </trkpt>
      <trkpt lat="42.51276" lon="2.46183">
        <ele>2547.2</ele>
        <time>2024-07-13T14:13:32Z</time>
      </trkpt>
      <trkpt lat="42.51281" lon="2.46182">
        <ele>2548.6</ele>
        <time>2024-07-13T14:13:41Z</time>
      </trkpt>
      <trkpt lat="42.51288" lon="2.4618">
        <ele>2549.2</ele>
        <time>2024-07-13T14:13:50Z</time>
      </trkpt>
      <trkpt lat="42.51296" lon="2.46179">
        <ele>2548.8</ele>
        <time>2024-07-13T14:13:58Z</time>
      </trkpt>
      <trkpt lat="42.51303" lon="2.46178">
        <ele>2549.2</ele>
        <time>2024-07-13T14:14:07Z</time>
      </trkpt>
      <trkpt lat="42.51309" lon="2.46177">
        <ele>2549.6</ele>
        <time>2024-07-13T14:14:16Z</time>
      </trkpt>
      <trkpt lat="42.51317" lon="2.46176">
        <ele>2551.2</ele>
        <time>2024-07-13T14:14:28Z</time>
      </trkpt>
      <trkpt lat="42.51323" lon="2.46171">
        <ele>2553</ele>
        <time>2024-07-13T14:14:37Z</time>
      </trkpt>
      <trkpt lat="42.5133" lon="2.46171">
        <ele>2553.4</ele>
        <time>2024-07-13T14:14:46Z</time>
      </trkpt>
      <trkpt lat="42.51336" lon="2.46169">
        <ele>2555</ele>
        <time>2024-07-13T14:14:54Z</time>
      </trkpt>
      <trkpt lat="42.51341" lon="2.46163">
        <ele>2556.6</ele>
        <time>2024-07-13T14:15:05Z</time>
      </trkpt>
      <trkpt lat="42.51341" lon="2.46163">
        <ele>2557.4</ele>
        <time>2024-07-13T14:15:11Z</time>
      </trkpt>
      <trkpt lat="42.5134" lon="2.46163">
        <ele>2558.6</ele>
        <time>2024-07-13T14:15:20Z</time>
      </trkpt>
      <trkpt lat="42.51345" lon="2.46161">
        <ele>2556.8</ele>
        <time>2024-07-13T14:15:59Z</time>
      </trkpt>
      <trkpt lat="42.51349" lon="2.46158">
        <ele>2558</ele>
        <time>2024-07-13T14:16:07Z</time>
      </trkpt>
      <trkpt lat="42.5135" lon="2.46156">
        <ele>2558.2</ele>
        <time>2024-07-13T14:16:13Z</time>
      </trkpt>
      <trkpt lat="42.51357" lon="2.46143">
        <ele>2559</ele>
        <time>2024-07-13T14:16:23Z</time>
      </trkpt>
      <trkpt lat="42.5136" lon="2.46136">
        <ele>2560.2</ele>
        <time>2024-07-13T14:16:30Z</time>
      </trkpt>
      <trkpt lat="42.51363" lon="2.46128">
        <ele>2562</ele>
        <time>2024-07-13T14:16:38Z</time>
      </trkpt>
      <trkpt lat="42.51367" lon="2.46125">
        <ele>2563</ele>
        <time>2024-07-13T14:16:43Z</time>
      </trkpt>
      <trkpt lat="42.51367" lon="2.46124">
        <ele>2563.6</ele>
        <time>2024-07-13T14:16:45Z</time>
      </trkpt>
      <trkpt lat="42.51368" lon="2.46122">
        <ele>2565.2</ele>
        <time>2024-07-13T14:16:57Z</time>
      </trkpt>
      <trkpt lat="42.51372" lon="2.46117">
        <ele>2565.2</ele>
        <time>2024-07-13T14:17:03Z</time>
      </trkpt>
      <trkpt lat="42.51376" lon="2.46112">
        <ele>2565.8</ele>
        <time>2024-07-13T14:17:09Z</time>
      </trkpt>
      <trkpt lat="42.51386" lon="2.46106">
        <ele>2568.2</ele>
        <time>2024-07-13T14:17:21Z</time>
      </trkpt>
      <trkpt lat="42.5139" lon="2.46105">
        <ele>2570</ele>
        <time>2024-07-13T14:17:29Z</time>
      </trkpt>
      <trkpt lat="42.51396" lon="2.46108">
        <ele>2571.8</ele>
        <time>2024-07-13T14:17:37Z</time>
      </trkpt>
      <trkpt lat="42.51399" lon="2.4611">
        <ele>2573.2</ele>
        <time>2024-07-13T14:17:43Z</time>
      </trkpt>
      <trkpt lat="42.51405" lon="2.46112">
        <ele>2576</ele>
        <time>2024-07-13T14:17:51Z</time>
      </trkpt>
      <trkpt lat="42.51411" lon="2.46115">
        <ele>2579.2</ele>
        <time>2024-07-13T14:18:02Z</time>
      </trkpt>
      <trkpt lat="42.51415" lon="2.46114">
        <ele>2579.8</ele>
        <time>2024-07-13T14:18:09Z</time>
      </trkpt>
      <trkpt lat="42.5142" lon="2.4611">
        <ele>2580.4</ele>
        <time>2024-07-13T14:18:16Z</time>
      </trkpt>
      <trkpt lat="42.51426" lon="2.46104">
        <ele>2578.8</ele>
        <time>2024-07-13T14:18:25Z</time>
      </trkpt>
      <trkpt lat="42.51434" lon="2.46103">
        <ele>2577</ele>
        <time>2024-07-13T14:18:34Z</time>
      </trkpt>
      <trkpt lat="42.5144" lon="2.46099">
        <ele>2576.2</ele>
        <time>2024-07-13T14:18:43Z</time>
      </trkpt>
      <trkpt lat="42.51441" lon="2.46098">
        <ele>2576.2</ele>
        <time>2024-07-13T14:18:44Z</time>
      </trkpt>
      <trkpt lat="42.51443" lon="2.46093">
        <ele>2576.2</ele>
        <time>2024-07-13T14:18:51Z</time>
      </trkpt>
      <trkpt lat="42.51445" lon="2.46091">
        <ele>2577.4</ele>
        <time>2024-07-13T14:18:57Z</time>
      </trkpt>
      <trkpt lat="42.51446" lon="2.46087">
        <ele>2579.4</ele>
        <time>2024-07-13T14:19:04Z</time>
      </trkpt>
      <trkpt lat="42.51447" lon="2.46079">
        <ele>2580.4</ele>
        <time>2024-07-13T14:19:10Z</time>
      </trkpt>
      <trkpt lat="42.51452" lon="2.46076">
        <ele>2580.8</ele>
        <time>2024-07-13T14:19:18Z</time>
      </trkpt>
      <trkpt lat="42.51455" lon="2.46073">
        <ele>2582.6</ele>
        <time>2024-07-13T14:19:25Z</time>
      </trkpt>
      <trkpt lat="42.51458" lon="2.4607">
        <ele>2583.4</ele>
        <time>2024-07-13T14:19:30Z</time>
      </trkpt>
      <trkpt lat="42.51461" lon="2.4607">
        <ele>2584</ele>
        <time>2024-07-13T14:19:32Z</time>
      </trkpt>
      <trkpt lat="42.51468" lon="2.46066">
        <ele>2586</ele>
        <time>2024-07-13T14:19:43Z</time>
      </trkpt>
      <trkpt lat="42.51472" lon="2.46065">
        <ele>2587.8</ele>
        <time>2024-07-13T14:19:51Z</time>
      </trkpt>
      <trkpt lat="42.51476" lon="2.4606">
        <ele>2589</ele>
        <time>2024-07-13T14:19:57Z</time>
      </trkpt>
      <trkpt lat="42.5148" lon="2.46055">
        <ele>2589.4</ele>
        <time>2024-07-13T14:20:04Z</time>
      </trkpt>
      <trkpt lat="42.51483" lon="2.46052">
        <ele>2590</ele>
        <time>2024-07-13T14:20:11Z</time>
      </trkpt>
      <trkpt lat="42.51489" lon="2.46045">
        <ele>2591.2</ele>
        <time>2024-07-13T14:20:21Z</time>
      </trkpt>
      <trkpt lat="42.51492" lon="2.46037">
        <ele>2592.2</ele>
        <time>2024-07-13T14:20:29Z</time>
      </trkpt>
      <trkpt lat="42.51497" lon="2.46031">
        <ele>2592.6</ele>
        <time>2024-07-13T14:20:36Z</time>
      </trkpt>
      <trkpt lat="42.51502" lon="2.46027">
        <ele>2592.6</ele>
        <time>2024-07-13T14:20:44Z</time>
      </trkpt>
      <trkpt lat="42.51508" lon="2.46024">
        <ele>2593.4</ele>
        <time>2024-07-13T14:20:54Z</time>
      </trkpt>
      <trkpt lat="42.51512" lon="2.46021">
        <ele>2593.6</ele>
        <time>2024-07-13T14:21:02Z</time>
      </trkpt>
      <trkpt lat="42.51516" lon="2.46015">
        <ele>2595.2</ele>
        <time>2024-07-13T14:21:11Z</time>
      </trkpt>
      <trkpt lat="42.51522" lon="2.46006">
        <ele>2597</ele>
        <time>2024-07-13T14:21:21Z</time>
      </trkpt>
      <trkpt lat="42.51523" lon="2.46005">
        <ele>2597</ele>
        <time>2024-07-13T14:21:23Z</time>
      </trkpt>
      <trkpt lat="42.51525" lon="2.46003">
        <ele>2596.6</ele>
        <time>2024-07-13T14:21:27Z</time>
      </trkpt>
      <trkpt lat="42.51528" lon="2.45997">
        <ele>2596.4</ele>
        <time>2024-07-13T14:21:34Z</time>
      </trkpt>
      <trkpt lat="42.51531" lon="2.45993">
        <ele>2597.2</ele>
        <time>2024-07-13T14:21:42Z</time>
      </trkpt>
      <trkpt lat="42.51531" lon="2.45993">
        <ele>2598.2</ele>
        <time>2024-07-13T14:21:49Z</time>
      </trkpt>
      <trkpt lat="42.51534" lon="2.45986">
        <ele>2598.6</ele>
        <time>2024-07-13T14:22:03Z</time>
      </trkpt>
      <trkpt lat="42.51539" lon="2.45979">
        <ele>2598.4</ele>
        <time>2024-07-13T14:22:09Z</time>
      </trkpt>
      <trkpt lat="42.5154" lon="2.45978">
        <ele>2598.4</ele>
        <time>2024-07-13T14:22:10Z</time>
      </trkpt>
      <trkpt lat="42.51542" lon="2.45977">
        <ele>2599</ele>
        <time>2024-07-13T14:22:15Z</time>
      </trkpt>
      <trkpt lat="42.51546" lon="2.45975">
        <ele>2600.6</ele>
        <time>2024-07-13T14:22:23Z</time>
      </trkpt>
      <trkpt lat="42.51548" lon="2.45974">
        <ele>2601.2</ele>
        <time>2024-07-13T14:22:29Z</time>
      </trkpt>
      <trkpt lat="42.5155" lon="2.4597">
        <ele>2602.2</ele>
        <time>2024-07-13T14:22:36Z</time>
      </trkpt>
      <trkpt lat="42.51553" lon="2.45968">
        <ele>2603.8</ele>
        <time>2024-07-13T14:22:44Z</time>
      </trkpt>
      <trkpt lat="42.51554" lon="2.4597">
        <ele>2605.4</ele>
        <time>2024-07-13T14:22:50Z</time>
      </trkpt>
      <trkpt lat="42.51556" lon="2.45966">
        <ele>2606.2</ele>
        <time>2024-07-13T14:22:56Z</time>
      </trkpt>
      <trkpt lat="42.51558" lon="2.4596">
        <ele>2607.8</ele>
        <time>2024-07-13T14:23:07Z</time>
      </trkpt>
      <trkpt lat="42.5156" lon="2.45955">
        <ele>2607.8</ele>
        <time>2024-07-13T14:23:13Z</time>
      </trkpt>
      <trkpt lat="42.51561" lon="2.45955">
        <ele>2608.2</ele>
        <time>2024-07-13T14:23:22Z</time>
      </trkpt>
      <trkpt lat="42.51572" lon="2.45934">
        <ele>2610.4</ele>
        <time>2024-07-13T14:24:21Z</time>
      </trkpt>
      <trkpt lat="42.51581" lon="2.4593">
        <ele>2611.4</ele>
        <time>2024-07-13T14:24:26Z</time>
      </trkpt>
      <trkpt lat="42.51591" lon="2.45924">
        <ele>2612.6</ele>
        <time>2024-07-13T14:24:33Z</time>
      </trkpt>
      <trkpt lat="42.51593" lon="2.45922">
        <ele>2612.8</ele>
        <time>2024-07-13T14:24:36Z</time>
      </trkpt>
      <trkpt lat="42.516" lon="2.45917">
        <ele>2614.6</ele>
        <time>2024-07-13T14:24:47Z</time>
      </trkpt>
      <trkpt lat="42.51604" lon="2.45912">
        <ele>2615.8</ele>
        <time>2024-07-13T14:24:55Z</time>
      </trkpt>
      <trkpt lat="42.51607" lon="2.4591">
        <ele>2617.4</ele>
        <time>2024-07-13T14:25:01Z</time>
      </trkpt>
      <trkpt lat="42.51612" lon="2.45902">
        <ele>2619.6</ele>
        <time>2024-07-13T14:25:13Z</time>
      </trkpt>
      <trkpt lat="42.51616" lon="2.45895">
        <ele>2620</ele>
        <time>2024-07-13T14:25:21Z</time>
      </trkpt>
      <trkpt lat="42.51619" lon="2.45891">
        <ele>2620.6</ele>
        <time>2024-07-13T14:25:29Z</time>
      </trkpt>
      <trkpt lat="42.51623" lon="2.4589">
        <ele>2623.2</ele>
        <time>2024-07-13T14:25:37Z</time>
      </trkpt>
      <trkpt lat="42.51627" lon="2.45886">
        <ele>2625.4</ele>
        <time>2024-07-13T14:25:47Z</time>
      </trkpt>
      <trkpt lat="42.51627" lon="2.45885">
        <ele>2628</ele>
        <time>2024-07-13T14:25:59Z</time>
      </trkpt>
      <trkpt lat="42.5163" lon="2.45883">
        <ele>2628.4</ele>
        <time>2024-07-13T14:26:13Z</time>
      </trkpt>
      <trkpt lat="42.5164" lon="2.45874">
        <ele>2627.6</ele>
        <time>2024-07-13T14:26:21Z</time>
      </trkpt>
      <trkpt lat="42.51643" lon="2.45867">
        <ele>2628.4</ele>
        <time>2024-07-13T14:26:29Z</time>
      </trkpt>
      <trkpt lat="42.51645" lon="2.45863">
        <ele>2629.4</ele>
        <time>2024-07-13T14:26:36Z</time>
      </trkpt>
      <trkpt lat="42.51647" lon="2.4586">
        <ele>2631</ele>
        <time>2024-07-13T14:26:45Z</time>
      </trkpt>
      <trkpt lat="42.51649" lon="2.45852">
        <ele>2632.4</ele>
        <time>2024-07-13T14:26:53Z</time>
      </trkpt>
      <trkpt lat="42.51653" lon="2.45849">
        <ele>2633.4</ele>
        <time>2024-07-13T14:27:01Z</time>
      </trkpt>
      <trkpt lat="42.51654" lon="2.45843">
        <ele>2631.8</ele>
        <time>2024-07-13T14:27:09Z</time>
      </trkpt>
      <trkpt lat="42.51656" lon="2.45835">
        <ele>2631.8</ele>
        <time>2024-07-13T14:27:17Z</time>
      </trkpt>
      <trkpt lat="42.5166" lon="2.45831">
        <ele>2632.2</ele>
        <time>2024-07-13T14:27:26Z</time>
      </trkpt>
      <trkpt lat="42.51664" lon="2.45825">
        <ele>2633.8</ele>
        <time>2024-07-13T14:27:34Z</time>
      </trkpt>
      <trkpt lat="42.5167" lon="2.45817">
        <ele>2637.2</ele>
        <time>2024-07-13T14:27:44Z</time>
      </trkpt>
      <trkpt lat="42.5167" lon="2.45815">
        <ele>2637.6</ele>
        <time>2024-07-13T14:27:45Z</time>
      </trkpt>
      <trkpt lat="42.51676" lon="2.45808">
        <ele>2638.8</ele>
        <time>2024-07-13T14:27:53Z</time>
      </trkpt>
      <trkpt lat="42.51683" lon="2.45803">
        <ele>2639.2</ele>
        <time>2024-07-13T14:28:03Z</time>
      </trkpt>
      <trkpt lat="42.51687" lon="2.458">
        <ele>2640</ele>
        <time>2024-07-13T14:28:09Z</time>
      </trkpt>
      <trkpt lat="42.51689" lon="2.45797">
        <ele>2641.2</ele>
        <time>2024-07-13T14:28:13Z</time>
      </trkpt>
      <trkpt lat="42.51692" lon="2.45794">
        <ele>2642.2</ele>
        <time>2024-07-13T14:28:16Z</time>
      </trkpt>
      <trkpt lat="42.51696" lon="2.45791">
        <ele>2643.6</ele>
        <time>2024-07-13T14:28:23Z</time>
      </trkpt>
      <trkpt lat="42.51698" lon="2.4579">
        <ele>2644.4</ele>
        <time>2024-07-13T14:28:28Z</time>
      </trkpt>
      <trkpt lat="42.51704" lon="2.45781">
        <ele>2644.2</ele>
        <time>2024-07-13T14:28:37Z</time>
      </trkpt>
      <trkpt lat="42.5171" lon="2.45775">
        <ele>2645.2</ele>
        <time>2024-07-13T14:28:46Z</time>
      </trkpt>
      <trkpt lat="42.51715" lon="2.45775">
        <ele>2645.8</ele>
        <time>2024-07-13T14:28:54Z</time>
      </trkpt>
      <trkpt lat="42.51715" lon="2.45776">
        <ele>2647.4</ele>
        <time>2024-07-13T14:29:02Z</time>
      </trkpt>
      <trkpt lat="42.51718" lon="2.45771">
        <ele>2647.8</ele>
        <time>2024-07-13T14:29:28Z</time>
      </trkpt>
      <trkpt lat="42.51722" lon="2.45762">
        <ele>2649.6</ele>
        <time>2024-07-13T14:29:36Z</time>
      </trkpt>
      <trkpt lat="42.51725" lon="2.45755">
        <ele>2650.6</ele>
        <time>2024-07-13T14:29:43Z</time>
      </trkpt>
      <trkpt lat="42.5173" lon="2.45751">
        <ele>2651.4</ele>
        <time>2024-07-13T14:29:50Z</time>
      </trkpt>
      <trkpt lat="42.51735" lon="2.45746">
        <ele>2652.2</ele>
        <time>2024-07-13T14:29:59Z</time>
      </trkpt>
      <trkpt lat="42.51739" lon="2.45741">
        <ele>2654.4</ele>
        <time>2024-07-13T14:30:11Z</time>
      </trkpt>
      <trkpt lat="42.51743" lon="2.45736">
        <ele>2656.4</ele>
        <time>2024-07-13T14:30:18Z</time>
      </trkpt>
      <trkpt lat="42.51747" lon="2.45728">
        <ele>2657.6</ele>
        <time>2024-07-13T14:30:26Z</time>
      </trkpt>
      <trkpt lat="42.51753" lon="2.45724">
        <ele>2658.6</ele>
        <time>2024-07-13T14:30:36Z</time>
      </trkpt>
      <trkpt lat="42.51757" lon="2.45724">
        <ele>2660.2</ele>
        <time>2024-07-13T14:30:44Z</time>
      </trkpt>
      <trkpt lat="42.5176" lon="2.45723">
        <ele>2661.6</ele>
        <time>2024-07-13T14:30:50Z</time>
      </trkpt>
      <trkpt lat="42.51762" lon="2.45723">
        <ele>2663.4</ele>
        <time>2024-07-13T14:30:58Z</time>
      </trkpt>
      <trkpt lat="42.51766" lon="2.45722">
        <ele>2664.6</ele>
        <time>2024-07-13T14:31:05Z</time>
      </trkpt>
      <trkpt lat="42.51767" lon="2.45714">
        <ele>2665.4</ele>
        <time>2024-07-13T14:31:13Z</time>
      </trkpt>
      <trkpt lat="42.51771" lon="2.45709">
        <ele>2664.8</ele>
        <time>2024-07-13T14:31:21Z</time>
      </trkpt>
      <trkpt lat="42.51773" lon="2.45709">
        <ele>2665.4</ele>
        <time>2024-07-13T14:31:29Z</time>
      </trkpt>
      <trkpt lat="42.51774" lon="2.45709">
        <ele>2666</ele>
        <time>2024-07-13T14:31:43Z</time>
      </trkpt>
      <trkpt lat="42.5179" lon="2.45701">
        <ele>2675.6</ele>
        <time>2024-07-13T14:33:08Z</time>
      </trkpt>
      <trkpt lat="42.51796" lon="2.45693">
        <ele>2677.2</ele>
        <time>2024-07-13T14:33:17Z</time>
      </trkpt>
      <trkpt lat="42.518" lon="2.4569">
        <ele>2679</ele>
        <time>2024-07-13T14:33:25Z</time>
      </trkpt>
      <trkpt lat="42.51801" lon="2.45687">
        <ele>2680.4</ele>
        <time>2024-07-13T14:33:33Z</time>
      </trkpt>
      <trkpt lat="42.51804" lon="2.45684">
        <ele>2681.6</ele>
        <time>2024-07-13T14:33:42Z</time>
      </trkpt>
      <trkpt lat="42.51807" lon="2.45683">
        <ele>2683.6</ele>
        <time>2024-07-13T14:33:49Z</time>
      </trkpt>
      <trkpt lat="42.51808" lon="2.45683">
        <ele>2684.6</ele>
        <time>2024-07-13T14:33:56Z</time>
      </trkpt>
      <trkpt lat="42.5181" lon="2.45683">
        <ele>2685</ele>
        <time>2024-07-13T14:34:03Z</time>
      </trkpt>
      <trkpt lat="42.51812" lon="2.45682">
        <ele>2686.8</ele>
        <time>2024-07-13T14:34:13Z</time>
      </trkpt>
      <trkpt lat="42.51819" lon="2.45684">
        <ele>2693.2</ele>
        <time>2024-07-13T14:35:00Z</time>
      </trkpt>
      <trkpt lat="42.51821" lon="2.45688">
        <ele>2695.2</ele>
        <time>2024-07-13T14:35:05Z</time>
      </trkpt>
      <trkpt lat="42.51822" lon="2.45689">
        <ele>2698.4</ele>
        <time>2024-07-13T14:35:13Z</time>
      </trkpt>
      <trkpt lat="42.51824" lon="2.45687">
        <ele>2700.4</ele>
        <time>2024-07-13T14:35:22Z</time>
      </trkpt>
      <trkpt lat="42.51828" lon="2.45689">
        <ele>2704.6</ele>
        <time>2024-07-13T14:35:59Z</time>
      </trkpt>
      <trkpt lat="42.51828" lon="2.45687">
        <ele>2710</ele>
        <time>2024-07-13T14:36:18Z</time>
      </trkpt>
      <trkpt lat="42.5183" lon="2.45689">
        <ele>2710.8</ele>
        <time>2024-07-13T14:46:13Z</time>
      </trkpt>
      <trkpt lat="42.51837" lon="2.45691">
        <ele>2719</ele>
        <time>2024-07-13T14:47:16Z</time>
      </trkpt>
      <trkpt lat="42.51841" lon="2.45694">
        <ele>2716</ele>
        <time>2024-07-13T14:47:23Z</time>
      </trkpt>
      <trkpt lat="42.51842" lon="2.45695">
        <ele>2714.8</ele>
        <time>2024-07-13T14:47:29Z</time>
      </trkpt>
      <trkpt lat="42.51847" lon="2.45699">
        <ele>2717.4</ele>
        <time>2024-07-13T14:48:31Z</time>
      </trkpt>
      <trkpt lat="42.51851" lon="2.45701">
        <ele>2720.2</ele>
        <time>2024-07-13T14:48:38Z</time>
      </trkpt>
      <trkpt lat="42.51853" lon="2.45701">
        <ele>2722.4</ele>
        <time>2024-07-13T14:48:45Z</time>
      </trkpt>
      <trkpt lat="42.51855" lon="2.457">
        <ele>2723.8</ele>
        <time>2024-07-13T14:48:52Z</time>
      </trkpt>
      <trkpt lat="42.51855" lon="2.457">
        <ele>2725</ele>
        <time>2024-07-13T14:49:04Z</time>
      </trkpt>
      <trkpt lat="42.51871" lon="2.45694">
        <ele>2735.6</ele>
        <time>2024-07-13T14:51:01Z</time>
      </trkpt>
      <trkpt lat="42.51872" lon="2.45694">
        <ele>2736.8</ele>
        <time>2024-07-13T14:51:06Z</time>
      </trkpt>
      <trkpt lat="42.51872" lon="2.45697">
        <ele>2739</ele>
        <time>2024-07-13T14:51:11Z</time>
      </trkpt>
      <trkpt lat="42.51874" lon="2.45697">
        <ele>2741.8</ele>
        <time>2024-07-13T14:51:17Z</time>
      </trkpt>
      <trkpt lat="42.51877" lon="2.45697">
        <ele>2744.8</ele>
        <time>2024-07-13T14:51:26Z</time>
      </trkpt>
      <trkpt lat="42.51877" lon="2.45697">
        <ele>2746.4</ele>
        <time>2024-07-13T14:51:44Z</time>
      </trkpt>
      <trkpt lat="42.51882" lon="2.4569">
        <ele>2760.4</ele>
        <time>2024-07-13T14:52:41Z</time>
      </trkpt>
      <trkpt lat="42.51886" lon="2.45684">
        <ele>2764.2</ele>
        <time>2024-07-13T14:53:12Z</time>
      </trkpt>
      <trkpt lat="42.51889" lon="2.4568">
        <ele>2763.4</ele>
        <time>2024-07-13T14:53:18Z</time>
      </trkpt>
      <trkpt lat="42.51889" lon="2.45679">
        <ele>2761.6</ele>
        <time>2024-07-13T14:53:24Z</time>
      </trkpt>
      <trkpt lat="42.51888" lon="2.45678">
        <ele>2764</ele>
        <time>2024-07-13T14:53:55Z</time>
      </trkpt>
      <trkpt lat="42.51888" lon="2.45679">
        <ele>2769.8</ele>
        <time>2024-07-13T14:54:17Z</time>
      </trkpt>
      <trkpt lat="42.51888" lon="2.45681">
        <ele>2771.4</ele>
        <time>2024-07-13T14:54:23Z</time>
      </trkpt>
      <trkpt lat="42.51892" lon="2.45674">
        <ele>2774.2</ele>
        <time>2024-07-13T14:55:19Z</time>
      </trkpt>
      <trkpt lat="42.51894" lon="2.45672">
        <ele>2771.6</ele>
        <time>2024-07-13T14:55:27Z</time>
      </trkpt>
      <trkpt lat="42.51893" lon="2.45672">
        <ele>2769.8</ele>
        <time>2024-07-13T14:55:36Z</time>
      </trkpt>
      <trkpt lat="42.5189" lon="2.45679">
        <ele>2776.6</ele>
        <time>2024-07-13T14:56:41Z</time>
      </trkpt>
      <trkpt lat="42.5189" lon="2.45678">
        <ele>2780.4</ele>
        <time>2024-07-13T14:56:47Z</time>
      </trkpt>
      <trkpt lat="42.51891" lon="2.45677">
        <ele>2784.4</ele>
        <time>2024-07-13T14:56:54Z</time>
      </trkpt>
      <trkpt lat="42.5189" lon="2.45679">
        <ele>2785.6</ele>
        <time>2024-07-13T14:56:59Z</time>
      </trkpt>
      <trkpt lat="42.51889" lon="2.4568">
        <ele>2788.6</ele>
        <time>2024-07-13T14:57:06Z</time>
      </trkpt>
      <trkpt lat="42.51889" lon="2.45682">
        <ele>2791</ele>
        <time>2024-07-13T14:57:14Z</time>
      </trkpt>
      <trkpt lat="42.51888" lon="2.45681">
        <ele>2792.4</ele>
        <time>2024-07-13T14:57:21Z</time>
      </trkpt>
      <trkpt lat="42.51889" lon="2.45679">
        <ele>2793</ele>
        <time>2024-07-13T14:57:27Z</time>
      </trkpt>
      <trkpt lat="42.51889" lon="2.45678">
        <ele>2794.2</ele>
        <time>2024-07-13T14:57:40Z</time>
      </trkpt>
      <trkpt lat="42.5189" lon="2.45668">
        <ele>2793.4</ele>
        <time>2024-07-13T14:58:05Z</time>
      </trkpt>
      <trkpt lat="42.51891" lon="2.4566">
        <ele>2790.4</ele>
        <time>2024-07-13T14:58:12Z</time>
      </trkpt>
      <trkpt lat="42.51891" lon="2.4566">
        <ele>2788.4</ele>
        <time>2024-07-13T14:58:20Z</time>
      </trkpt>
      <trkpt lat="42.51897" lon="2.45658">
        <ele>2789</ele>
        <time>2024-07-13T14:59:22Z</time>
      </trkpt>
      <trkpt lat="42.51893" lon="2.45657">
        <ele>2788</ele>
        <time>2024-07-13T14:59:28Z</time>
      </trkpt>
      <trkpt lat="42.51893" lon="2.45657">
        <ele>2787</ele>
        <time>2024-07-13T14:59:34Z</time>
      </trkpt>
      <trkpt lat="42.51894" lon="2.4566">
        <ele>2787.6</ele>
        <time>2024-07-13T14:59:44Z</time>
      </trkpt>
      <trkpt lat="42.51893" lon="2.45661">
        <ele>2787</ele>
        <time>2024-07-13T14:59:52Z</time>
      </trkpt>
      <trkpt lat="42.51895" lon="2.45659">
        <ele>2790</ele>
        <time>2024-07-13T15:01:05Z</time>
      </trkpt>
      <trkpt lat="42.51893" lon="2.4566">
        <ele>2793.8</ele>
        <time>2024-07-13T15:03:02Z</time>
      </trkpt>
      <trkpt lat="42.51897" lon="2.45658">
        <ele>2793.8</ele>
        <time>2024-07-13T15:03:13Z</time>
      </trkpt>
      <trkpt lat="42.51905" lon="2.4566">
        <ele>2796.4</ele>
        <time>2024-07-13T15:05:54Z</time>
      </trkpt>
      <trkpt lat="42.51908" lon="2.4566">
        <ele>2792.6</ele>
        <time>2024-07-13T15:06:05Z</time>
      </trkpt>
      <trkpt lat="42.51907" lon="2.45659">
        <ele>2788.4</ele>
        <time>2024-07-13T15:24:56Z</time>
      </trkpt>
      <trkpt lat="42.51914" lon="2.45658">
        <ele>2788.8</ele>
        <time>2024-07-13T15:25:04Z</time>
      </trkpt>
      <trkpt lat="42.51921" lon="2.45656">
        <ele>2786.6</ele>
        <time>2024-07-13T15:25:11Z</time>
      </trkpt>
      <trkpt lat="42.5193" lon="2.45657">
        <ele>2782</ele>
        <time>2024-07-13T15:25:19Z</time>
      </trkpt>
      <trkpt lat="42.51934" lon="2.4566">
        <ele>2779.6</ele>
        <time>2024-07-13T15:25:26Z</time>
      </trkpt>
      <trkpt lat="42.51934" lon="2.45657">
        <ele>2778.2</ele>
        <time>2024-07-13T15:25:34Z</time>
      </trkpt>
      <trkpt lat="42.51929" lon="2.45651">
        <ele>2777.6</ele>
        <time>2024-07-13T15:25:41Z</time>
      </trkpt>
      <trkpt lat="42.51925" lon="2.45648">
        <ele>2777</ele>
        <time>2024-07-13T15:25:49Z</time>
      </trkpt>
      <trkpt lat="42.51927" lon="2.45647">
        <ele>2776.6</ele>
        <time>2024-07-13T15:25:54Z</time>
      </trkpt>
      <trkpt lat="42.51937" lon="2.45647">
        <ele>2773.2</ele>
        <time>2024-07-13T15:26:02Z</time>
      </trkpt>
      <trkpt lat="42.51941" lon="2.45647">
        <ele>2771.8</ele>
        <time>2024-07-13T15:26:05Z</time>
      </trkpt>
      <trkpt lat="42.51945" lon="2.45647">
        <ele>2770</ele>
        <time>2024-07-13T15:26:09Z</time>
      </trkpt>
      <trkpt lat="42.51957" lon="2.45648">
        <ele>2765.4</ele>
        <time>2024-07-13T15:26:21Z</time>
      </trkpt>
      <trkpt lat="42.51958" lon="2.45646">
        <ele>2763.6</ele>
        <time>2024-07-13T15:26:27Z</time>
      </trkpt>
      <trkpt lat="42.51952" lon="2.4564">
        <ele>2762.4</ele>
        <time>2024-07-13T15:26:33Z</time>
      </trkpt>
      <trkpt lat="42.51942" lon="2.45629">
        <ele>2761</ele>
        <time>2024-07-13T15:26:42Z</time>
      </trkpt>
      <trkpt lat="42.51936" lon="2.45625">
        <ele>2759.8</ele>
        <time>2024-07-13T15:26:49Z</time>
      </trkpt>
      <trkpt lat="42.51929" lon="2.4562">
        <ele>2757</ele>
        <time>2024-07-13T15:26:58Z</time>
      </trkpt>
      <trkpt lat="42.51925" lon="2.45615">
        <ele>2756.8</ele>
        <time>2024-07-13T15:27:06Z</time>
      </trkpt>
      <trkpt lat="42.51929" lon="2.45614">
        <ele>2756.6</ele>
        <time>2024-07-13T15:27:10Z</time>
      </trkpt>
      <trkpt lat="42.51932" lon="2.45615">
        <ele>2756.2</ele>
        <time>2024-07-13T15:27:12Z</time>
      </trkpt>
      <trkpt lat="42.5194" lon="2.45615">
        <ele>2753.4</ele>
        <time>2024-07-13T15:27:18Z</time>
      </trkpt>
      <trkpt lat="42.5195" lon="2.45615">
        <ele>2750.6</ele>
        <time>2024-07-13T15:27:26Z</time>
      </trkpt>
      <trkpt lat="42.51959" lon="2.45619">
        <ele>2747</ele>
        <time>2024-07-13T15:27:34Z</time>
      </trkpt>
      <trkpt lat="42.5196" lon="2.45619">
        <ele>2746.8</ele>
        <time>2024-07-13T15:27:35Z</time>
      </trkpt>
      <trkpt lat="42.51967" lon="2.4562">
        <ele>2745.6</ele>
        <time>2024-07-13T15:27:41Z</time>
      </trkpt>
      <trkpt lat="42.51978" lon="2.45623">
        <ele>2742.4</ele>
        <time>2024-07-13T15:27:51Z</time>
      </trkpt>
      <trkpt lat="42.5198" lon="2.45624">
        <ele>2741.8</ele>
        <time>2024-07-13T15:27:56Z</time>
      </trkpt>
      <trkpt lat="42.51982" lon="2.45622">
        <ele>2741</ele>
        <time>2024-07-13T15:28:02Z</time>
      </trkpt>
      <trkpt lat="42.5198" lon="2.45619">
        <ele>2740.2</ele>
        <time>2024-07-13T15:28:07Z</time>
      </trkpt>
      <trkpt lat="42.51978" lon="2.45614">
        <ele>2739.4</ele>
        <time>2024-07-13T15:28:15Z</time>
      </trkpt>
      <trkpt lat="42.51978" lon="2.4561">
        <ele>2738.4</ele>
        <time>2024-07-13T15:28:21Z</time>
      </trkpt>
      <trkpt lat="42.51976" lon="2.45606">
        <ele>2736.4</ele>
        <time>2024-07-13T15:28:29Z</time>
      </trkpt>
      <trkpt lat="42.51979" lon="2.45604">
        <ele>2733.2</ele>
        <time>2024-07-13T15:28:38Z</time>
      </trkpt>
      <trkpt lat="42.51977" lon="2.45601">
        <ele>2731</ele>
        <time>2024-07-13T15:28:46Z</time>
      </trkpt>
      <trkpt lat="42.5198" lon="2.45597">
        <ele>2730.2</ele>
        <time>2024-07-13T15:28:54Z</time>
      </trkpt>
      <trkpt lat="42.51986" lon="2.45599">
        <ele>2728.6</ele>
        <time>2024-07-13T15:29:01Z</time>
      </trkpt>
      <trkpt lat="42.51993" lon="2.45602">
        <ele>2727</ele>
        <time>2024-07-13T15:29:09Z</time>
      </trkpt>
      <trkpt lat="42.51997" lon="2.45603">
        <ele>2725.6</ele>
        <time>2024-07-13T15:29:16Z</time>
      </trkpt>
      <trkpt lat="42.52004" lon="2.45605">
        <ele>2724</ele>
        <time>2024-07-13T15:29:25Z</time>
      </trkpt>
      <trkpt lat="42.52004" lon="2.45604">
        <ele>2723.4</ele>
        <time>2024-07-13T15:29:29Z</time>
      </trkpt>
      <trkpt lat="42.52006" lon="2.45602">
        <ele>2722.8</ele>
        <time>2024-07-13T15:29:37Z</time>
      </trkpt>
      <trkpt lat="42.52011" lon="2.45602">
        <ele>2720.4</ele>
        <time>2024-07-13T15:29:44Z</time>
      </trkpt>
      <trkpt lat="42.52013" lon="2.45602">
        <ele>2719</ele>
        <time>2024-07-13T15:29:50Z</time>
      </trkpt>
      <trkpt lat="42.52016" lon="2.45602">
        <ele>2716.4</ele>
        <time>2024-07-13T15:29:58Z</time>
      </trkpt>
      <trkpt lat="42.52016" lon="2.45598">
        <ele>2714.8</ele>
        <time>2024-07-13T15:30:05Z</time>
      </trkpt>
      <trkpt lat="42.52014" lon="2.45596">
        <ele>2714</ele>
        <time>2024-07-13T15:30:10Z</time>
      </trkpt>
      <trkpt lat="42.5201" lon="2.4559">
        <ele>2713</ele>
        <time>2024-07-13T15:30:17Z</time>
      </trkpt>
      <trkpt lat="42.52003" lon="2.45581">
        <ele>2711.8</ele>
        <time>2024-07-13T15:30:26Z</time>
      </trkpt>
      <trkpt lat="42.51996" lon="2.45569">
        <ele>2708.8</ele>
        <time>2024-07-13T15:30:38Z</time>
      </trkpt>
      <trkpt lat="42.51992" lon="2.45564">
        <ele>2706.4</ele>
        <time>2024-07-13T15:30:44Z</time>
      </trkpt>
      <trkpt lat="42.51987" lon="2.45559">
        <ele>2705.2</ele>
        <time>2024-07-13T15:30:52Z</time>
      </trkpt>
      <trkpt lat="42.51981" lon="2.45551">
        <ele>2704.2</ele>
        <time>2024-07-13T15:30:59Z</time>
      </trkpt>
      <trkpt lat="42.51975" lon="2.45547">
        <ele>2703.4</ele>
        <time>2024-07-13T15:31:06Z</time>
      </trkpt>
      <trkpt lat="42.51974" lon="2.45544">
        <ele>2702.2</ele>
        <time>2024-07-13T15:31:11Z</time>
      </trkpt>
      <trkpt lat="42.51973" lon="2.45542">
        <ele>2701.8</ele>
        <time>2024-07-13T15:31:13Z</time>
      </trkpt>
      <trkpt lat="42.51969" lon="2.45538">
        <ele>2700.4</ele>
        <time>2024-07-13T15:31:17Z</time>
      </trkpt>
      <trkpt lat="42.51965" lon="2.45534">
        <ele>2698.6</ele>
        <time>2024-07-13T15:31:25Z</time>
      </trkpt>
      <trkpt lat="42.51966" lon="2.4553">
        <ele>2697.6</ele>
        <time>2024-07-13T15:31:29Z</time>
      </trkpt>
      <trkpt lat="42.51968" lon="2.45531">
        <ele>2697</ele>
        <time>2024-07-13T15:31:31Z</time>
      </trkpt>
      <trkpt lat="42.51973" lon="2.45532">
        <ele>2695.8</ele>
        <time>2024-07-13T15:31:37Z</time>
      </trkpt>
      <trkpt lat="42.51983" lon="2.45533">
        <ele>2694.8</ele>
        <time>2024-07-13T15:31:45Z</time>
      </trkpt>
      <trkpt lat="42.5199" lon="2.45534">
        <ele>2693</ele>
        <time>2024-07-13T15:31:51Z</time>
      </trkpt>
      <trkpt lat="42.52" lon="2.45536">
        <ele>2691.2</ele>
        <time>2024-07-13T15:32:01Z</time>
      </trkpt>
      <trkpt lat="42.52005" lon="2.45537">
        <ele>2690.2</ele>
        <time>2024-07-13T15:32:06Z</time>
      </trkpt>
      <trkpt lat="42.52008" lon="2.45538">
        <ele>2689.4</ele>
        <time>2024-07-13T15:32:09Z</time>
      </trkpt>
      <trkpt lat="42.52014" lon="2.4554">
        <ele>2688.2</ele>
        <time>2024-07-13T15:32:15Z</time>
      </trkpt>
      <trkpt lat="42.52016" lon="2.4554">
        <ele>2688</ele>
        <time>2024-07-13T15:32:17Z</time>
      </trkpt>
      <trkpt lat="42.52022" lon="2.45543">
        <ele>2687</ele>
        <time>2024-07-13T15:32:23Z</time>
      </trkpt>
      <trkpt lat="42.52024" lon="2.45545">
        <ele>2686.6</ele>
        <time>2024-07-13T15:32:26Z</time>
      </trkpt>
      <trkpt lat="42.52029" lon="2.45546">
        <ele>2686</ele>
        <time>2024-07-13T15:32:31Z</time>
      </trkpt>
      <trkpt lat="42.52031" lon="2.45547">
        <ele>2685.4</ele>
        <time>2024-07-13T15:32:33Z</time>
      </trkpt>
      <trkpt lat="42.52033" lon="2.4555">
        <ele>2685</ele>
        <time>2024-07-13T15:32:36Z</time>
      </trkpt>
      <trkpt lat="42.52034" lon="2.4555">
        <ele>2684.8</ele>
        <time>2024-07-13T15:32:37Z</time>
      </trkpt>
      <trkpt lat="42.52037" lon="2.45551">
        <ele>2684.6</ele>
        <time>2024-07-13T15:32:39Z</time>
      </trkpt>
      <trkpt lat="42.52037" lon="2.45552">
        <ele>2684</ele>
        <time>2024-07-13T15:32:42Z</time>
      </trkpt>
      <trkpt lat="42.52037" lon="2.45552">
        <ele>2682.6</ele>
        <time>2024-07-13T15:32:49Z</time>
      </trkpt>
      <trkpt lat="42.52037" lon="2.45551">
        <ele>2682.6</ele>
        <time>2024-07-13T15:32:56Z</time>
      </trkpt>
      <trkpt lat="42.52043" lon="2.45554">
        <ele>2686.6</ele>
        <time>2024-07-13T15:33:46Z</time>
      </trkpt>
      <trkpt lat="42.52055" lon="2.45562">
        <ele>2683.2</ele>
        <time>2024-07-13T15:33:56Z</time>
      </trkpt>
      <trkpt lat="42.52064" lon="2.45568">
        <ele>2678.4</ele>
        <time>2024-07-13T15:34:06Z</time>
      </trkpt>
      <trkpt lat="42.52066" lon="2.45568">
        <ele>2677.4</ele>
        <time>2024-07-13T15:34:13Z</time>
      </trkpt>
      <trkpt lat="42.52069" lon="2.45569">
        <ele>2676.2</ele>
        <time>2024-07-13T15:34:19Z</time>
      </trkpt>
      <trkpt lat="42.52072" lon="2.4557">
        <ele>2675.4</ele>
        <time>2024-07-13T15:34:36Z</time>
      </trkpt>
      <trkpt lat="42.52086" lon="2.4557">
        <ele>2673.4</ele>
        <time>2024-07-13T15:34:44Z</time>
      </trkpt>
      <trkpt lat="42.52095" lon="2.45575">
        <ele>2670.8</ele>
        <time>2024-07-13T15:34:54Z</time>
      </trkpt>
      <trkpt lat="42.52096" lon="2.45574">
        <ele>2670.4</ele>
        <time>2024-07-13T15:34:56Z</time>
      </trkpt>
      <trkpt lat="42.52097" lon="2.45573">
        <ele>2670</ele>
        <time>2024-07-13T15:34:58Z</time>
      </trkpt>
      <trkpt lat="42.52098" lon="2.45572">
        <ele>2669.8</ele>
        <time>2024-07-13T15:34:59Z</time>
      </trkpt>
      <trkpt lat="42.52101" lon="2.45571">
        <ele>2669.2</ele>
        <time>2024-07-13T15:35:03Z</time>
      </trkpt>
      <trkpt lat="42.52104" lon="2.45574">
        <ele>2668.8</ele>
        <time>2024-07-13T15:35:06Z</time>
      </trkpt>
      <trkpt lat="42.52111" lon="2.45574">
        <ele>2668.2</ele>
        <time>2024-07-13T15:35:14Z</time>
      </trkpt>
      <trkpt lat="42.52116" lon="2.45572">
        <ele>2667</ele>
        <time>2024-07-13T15:35:20Z</time>
      </trkpt>
      <trkpt lat="42.52118" lon="2.45571">
        <ele>2666.2</ele>
        <time>2024-07-13T15:35:23Z</time>
      </trkpt>
      <trkpt lat="42.5212" lon="2.45569">
        <ele>2664.8</ele>
        <time>2024-07-13T15:35:29Z</time>
      </trkpt>
      <trkpt lat="42.52126" lon="2.45567">
        <ele>2662.2</ele>
        <time>2024-07-13T15:35:37Z</time>
      </trkpt>
      <trkpt lat="42.52136" lon="2.45572">
        <ele>2659.6</ele>
        <time>2024-07-13T15:35:48Z</time>
      </trkpt>
      <trkpt lat="42.52136" lon="2.45571">
        <ele>2658.2</ele>
        <time>2024-07-13T15:35:53Z</time>
      </trkpt>
      <trkpt lat="42.52131" lon="2.45561">
        <ele>2656.4</ele>
        <time>2024-07-13T15:36:02Z</time>
      </trkpt>
      <trkpt lat="42.52127" lon="2.45553">
        <ele>2655.2</ele>
        <time>2024-07-13T15:36:08Z</time>
      </trkpt>
      <trkpt lat="42.52125" lon="2.4555">
        <ele>2654.4</ele>
        <time>2024-07-13T15:36:11Z</time>
      </trkpt>
      <trkpt lat="42.52124" lon="2.45547">
        <ele>2653.6</ele>
        <time>2024-07-13T15:36:15Z</time>
      </trkpt>
      <trkpt lat="42.52124" lon="2.45544">
        <ele>2652</ele>
        <time>2024-07-13T15:36:24Z</time>
      </trkpt>
      <trkpt lat="42.5213" lon="2.45547">
        <ele>2651.6</ele>
        <time>2024-07-13T15:36:30Z</time>
      </trkpt>
      <trkpt lat="42.52139" lon="2.45555">
        <ele>2648.6</ele>
        <time>2024-07-13T15:36:39Z</time>
      </trkpt>
      <trkpt lat="42.52147" lon="2.45561">
        <ele>2645.8</ele>
        <time>2024-07-13T15:36:46Z</time>
      </trkpt>
      <trkpt lat="42.52154" lon="2.45565">
        <ele>2644.2</ele>
        <time>2024-07-13T15:36:54Z</time>
      </trkpt>
      <trkpt lat="42.52159" lon="2.45567">
        <ele>2643.8</ele>
        <time>2024-07-13T15:37:01Z</time>
      </trkpt>
      <trkpt lat="42.52163" lon="2.45567">
        <ele>2643.2</ele>
        <time>2024-07-13T15:37:07Z</time>
      </trkpt>
      <trkpt lat="42.52162" lon="2.45566">
        <ele>2643</ele>
        <time>2024-07-13T15:37:08Z</time>
      </trkpt>
      <trkpt lat="42.52159" lon="2.4556">
        <ele>2641.8</ele>
        <time>2024-07-13T15:37:13Z</time>
      </trkpt>
      <trkpt lat="42.52153" lon="2.45546">
        <ele>2638.4</ele>
        <time>2024-07-13T15:37:25Z</time>
      </trkpt>
      <trkpt lat="42.52145" lon="2.45532">
        <ele>2635.4</ele>
        <time>2024-07-13T15:37:36Z</time>
      </trkpt>
      <trkpt lat="42.52139" lon="2.45521">
        <ele>2633</ele>
        <time>2024-07-13T15:37:46Z</time>
      </trkpt>
      <trkpt lat="42.52143" lon="2.45521">
        <ele>2631.4</ele>
        <time>2024-07-13T15:37:50Z</time>
      </trkpt>
      <trkpt lat="42.52151" lon="2.45527">
        <ele>2629.4</ele>
        <time>2024-07-13T15:37:58Z</time>
      </trkpt>
      <trkpt lat="42.52157" lon="2.45531">
        <ele>2627.2</ele>
        <time>2024-07-13T15:38:05Z</time>
      </trkpt>
      <trkpt lat="42.52159" lon="2.45532">
        <ele>2626.8</ele>
        <time>2024-07-13T15:38:07Z</time>
      </trkpt>
      <trkpt lat="42.52166" lon="2.45538">
        <ele>2625</ele>
        <time>2024-07-13T15:38:14Z</time>
      </trkpt>
      <trkpt lat="42.52173" lon="2.45542">
        <ele>2622.8</ele>
        <time>2024-07-13T15:38:22Z</time>
      </trkpt>
      <trkpt lat="42.52183" lon="2.45547">
        <ele>2621.2</ele>
        <time>2024-07-13T15:38:31Z</time>
      </trkpt>
      <trkpt lat="42.52187" lon="2.45548">
        <ele>2621</ele>
        <time>2024-07-13T15:38:35Z</time>
      </trkpt>
      <trkpt lat="42.52192" lon="2.45551">
        <ele>2620.8</ele>
        <time>2024-07-13T15:38:39Z</time>
      </trkpt>
      <trkpt lat="42.52199" lon="2.45555">
        <ele>2620.6</ele>
        <time>2024-07-13T15:38:45Z</time>
      </trkpt>
      <trkpt lat="42.52199" lon="2.45555">
        <ele>2620.4</ele>
        <time>2024-07-13T15:38:46Z</time>
      </trkpt>
      <trkpt lat="42.52203" lon="2.45555">
        <ele>2619.6</ele>
        <time>2024-07-13T15:38:50Z</time>
      </trkpt>
      <trkpt lat="42.52206" lon="2.45558">
        <ele>2619</ele>
        <time>2024-07-13T15:38:53Z</time>
      </trkpt>
      <trkpt lat="42.52219" lon="2.45564">
        <ele>2616</ele>
        <time>2024-07-13T15:39:05Z</time>
      </trkpt>
      <trkpt lat="42.52228" lon="2.45569">
        <ele>2613.6</ele>
        <time>2024-07-13T15:39:14Z</time>
      </trkpt>
      <trkpt lat="42.52229" lon="2.45569">
        <ele>2613.4</ele>
        <time>2024-07-13T15:39:15Z</time>
      </trkpt>
      <trkpt lat="42.52229" lon="2.45569">
        <ele>2612.6</ele>
        <time>2024-07-13T15:39:18Z</time>
      </trkpt>
      <trkpt lat="42.52229" lon="2.45566">
        <ele>2611.4</ele>
        <time>2024-07-13T15:39:24Z</time>
      </trkpt>
      <trkpt lat="42.52228" lon="2.45558">
        <ele>2609.8</ele>
        <time>2024-07-13T15:39:33Z</time>
      </trkpt>
      <trkpt lat="42.52236" lon="2.45561">
        <ele>2608.6</ele>
        <time>2024-07-13T15:39:39Z</time>
      </trkpt>
      <trkpt lat="42.52244" lon="2.45565">
        <ele>2607.4</ele>
        <time>2024-07-13T15:39:48Z</time>
      </trkpt>
      <trkpt lat="42.52253" lon="2.45566">
        <ele>2605.2</ele>
        <time>2024-07-13T15:39:56Z</time>
      </trkpt>
      <trkpt lat="42.52264" lon="2.45567">
        <ele>2602.2</ele>
        <time>2024-07-13T15:40:05Z</time>
      </trkpt>
      <trkpt lat="42.52269" lon="2.45568">
        <ele>2601.6</ele>
        <time>2024-07-13T15:40:11Z</time>
      </trkpt>
      <trkpt lat="42.52272" lon="2.45568">
        <ele>2601.6</ele>
        <time>2024-07-13T15:40:14Z</time>
      </trkpt>
      <trkpt lat="42.52281" lon="2.45568">
        <ele>2601.8</ele>
        <time>2024-07-13T15:40:22Z</time>
      </trkpt>
      <trkpt lat="42.52292" lon="2.45571">
        <ele>2600.8</ele>
        <time>2024-07-13T15:40:32Z</time>
      </trkpt>
      <trkpt lat="42.52303" lon="2.45568">
        <ele>2600.6</ele>
        <time>2024-07-13T15:40:44Z</time>
      </trkpt>
      <trkpt lat="42.52307" lon="2.45567">
        <ele>2600</ele>
        <time>2024-07-13T15:40:50Z</time>
      </trkpt>
      <trkpt lat="42.5231" lon="2.45561">
        <ele>2597.4</ele>
        <time>2024-07-13T15:40:58Z</time>
      </trkpt>
      <trkpt lat="42.52317" lon="2.4556">
        <ele>2596.4</ele>
        <time>2024-07-13T15:41:04Z</time>
      </trkpt>
      <trkpt lat="42.52326" lon="2.45555">
        <ele>2595.8</ele>
        <time>2024-07-13T15:41:13Z</time>
      </trkpt>
      <trkpt lat="42.52335" lon="2.4555">
        <ele>2593.4</ele>
        <time>2024-07-13T15:41:22Z</time>
      </trkpt>
      <trkpt lat="42.52338" lon="2.45548">
        <ele>2591.4</ele>
        <time>2024-07-13T15:41:29Z</time>
      </trkpt>
      <trkpt lat="42.52341" lon="2.45544">
        <ele>2589.4</ele>
        <time>2024-07-13T15:41:35Z</time>
      </trkpt>
      <trkpt lat="42.52348" lon="2.4554">
        <ele>2587.8</ele>
        <time>2024-07-13T15:41:42Z</time>
      </trkpt>
      <trkpt lat="42.5235" lon="2.45538">
        <ele>2587.4</ele>
        <time>2024-07-13T15:41:46Z</time>
      </trkpt>
      <trkpt lat="42.52353" lon="2.45536">
        <ele>2587.4</ele>
        <time>2024-07-13T15:41:50Z</time>
      </trkpt>
      <trkpt lat="42.5236" lon="2.45533">
        <ele>2586.8</ele>
        <time>2024-07-13T15:41:57Z</time>
      </trkpt>
      <trkpt lat="42.52369" lon="2.45532">
        <ele>2585.6</ele>
        <time>2024-07-13T15:42:06Z</time>
      </trkpt>
      <trkpt lat="42.52379" lon="2.45524">
        <ele>2583.2</ele>
        <time>2024-07-13T15:42:16Z</time>
      </trkpt>
      <trkpt lat="42.52387" lon="2.4552">
        <ele>2581.4</ele>
        <time>2024-07-13T15:42:23Z</time>
      </trkpt>
      <trkpt lat="42.52389" lon="2.45519">
        <ele>2581.2</ele>
        <time>2024-07-13T15:42:25Z</time>
      </trkpt>
      <trkpt lat="42.52397" lon="2.45514">
        <ele>2580.4</ele>
        <time>2024-07-13T15:42:34Z</time>
      </trkpt>
      <trkpt lat="42.52405" lon="2.45511">
        <ele>2579</ele>
        <time>2024-07-13T15:42:43Z</time>
      </trkpt>
      <trkpt lat="42.52411" lon="2.45507">
        <ele>2576.8</ele>
        <time>2024-07-13T15:42:50Z</time>
      </trkpt>
      <trkpt lat="42.52417" lon="2.45502">
        <ele>2574.8</ele>
        <time>2024-07-13T15:42:59Z</time>
      </trkpt>
      <trkpt lat="42.52425" lon="2.45497">
        <ele>2573.6</ele>
        <time>2024-07-13T15:43:08Z</time>
      </trkpt>
      <trkpt lat="42.52434" lon="2.45494">
        <ele>2571.6</ele>
        <time>2024-07-13T15:43:18Z</time>
      </trkpt>
      <trkpt lat="42.52441" lon="2.45493">
        <ele>2569.8</ele>
        <time>2024-07-13T15:43:26Z</time>
      </trkpt>
      <trkpt lat="42.52448" lon="2.45492">
        <ele>2568.6</ele>
        <time>2024-07-13T15:43:34Z</time>
      </trkpt>
      <trkpt lat="42.52454" lon="2.4549">
        <ele>2566.6</ele>
        <time>2024-07-13T15:43:41Z</time>
      </trkpt>
      <trkpt lat="42.52465" lon="2.45488">
        <ele>2564.2</ele>
        <time>2024-07-13T15:43:51Z</time>
      </trkpt>
      <trkpt lat="42.52465" lon="2.45487">
        <ele>2563.8</ele>
        <time>2024-07-13T15:43:52Z</time>
      </trkpt>
      <trkpt lat="42.52472" lon="2.45486">
        <ele>2561.2</ele>
        <time>2024-07-13T15:43:58Z</time>
      </trkpt>
      <trkpt lat="42.52476" lon="2.45484">
        <ele>2560</ele>
        <time>2024-07-13T15:44:03Z</time>
      </trkpt>
      <trkpt lat="42.52479" lon="2.45483">
        <ele>2559.2</ele>
        <time>2024-07-13T15:44:06Z</time>
      </trkpt>
      <trkpt lat="42.52488" lon="2.4548">
        <ele>2557</ele>
        <time>2024-07-13T15:44:16Z</time>
      </trkpt>
      <trkpt lat="42.52493" lon="2.45478">
        <ele>2555.4</ele>
        <time>2024-07-13T15:44:23Z</time>
      </trkpt>
      <trkpt lat="42.525" lon="2.45477">
        <ele>2553.8</ele>
        <time>2024-07-13T15:44:29Z</time>
      </trkpt>
      <trkpt lat="42.52512" lon="2.45473">
        <ele>2551.4</ele>
        <time>2024-07-13T15:44:40Z</time>
      </trkpt>
      <trkpt lat="42.52524" lon="2.4547">
        <ele>2548</ele>
        <time>2024-07-13T15:44:50Z</time>
      </trkpt>
      <trkpt lat="42.52526" lon="2.45469">
        <ele>2548</ele>
        <time>2024-07-13T15:44:51Z</time>
      </trkpt>
      <trkpt lat="42.52531" lon="2.45468">
        <ele>2547.4</ele>
        <time>2024-07-13T15:44:56Z</time>
      </trkpt>
      <trkpt lat="42.52532" lon="2.45467">
        <ele>2547.2</ele>
        <time>2024-07-13T15:44:57Z</time>
      </trkpt>
      <trkpt lat="42.52534" lon="2.45467">
        <ele>2546.6</ele>
        <time>2024-07-13T15:44:59Z</time>
      </trkpt>
      <trkpt lat="42.52537" lon="2.45468">
        <ele>2545.4</ele>
        <time>2024-07-13T15:45:02Z</time>
      </trkpt>
      <trkpt lat="42.52542" lon="2.45465">
        <ele>2543.8</ele>
        <time>2024-07-13T15:45:08Z</time>
      </trkpt>
      <trkpt lat="42.52542" lon="2.45465">
        <ele>2543.6</ele>
        <time>2024-07-13T15:45:09Z</time>
      </trkpt>
      <trkpt lat="42.52551" lon="2.45464">
        <ele>2542.6</ele>
        <time>2024-07-13T15:45:15Z</time>
      </trkpt>
      <trkpt lat="42.52552" lon="2.45462">
        <ele>2542.2</ele>
        <time>2024-07-13T15:45:17Z</time>
      </trkpt>
      <trkpt lat="42.52557" lon="2.45459">
        <ele>2541.2</ele>
        <time>2024-07-13T15:45:22Z</time>
      </trkpt>
      <trkpt lat="42.52563" lon="2.45458">
        <ele>2540.6</ele>
        <time>2024-07-13T15:45:28Z</time>
      </trkpt>
      <trkpt lat="42.52565" lon="2.45457">
        <ele>2540.6</ele>
        <time>2024-07-13T15:45:29Z</time>
      </trkpt>
      <trkpt lat="42.52575" lon="2.45456">
        <ele>2537.4</ele>
        <time>2024-07-13T15:45:36Z</time>
      </trkpt>
      <trkpt lat="42.52582" lon="2.45451">
        <ele>2535</ele>
        <time>2024-07-13T15:45:44Z</time>
      </trkpt>
      <trkpt lat="42.52591" lon="2.4545">
        <ele>2534</ele>
        <time>2024-07-13T15:45:52Z</time>
      </trkpt>
      <trkpt lat="42.526" lon="2.45449">
        <ele>2532.2</ele>
        <time>2024-07-13T15:45:59Z</time>
      </trkpt>
      <trkpt lat="42.52611" lon="2.45447">
        <ele>2529.2</ele>
        <time>2024-07-13T15:46:08Z</time>
      </trkpt>
      <trkpt lat="42.52619" lon="2.45445">
        <ele>2527.2</ele>
        <time>2024-07-13T15:46:16Z</time>
      </trkpt>
      <trkpt lat="42.52627" lon="2.45442">
        <ele>2525</ele>
        <time>2024-07-13T15:46:25Z</time>
      </trkpt>
      <trkpt lat="42.52634" lon="2.45439">
        <ele>2523.4</ele>
        <time>2024-07-13T15:46:34Z</time>
      </trkpt>
      <trkpt lat="42.52635" lon="2.45438">
        <ele>2522.2</ele>
        <time>2024-07-13T15:46:41Z</time>
      </trkpt>
      <trkpt lat="42.52635" lon="2.45438">
        <ele>2521.8</ele>
        <time>2024-07-13T15:46:57Z</time>
      </trkpt>
      <trkpt lat="42.52637" lon="2.45435">
        <ele>2523.2</ele>
        <time>2024-07-13T15:47:40Z</time>
      </trkpt>
      <trkpt lat="42.52643" lon="2.45431">
        <ele>2523.2</ele>
        <time>2024-07-13T15:47:46Z</time>
      </trkpt>
      <trkpt lat="42.52653" lon="2.45428">
        <ele>2521.6</ele>
        <time>2024-07-13T15:47:55Z</time>
      </trkpt>
      <trkpt lat="42.52664" lon="2.45422">
        <ele>2518</ele>
        <time>2024-07-13T15:48:04Z</time>
      </trkpt>
      <trkpt lat="42.52674" lon="2.45413">
        <ele>2514.8</ele>
        <time>2024-07-13T15:48:13Z</time>
      </trkpt>
      <trkpt lat="42.52677" lon="2.45411">
        <ele>2514.4</ele>
        <time>2024-07-13T15:48:16Z</time>
      </trkpt>
      <trkpt lat="42.52682" lon="2.45409">
        <ele>2513</ele>
        <time>2024-07-13T15:48:20Z</time>
      </trkpt>
      <trkpt lat="42.52696" lon="2.45401">
        <ele>2508.2</ele>
        <time>2024-07-13T15:48:31Z</time>
      </trkpt>
      <trkpt lat="42.52707" lon="2.45397">
        <ele>2504.6</ele>
        <time>2024-07-13T15:48:40Z</time>
      </trkpt>
      <trkpt lat="42.52716" lon="2.45393">
        <ele>2503.2</ele>
        <time>2024-07-13T15:48:48Z</time>
      </trkpt>
      <trkpt lat="42.52726" lon="2.45393">
        <ele>2500.8</ele>
        <time>2024-07-13T15:48:56Z</time>
      </trkpt>
      <trkpt lat="42.52735" lon="2.45391">
        <ele>2497.8</ele>
        <time>2024-07-13T15:49:03Z</time>
      </trkpt>
      <trkpt lat="42.52743" lon="2.45393">
        <ele>2495.8</ele>
        <time>2024-07-13T15:49:10Z</time>
      </trkpt>
      <trkpt lat="42.52754" lon="2.45397">
        <ele>2493.8</ele>
        <time>2024-07-13T15:49:18Z</time>
      </trkpt>
      <trkpt lat="42.52765" lon="2.454">
        <ele>2491.2</ele>
        <time>2024-07-13T15:49:27Z</time>
      </trkpt>
      <trkpt lat="42.52776" lon="2.45405">
        <ele>2489</ele>
        <time>2024-07-13T15:49:36Z</time>
      </trkpt>
      <trkpt lat="42.52788" lon="2.45411">
        <ele>2486.6</ele>
        <time>2024-07-13T15:49:45Z</time>
      </trkpt>
      <trkpt lat="42.52798" lon="2.45415">
        <ele>2484</ele>
        <time>2024-07-13T15:49:53Z</time>
      </trkpt>
      <trkpt lat="42.52809" lon="2.45422">
        <ele>2481.2</ele>
        <time>2024-07-13T15:50:03Z</time>
      </trkpt>
      <trkpt lat="42.52818" lon="2.45428">
        <ele>2479</ele>
        <time>2024-07-13T15:50:11Z</time>
      </trkpt>
      <trkpt lat="42.52825" lon="2.45434">
        <ele>2478.6</ele>
        <time>2024-07-13T15:50:18Z</time>
      </trkpt>
      <trkpt lat="42.52832" lon="2.45445">
        <ele>2476.2</ele>
        <time>2024-07-13T15:50:27Z</time>
      </trkpt>
      <trkpt lat="42.5284" lon="2.45457">
        <ele>2473.6</ele>
        <time>2024-07-13T15:50:35Z</time>
      </trkpt>
      <trkpt lat="42.52843" lon="2.45463">
        <ele>2471.8</ele>
        <time>2024-07-13T15:50:40Z</time>
      </trkpt>
      <trkpt lat="42.52845" lon="2.45463">
        <ele>2470.8</ele>
        <time>2024-07-13T15:50:42Z</time>
      </trkpt>
      <trkpt lat="42.52851" lon="2.45454">
        <ele>2468.4</ele>
        <time>2024-07-13T15:50:49Z</time>
      </trkpt>
      <trkpt lat="42.52853" lon="2.45441">
        <ele>2466</ele>
        <time>2024-07-13T15:50:56Z</time>
      </trkpt>
      <trkpt lat="42.5285" lon="2.45423">
        <ele>2462.8</ele>
        <time>2024-07-13T15:51:06Z</time>
      </trkpt>
      <trkpt lat="42.52846" lon="2.45402">
        <ele>2459.4</ele>
        <time>2024-07-13T15:51:19Z</time>
      </trkpt>
      <trkpt lat="42.52851" lon="2.45404">
        <ele>2457.6</ele>
        <time>2024-07-13T15:51:23Z</time>
      </trkpt>
      <trkpt lat="42.52861" lon="2.45411">
        <ele>2455.8</ele>
        <time>2024-07-13T15:51:32Z</time>
      </trkpt>
      <trkpt lat="42.52873" lon="2.45412">
        <ele>2454.2</ele>
        <time>2024-07-13T15:51:41Z</time>
      </trkpt>
      <trkpt lat="42.52881" lon="2.45407">
        <ele>2452.2</ele>
        <time>2024-07-13T15:51:48Z</time>
      </trkpt>
      <trkpt lat="42.52883" lon="2.45406">
        <ele>2451.2</ele>
        <time>2024-07-13T15:51:51Z</time>
      </trkpt>
      <trkpt lat="42.52887" lon="2.45403">
        <ele>2449.8</ele>
        <time>2024-07-13T15:51:55Z</time>
      </trkpt>
      <trkpt lat="42.52894" lon="2.454">
        <ele>2448</ele>
        <time>2024-07-13T15:52:02Z</time>
      </trkpt>
      <trkpt lat="42.52895" lon="2.45398">
        <ele>2447.6</ele>
        <time>2024-07-13T15:52:04Z</time>
      </trkpt>
      <trkpt lat="42.52896" lon="2.45398">
        <ele>2447.2</ele>
        <time>2024-07-13T15:52:05Z</time>
      </trkpt>
      <trkpt lat="42.52904" lon="2.45396">
        <ele>2445.4</ele>
        <time>2024-07-13T15:52:12Z</time>
      </trkpt>
      <trkpt lat="42.52906" lon="2.45395">
        <ele>2445.2</ele>
        <time>2024-07-13T15:52:15Z</time>
      </trkpt>
      <trkpt lat="42.52908" lon="2.45393">
        <ele>2445.2</ele>
        <time>2024-07-13T15:52:19Z</time>
      </trkpt>
      <trkpt lat="42.52915" lon="2.4539">
        <ele>2444</ele>
        <time>2024-07-13T15:52:26Z</time>
      </trkpt>
      <trkpt lat="42.5292" lon="2.4539">
        <ele>2442.6</ele>
        <time>2024-07-13T15:52:31Z</time>
      </trkpt>
      <trkpt lat="42.52924" lon="2.4539">
        <ele>2441.4</ele>
        <time>2024-07-13T15:52:35Z</time>
      </trkpt>
      <trkpt lat="42.52933" lon="2.45385">
        <ele>2439.4</ele>
        <time>2024-07-13T15:52:43Z</time>
      </trkpt>
      <trkpt lat="42.52946" lon="2.45379">
        <ele>2435.6</ele>
        <time>2024-07-13T15:52:54Z</time>
      </trkpt>
      <trkpt lat="42.52957" lon="2.45374">
        <ele>2433</ele>
        <time>2024-07-13T15:53:03Z</time>
      </trkpt>
      <trkpt lat="42.52962" lon="2.45371">
        <ele>2431.6</ele>
        <time>2024-07-13T15:53:08Z</time>
      </trkpt>
      <trkpt lat="42.52964" lon="2.4537">
        <ele>2431</ele>
        <time>2024-07-13T15:53:10Z</time>
      </trkpt>
      <trkpt lat="42.52974" lon="2.45364">
        <ele>2429.2</ele>
        <time>2024-07-13T15:53:19Z</time>
      </trkpt>
      <trkpt lat="42.52986" lon="2.45362">
        <ele>2426.6</ele>
        <time>2024-07-13T15:53:28Z</time>
      </trkpt>
      <trkpt lat="42.52995" lon="2.45358">
        <ele>2424.4</ele>
        <time>2024-07-13T15:53:36Z</time>
      </trkpt>
      <trkpt lat="42.52997" lon="2.45358">
        <ele>2424</ele>
        <time>2024-07-13T15:53:38Z</time>
      </trkpt>
      <trkpt lat="42.53003" lon="2.45356">
        <ele>2422.6</ele>
        <time>2024-07-13T15:53:43Z</time>
      </trkpt>
      <trkpt lat="42.53015" lon="2.45354">
        <ele>2419.4</ele>
        <time>2024-07-13T15:53:52Z</time>
      </trkpt>
      <trkpt lat="42.5302" lon="2.45353">
        <ele>2417.2</ele>
        <time>2024-07-13T15:53:57Z</time>
      </trkpt>
      <trkpt lat="42.53022" lon="2.45352">
        <ele>2416.2</ele>
        <time>2024-07-13T15:53:59Z</time>
      </trkpt>
      <trkpt lat="42.53023" lon="2.45352">
        <ele>2415.6</ele>
        <time>2024-07-13T15:54:00Z</time>
      </trkpt>
      <trkpt lat="42.53036" lon="2.45351">
        <ele>2412.2</ele>
        <time>2024-07-13T15:54:10Z</time>
      </trkpt>
      <trkpt lat="42.53043" lon="2.45347">
        <ele>2410.8</ele>
        <time>2024-07-13T15:54:16Z</time>
      </trkpt>
      <trkpt lat="42.53044" lon="2.45348">
        <ele>2410.2</ele>
        <time>2024-07-13T15:54:17Z</time>
      </trkpt>
      <trkpt lat="42.53045" lon="2.45348">
        <ele>2409.8</ele>
        <time>2024-07-13T15:54:18Z</time>
      </trkpt>
      <trkpt lat="42.5305" lon="2.45346">
        <ele>2407.2</ele>
        <time>2024-07-13T15:54:23Z</time>
      </trkpt>
      <trkpt lat="42.53057" lon="2.45346">
        <ele>2405.8</ele>
        <time>2024-07-13T15:54:28Z</time>
      </trkpt>
      <trkpt lat="42.53059" lon="2.45345">
        <ele>2405.4</ele>
        <time>2024-07-13T15:54:30Z</time>
      </trkpt>
      <trkpt lat="42.53069" lon="2.45337">
        <ele>2403.2</ele>
        <time>2024-07-13T15:54:39Z</time>
      </trkpt>
      <trkpt lat="42.53078" lon="2.45334">
        <ele>2402.2</ele>
        <time>2024-07-13T15:54:47Z</time>
      </trkpt>
      <trkpt lat="42.53091" lon="2.45328">
        <ele>2399</ele>
        <time>2024-07-13T15:54:57Z</time>
      </trkpt>
      <trkpt lat="42.53099" lon="2.45323">
        <ele>2396.8</ele>
        <time>2024-07-13T15:55:05Z</time>
      </trkpt>
      <trkpt lat="42.53104" lon="2.45322">
        <ele>2396</ele>
        <time>2024-07-13T15:55:09Z</time>
      </trkpt>
      <trkpt lat="42.53106" lon="2.45322">
        <ele>2395.4</ele>
        <time>2024-07-13T15:55:11Z</time>
      </trkpt>
      <trkpt lat="42.53115" lon="2.45318">
        <ele>2393.6</ele>
        <time>2024-07-13T15:55:19Z</time>
      </trkpt>
      <trkpt lat="42.53124" lon="2.45316">
        <ele>2391.6</ele>
        <time>2024-07-13T15:55:27Z</time>
      </trkpt>
      <trkpt lat="42.53134" lon="2.45312">
        <ele>2388.4</ele>
        <time>2024-07-13T15:55:35Z</time>
      </trkpt>
      <trkpt lat="42.53146" lon="2.45303">
        <ele>2385.6</ele>
        <time>2024-07-13T15:55:45Z</time>
      </trkpt>
      <trkpt lat="42.53161" lon="2.45292">
        <ele>2381.4</ele>
        <time>2024-07-13T15:55:57Z</time>
      </trkpt>
      <trkpt lat="42.53171" lon="2.45289">
        <ele>2378.8</ele>
        <time>2024-07-13T15:56:05Z</time>
      </trkpt>
      <trkpt lat="42.53179" lon="2.45288">
        <ele>2377.8</ele>
        <time>2024-07-13T15:56:12Z</time>
      </trkpt>
      <trkpt lat="42.53184" lon="2.45286">
        <ele>2376.8</ele>
        <time>2024-07-13T15:56:16Z</time>
      </trkpt>
      <trkpt lat="42.53186" lon="2.45285">
        <ele>2376.2</ele>
        <time>2024-07-13T15:56:18Z</time>
      </trkpt>
      <trkpt lat="42.53187" lon="2.45285">
        <ele>2375.8</ele>
        <time>2024-07-13T15:56:19Z</time>
      </trkpt>
      <trkpt lat="42.53198" lon="2.45276">
        <ele>2372.8</ele>
        <time>2024-07-13T15:56:28Z</time>
      </trkpt>
      <trkpt lat="42.53206" lon="2.4527">
        <ele>2371</ele>
        <time>2024-07-13T15:56:35Z</time>
      </trkpt>
      <trkpt lat="42.53213" lon="2.45256">
        <ele>2367.8</ele>
        <time>2024-07-13T15:56:44Z</time>
      </trkpt>
      <trkpt lat="42.5322" lon="2.45244">
        <ele>2366.2</ele>
        <time>2024-07-13T15:56:53Z</time>
      </trkpt>
      <trkpt lat="42.53228" lon="2.45238">
        <ele>2365.4</ele>
        <time>2024-07-13T15:57:00Z</time>
      </trkpt>
      <trkpt lat="42.5324" lon="2.45233">
        <ele>2364</ele>
        <time>2024-07-13T15:57:09Z</time>
      </trkpt>
      <trkpt lat="42.53251" lon="2.45226">
        <ele>2362</ele>
        <time>2024-07-13T15:57:19Z</time>
      </trkpt>
      <trkpt lat="42.53258" lon="2.45223">
        <ele>2361.8</ele>
        <time>2024-07-13T15:57:25Z</time>
      </trkpt>
      <trkpt lat="42.53258" lon="2.45223">
        <ele>2361.6</ele>
        <time>2024-07-13T15:57:26Z</time>
      </trkpt>
      <trkpt lat="42.53258" lon="2.45224">
        <ele>2361.6</ele>
        <time>2024-07-13T15:57:30Z</time>
      </trkpt>
      <trkpt lat="42.53257" lon="2.45224">
        <ele>2362.2</ele>
        <time>2024-07-13T15:57:39Z</time>
      </trkpt>
      <trkpt lat="42.53265" lon="2.45223">
        <ele>2362.4</ele>
        <time>2024-07-13T15:57:57Z</time>
      </trkpt>
      <trkpt lat="42.53275" lon="2.45211">
        <ele>2358.4</ele>
        <time>2024-07-13T15:58:06Z</time>
      </trkpt>
      <trkpt lat="42.53278" lon="2.45202">
        <ele>2357.2</ele>
        <time>2024-07-13T15:58:12Z</time>
      </trkpt>
      <trkpt lat="42.5328" lon="2.45202">
        <ele>2357</ele>
        <time>2024-07-13T15:58:13Z</time>
      </trkpt>
      <trkpt lat="42.53281" lon="2.45201">
        <ele>2356.8</ele>
        <time>2024-07-13T15:58:15Z</time>
      </trkpt>
      <trkpt lat="42.53284" lon="2.45197">
        <ele>2356.4</ele>
        <time>2024-07-13T15:58:18Z</time>
      </trkpt>
      <trkpt lat="42.53285" lon="2.45196">
        <ele>2356.2</ele>
        <time>2024-07-13T15:58:19Z</time>
      </trkpt>
      <trkpt lat="42.53291" lon="2.45185">
        <ele>2353.8</ele>
        <time>2024-07-13T15:58:28Z</time>
      </trkpt>
      <trkpt lat="42.53294" lon="2.45184">
        <ele>2353.6</ele>
        <time>2024-07-13T15:58:32Z</time>
      </trkpt>
      <trkpt lat="42.53294" lon="2.45187">
        <ele>2353.4</ele>
        <time>2024-07-13T15:58:34Z</time>
      </trkpt>
      <trkpt lat="42.53294" lon="2.45202">
        <ele>2351</ele>
        <time>2024-07-13T15:58:43Z</time>
      </trkpt>
      <trkpt lat="42.53293" lon="2.45212">
        <ele>2348.2</ele>
        <time>2024-07-13T15:58:50Z</time>
      </trkpt>
      <trkpt lat="42.53295" lon="2.45215">
        <ele>2347.2</ele>
        <time>2024-07-13T15:58:53Z</time>
      </trkpt>
      <trkpt lat="42.53297" lon="2.45219">
        <ele>2346.2</ele>
        <time>2024-07-13T15:58:56Z</time>
      </trkpt>
      <trkpt lat="42.53298" lon="2.4523">
        <ele>2344.6</ele>
        <time>2024-07-13T15:59:02Z</time>
      </trkpt>
      <trkpt lat="42.53299" lon="2.45241">
        <ele>2343.4</ele>
        <time>2024-07-13T15:59:10Z</time>
      </trkpt>
      <trkpt lat="42.53299" lon="2.45243">
        <ele>2343</ele>
        <time>2024-07-13T15:59:12Z</time>
      </trkpt>
      <trkpt lat="42.53299" lon="2.45245">
        <ele>2342.8</ele>
        <time>2024-07-13T15:59:13Z</time>
      </trkpt>
      <trkpt lat="42.53301" lon="2.45252">
        <ele>2340</ele>
        <time>2024-07-13T15:59:19Z</time>
      </trkpt>
      <trkpt lat="42.53303" lon="2.45265">
        <ele>2338.2</ele>
        <time>2024-07-13T15:59:28Z</time>
      </trkpt>
      <trkpt lat="42.53307" lon="2.45274">
        <ele>2337.6</ele>
        <time>2024-07-13T15:59:37Z</time>
      </trkpt>
      <trkpt lat="42.53307" lon="2.45278">
        <ele>2337.2</ele>
        <time>2024-07-13T15:59:39Z</time>
      </trkpt>
      <trkpt lat="42.53307" lon="2.45286">
        <ele>2336.4</ele>
        <time>2024-07-13T15:59:44Z</time>
      </trkpt>
      <trkpt lat="42.53307" lon="2.45288">
        <ele>2336</ele>
        <time>2024-07-13T15:59:46Z</time>
      </trkpt>
      <trkpt lat="42.5331" lon="2.45295">
        <ele>2334.6</ele>
        <time>2024-07-13T15:59:51Z</time>
      </trkpt>
      <trkpt lat="42.5331" lon="2.45297">
        <ele>2334.2</ele>
        <time>2024-07-13T15:59:52Z</time>
      </trkpt>
      <trkpt lat="42.53309" lon="2.45301">
        <ele>2333</ele>
        <time>2024-07-13T15:59:56Z</time>
      </trkpt>
      <trkpt lat="42.53309" lon="2.45304">
        <ele>2332.6</ele>
        <time>2024-07-13T15:59:59Z</time>
      </trkpt>
      <trkpt lat="42.53311" lon="2.45309">
        <ele>2331.8</ele>
        <time>2024-07-13T16:00:03Z</time>
      </trkpt>
      <trkpt lat="42.53311" lon="2.4531">
        <ele>2331.4</ele>
        <time>2024-07-13T16:00:04Z</time>
      </trkpt>
      <trkpt lat="42.53314" lon="2.45316">
        <ele>2330.2</ele>
        <time>2024-07-13T16:00:09Z</time>
      </trkpt>
      <trkpt lat="42.53313" lon="2.45329">
        <ele>2328.6</ele>
        <time>2024-07-13T16:00:17Z</time>
      </trkpt>
      <trkpt lat="42.53314" lon="2.45341">
        <ele>2326</ele>
        <time>2024-07-13T16:00:24Z</time>
      </trkpt>
      <trkpt lat="42.53314" lon="2.45354">
        <ele>2324.4</ele>
        <time>2024-07-13T16:00:31Z</time>
      </trkpt>
      <trkpt lat="42.53316" lon="2.45371">
        <ele>2322</ele>
        <time>2024-07-13T16:00:40Z</time>
      </trkpt>
      <trkpt lat="42.53316" lon="2.45382">
        <ele>2319.8</ele>
        <time>2024-07-13T16:00:48Z</time>
      </trkpt>
      <trkpt lat="42.53316" lon="2.45393">
        <ele>2317.4</ele>
        <time>2024-07-13T16:00:56Z</time>
      </trkpt>
      <trkpt lat="42.53316" lon="2.45394">
        <ele>2317.2</ele>
        <time>2024-07-13T16:00:57Z</time>
      </trkpt>
      <trkpt lat="42.53316" lon="2.45397">
        <ele>2316</ele>
        <time>2024-07-13T16:01:00Z</time>
      </trkpt>
      <trkpt lat="42.53316" lon="2.454">
        <ele>2315.4</ele>
        <time>2024-07-13T16:01:02Z</time>
      </trkpt>
      <trkpt lat="42.53315" lon="2.45412">
        <ele>2312.4</ele>
        <time>2024-07-13T16:01:10Z</time>
      </trkpt>
      <trkpt lat="42.53315" lon="2.45416">
        <ele>2311.4</ele>
        <time>2024-07-13T16:01:13Z</time>
      </trkpt>
      <trkpt lat="42.53317" lon="2.45417">
        <ele>2310.8</ele>
        <time>2024-07-13T16:01:16Z</time>
      </trkpt>
      <trkpt lat="42.5332" lon="2.45416">
        <ele>2310.4</ele>
        <time>2024-07-13T16:01:18Z</time>
      </trkpt>
      <trkpt lat="42.53326" lon="2.45409">
        <ele>2309</ele>
        <time>2024-07-13T16:01:23Z</time>
      </trkpt>
      <trkpt lat="42.53335" lon="2.45402">
        <ele>2308</ele>
        <time>2024-07-13T16:01:30Z</time>
      </trkpt>
      <trkpt lat="42.53341" lon="2.45397">
        <ele>2306.4</ele>
        <time>2024-07-13T16:01:35Z</time>
      </trkpt>
      <trkpt lat="42.53343" lon="2.45394">
        <ele>2305.6</ele>
        <time>2024-07-13T16:01:37Z</time>
      </trkpt>
      <trkpt lat="42.53353" lon="2.45386">
        <ele>2301.4</ele>
        <time>2024-07-13T16:01:47Z</time>
      </trkpt>
      <trkpt lat="42.53364" lon="2.45379">
        <ele>2299</ele>
        <time>2024-07-13T16:01:56Z</time>
      </trkpt>
      <trkpt lat="42.53365" lon="2.45377">
        <ele>2298.8</ele>
        <time>2024-07-13T16:01:57Z</time>
      </trkpt>
      <trkpt lat="42.5337" lon="2.45368">
        <ele>2297</ele>
        <time>2024-07-13T16:02:03Z</time>
      </trkpt>
      <trkpt lat="42.53376" lon="2.45362">
        <ele>2295.4</ele>
        <time>2024-07-13T16:02:09Z</time>
      </trkpt>
      <trkpt lat="42.53382" lon="2.45353">
        <ele>2294</ele>
        <time>2024-07-13T16:02:16Z</time>
      </trkpt>
      <trkpt lat="42.53383" lon="2.45356">
        <ele>2293.8</ele>
        <time>2024-07-13T16:02:18Z</time>
      </trkpt>
      <trkpt lat="42.53383" lon="2.4536">
        <ele>2293.4</ele>
        <time>2024-07-13T16:02:21Z</time>
      </trkpt>
      <trkpt lat="42.53382" lon="2.45376">
        <ele>2291.4</ele>
        <time>2024-07-13T16:02:29Z</time>
      </trkpt>
      <trkpt lat="42.53381" lon="2.4539">
        <ele>2289.6</ele>
        <time>2024-07-13T16:02:37Z</time>
      </trkpt>
      <trkpt lat="42.53381" lon="2.45406">
        <ele>2287.8</ele>
        <time>2024-07-13T16:02:45Z</time>
      </trkpt>
      <trkpt lat="42.53377" lon="2.45415">
        <ele>2286.2</ele>
        <time>2024-07-13T16:02:51Z</time>
      </trkpt>
      <trkpt lat="42.53376" lon="2.45418">
        <ele>2285.2</ele>
        <time>2024-07-13T16:02:54Z</time>
      </trkpt>
      <trkpt lat="42.53377" lon="2.45423">
        <ele>2284</ele>
        <time>2024-07-13T16:02:57Z</time>
      </trkpt>
      <trkpt lat="42.53375" lon="2.45437">
        <ele>2281.2</ele>
        <time>2024-07-13T16:03:04Z</time>
      </trkpt>
      <trkpt lat="42.53375" lon="2.45452">
        <ele>2278.8</ele>
        <time>2024-07-13T16:03:12Z</time>
      </trkpt>
      <trkpt lat="42.53375" lon="2.45453">
        <ele>2278.6</ele>
        <time>2024-07-13T16:03:13Z</time>
      </trkpt>
      <trkpt lat="42.53376" lon="2.45467">
        <ele>2277.2</ele>
        <time>2024-07-13T16:03:21Z</time>
      </trkpt>
      <trkpt lat="42.53374" lon="2.45484">
        <ele>2276.2</ele>
        <time>2024-07-13T16:03:30Z</time>
      </trkpt>
      <trkpt lat="42.53372" lon="2.45492">
        <ele>2275.6</ele>
        <time>2024-07-13T16:03:35Z</time>
      </trkpt>
      <trkpt lat="42.53372" lon="2.45494">
        <ele>2275.4</ele>
        <time>2024-07-13T16:03:36Z</time>
      </trkpt>
      <trkpt lat="42.53372" lon="2.45497">
        <ele>2273.6</ele>
        <time>2024-07-13T16:03:42Z</time>
      </trkpt>
      <trkpt lat="42.53372" lon="2.45498">
        <ele>2272.2</ele>
        <time>2024-07-13T16:03:48Z</time>
      </trkpt>
      <trkpt lat="42.53371" lon="2.45498">
        <ele>2271.8</ele>
        <time>2024-07-13T16:03:54Z</time>
      </trkpt>
      <trkpt lat="42.5337" lon="2.45505">
        <ele>2270.8</ele>
        <time>2024-07-13T16:04:40Z</time>
      </trkpt>
      <trkpt lat="42.53366" lon="2.45524">
        <ele>2269.2</ele>
        <time>2024-07-13T16:04:49Z</time>
      </trkpt>
      <trkpt lat="42.53362" lon="2.45537">
        <ele>2266.8</ele>
        <time>2024-07-13T16:04:57Z</time>
      </trkpt>
      <trkpt lat="42.53358" lon="2.45547">
        <ele>2264.8</ele>
        <time>2024-07-13T16:05:04Z</time>
      </trkpt>
      <trkpt lat="42.53353" lon="2.45561">
        <ele>2263.4</ele>
        <time>2024-07-13T16:05:12Z</time>
      </trkpt>
      <trkpt lat="42.53348" lon="2.45576">
        <ele>2261.8</ele>
        <time>2024-07-13T16:05:21Z</time>
      </trkpt>
      <trkpt lat="42.53341" lon="2.4559">
        <ele>2260</ele>
        <time>2024-07-13T16:05:30Z</time>
      </trkpt>
      <trkpt lat="42.53337" lon="2.45605">
        <ele>2257</ele>
        <time>2024-07-13T16:05:39Z</time>
      </trkpt>
      <trkpt lat="42.53335" lon="2.45619">
        <ele>2256</ele>
        <time>2024-07-13T16:05:49Z</time>
      </trkpt>
      <trkpt lat="42.53335" lon="2.45619">
        <ele>2256.4</ele>
        <time>2024-07-13T16:05:57Z</time>
      </trkpt>
      <trkpt lat="42.53335" lon="2.4562">
        <ele>2256.8</ele>
        <time>2024-07-13T16:06:16Z</time>
      </trkpt>
      <trkpt lat="42.53334" lon="2.45626">
        <ele>2256.6</ele>
        <time>2024-07-13T16:06:31Z</time>
      </trkpt>
      <trkpt lat="42.5333" lon="2.45644">
        <ele>2254.4</ele>
        <time>2024-07-13T16:06:41Z</time>
      </trkpt>
      <trkpt lat="42.53325" lon="2.4566">
        <ele>2251</ele>
        <time>2024-07-13T16:06:51Z</time>
      </trkpt>
      <trkpt lat="42.53321" lon="2.45672">
        <ele>2248.4</ele>
        <time>2024-07-13T16:06:59Z</time>
      </trkpt>
      <trkpt lat="42.53319" lon="2.45689">
        <ele>2244.8</ele>
        <time>2024-07-13T16:07:08Z</time>
      </trkpt>
      <trkpt lat="42.53317" lon="2.45701">
        <ele>2242.8</ele>
        <time>2024-07-13T16:07:15Z</time>
      </trkpt>
      <trkpt lat="42.53312" lon="2.45717">
        <ele>2239.8</ele>
        <time>2024-07-13T16:07:24Z</time>
      </trkpt>
      <trkpt lat="42.53303" lon="2.4573">
        <ele>2236.8</ele>
        <time>2024-07-13T16:07:33Z</time>
      </trkpt>
      <trkpt lat="42.53297" lon="2.45745">
        <ele>2235.2</ele>
        <time>2024-07-13T16:07:42Z</time>
      </trkpt>
      <trkpt lat="42.53288" lon="2.45763">
        <ele>2233</ele>
        <time>2024-07-13T16:07:53Z</time>
      </trkpt>
      <trkpt lat="42.53283" lon="2.45768">
        <ele>2232</ele>
        <time>2024-07-13T16:07:58Z</time>
      </trkpt>
      <trkpt lat="42.53279" lon="2.45771">
        <ele>2231.6</ele>
        <time>2024-07-13T16:08:01Z</time>
      </trkpt>
      <trkpt lat="42.53269" lon="2.45779">
        <ele>2230.6</ele>
        <time>2024-07-13T16:08:10Z</time>
      </trkpt>
      <trkpt lat="42.53254" lon="2.45787">
        <ele>2227.8</ele>
        <time>2024-07-13T16:08:22Z</time>
      </trkpt>
      <trkpt lat="42.5325" lon="2.45792">
        <ele>2226.6</ele>
        <time>2024-07-13T16:08:28Z</time>
      </trkpt>
      <trkpt lat="42.53244" lon="2.45793">
        <ele>2226.6</ele>
        <time>2024-07-13T16:08:34Z</time>
      </trkpt>
      <trkpt lat="42.53236" lon="2.45799">
        <ele>2226</ele>
        <time>2024-07-13T16:08:40Z</time>
      </trkpt>
      <trkpt lat="42.53225" lon="2.45807">
        <ele>2225.8</ele>
        <time>2024-07-13T16:08:49Z</time>
      </trkpt>
      <trkpt lat="42.53217" lon="2.45812">
        <ele>2225.6</ele>
        <time>2024-07-13T16:08:56Z</time>
      </trkpt>
      <trkpt lat="42.53206" lon="2.45815">
        <ele>2223.2</ele>
        <time>2024-07-13T16:09:04Z</time>
      </trkpt>
      <trkpt lat="42.53194" lon="2.45819">
        <ele>2220.8</ele>
        <time>2024-07-13T16:09:13Z</time>
      </trkpt>
      <trkpt lat="42.53183" lon="2.45833">
        <ele>2218.6</ele>
        <time>2024-07-13T16:09:23Z</time>
      </trkpt>
      <trkpt lat="42.53177" lon="2.45842">
        <ele>2216</ele>
        <time>2024-07-13T16:09:30Z</time>
      </trkpt>
      <trkpt lat="42.53172" lon="2.45853">
        <ele>2214.2</ele>
        <time>2024-07-13T16:09:39Z</time>
      </trkpt>
      <trkpt lat="42.53168" lon="2.4586">
        <ele>2213.8</ele>
        <time>2024-07-13T16:09:46Z</time>
      </trkpt>
      <trkpt lat="42.53167" lon="2.45863">
        <ele>2214.4</ele>
        <time>2024-07-13T16:09:53Z</time>
      </trkpt>
      <trkpt lat="42.53163" lon="2.45868">
        <ele>2214.4</ele>
        <time>2024-07-13T16:09:59Z</time>
      </trkpt>
      <trkpt lat="42.5316" lon="2.45873">
        <ele>2214</ele>
        <time>2024-07-13T16:10:06Z</time>
      </trkpt>
      <trkpt lat="42.53156" lon="2.4588">
        <ele>2212.6</ele>
        <time>2024-07-13T16:10:15Z</time>
      </trkpt>
      <trkpt lat="42.53151" lon="2.45889">
        <ele>2210.6</ele>
        <time>2024-07-13T16:10:24Z</time>
      </trkpt>
      <trkpt lat="42.53148" lon="2.45895">
        <ele>2210</ele>
        <time>2024-07-13T16:10:31Z</time>
      </trkpt>
      <trkpt lat="42.53145" lon="2.45901">
        <ele>2209</ele>
        <time>2024-07-13T16:10:39Z</time>
      </trkpt>
      <trkpt lat="42.53143" lon="2.45906">
        <ele>2208.2</ele>
        <time>2024-07-13T16:10:46Z</time>
      </trkpt>
      <trkpt lat="42.5314" lon="2.45912">
        <ele>2207</ele>
        <time>2024-07-13T16:10:53Z</time>
      </trkpt>
      <trkpt lat="42.53141" lon="2.45915">
        <ele>2205</ele>
        <time>2024-07-13T16:10:59Z</time>
      </trkpt>
      <trkpt lat="42.53139" lon="2.45924">
        <ele>2202.8</ele>
        <time>2024-07-13T16:11:23Z</time>
      </trkpt>
      <trkpt lat="42.53132" lon="2.45938">
        <ele>2199.8</ele>
        <time>2024-07-13T16:11:32Z</time>
      </trkpt>
      <trkpt lat="42.53129" lon="2.45949">
        <ele>2197.2</ele>
        <time>2024-07-13T16:11:39Z</time>
      </trkpt>
      <trkpt lat="42.53129" lon="2.45955">
        <ele>2196.4</ele>
        <time>2024-07-13T16:11:45Z</time>
      </trkpt>
      <trkpt lat="42.5313" lon="2.4597">
        <ele>2195.6</ele>
        <time>2024-07-13T16:11:55Z</time>
      </trkpt>
      <trkpt lat="42.5314" lon="2.45975">
        <ele>2193.6</ele>
        <time>2024-07-13T16:12:02Z</time>
      </trkpt>
      <trkpt lat="42.53149" lon="2.45984">
        <ele>2190.2</ele>
        <time>2024-07-13T16:12:10Z</time>
      </trkpt>
      <trkpt lat="42.53152" lon="2.45998">
        <ele>2188.2</ele>
        <time>2024-07-13T16:12:17Z</time>
      </trkpt>
      <trkpt lat="42.5316" lon="2.46014">
        <ele>2187.2</ele>
        <time>2024-07-13T16:12:27Z</time>
      </trkpt>
      <trkpt lat="42.53168" lon="2.46032">
        <ele>2185.6</ele>
        <time>2024-07-13T16:12:38Z</time>
      </trkpt>
      <trkpt lat="42.53174" lon="2.46044">
        <ele>2184.2</ele>
        <time>2024-07-13T16:12:46Z</time>
      </trkpt>
      <trkpt lat="42.53176" lon="2.46061">
        <ele>2182</ele>
        <time>2024-07-13T16:12:56Z</time>
      </trkpt>
      <trkpt lat="42.53177" lon="2.46062">
        <ele>2181.8</ele>
        <time>2024-07-13T16:12:57Z</time>
      </trkpt>
      <trkpt lat="42.53186" lon="2.46067">
        <ele>2181</ele>
        <time>2024-07-13T16:13:04Z</time>
      </trkpt>
      <trkpt lat="42.53199" lon="2.46068">
        <ele>2179</ele>
        <time>2024-07-13T16:13:14Z</time>
      </trkpt>
      <trkpt lat="42.53209" lon="2.46075">
        <ele>2177.2</ele>
        <time>2024-07-13T16:13:23Z</time>
      </trkpt>
      <trkpt lat="42.53217" lon="2.46083">
        <ele>2175.6</ele>
        <time>2024-07-13T16:13:31Z</time>
      </trkpt>
      <trkpt lat="42.53218" lon="2.46084">
        <ele>2175.4</ele>
        <time>2024-07-13T16:13:32Z</time>
      </trkpt>
      <trkpt lat="42.53226" lon="2.46083">
        <ele>2174</ele>
        <time>2024-07-13T16:13:38Z</time>
      </trkpt>
      <trkpt lat="42.53235" lon="2.46091">
        <ele>2172</ele>
        <time>2024-07-13T16:13:47Z</time>
      </trkpt>
      <trkpt lat="42.53249" lon="2.46098">
        <ele>2169.8</ele>
        <time>2024-07-13T16:13:57Z</time>
      </trkpt>
      <trkpt lat="42.5326" lon="2.46104">
        <ele>2168.2</ele>
        <time>2024-07-13T16:14:06Z</time>
      </trkpt>
      <trkpt lat="42.53264" lon="2.46107">
        <ele>2167.4</ele>
        <time>2024-07-13T16:14:10Z</time>
      </trkpt>
      <trkpt lat="42.53266" lon="2.46111">
        <ele>2166.6</ele>
        <time>2024-07-13T16:14:13Z</time>
      </trkpt>
      <trkpt lat="42.53269" lon="2.46113">
        <ele>2166</ele>
        <time>2024-07-13T16:14:16Z</time>
      </trkpt>
      <trkpt lat="42.53271" lon="2.46117">
        <ele>2165</ele>
        <time>2024-07-13T16:14:19Z</time>
      </trkpt>
      <trkpt lat="42.53281" lon="2.46134">
        <ele>2164.4</ele>
        <time>2024-07-13T16:14:30Z</time>
      </trkpt>
      <trkpt lat="42.53286" lon="2.46149">
        <ele>2165.6</ele>
        <time>2024-07-13T16:14:38Z</time>
      </trkpt>
      <trkpt lat="42.53286" lon="2.46163">
        <ele>2165.4</ele>
        <time>2024-07-13T16:14:46Z</time>
      </trkpt>
      <trkpt lat="42.53287" lon="2.46181">
        <ele>2165</ele>
        <time>2024-07-13T16:14:55Z</time>
      </trkpt>
      <trkpt lat="42.53287" lon="2.46194">
        <ele>2165.8</ele>
        <time>2024-07-13T16:15:03Z</time>
      </trkpt>
      <trkpt lat="42.5329" lon="2.46208">
        <ele>2166.2</ele>
        <time>2024-07-13T16:15:11Z</time>
      </trkpt>
      <trkpt lat="42.53292" lon="2.46212">
        <ele>2166.2</ele>
        <time>2024-07-13T16:15:14Z</time>
      </trkpt>
      <trkpt lat="42.53296" lon="2.46214">
        <ele>2166</ele>
        <time>2024-07-13T16:15:17Z</time>
      </trkpt>
      <trkpt lat="42.53306" lon="2.46218">
        <ele>2167</ele>
        <time>2024-07-13T16:15:24Z</time>
      </trkpt>
      <trkpt lat="42.53315" lon="2.46227">
        <ele>2167.8</ele>
        <time>2024-07-13T16:15:33Z</time>
      </trkpt>
      <trkpt lat="42.53322" lon="2.46234">
        <ele>2167.8</ele>
        <time>2024-07-13T16:15:40Z</time>
      </trkpt>
      <trkpt lat="42.53326" lon="2.46241">
        <ele>2167.6</ele>
        <time>2024-07-13T16:15:46Z</time>
      </trkpt>
      <trkpt lat="42.53327" lon="2.46243">
        <ele>2167.6</ele>
        <time>2024-07-13T16:15:48Z</time>
      </trkpt>
      <trkpt lat="42.53329" lon="2.46251">
        <ele>2167.8</ele>
        <time>2024-07-13T16:15:53Z</time>
      </trkpt>
      <trkpt lat="42.5333" lon="2.46266">
        <ele>2166.8</ele>
        <time>2024-07-13T16:16:01Z</time>
      </trkpt>
      <trkpt lat="42.53329" lon="2.46282">
        <ele>2165.4</ele>
        <time>2024-07-13T16:16:10Z</time>
      </trkpt>
      <trkpt lat="42.53329" lon="2.46285">
        <ele>2165.4</ele>
        <time>2024-07-13T16:16:11Z</time>
      </trkpt>
      <trkpt lat="42.53328" lon="2.46288">
        <ele>2165.4</ele>
        <time>2024-07-13T16:16:13Z</time>
      </trkpt>
      <trkpt lat="42.53326" lon="2.46291">
        <ele>2165.4</ele>
        <time>2024-07-13T16:16:16Z</time>
      </trkpt>
      <trkpt lat="42.53322" lon="2.46299">
        <ele>2164.6</ele>
        <time>2024-07-13T16:16:21Z</time>
      </trkpt>
      <trkpt lat="42.5332" lon="2.46301">
        <ele>2164</ele>
        <time>2024-07-13T16:16:23Z</time>
      </trkpt>
      <trkpt lat="42.53308" lon="2.4631">
        <ele>2163.4</ele>
        <time>2024-07-13T16:16:33Z</time>
      </trkpt>
      <trkpt lat="42.53299" lon="2.46319">
        <ele>2160.4</ele>
        <time>2024-07-13T16:16:42Z</time>
      </trkpt>
      <trkpt lat="42.53296" lon="2.46335">
        <ele>2156.2</ele>
        <time>2024-07-13T16:16:51Z</time>
      </trkpt>
      <trkpt lat="42.53295" lon="2.46345">
        <ele>2155</ele>
        <time>2024-07-13T16:16:57Z</time>
      </trkpt>
      <trkpt lat="42.53296" lon="2.46348">
        <ele>2154.6</ele>
        <time>2024-07-13T16:16:59Z</time>
      </trkpt>
      <trkpt lat="42.53294" lon="2.46357">
        <ele>2154.4</ele>
        <time>2024-07-13T16:17:04Z</time>
      </trkpt>
      <trkpt lat="42.5329" lon="2.46371">
        <ele>2154</ele>
        <time>2024-07-13T16:17:12Z</time>
      </trkpt>
      <trkpt lat="42.53295" lon="2.46378">
        <ele>2153.4</ele>
        <time>2024-07-13T16:17:18Z</time>
      </trkpt>
      <trkpt lat="42.53301" lon="2.46381">
        <ele>2152.6</ele>
        <time>2024-07-13T16:17:23Z</time>
      </trkpt>
      <trkpt lat="42.53301" lon="2.46384">
        <ele>2152.4</ele>
        <time>2024-07-13T16:17:25Z</time>
      </trkpt>
      <trkpt lat="42.53303" lon="2.46392">
        <ele>2151.6</ele>
        <time>2024-07-13T16:17:30Z</time>
      </trkpt>
      <trkpt lat="42.53305" lon="2.46396">
        <ele>2151.2</ele>
        <time>2024-07-13T16:17:33Z</time>
      </trkpt>
      <trkpt lat="42.53309" lon="2.46405">
        <ele>2151.8</ele>
        <time>2024-07-13T16:17:40Z</time>
      </trkpt>
      <trkpt lat="42.5332" lon="2.46409">
        <ele>2151.8</ele>
        <time>2024-07-13T16:17:49Z</time>
      </trkpt>
      <trkpt lat="42.53331" lon="2.46409">
        <ele>2152.2</ele>
        <time>2024-07-13T16:17:58Z</time>
      </trkpt>
      <trkpt lat="42.53342" lon="2.46418">
        <ele>2152.4</ele>
        <time>2024-07-13T16:18:07Z</time>
      </trkpt>
      <trkpt lat="42.53348" lon="2.46432">
        <ele>2152.2</ele>
        <time>2024-07-13T16:18:16Z</time>
      </trkpt>
      <trkpt lat="42.53357" lon="2.46438">
        <ele>2152.8</ele>
        <time>2024-07-13T16:18:24Z</time>
      </trkpt>
      <trkpt lat="42.5337" lon="2.46446">
        <ele>2152.8</ele>
        <time>2024-07-13T16:18:34Z</time>
      </trkpt>
      <trkpt lat="42.53382" lon="2.46453">
        <ele>2151.6</ele>
        <time>2024-07-13T16:18:43Z</time>
      </trkpt>
      <trkpt lat="42.53395" lon="2.46459">
        <ele>2151.2</ele>
        <time>2024-07-13T16:18:53Z</time>
      </trkpt>
      <trkpt lat="42.53407" lon="2.4647">
        <ele>2149.6</ele>
        <time>2024-07-13T16:19:03Z</time>
      </trkpt>
      <trkpt lat="42.53416" lon="2.46481">
        <ele>2151</ele>
        <time>2024-07-13T16:19:13Z</time>
      </trkpt>
      <trkpt lat="42.53426" lon="2.46486">
        <ele>2152.2</ele>
        <time>2024-07-13T16:19:22Z</time>
      </trkpt>
      <trkpt lat="42.53438" lon="2.46489">
        <ele>2154.4</ele>
        <time>2024-07-13T16:19:31Z</time>
      </trkpt>
      <trkpt lat="42.53444" lon="2.46489">
        <ele>2154.8</ele>
        <time>2024-07-13T16:19:39Z</time>
      </trkpt>
      <trkpt lat="42.53449" lon="2.46491">
        <ele>2155</ele>
        <time>2024-07-13T16:19:46Z</time>
      </trkpt>
      <trkpt lat="42.53451" lon="2.46493">
        <ele>2155.4</ele>
        <time>2024-07-13T16:19:51Z</time>
      </trkpt>
      <trkpt lat="42.53448" lon="2.46497">
        <ele>2155.8</ele>
        <time>2024-07-13T16:19:56Z</time>
      </trkpt>
      <trkpt lat="42.53447" lon="2.46496">
        <ele>2156.2</ele>
        <time>2024-07-13T16:20:00Z</time>
      </trkpt>
      <trkpt lat="42.53445" lon="2.46493">
        <ele>2157.4</ele>
        <time>2024-07-13T16:20:05Z</time>
      </trkpt>
      <trkpt lat="42.53444" lon="2.46491">
        <ele>2158.4</ele>
        <time>2024-07-13T16:20:11Z</time>
      </trkpt>
      <trkpt lat="42.53444" lon="2.46492">
        <ele>2158.8</ele>
        <time>2024-07-13T16:20:16Z</time>
      </trkpt>
      <trkpt lat="42.53443" lon="2.46492">
        <ele>2160.2</ele>
        <time>2024-07-13T16:20:23Z</time>
      </trkpt>
      <trkpt lat="42.53444" lon="2.46491">
        <ele>2161.8</ele>
        <time>2024-07-13T16:20:32Z</time>
      </trkpt>
      <trkpt lat="42.53445" lon="2.46493">
        <ele>2149</ele>
        <time>2024-07-13T16:35:37Z</time>
      </trkpt>
      <trkpt lat="42.53442" lon="2.46495">
        <ele>2148.8</ele>
        <time>2024-07-13T16:49:46Z</time>
      </trkpt>
      <trkpt lat="42.53439" lon="2.46494">
        <ele>2159.6</ele>
        <time>2024-07-13T16:50:35Z</time>
      </trkpt>
      <trkpt lat="42.5344" lon="2.46493">
        <ele>2162.2</ele>
        <time>2024-07-13T16:51:52Z</time>
      </trkpt>
      <trkpt lat="42.53442" lon="2.46496">
        <ele>2161.4</ele>
        <time>2024-07-13T16:51:59Z</time>
      </trkpt>
      <trkpt lat="42.53442" lon="2.46492">
        <ele>2161.2</ele>
        <time>2024-07-13T16:52:06Z</time>
      </trkpt>
      <trkpt lat="42.53442" lon="2.4649">
        <ele>2161.6</ele>
        <time>2024-07-13T16:52:13Z</time>
      </trkpt>
      <trkpt lat="42.53441" lon="2.4649">
        <ele>2163</ele>
        <time>2024-07-13T16:52:23Z</time>
      </trkpt>
      <trkpt lat="42.53443" lon="2.46482">
        <ele>2166.6</ele>
        <time>2024-07-13T16:53:13Z</time>
      </trkpt>
      <trkpt lat="42.53444" lon="2.46479">
        <ele>2169.2</ele>
        <time>2024-07-13T16:53:19Z</time>
      </trkpt>
      <trkpt lat="42.53444" lon="2.4648">
        <ele>2170</ele>
        <time>2024-07-13T16:53:34Z</time>
      </trkpt>
      <trkpt lat="42.53441" lon="2.46478">
        <ele>2163.4</ele>
        <time>2024-07-13T16:54:03Z</time>
      </trkpt>
      <trkpt lat="42.53439" lon="2.46479">
        <ele>2163.6</ele>
        <time>2024-07-13T16:54:09Z</time>
      </trkpt>
      <trkpt lat="42.5344" lon="2.46479">
        <ele>2163</ele>
        <time>2024-07-13T16:54:17Z</time>
      </trkpt>
      <trkpt lat="42.53434" lon="2.46483">
        <ele>2173.4</ele>
        <time>2024-07-13T16:57:05Z</time>
      </trkpt>
      <trkpt lat="42.53422" lon="2.46492">
        <ele>2161</ele>
        <time>2024-07-13T16:57:15Z</time>
      </trkpt>
      <trkpt lat="42.53421" lon="2.46493">
        <ele>2160.4</ele>
        <time>2024-07-13T16:57:16Z</time>
      </trkpt>
      <trkpt lat="42.5342" lon="2.46503">
        <ele>2158.4</ele>
        <time>2024-07-13T16:57:22Z</time>
      </trkpt>
      <trkpt lat="42.53421" lon="2.46506">
        <ele>2158.2</ele>
        <time>2024-07-13T16:57:23Z</time>
      </trkpt>
      <trkpt lat="42.53424" lon="2.46511">
        <ele>2157.6</ele>
        <time>2024-07-13T16:57:27Z</time>
      </trkpt>
      <trkpt lat="42.53428" lon="2.46522">
        <ele>2156.8</ele>
        <time>2024-07-13T16:57:33Z</time>
      </trkpt>
      <trkpt lat="42.53428" lon="2.46524">
        <ele>2157</ele>
        <time>2024-07-13T16:57:34Z</time>
      </trkpt>
      <trkpt lat="42.53425" lon="2.46529">
        <ele>2157.2</ele>
        <time>2024-07-13T16:57:38Z</time>
      </trkpt>
      <trkpt lat="42.53416" lon="2.46535">
        <ele>2157</ele>
        <time>2024-07-13T16:57:45Z</time>
      </trkpt>
      <trkpt lat="42.53415" lon="2.46536">
        <ele>2156.8</ele>
        <time>2024-07-13T16:57:46Z</time>
      </trkpt>
      <trkpt lat="42.53408" lon="2.46545">
        <ele>2155.4</ele>
        <time>2024-07-13T16:57:52Z</time>
      </trkpt>
      <trkpt lat="42.53401" lon="2.46556">
        <ele>2154.4</ele>
        <time>2024-07-13T16:58:01Z</time>
      </trkpt>
      <trkpt lat="42.53398" lon="2.46565">
        <ele>2155.6</ele>
        <time>2024-07-13T16:58:06Z</time>
      </trkpt>
      <trkpt lat="42.53397" lon="2.46566">
        <ele>2155.8</ele>
        <time>2024-07-13T16:58:07Z</time>
      </trkpt>
      <trkpt lat="42.53392" lon="2.46569">
        <ele>2158</ele>
        <time>2024-07-13T16:58:11Z</time>
      </trkpt>
      <trkpt lat="42.53388" lon="2.46572">
        <ele>2158.8</ele>
        <time>2024-07-13T16:58:14Z</time>
      </trkpt>
      <trkpt lat="42.53386" lon="2.46575">
        <ele>2158.8</ele>
        <time>2024-07-13T16:58:16Z</time>
      </trkpt>
      <trkpt lat="42.53381" lon="2.4658">
        <ele>2158.8</ele>
        <time>2024-07-13T16:58:20Z</time>
      </trkpt>
      <trkpt lat="42.53367" lon="2.46589">
        <ele>2157.8</ele>
        <time>2024-07-13T16:58:31Z</time>
      </trkpt>
      <trkpt lat="42.53365" lon="2.46593">
        <ele>2157.2</ele>
        <time>2024-07-13T16:58:34Z</time>
      </trkpt>
      <trkpt lat="42.53361" lon="2.46597">
        <ele>2156.6</ele>
        <time>2024-07-13T16:58:38Z</time>
      </trkpt>
      <trkpt lat="42.53359" lon="2.46599">
        <ele>2156.8</ele>
        <time>2024-07-13T16:58:40Z</time>
      </trkpt>
      <trkpt lat="42.53357" lon="2.466">
        <ele>2156.8</ele>
        <time>2024-07-13T16:58:43Z</time>
      </trkpt>
      <trkpt lat="42.53353" lon="2.46603">
        <ele>2155.8</ele>
        <time>2024-07-13T16:58:49Z</time>
      </trkpt>
      <trkpt lat="42.53348" lon="2.46608">
        <ele>2156.4</ele>
        <time>2024-07-13T16:58:55Z</time>
      </trkpt>
      <trkpt lat="42.53341" lon="2.46612">
        <ele>2157.4</ele>
        <time>2024-07-13T16:59:01Z</time>
      </trkpt>
      <trkpt lat="42.5334" lon="2.46614">
        <ele>2157.6</ele>
        <time>2024-07-13T16:59:02Z</time>
      </trkpt>
      <trkpt lat="42.53331" lon="2.46623">
        <ele>2158.4</ele>
        <time>2024-07-13T16:59:08Z</time>
      </trkpt>
      <trkpt lat="42.53322" lon="2.46636">
        <ele>2157.4</ele>
        <time>2024-07-13T16:59:18Z</time>
      </trkpt>
      <trkpt lat="42.53316" lon="2.46645">
        <ele>2158.4</ele>
        <time>2024-07-13T16:59:27Z</time>
      </trkpt>
      <trkpt lat="42.53305" lon="2.46657">
        <ele>2160.6</ele>
        <time>2024-07-13T16:59:37Z</time>
      </trkpt>
      <trkpt lat="42.53301" lon="2.46661">
        <ele>2159.4</ele>
        <time>2024-07-13T16:59:42Z</time>
      </trkpt>
      <trkpt lat="42.53301" lon="2.46662">
        <ele>2159.4</ele>
        <time>2024-07-13T16:59:43Z</time>
      </trkpt>
      <trkpt lat="42.53296" lon="2.46671">
        <ele>2160</ele>
        <time>2024-07-13T16:59:50Z</time>
      </trkpt>
      <trkpt lat="42.53288" lon="2.46686">
        <ele>2164</ele>
        <time>2024-07-13T17:00:01Z</time>
      </trkpt>
      <trkpt lat="42.5328" lon="2.46691">
        <ele>2165.6</ele>
        <time>2024-07-13T17:00:09Z</time>
      </trkpt>
      <trkpt lat="42.53276" lon="2.46696">
        <ele>2167.6</ele>
        <time>2024-07-13T17:00:15Z</time>
      </trkpt>
      <trkpt lat="42.5327" lon="2.46701">
        <ele>2171.6</ele>
        <time>2024-07-13T17:00:23Z</time>
      </trkpt>
      <trkpt lat="42.53265" lon="2.46706">
        <ele>2172.6</ele>
        <time>2024-07-13T17:00:29Z</time>
      </trkpt>
      <trkpt lat="42.5326" lon="2.46713">
        <ele>2173.6</ele>
        <time>2024-07-13T17:00:35Z</time>
      </trkpt>
      <trkpt lat="42.53254" lon="2.4672">
        <ele>2174.6</ele>
        <time>2024-07-13T17:00:42Z</time>
      </trkpt>
      <trkpt lat="42.5325" lon="2.46724">
        <ele>2176.2</ele>
        <time>2024-07-13T17:00:47Z</time>
      </trkpt>
      <trkpt lat="42.53249" lon="2.46726">
        <ele>2177</ele>
        <time>2024-07-13T17:00:49Z</time>
      </trkpt>
      <trkpt lat="42.53248" lon="2.46732">
        <ele>2178</ele>
        <time>2024-07-13T17:00:53Z</time>
      </trkpt>
      <trkpt lat="42.53247" lon="2.46736">
        <ele>2178.2</ele>
        <time>2024-07-13T17:00:56Z</time>
      </trkpt>
      <trkpt lat="42.53246" lon="2.46739">
        <ele>2178.2</ele>
        <time>2024-07-13T17:00:58Z</time>
      </trkpt>
      <trkpt lat="42.53244" lon="2.46744">
        <ele>2178.4</ele>
        <time>2024-07-13T17:01:01Z</time>
      </trkpt>
      <trkpt lat="42.53244" lon="2.46746">
        <ele>2178.2</ele>
        <time>2024-07-13T17:01:02Z</time>
      </trkpt>
      <trkpt lat="42.53241" lon="2.46751">
        <ele>2177.6</ele>
        <time>2024-07-13T17:01:05Z</time>
      </trkpt>
      <trkpt lat="42.53235" lon="2.46767">
        <ele>2176.4</ele>
        <time>2024-07-13T17:01:14Z</time>
      </trkpt>
      <trkpt lat="42.53232" lon="2.46775">
        <ele>2176.6</ele>
        <time>2024-07-13T17:01:19Z</time>
      </trkpt>
      <trkpt lat="42.5323" lon="2.46779">
        <ele>2176.8</ele>
        <time>2024-07-13T17:01:22Z</time>
      </trkpt>
      <trkpt lat="42.53221" lon="2.46794">
        <ele>2177</ele>
        <time>2024-07-13T17:01:33Z</time>
      </trkpt>
      <trkpt lat="42.53217" lon="2.46808">
        <ele>2175.8</ele>
        <time>2024-07-13T17:01:43Z</time>
      </trkpt>
      <trkpt lat="42.53216" lon="2.46813">
        <ele>2175.2</ele>
        <time>2024-07-13T17:01:48Z</time>
      </trkpt>
      <trkpt lat="42.53216" lon="2.46815">
        <ele>2175.4</ele>
        <time>2024-07-13T17:01:49Z</time>
      </trkpt>
      <trkpt lat="42.53213" lon="2.46827">
        <ele>2178</ele>
        <time>2024-07-13T17:01:58Z</time>
      </trkpt>
      <trkpt lat="42.5321" lon="2.46837">
        <ele>2179.4</ele>
        <time>2024-07-13T17:02:05Z</time>
      </trkpt>
      <trkpt lat="42.5321" lon="2.46839">
        <ele>2179.6</ele>
        <time>2024-07-13T17:02:07Z</time>
      </trkpt>
      <trkpt lat="42.53209" lon="2.46843">
        <ele>2180</ele>
        <time>2024-07-13T17:02:10Z</time>
      </trkpt>
      <trkpt lat="42.53206" lon="2.46845">
        <ele>2180.6</ele>
        <time>2024-07-13T17:02:12Z</time>
      </trkpt>
      <trkpt lat="42.53205" lon="2.46849">
        <ele>2181</ele>
        <time>2024-07-13T17:02:14Z</time>
      </trkpt>
      <trkpt lat="42.53204" lon="2.46852">
        <ele>2181.4</ele>
        <time>2024-07-13T17:02:16Z</time>
      </trkpt>
      <trkpt lat="42.53203" lon="2.46866">
        <ele>2181.8</ele>
        <time>2024-07-13T17:02:23Z</time>
      </trkpt>
      <trkpt lat="42.53202" lon="2.46881">
        <ele>2181.8</ele>
        <time>2024-07-13T17:02:32Z</time>
      </trkpt>
      <trkpt lat="42.53201" lon="2.46887">
        <ele>2181.6</ele>
        <time>2024-07-13T17:02:35Z</time>
      </trkpt>
      <trkpt lat="42.532" lon="2.4689">
        <ele>2181.8</ele>
        <time>2024-07-13T17:02:37Z</time>
      </trkpt>
      <trkpt lat="42.53193" lon="2.46902">
        <ele>2182.8</ele>
        <time>2024-07-13T17:02:45Z</time>
      </trkpt>
      <trkpt lat="42.53184" lon="2.46917">
        <ele>2183.4</ele>
        <time>2024-07-13T17:02:55Z</time>
      </trkpt>
      <trkpt lat="42.53175" lon="2.4693">
        <ele>2184.2</ele>
        <time>2024-07-13T17:03:05Z</time>
      </trkpt>
      <trkpt lat="42.53169" lon="2.46939">
        <ele>2184.6</ele>
        <time>2024-07-13T17:03:12Z</time>
      </trkpt>
      <trkpt lat="42.53155" lon="2.46951">
        <ele>2183.4</ele>
        <time>2024-07-13T17:03:23Z</time>
      </trkpt>
      <trkpt lat="42.5314" lon="2.4696">
        <ele>2182.8</ele>
        <time>2024-07-13T17:03:34Z</time>
      </trkpt>
      <trkpt lat="42.5313" lon="2.46968">
        <ele>2182.6</ele>
        <time>2024-07-13T17:03:42Z</time>
      </trkpt>
      <trkpt lat="42.53117" lon="2.46976">
        <ele>2182.4</ele>
        <time>2024-07-13T17:03:51Z</time>
      </trkpt>
      <trkpt lat="42.53106" lon="2.46985">
        <ele>2182.4</ele>
        <time>2024-07-13T17:04:01Z</time>
      </trkpt>
      <trkpt lat="42.53096" lon="2.46995">
        <ele>2182.8</ele>
        <time>2024-07-13T17:04:10Z</time>
      </trkpt>
      <trkpt lat="42.53087" lon="2.4701">
        <ele>2182.2</ele>
        <time>2024-07-13T17:04:21Z</time>
      </trkpt>
      <trkpt lat="42.53086" lon="2.47013">
        <ele>2182.2</ele>
        <time>2024-07-13T17:04:23Z</time>
      </trkpt>
      <trkpt lat="42.53084" lon="2.47017">
        <ele>2182</ele>
        <time>2024-07-13T17:04:26Z</time>
      </trkpt>
      <trkpt lat="42.53083" lon="2.47021">
        <ele>2181.6</ele>
        <time>2024-07-13T17:04:28Z</time>
      </trkpt>
      <trkpt lat="42.53082" lon="2.47025">
        <ele>2181.2</ele>
        <time>2024-07-13T17:04:31Z</time>
      </trkpt>
      <trkpt lat="42.53075" lon="2.47034">
        <ele>2181.2</ele>
        <time>2024-07-13T17:04:38Z</time>
      </trkpt>
      <trkpt lat="42.53064" lon="2.47043">
        <ele>2182.6</ele>
        <time>2024-07-13T17:04:47Z</time>
      </trkpt>
      <trkpt lat="42.53055" lon="2.47047">
        <ele>2184.2</ele>
        <time>2024-07-13T17:04:54Z</time>
      </trkpt>
      <trkpt lat="42.53042" lon="2.47054">
        <ele>2185.2</ele>
        <time>2024-07-13T17:05:04Z</time>
      </trkpt>
      <trkpt lat="42.53031" lon="2.47066">
        <ele>2184.6</ele>
        <time>2024-07-13T17:05:14Z</time>
      </trkpt>
      <trkpt lat="42.53021" lon="2.47078">
        <ele>2184.6</ele>
        <time>2024-07-13T17:05:24Z</time>
      </trkpt>
      <trkpt lat="42.53016" lon="2.47094">
        <ele>2183.4</ele>
        <time>2024-07-13T17:05:33Z</time>
      </trkpt>
      <trkpt lat="42.5301" lon="2.47104">
        <ele>2182.8</ele>
        <time>2024-07-13T17:05:40Z</time>
      </trkpt>
      <trkpt lat="42.53005" lon="2.47119">
        <ele>2183.4</ele>
        <time>2024-07-13T17:05:51Z</time>
      </trkpt>
      <trkpt lat="42.53003" lon="2.47123">
        <ele>2182.2</ele>
        <time>2024-07-13T17:05:57Z</time>
      </trkpt>
      <trkpt lat="42.53003" lon="2.47123">
        <ele>2181.2</ele>
        <time>2024-07-13T17:06:05Z</time>
      </trkpt>
      <trkpt lat="42.52999" lon="2.4713">
        <ele>2181.4</ele>
        <time>2024-07-13T17:07:47Z</time>
      </trkpt>
      <trkpt lat="42.5299" lon="2.47146">
        <ele>2180</ele>
        <time>2024-07-13T17:07:55Z</time>
      </trkpt>
      <trkpt lat="42.52985" lon="2.47159">
        <ele>2178</ele>
        <time>2024-07-13T17:08:05Z</time>
      </trkpt>
      <trkpt lat="42.52978" lon="2.4717">
        <ele>2177.2</ele>
        <time>2024-07-13T17:08:14Z</time>
      </trkpt>
      <trkpt lat="42.52973" lon="2.47184">
        <ele>2175.8</ele>
        <time>2024-07-13T17:08:23Z</time>
      </trkpt>
      <trkpt lat="42.52968" lon="2.472">
        <ele>2175.2</ele>
        <time>2024-07-13T17:08:33Z</time>
      </trkpt>
      <trkpt lat="42.52964" lon="2.47221">
        <ele>2173.2</ele>
        <time>2024-07-13T17:08:45Z</time>
      </trkpt>
      <trkpt lat="42.52963" lon="2.47234">
        <ele>2172.8</ele>
        <time>2024-07-13T17:08:53Z</time>
      </trkpt>
      <trkpt lat="42.52958" lon="2.47248">
        <ele>2172.4</ele>
        <time>2024-07-13T17:09:03Z</time>
      </trkpt>
      <trkpt lat="42.52955" lon="2.47251">
        <ele>2171.2</ele>
        <time>2024-07-13T17:09:06Z</time>
      </trkpt>
      <trkpt lat="42.52954" lon="2.47252">
        <ele>2170</ele>
        <time>2024-07-13T17:09:08Z</time>
      </trkpt>
      <trkpt lat="42.52953" lon="2.47254">
        <ele>2168.8</ele>
        <time>2024-07-13T17:09:10Z</time>
      </trkpt>
      <trkpt lat="42.52955" lon="2.4726">
        <ele>2167.8</ele>
        <time>2024-07-13T17:09:14Z</time>
      </trkpt>
      <trkpt lat="42.52951" lon="2.47266">
        <ele>2168.4</ele>
        <time>2024-07-13T17:09:21Z</time>
      </trkpt>
      <trkpt lat="42.52952" lon="2.47267">
        <ele>2170</ele>
        <time>2024-07-13T17:09:33Z</time>
      </trkpt>
      <trkpt lat="42.52949" lon="2.47273">
        <ele>2171.2</ele>
        <time>2024-07-13T17:10:49Z</time>
      </trkpt>
      <trkpt lat="42.52941" lon="2.47289">
        <ele>2171</ele>
        <time>2024-07-13T17:10:57Z</time>
      </trkpt>
      <trkpt lat="42.52935" lon="2.47305">
        <ele>2170.6</ele>
        <time>2024-07-13T17:11:07Z</time>
      </trkpt>
      <trkpt lat="42.52928" lon="2.47319">
        <ele>2170.8</ele>
        <time>2024-07-13T17:11:16Z</time>
      </trkpt>
      <trkpt lat="42.52924" lon="2.47336">
        <ele>2169.4</ele>
        <time>2024-07-13T17:11:25Z</time>
      </trkpt>
      <trkpt lat="42.52922" lon="2.47339">
        <ele>2169.4</ele>
        <time>2024-07-13T17:11:27Z</time>
      </trkpt>
      <trkpt lat="42.52917" lon="2.47347">
        <ele>2168.8</ele>
        <time>2024-07-13T17:11:32Z</time>
      </trkpt>
      <trkpt lat="42.52913" lon="2.4736">
        <ele>2167.8</ele>
        <time>2024-07-13T17:11:40Z</time>
      </trkpt>
      <trkpt lat="42.52917" lon="2.47374">
        <ele>2166.8</ele>
        <time>2024-07-13T17:11:48Z</time>
      </trkpt>
      <trkpt lat="42.52916" lon="2.47381">
        <ele>2166.4</ele>
        <time>2024-07-13T17:11:52Z</time>
      </trkpt>
      <trkpt lat="42.52914" lon="2.47385">
        <ele>2166.4</ele>
        <time>2024-07-13T17:11:54Z</time>
      </trkpt>
      <trkpt lat="42.52915" lon="2.47389">
        <ele>2166.2</ele>
        <time>2024-07-13T17:11:57Z</time>
      </trkpt>
      <trkpt lat="42.52917" lon="2.47396">
        <ele>2166</ele>
        <time>2024-07-13T17:12:00Z</time>
      </trkpt>
      <trkpt lat="42.5292" lon="2.47409">
        <ele>2167</ele>
        <time>2024-07-13T17:12:09Z</time>
      </trkpt>
      <trkpt lat="42.5292" lon="2.47411">
        <ele>2167.2</ele>
        <time>2024-07-13T17:12:10Z</time>
      </trkpt>
      <trkpt lat="42.5292" lon="2.47415">
        <ele>2167.8</ele>
        <time>2024-07-13T17:12:12Z</time>
      </trkpt>
      <trkpt lat="42.5292" lon="2.47418">
        <ele>2168</ele>
        <time>2024-07-13T17:12:14Z</time>
      </trkpt>
      <trkpt lat="42.52921" lon="2.47425">
        <ele>2168.6</ele>
        <time>2024-07-13T17:12:18Z</time>
      </trkpt>
      <trkpt lat="42.52922" lon="2.47428">
        <ele>2168.6</ele>
        <time>2024-07-13T17:12:20Z</time>
      </trkpt>
      <trkpt lat="42.52923" lon="2.47429">
        <ele>2168.6</ele>
        <time>2024-07-13T17:12:21Z</time>
      </trkpt>
      <trkpt lat="42.52923" lon="2.4744">
        <ele>2167.8</ele>
        <time>2024-07-13T17:12:28Z</time>
      </trkpt>
      <trkpt lat="42.52926" lon="2.47453">
        <ele>2163.8</ele>
        <time>2024-07-13T17:12:36Z</time>
      </trkpt>
      <trkpt lat="42.52927" lon="2.47456">
        <ele>2163</ele>
        <time>2024-07-13T17:12:38Z</time>
      </trkpt>
      <trkpt lat="42.52931" lon="2.47459">
        <ele>2162.4</ele>
        <time>2024-07-13T17:12:42Z</time>
      </trkpt>
      <trkpt lat="42.52932" lon="2.47461">
        <ele>2162.6</ele>
        <time>2024-07-13T17:12:44Z</time>
      </trkpt>
      <trkpt lat="42.52935" lon="2.47467">
        <ele>2162.6</ele>
        <time>2024-07-13T17:12:48Z</time>
      </trkpt>
      <trkpt lat="42.52942" lon="2.47482">
        <ele>2160.8</ele>
        <time>2024-07-13T17:12:56Z</time>
      </trkpt>
      <trkpt lat="42.52946" lon="2.47496">
        <ele>2159</ele>
        <time>2024-07-13T17:13:03Z</time>
      </trkpt>
      <trkpt lat="42.52954" lon="2.47506">
        <ele>2157.2</ele>
        <time>2024-07-13T17:13:10Z</time>
      </trkpt>
      <trkpt lat="42.52967" lon="2.4752">
        <ele>2156.8</ele>
        <time>2024-07-13T17:13:22Z</time>
      </trkpt>
      <trkpt lat="42.52971" lon="2.47522">
        <ele>2156.2</ele>
        <time>2024-07-13T17:13:26Z</time>
      </trkpt>
      <trkpt lat="42.52973" lon="2.47524">
        <ele>2155.2</ele>
        <time>2024-07-13T17:13:28Z</time>
      </trkpt>
      <trkpt lat="42.52983" lon="2.47531">
        <ele>2150.8</ele>
        <time>2024-07-13T17:13:37Z</time>
      </trkpt>
      <trkpt lat="42.52993" lon="2.47537">
        <ele>2148.4</ele>
        <time>2024-07-13T17:13:45Z</time>
      </trkpt>
      <trkpt lat="42.52997" lon="2.47544">
        <ele>2148.6</ele>
        <time>2024-07-13T17:13:52Z</time>
      </trkpt>
      <trkpt lat="42.53001" lon="2.47549">
        <ele>2149.4</ele>
        <time>2024-07-13T17:13:57Z</time>
      </trkpt>
      <trkpt lat="42.53003" lon="2.47549">
        <ele>2149.6</ele>
        <time>2024-07-13T17:13:58Z</time>
      </trkpt>
      <trkpt lat="42.53009" lon="2.47549">
        <ele>2149.8</ele>
        <time>2024-07-13T17:14:05Z</time>
      </trkpt>
      <trkpt lat="42.5301" lon="2.4755">
        <ele>2150.2</ele>
        <time>2024-07-13T17:14:07Z</time>
      </trkpt>
      <trkpt lat="42.53011" lon="2.47552">
        <ele>2151.4</ele>
        <time>2024-07-13T17:14:10Z</time>
      </trkpt>
      <trkpt lat="42.53015" lon="2.47558">
        <ele>2154.8</ele>
        <time>2024-07-13T17:14:16Z</time>
      </trkpt>
      <trkpt lat="42.53017" lon="2.47558">
        <ele>2156</ele>
        <time>2024-07-13T17:14:18Z</time>
      </trkpt>
      <trkpt lat="42.53021" lon="2.47556">
        <ele>2159</ele>
        <time>2024-07-13T17:14:22Z</time>
      </trkpt>
      <trkpt lat="42.53022" lon="2.47555">
        <ele>2159.6</ele>
        <time>2024-07-13T17:14:23Z</time>
      </trkpt>
      <trkpt lat="42.53024" lon="2.47554">
        <ele>2160.8</ele>
        <time>2024-07-13T17:14:25Z</time>
      </trkpt>
      <trkpt lat="42.53026" lon="2.47555">
        <ele>2161.4</ele>
        <time>2024-07-13T17:14:27Z</time>
      </trkpt>
      <trkpt lat="42.53031" lon="2.47557">
        <ele>2162.4</ele>
        <time>2024-07-13T17:14:34Z</time>
      </trkpt>
      <trkpt lat="42.53037" lon="2.47566">
        <ele>2163.4</ele>
        <time>2024-07-13T17:14:42Z</time>
      </trkpt>
      <trkpt lat="42.53042" lon="2.47572">
        <ele>2162</ele>
        <time>2024-07-13T17:14:50Z</time>
      </trkpt>
      <trkpt lat="42.53048" lon="2.47579">
        <ele>2160</ele>
        <time>2024-07-13T17:14:59Z</time>
      </trkpt>
      <trkpt lat="42.53052" lon="2.47581">
        <ele>2158.2</ele>
        <time>2024-07-13T17:15:05Z</time>
      </trkpt>
      <trkpt lat="42.53055" lon="2.47587">
        <ele>2157.4</ele>
        <time>2024-07-13T17:15:10Z</time>
      </trkpt>
      <trkpt lat="42.53058" lon="2.47589">
        <ele>2156.4</ele>
        <time>2024-07-13T17:15:13Z</time>
      </trkpt>
      <trkpt lat="42.53061" lon="2.47591">
        <ele>2155</ele>
        <time>2024-07-13T17:15:17Z</time>
      </trkpt>
      <trkpt lat="42.53065" lon="2.47596">
        <ele>2154.2</ele>
        <time>2024-07-13T17:15:22Z</time>
      </trkpt>
      <trkpt lat="42.53066" lon="2.47599">
        <ele>2154</ele>
        <time>2024-07-13T17:15:25Z</time>
      </trkpt>
      <trkpt lat="42.53067" lon="2.47599">
        <ele>2154.6</ele>
        <time>2024-07-13T17:15:31Z</time>
      </trkpt>
      <trkpt lat="42.53066" lon="2.476">
        <ele>2155.4</ele>
        <time>2024-07-13T17:16:05Z</time>
      </trkpt>
      <trkpt lat="42.5307" lon="2.47611">
        <ele>2154.6</ele>
        <time>2024-07-13T17:16:11Z</time>
      </trkpt>
      <trkpt lat="42.5307" lon="2.47612">
        <ele>2154.2</ele>
        <time>2024-07-13T17:16:12Z</time>
      </trkpt>
      <trkpt lat="42.5307" lon="2.4762">
        <ele>2152.4</ele>
        <time>2024-07-13T17:16:18Z</time>
      </trkpt>
      <trkpt lat="42.53071" lon="2.47625">
        <ele>2153.2</ele>
        <time>2024-07-13T17:16:24Z</time>
      </trkpt>
      <trkpt lat="42.53074" lon="2.4763">
        <ele>2155.8</ele>
        <time>2024-07-13T17:16:32Z</time>
      </trkpt>
      <trkpt lat="42.53073" lon="2.47633">
        <ele>2157.4</ele>
        <time>2024-07-13T17:16:39Z</time>
      </trkpt>
      <trkpt lat="42.53073" lon="2.47636">
        <ele>2159.2</ele>
        <time>2024-07-13T17:16:45Z</time>
      </trkpt>
      <trkpt lat="42.53075" lon="2.47638">
        <ele>2159.8</ele>
        <time>2024-07-13T17:16:49Z</time>
      </trkpt>
      <trkpt lat="42.53075" lon="2.47645">
        <ele>2162.2</ele>
        <time>2024-07-13T17:16:57Z</time>
      </trkpt>
      <trkpt lat="42.53075" lon="2.47648">
        <ele>2162.2</ele>
        <time>2024-07-13T17:17:02Z</time>
      </trkpt>
      <trkpt lat="42.53075" lon="2.47647">
        <ele>2161.6</ele>
        <time>2024-07-13T17:17:08Z</time>
      </trkpt>
      <trkpt lat="42.53076" lon="2.47647">
        <ele>2161</ele>
        <time>2024-07-13T17:17:15Z</time>
      </trkpt>
      <trkpt lat="42.53076" lon="2.47647">
        <ele>2160.6</ele>
        <time>2024-07-13T17:17:37Z</time>
      </trkpt>
      <trkpt lat="42.53072" lon="2.47648">
        <ele>2173.4</ele>
        <time>2024-07-13T17:25:30Z</time>
      </trkpt>
      <trkpt lat="42.5307" lon="2.4766">
        <ele>2170.2</ele>
        <time>2024-07-13T17:25:38Z</time>
      </trkpt>
      <trkpt lat="42.53071" lon="2.4767">
        <ele>2169</ele>
        <time>2024-07-13T17:25:47Z</time>
      </trkpt>
      <trkpt lat="42.53075" lon="2.47681">
        <ele>2169.4</ele>
        <time>2024-07-13T17:25:56Z</time>
      </trkpt>
      <trkpt lat="42.53074" lon="2.47683">
        <ele>2169.4</ele>
        <time>2024-07-13T17:25:57Z</time>
      </trkpt>
      <trkpt lat="42.53073" lon="2.47685">
        <ele>2170</ele>
        <time>2024-07-13T17:26:01Z</time>
      </trkpt>
      <trkpt lat="42.53074" lon="2.47692">
        <ele>2171.2</ele>
        <time>2024-07-13T17:26:09Z</time>
      </trkpt>
      <trkpt lat="42.53074" lon="2.47699">
        <ele>2171.2</ele>
        <time>2024-07-13T17:26:18Z</time>
      </trkpt>
      <trkpt lat="42.53074" lon="2.47707">
        <ele>2170.4</ele>
        <time>2024-07-13T17:26:26Z</time>
      </trkpt>
      <trkpt lat="42.53074" lon="2.47716">
        <ele>2171.4</ele>
        <time>2024-07-13T17:26:33Z</time>
      </trkpt>
      <trkpt lat="42.53074" lon="2.47727">
        <ele>2171.6</ele>
        <time>2024-07-13T17:26:42Z</time>
      </trkpt>
      <trkpt lat="42.53074" lon="2.47736">
        <ele>2169.6</ele>
        <time>2024-07-13T17:26:49Z</time>
      </trkpt>
      <trkpt lat="42.53078" lon="2.47748">
        <ele>2168.2</ele>
        <time>2024-07-13T17:26:58Z</time>
      </trkpt>
      <trkpt lat="42.53078" lon="2.47758">
        <ele>2169</ele>
        <time>2024-07-13T17:27:05Z</time>
      </trkpt>
      <trkpt lat="42.53078" lon="2.47759">
        <ele>2169.2</ele>
        <time>2024-07-13T17:27:06Z</time>
      </trkpt>
      <trkpt lat="42.5308" lon="2.47767">
        <ele>2170.2</ele>
        <time>2024-07-13T17:27:11Z</time>
      </trkpt>
      <trkpt lat="42.53079" lon="2.47775">
        <ele>2170.4</ele>
        <time>2024-07-13T17:27:17Z</time>
      </trkpt>
      <trkpt lat="42.53077" lon="2.47783">
        <ele>2170.4</ele>
        <time>2024-07-13T17:27:23Z</time>
      </trkpt>
      <trkpt lat="42.53077" lon="2.47786">
        <ele>2170.4</ele>
        <time>2024-07-13T17:27:24Z</time>
      </trkpt>
      <trkpt lat="42.53077" lon="2.47795">
        <ele>2169.4</ele>
        <time>2024-07-13T17:27:29Z</time>
      </trkpt>
      <trkpt lat="42.53077" lon="2.47799">
        <ele>2169.6</ele>
        <time>2024-07-13T17:27:31Z</time>
      </trkpt>
      <trkpt lat="42.53075" lon="2.47802">
        <ele>2169.8</ele>
        <time>2024-07-13T17:27:33Z</time>
      </trkpt>
      <trkpt lat="42.53074" lon="2.47807">
        <ele>2170.2</ele>
        <time>2024-07-13T17:27:36Z</time>
      </trkpt>
      <trkpt lat="42.53074" lon="2.4781">
        <ele>2170.2</ele>
        <time>2024-07-13T17:27:38Z</time>
      </trkpt>
      <trkpt lat="42.53074" lon="2.47811">
        <ele>2170.2</ele>
        <time>2024-07-13T17:27:39Z</time>
      </trkpt>
      <trkpt lat="42.53073" lon="2.47817">
        <ele>2170.4</ele>
        <time>2024-07-13T17:27:44Z</time>
      </trkpt>
      <trkpt lat="42.53073" lon="2.47819">
        <ele>2170.2</ele>
        <time>2024-07-13T17:27:46Z</time>
      </trkpt>
      <trkpt lat="42.53075" lon="2.47825">
        <ele>2169.8</ele>
        <time>2024-07-13T17:27:50Z</time>
      </trkpt>
      <trkpt lat="42.53075" lon="2.47829">
        <ele>2170</ele>
        <time>2024-07-13T17:27:52Z</time>
      </trkpt>
      <trkpt lat="42.53073" lon="2.47837">
        <ele>2171.4</ele>
        <time>2024-07-13T17:27:56Z</time>
      </trkpt>
      <trkpt lat="42.53072" lon="2.47838">
        <ele>2171.8</ele>
        <time>2024-07-13T17:27:57Z</time>
      </trkpt>
      <trkpt lat="42.53071" lon="2.4784">
        <ele>2172.2</ele>
        <time>2024-07-13T17:27:59Z</time>
      </trkpt>
      <trkpt lat="42.5307" lon="2.47845">
        <ele>2172.4</ele>
        <time>2024-07-13T17:28:02Z</time>
      </trkpt>
      <trkpt lat="42.53069" lon="2.47847">
        <ele>2172.4</ele>
        <time>2024-07-13T17:28:03Z</time>
      </trkpt>
      <trkpt lat="42.53066" lon="2.47858">
        <ele>2170.4</ele>
        <time>2024-07-13T17:28:10Z</time>
      </trkpt>
      <trkpt lat="42.5306" lon="2.47872">
        <ele>2165</ele>
        <time>2024-07-13T17:28:20Z</time>
      </trkpt>
      <trkpt lat="42.53054" lon="2.47884">
        <ele>2161.4</ele>
        <time>2024-07-13T17:28:29Z</time>
      </trkpt>
      <trkpt lat="42.53042" lon="2.47895">
        <ele>2159.4</ele>
        <time>2024-07-13T17:28:39Z</time>
      </trkpt>
      <trkpt lat="42.53033" lon="2.47904">
        <ele>2159.4</ele>
        <time>2024-07-13T17:28:48Z</time>
      </trkpt>
      <trkpt lat="42.53028" lon="2.47914">
        <ele>2159.4</ele>
        <time>2024-07-13T17:28:56Z</time>
      </trkpt>
      <trkpt lat="42.53021" lon="2.47928">
        <ele>2158.4</ele>
        <time>2024-07-13T17:29:06Z</time>
      </trkpt>
      <trkpt lat="42.53014" lon="2.47936">
        <ele>2159.4</ele>
        <time>2024-07-13T17:29:13Z</time>
      </trkpt>
      <trkpt lat="42.53014" lon="2.47937">
        <ele>2159.6</ele>
        <time>2024-07-13T17:29:14Z</time>
      </trkpt>
      <trkpt lat="42.53015" lon="2.47942">
        <ele>2159.6</ele>
        <time>2024-07-13T17:29:17Z</time>
      </trkpt>
      <trkpt lat="42.53014" lon="2.47943">
        <ele>2159.8</ele>
        <time>2024-07-13T17:29:18Z</time>
      </trkpt>
      <trkpt lat="42.5301" lon="2.47949">
        <ele>2159.8</ele>
        <time>2024-07-13T17:29:22Z</time>
      </trkpt>
      <trkpt lat="42.53008" lon="2.47955">
        <ele>2158.4</ele>
        <time>2024-07-13T17:29:27Z</time>
      </trkpt>
      <trkpt lat="42.53003" lon="2.47969">
        <ele>2156.2</ele>
        <time>2024-07-13T17:29:37Z</time>
      </trkpt>
      <trkpt lat="42.52997" lon="2.47982">
        <ele>2154.6</ele>
        <time>2024-07-13T17:29:47Z</time>
      </trkpt>
      <trkpt lat="42.52994" lon="2.47993">
        <ele>2151.6</ele>
        <time>2024-07-13T17:29:55Z</time>
      </trkpt>
      <trkpt lat="42.52991" lon="2.48002">
        <ele>2149.6</ele>
        <time>2024-07-13T17:30:01Z</time>
      </trkpt>
      <trkpt lat="42.52985" lon="2.48012">
        <ele>2147.4</ele>
        <time>2024-07-13T17:30:09Z</time>
      </trkpt>
      <trkpt lat="42.52984" lon="2.48014">
        <ele>2147.2</ele>
        <time>2024-07-13T17:30:10Z</time>
      </trkpt>
      <trkpt lat="42.52982" lon="2.48017">
        <ele>2146.8</ele>
        <time>2024-07-13T17:30:12Z</time>
      </trkpt>
      <trkpt lat="42.52981" lon="2.48023">
        <ele>2146.2</ele>
        <time>2024-07-13T17:30:15Z</time>
      </trkpt>
      <trkpt lat="42.52977" lon="2.48035">
        <ele>2144.8</ele>
        <time>2024-07-13T17:30:22Z</time>
      </trkpt>
      <trkpt lat="42.52971" lon="2.48048">
        <ele>2143.2</ele>
        <time>2024-07-13T17:30:30Z</time>
      </trkpt>
      <trkpt lat="42.52967" lon="2.48058">
        <ele>2142</ele>
        <time>2024-07-13T17:30:37Z</time>
      </trkpt>
      <trkpt lat="42.52965" lon="2.48063">
        <ele>2141.8</ele>
        <time>2024-07-13T17:30:43Z</time>
      </trkpt>
      <trkpt lat="42.52963" lon="2.48073">
        <ele>2142</ele>
        <time>2024-07-13T17:30:50Z</time>
      </trkpt>
      <trkpt lat="42.52961" lon="2.48087">
        <ele>2141.6</ele>
        <time>2024-07-13T17:30:58Z</time>
      </trkpt>
      <trkpt lat="42.5296" lon="2.48093">
        <ele>2140.4</ele>
        <time>2024-07-13T17:31:02Z</time>
      </trkpt>
      <trkpt lat="42.5296" lon="2.48097">
        <ele>2140</ele>
        <time>2024-07-13T17:31:04Z</time>
      </trkpt>
      <trkpt lat="42.5296" lon="2.48099">
        <ele>2140.2</ele>
        <time>2024-07-13T17:31:07Z</time>
      </trkpt>
      <trkpt lat="42.52962" lon="2.48102">
        <ele>2140.4</ele>
        <time>2024-07-13T17:31:10Z</time>
      </trkpt>
      <trkpt lat="42.52962" lon="2.48107">
        <ele>2140.2</ele>
        <time>2024-07-13T17:31:13Z</time>
      </trkpt>
      <trkpt lat="42.52961" lon="2.48109">
        <ele>2139.6</ele>
        <time>2024-07-13T17:31:16Z</time>
      </trkpt>
      <trkpt lat="42.52962" lon="2.48123">
        <ele>2138.6</ele>
        <time>2024-07-13T17:31:24Z</time>
      </trkpt>
      <trkpt lat="42.52961" lon="2.48127">
        <ele>2138.2</ele>
        <time>2024-07-13T17:31:26Z</time>
      </trkpt>
      <trkpt lat="42.52961" lon="2.48134">
        <ele>2137.8</ele>
        <time>2024-07-13T17:31:30Z</time>
      </trkpt>
      <trkpt lat="42.52961" lon="2.48136">
        <ele>2137.2</ele>
        <time>2024-07-13T17:31:33Z</time>
      </trkpt>
      <trkpt lat="42.52962" lon="2.48137">
        <ele>2136.2</ele>
        <time>2024-07-13T17:31:36Z</time>
      </trkpt>
      <trkpt lat="42.52963" lon="2.48139">
        <ele>2135.8</ele>
        <time>2024-07-13T17:31:37Z</time>
      </trkpt>
      <trkpt lat="42.52962" lon="2.48144">
        <ele>2134.6</ele>
        <time>2024-07-13T17:31:40Z</time>
      </trkpt>
      <trkpt lat="42.52962" lon="2.48146">
        <ele>2134</ele>
        <time>2024-07-13T17:31:42Z</time>
      </trkpt>
      <trkpt lat="42.5296" lon="2.48154">
        <ele>2131.4</ele>
        <time>2024-07-13T17:31:49Z</time>
      </trkpt>
      <trkpt lat="42.52961" lon="2.48155">
        <ele>2131.2</ele>
        <time>2024-07-13T17:31:50Z</time>
      </trkpt>
      <trkpt lat="42.5296" lon="2.48158">
        <ele>2131</ele>
        <time>2024-07-13T17:31:52Z</time>
      </trkpt>
      <trkpt lat="42.52959" lon="2.48165">
        <ele>2128.8</ele>
        <time>2024-07-13T17:31:57Z</time>
      </trkpt>
      <trkpt lat="42.52959" lon="2.48168">
        <ele>2128</ele>
        <time>2024-07-13T17:32:00Z</time>
      </trkpt>
      <trkpt lat="42.52959" lon="2.4817">
        <ele>2127.6</ele>
        <time>2024-07-13T17:32:03Z</time>
      </trkpt>
      <trkpt lat="42.52961" lon="2.48176">
        <ele>2126.8</ele>
        <time>2024-07-13T17:32:09Z</time>
      </trkpt>
      <trkpt lat="42.5296" lon="2.48178">
        <ele>2126.6</ele>
        <time>2024-07-13T17:32:10Z</time>
      </trkpt>
      <trkpt lat="42.52961" lon="2.48183">
        <ele>2125.4</ele>
        <time>2024-07-13T17:32:14Z</time>
      </trkpt>
      <trkpt lat="42.52961" lon="2.48185">
        <ele>2124.8</ele>
        <time>2024-07-13T17:32:16Z</time>
      </trkpt>
      <trkpt lat="42.5296" lon="2.48188">
        <ele>2124.4</ele>
        <time>2024-07-13T17:32:17Z</time>
      </trkpt>
      <trkpt lat="42.5296" lon="2.48196">
        <ele>2123</ele>
        <time>2024-07-13T17:32:21Z</time>
      </trkpt>
      <trkpt lat="42.52961" lon="2.48202">
        <ele>2121.2</ele>
        <time>2024-07-13T17:32:28Z</time>
      </trkpt>
      <trkpt lat="42.52961" lon="2.48208">
        <ele>2121</ele>
        <time>2024-07-13T17:32:33Z</time>
      </trkpt>
      <trkpt lat="42.5296" lon="2.48211">
        <ele>2120.8</ele>
        <time>2024-07-13T17:32:35Z</time>
      </trkpt>
      <trkpt lat="42.52958" lon="2.48218">
        <ele>2119.8</ele>
        <time>2024-07-13T17:32:40Z</time>
      </trkpt>
      <trkpt lat="42.52953" lon="2.48231">
        <ele>2118.2</ele>
        <time>2024-07-13T17:32:48Z</time>
      </trkpt>
      <trkpt lat="42.52947" lon="2.48245">
        <ele>2116.6</ele>
        <time>2024-07-13T17:32:57Z</time>
      </trkpt>
      <trkpt lat="42.52944" lon="2.48249">
        <ele>2115.6</ele>
        <time>2024-07-13T17:33:01Z</time>
      </trkpt>
      <trkpt lat="42.52945" lon="2.48251">
        <ele>2115</ele>
        <time>2024-07-13T17:33:03Z</time>
      </trkpt>
      <trkpt lat="42.52947" lon="2.48252">
        <ele>2114.2</ele>
        <time>2024-07-13T17:33:05Z</time>
      </trkpt>
      <trkpt lat="42.52951" lon="2.48255">
        <ele>2113.2</ele>
        <time>2024-07-13T17:33:09Z</time>
      </trkpt>
      <trkpt lat="42.52953" lon="2.48259">
        <ele>2112.2</ele>
        <time>2024-07-13T17:33:13Z</time>
      </trkpt>
      <trkpt lat="42.52955" lon="2.4826">
        <ele>2112</ele>
        <time>2024-07-13T17:33:15Z</time>
      </trkpt>
      <trkpt lat="42.52958" lon="2.48261">
        <ele>2111.8</ele>
        <time>2024-07-13T17:33:18Z</time>
      </trkpt>
      <trkpt lat="42.52962" lon="2.48262">
        <ele>2111.6</ele>
        <time>2024-07-13T17:33:21Z</time>
      </trkpt>
      <trkpt lat="42.52964" lon="2.48268">
        <ele>2110.2</ele>
        <time>2024-07-13T17:33:26Z</time>
      </trkpt>
      <trkpt lat="42.52962" lon="2.48281">
        <ele>2106.2</ele>
        <time>2024-07-13T17:33:33Z</time>
      </trkpt>
      <trkpt lat="42.52966" lon="2.48296">
        <ele>2103.2</ele>
        <time>2024-07-13T17:33:41Z</time>
      </trkpt>
      <trkpt lat="42.52967" lon="2.48302">
        <ele>2101.8</ele>
        <time>2024-07-13T17:33:46Z</time>
      </trkpt>
      <trkpt lat="42.52967" lon="2.48304">
        <ele>2101.6</ele>
        <time>2024-07-13T17:33:47Z</time>
      </trkpt>
      <trkpt lat="42.5296" lon="2.48315">
        <ele>2099.4</ele>
        <time>2024-07-13T17:33:56Z</time>
      </trkpt>
      <trkpt lat="42.52952" lon="2.48324">
        <ele>2097</ele>
        <time>2024-07-13T17:34:04Z</time>
      </trkpt>
      <trkpt lat="42.5294" lon="2.48331">
        <ele>2093.2</ele>
        <time>2024-07-13T17:34:13Z</time>
      </trkpt>
      <trkpt lat="42.5293" lon="2.48335">
        <ele>2091.4</ele>
        <time>2024-07-13T17:34:21Z</time>
      </trkpt>
      <trkpt lat="42.52921" lon="2.48337">
        <ele>2088.4</ele>
        <time>2024-07-13T17:34:28Z</time>
      </trkpt>
      <trkpt lat="42.52917" lon="2.48338">
        <ele>2087.2</ele>
        <time>2024-07-13T17:34:32Z</time>
      </trkpt>
      <trkpt lat="42.52915" lon="2.4834">
        <ele>2086.8</ele>
        <time>2024-07-13T17:34:34Z</time>
      </trkpt>
      <trkpt lat="42.52909" lon="2.48342">
        <ele>2086.2</ele>
        <time>2024-07-13T17:34:39Z</time>
      </trkpt>
      <trkpt lat="42.52907" lon="2.48343">
        <ele>2085.6</ele>
        <time>2024-07-13T17:34:42Z</time>
      </trkpt>
      <trkpt lat="42.52906" lon="2.48344">
        <ele>2085.4</ele>
        <time>2024-07-13T17:34:43Z</time>
      </trkpt>
      <trkpt lat="42.52902" lon="2.48345">
        <ele>2084.2</ele>
        <time>2024-07-13T17:34:47Z</time>
      </trkpt>
      <trkpt lat="42.52897" lon="2.48348">
        <ele>2082.6</ele>
        <time>2024-07-13T17:34:51Z</time>
      </trkpt>
      <trkpt lat="42.52885" lon="2.48351">
        <ele>2080.8</ele>
        <time>2024-07-13T17:35:01Z</time>
      </trkpt>
      <trkpt lat="42.52875" lon="2.48354">
        <ele>2081.4</ele>
        <time>2024-07-13T17:35:09Z</time>
      </trkpt>
      <trkpt lat="42.52865" lon="2.48357">
        <ele>2080.2</ele>
        <time>2024-07-13T17:35:18Z</time>
      </trkpt>
      <trkpt lat="42.52856" lon="2.48357">
        <ele>2078.2</ele>
        <time>2024-07-13T17:35:26Z</time>
      </trkpt>
      <trkpt lat="42.52845" lon="2.48356">
        <ele>2076</ele>
        <time>2024-07-13T17:35:34Z</time>
      </trkpt>
      <trkpt lat="42.52842" lon="2.48355">
        <ele>2075.6</ele>
        <time>2024-07-13T17:35:36Z</time>
      </trkpt>
      <trkpt lat="42.52838" lon="2.48352">
        <ele>2075.2</ele>
        <time>2024-07-13T17:35:40Z</time>
      </trkpt>
      <trkpt lat="42.52828" lon="2.48351">
        <ele>2074</ele>
        <time>2024-07-13T17:35:49Z</time>
      </trkpt>
      <trkpt lat="42.5282" lon="2.48347">
        <ele>2073</ele>
        <time>2024-07-13T17:35:57Z</time>
      </trkpt>
      <trkpt lat="42.52812" lon="2.48348">
        <ele>2073.2</ele>
        <time>2024-07-13T17:36:03Z</time>
      </trkpt>
      <trkpt lat="42.5281" lon="2.48346">
        <ele>2072.8</ele>
        <time>2024-07-13T17:36:05Z</time>
      </trkpt>
      <trkpt lat="42.52803" lon="2.48341">
        <ele>2072.8</ele>
        <time>2024-07-13T17:36:14Z</time>
      </trkpt>
      <trkpt lat="42.52797" lon="2.4834">
        <ele>2073.6</ele>
        <time>2024-07-13T17:36:20Z</time>
      </trkpt>
      <trkpt lat="42.52788" lon="2.4834">
        <ele>2072.2</ele>
        <time>2024-07-13T17:36:27Z</time>
      </trkpt>
      <trkpt lat="42.52786" lon="2.4834">
        <ele>2072</ele>
        <time>2024-07-13T17:36:29Z</time>
      </trkpt>
      <trkpt lat="42.52781" lon="2.4834">
        <ele>2071.6</ele>
        <time>2024-07-13T17:36:33Z</time>
      </trkpt>
      <trkpt lat="42.5277" lon="2.48336">
        <ele>2071.6</ele>
        <time>2024-07-13T17:36:43Z</time>
      </trkpt>
      <trkpt lat="42.52761" lon="2.48335">
        <ele>2073</ele>
        <time>2024-07-13T17:36:53Z</time>
      </trkpt>
      <trkpt lat="42.52754" lon="2.48337">
        <ele>2073.4</ele>
        <time>2024-07-13T17:37:00Z</time>
      </trkpt>
      <trkpt lat="42.52746" lon="2.48339">
        <ele>2071.8</ele>
        <time>2024-07-13T17:37:07Z</time>
      </trkpt>
      <trkpt lat="42.52737" lon="2.48342">
        <ele>2070.8</ele>
        <time>2024-07-13T17:37:16Z</time>
      </trkpt>
      <trkpt lat="42.52726" lon="2.48346">
        <ele>2069.8</ele>
        <time>2024-07-13T17:37:26Z</time>
      </trkpt>
      <trkpt lat="42.52723" lon="2.48348">
        <ele>2070.2</ele>
        <time>2024-07-13T17:37:33Z</time>
      </trkpt>
      <trkpt lat="42.52721" lon="2.48348">
        <ele>2070.2</ele>
        <time>2024-07-13T17:37:35Z</time>
      </trkpt>
      <trkpt lat="42.52717" lon="2.48349">
        <ele>2070.2</ele>
        <time>2024-07-13T17:37:38Z</time>
      </trkpt>
      <trkpt lat="42.52714" lon="2.48351">
        <ele>2070.4</ele>
        <time>2024-07-13T17:37:41Z</time>
      </trkpt>
      <trkpt lat="42.52709" lon="2.48357">
        <ele>2070.6</ele>
        <time>2024-07-13T17:37:47Z</time>
      </trkpt>
      <trkpt lat="42.52701" lon="2.48364">
        <ele>2070.6</ele>
        <time>2024-07-13T17:37:54Z</time>
      </trkpt>
      <trkpt lat="42.52689" lon="2.48372">
        <ele>2071.4</ele>
        <time>2024-07-13T17:38:04Z</time>
      </trkpt>
      <trkpt lat="42.5268" lon="2.48382">
        <ele>2069.8</ele>
        <time>2024-07-13T17:38:14Z</time>
      </trkpt>
      <trkpt lat="42.52674" lon="2.48386">
        <ele>2069.2</ele>
        <time>2024-07-13T17:38:20Z</time>
      </trkpt>
      <trkpt lat="42.52673" lon="2.48386">
        <ele>2069.2</ele>
        <time>2024-07-13T17:38:21Z</time>
      </trkpt>
      <trkpt lat="42.52671" lon="2.48388">
        <ele>2069.8</ele>
        <time>2024-07-13T17:38:23Z</time>
      </trkpt>
      <trkpt lat="42.52669" lon="2.48388">
        <ele>2070.2</ele>
        <time>2024-07-13T17:38:25Z</time>
      </trkpt>
      <trkpt lat="42.52667" lon="2.4839">
        <ele>2070.4</ele>
        <time>2024-07-13T17:38:27Z</time>
      </trkpt>
      <trkpt lat="42.52659" lon="2.48392">
        <ele>2070.4</ele>
        <time>2024-07-13T17:38:35Z</time>
      </trkpt>
      <trkpt lat="42.52658" lon="2.48391">
        <ele>2070.2</ele>
        <time>2024-07-13T17:38:40Z</time>
      </trkpt>
      <trkpt lat="42.52653" lon="2.48396">
        <ele>2069.8</ele>
        <time>2024-07-13T17:38:47Z</time>
      </trkpt>
      <trkpt lat="42.52644" lon="2.48403">
        <ele>2069</ele>
        <time>2024-07-13T17:38:54Z</time>
      </trkpt>
      <trkpt lat="42.52636" lon="2.48412">
        <ele>2070.6</ele>
        <time>2024-07-13T17:39:02Z</time>
      </trkpt>
      <trkpt lat="42.52626" lon="2.4842">
        <ele>2070.4</ele>
        <time>2024-07-13T17:39:11Z</time>
      </trkpt>
      <trkpt lat="42.5262" lon="2.48427">
        <ele>2069.6</ele>
        <time>2024-07-13T17:39:18Z</time>
      </trkpt>
      <trkpt lat="42.52615" lon="2.48437">
        <ele>2067.4</ele>
        <time>2024-07-13T17:39:25Z</time>
      </trkpt>
      <trkpt lat="42.52605" lon="2.48443">
        <ele>2065.6</ele>
        <time>2024-07-13T17:39:35Z</time>
      </trkpt>
      <trkpt lat="42.52604" lon="2.48444">
        <ele>2065.4</ele>
        <time>2024-07-13T17:39:36Z</time>
      </trkpt>
      <trkpt lat="42.52598" lon="2.48449">
        <ele>2064.6</ele>
        <time>2024-07-13T17:39:42Z</time>
      </trkpt>
      <trkpt lat="42.52587" lon="2.48451">
        <ele>2063.2</ele>
        <time>2024-07-13T17:39:50Z</time>
      </trkpt>
      <trkpt lat="42.52576" lon="2.48445">
        <ele>2063.4</ele>
        <time>2024-07-13T17:39:59Z</time>
      </trkpt>
      <trkpt lat="42.52571" lon="2.48442">
        <ele>2064.4</ele>
        <time>2024-07-13T17:40:05Z</time>
      </trkpt>
      <trkpt lat="42.52569" lon="2.48443">
        <ele>2065</ele>
        <time>2024-07-13T17:40:11Z</time>
      </trkpt>
      <trkpt lat="42.52561" lon="2.48445">
        <ele>2065.2</ele>
        <time>2024-07-13T17:40:18Z</time>
      </trkpt>
      <trkpt lat="42.5255" lon="2.48444">
        <ele>2063.8</ele>
        <time>2024-07-13T17:40:27Z</time>
      </trkpt>
      <trkpt lat="42.52543" lon="2.48443">
        <ele>2062.8</ele>
        <time>2024-07-13T17:40:33Z</time>
      </trkpt>
      <trkpt lat="42.52542" lon="2.48442">
        <ele>2062.6</ele>
        <time>2024-07-13T17:40:34Z</time>
      </trkpt>
      <trkpt lat="42.52535" lon="2.48444">
        <ele>2063</ele>
        <time>2024-07-13T17:40:41Z</time>
      </trkpt>
      <trkpt lat="42.52533" lon="2.48446">
        <ele>2063.2</ele>
        <time>2024-07-13T17:40:44Z</time>
      </trkpt>
      <trkpt lat="42.52533" lon="2.4845">
        <ele>2063</ele>
        <time>2024-07-13T17:40:47Z</time>
      </trkpt>
      <trkpt lat="42.52532" lon="2.48456">
        <ele>2061.8</ele>
        <time>2024-07-13T17:40:53Z</time>
      </trkpt>
      <trkpt lat="42.52533" lon="2.48457">
        <ele>2061.6</ele>
        <time>2024-07-13T17:40:54Z</time>
      </trkpt>
      <trkpt lat="42.5254" lon="2.48459">
        <ele>2059.6</ele>
        <time>2024-07-13T17:40:59Z</time>
      </trkpt>
      <trkpt lat="42.52549" lon="2.48464">
        <ele>2057.8</ele>
        <time>2024-07-13T17:41:07Z</time>
      </trkpt>
      <trkpt lat="42.52558" lon="2.48469">
        <ele>2056.6</ele>
        <time>2024-07-13T17:41:15Z</time>
      </trkpt>
      <trkpt lat="42.52559" lon="2.4847">
        <ele>2056.4</ele>
        <time>2024-07-13T17:41:16Z</time>
      </trkpt>
      <trkpt lat="42.52563" lon="2.48475">
        <ele>2055.6</ele>
        <time>2024-07-13T17:41:21Z</time>
      </trkpt>
      <trkpt lat="42.52564" lon="2.48475">
        <ele>2055.4</ele>
        <time>2024-07-13T17:41:22Z</time>
      </trkpt>
      <trkpt lat="42.52576" lon="2.48477">
        <ele>2053.6</ele>
        <time>2024-07-13T17:41:31Z</time>
      </trkpt>
      <trkpt lat="42.52588" lon="2.48484">
        <ele>2052.4</ele>
        <time>2024-07-13T17:41:41Z</time>
      </trkpt>
      <trkpt lat="42.52595" lon="2.48489">
        <ele>2051.8</ele>
        <time>2024-07-13T17:41:48Z</time>
      </trkpt>
      <trkpt lat="42.52596" lon="2.48492">
        <ele>2051.6</ele>
        <time>2024-07-13T17:41:51Z</time>
      </trkpt>
      <trkpt lat="42.52597" lon="2.48494">
        <ele>2051.4</ele>
        <time>2024-07-13T17:41:53Z</time>
      </trkpt>
      <trkpt lat="42.52599" lon="2.48496">
        <ele>2051</ele>
        <time>2024-07-13T17:41:55Z</time>
      </trkpt>
      <trkpt lat="42.52609" lon="2.48497">
        <ele>2048.8</ele>
        <time>2024-07-13T17:42:03Z</time>
      </trkpt>
      <trkpt lat="42.5262" lon="2.48498">
        <ele>2047.4</ele>
        <time>2024-07-13T17:42:11Z</time>
      </trkpt>
      <trkpt lat="42.52632" lon="2.485">
        <ele>2046.2</ele>
        <time>2024-07-13T17:42:20Z</time>
      </trkpt>
      <trkpt lat="42.52643" lon="2.48502">
        <ele>2045.2</ele>
        <time>2024-07-13T17:42:29Z</time>
      </trkpt>
      <trkpt lat="42.52651" lon="2.48502">
        <ele>2042.8</ele>
        <time>2024-07-13T17:42:36Z</time>
      </trkpt>
      <trkpt lat="42.52652" lon="2.48503">
        <ele>2042.4</ele>
        <time>2024-07-13T17:42:37Z</time>
      </trkpt>
      <trkpt lat="42.52661" lon="2.48504">
        <ele>2041</ele>
        <time>2024-07-13T17:42:43Z</time>
      </trkpt>
      <trkpt lat="42.52662" lon="2.48504">
        <ele>2041</ele>
        <time>2024-07-13T17:42:44Z</time>
      </trkpt>
      <trkpt lat="42.52665" lon="2.48512">
        <ele>2041.2</ele>
        <time>2024-07-13T17:42:50Z</time>
      </trkpt>
      <trkpt lat="42.52667" lon="2.48519">
        <ele>2040</ele>
        <time>2024-07-13T17:42:57Z</time>
      </trkpt>
      <trkpt lat="42.52669" lon="2.48523">
        <ele>2039</ele>
        <time>2024-07-13T17:43:01Z</time>
      </trkpt>
      <trkpt lat="42.52671" lon="2.48523">
        <ele>2037.8</ele>
        <time>2024-07-13T17:43:04Z</time>
      </trkpt>
      <trkpt lat="42.52673" lon="2.48525">
        <ele>2037.2</ele>
        <time>2024-07-13T17:43:07Z</time>
      </trkpt>
      <trkpt lat="42.52673" lon="2.48525">
        <ele>2037.2</ele>
        <time>2024-07-13T17:43:08Z</time>
      </trkpt>
      <trkpt lat="42.52679" lon="2.48527">
        <ele>2036.8</ele>
        <time>2024-07-13T17:43:15Z</time>
      </trkpt>
      <trkpt lat="42.52685" lon="2.48531">
        <ele>2034.8</ele>
        <time>2024-07-13T17:43:23Z</time>
      </trkpt>
      <trkpt lat="42.52688" lon="2.4853">
        <ele>2033.6</ele>
        <time>2024-07-13T17:43:25Z</time>
      </trkpt>
      <trkpt lat="42.52689" lon="2.4853">
        <ele>2031.2</ele>
        <time>2024-07-13T17:43:29Z</time>
      </trkpt>
      <trkpt lat="42.5269" lon="2.48532">
        <ele>2029.6</ele>
        <time>2024-07-13T17:43:36Z</time>
      </trkpt>
      <trkpt lat="42.5269" lon="2.48539">
        <ele>2027.6</ele>
        <time>2024-07-13T17:43:42Z</time>
      </trkpt>
      <trkpt lat="42.52696" lon="2.48543">
        <ele>2025.2</ele>
        <time>2024-07-13T17:43:49Z</time>
      </trkpt>
      <trkpt lat="42.527" lon="2.4855">
        <ele>2023.2</ele>
        <time>2024-07-13T17:43:54Z</time>
      </trkpt>
      <trkpt lat="42.52701" lon="2.48552">
        <ele>2022.8</ele>
        <time>2024-07-13T17:43:55Z</time>
      </trkpt>
      <trkpt lat="42.52701" lon="2.48555">
        <ele>2022</ele>
        <time>2024-07-13T17:43:57Z</time>
      </trkpt>
      <trkpt lat="42.52701" lon="2.48559">
        <ele>2021.4</ele>
        <time>2024-07-13T17:44:00Z</time>
      </trkpt>
      <trkpt lat="42.527" lon="2.48563">
        <ele>2021</ele>
        <time>2024-07-13T17:44:02Z</time>
      </trkpt>
      <trkpt lat="42.527" lon="2.48568">
        <ele>2021</ele>
        <time>2024-07-13T17:44:05Z</time>
      </trkpt>
      <trkpt lat="42.527" lon="2.48569">
        <ele>2021.4</ele>
        <time>2024-07-13T17:44:06Z</time>
      </trkpt>
      <trkpt lat="42.52698" lon="2.48573">
        <ele>2021.8</ele>
        <time>2024-07-13T17:44:09Z</time>
      </trkpt>
      <trkpt lat="42.52699" lon="2.48574">
        <ele>2022</ele>
        <time>2024-07-13T17:44:10Z</time>
      </trkpt>
      <trkpt lat="42.52699" lon="2.48578">
        <ele>2022</ele>
        <time>2024-07-13T17:44:12Z</time>
      </trkpt>
      <trkpt lat="42.52695" lon="2.48585">
        <ele>2020.8</ele>
        <time>2024-07-13T17:44:16Z</time>
      </trkpt>
      <trkpt lat="42.52691" lon="2.48593">
        <ele>2020.8</ele>
        <time>2024-07-13T17:44:23Z</time>
      </trkpt>
      <trkpt lat="42.52691" lon="2.48593">
        <ele>2020.8</ele>
        <time>2024-07-13T17:44:24Z</time>
      </trkpt>
      <trkpt lat="42.52689" lon="2.48595">
        <ele>2020.8</ele>
        <time>2024-07-13T17:44:26Z</time>
      </trkpt>
      <trkpt lat="42.52688" lon="2.486">
        <ele>2019.6</ele>
        <time>2024-07-13T17:44:29Z</time>
      </trkpt>
      <trkpt lat="42.52687" lon="2.48603">
        <ele>2017.8</ele>
        <time>2024-07-13T17:44:33Z</time>
      </trkpt>
      <trkpt lat="42.52686" lon="2.48607">
        <ele>2016.6</ele>
        <time>2024-07-13T17:44:36Z</time>
      </trkpt>
      <trkpt lat="42.52683" lon="2.48611">
        <ele>2015.8</ele>
        <time>2024-07-13T17:44:41Z</time>
      </trkpt>
      <trkpt lat="42.52682" lon="2.48613">
        <ele>2015.2</ele>
        <time>2024-07-13T17:44:43Z</time>
      </trkpt>
      <trkpt lat="42.52682" lon="2.48614">
        <ele>2014.8</ele>
        <time>2024-07-13T17:44:44Z</time>
      </trkpt>
      <trkpt lat="42.52684" lon="2.48619">
        <ele>2011</ele>
        <time>2024-07-13T17:44:51Z</time>
      </trkpt>
      <trkpt lat="42.52685" lon="2.4862">
        <ele>2010.4</ele>
        <time>2024-07-13T17:44:52Z</time>
      </trkpt>
      <trkpt lat="42.5269" lon="2.48625">
        <ele>2006.8</ele>
        <time>2024-07-13T17:44:58Z</time>
      </trkpt>
      <trkpt lat="42.52693" lon="2.48631">
        <ele>2004.6</ele>
        <time>2024-07-13T17:45:04Z</time>
      </trkpt>
      <trkpt lat="42.52694" lon="2.48632">
        <ele>2004.4</ele>
        <time>2024-07-13T17:45:06Z</time>
      </trkpt>
      <trkpt lat="42.52704" lon="2.48638">
        <ele>1999.6</ele>
        <time>2024-07-13T17:45:17Z</time>
      </trkpt>
      <trkpt lat="42.52709" lon="2.48641">
        <ele>1996.8</ele>
        <time>2024-07-13T17:45:24Z</time>
      </trkpt>
      <trkpt lat="42.52706" lon="2.48644">
        <ele>1995.2</ele>
        <time>2024-07-13T17:45:30Z</time>
      </trkpt>
      <trkpt lat="42.52709" lon="2.48646">
        <ele>1994.8</ele>
        <time>2024-07-13T17:45:33Z</time>
      </trkpt>
      <trkpt lat="42.52712" lon="2.48647">
        <ele>1994</ele>
        <time>2024-07-13T17:45:37Z</time>
      </trkpt>
      <trkpt lat="42.52715" lon="2.4865">
        <ele>1993.2</ele>
        <time>2024-07-13T17:45:44Z</time>
      </trkpt>
      <trkpt lat="42.5272" lon="2.48653">
        <ele>1990.8</ele>
        <time>2024-07-13T17:45:51Z</time>
      </trkpt>
      <trkpt lat="42.52718" lon="2.48657">
        <ele>1990.2</ele>
        <time>2024-07-13T17:45:55Z</time>
      </trkpt>
      <trkpt lat="42.52717" lon="2.48658">
        <ele>1990</ele>
        <time>2024-07-13T17:45:56Z</time>
      </trkpt>
      <trkpt lat="42.52716" lon="2.48663">
        <ele>1989.4</ele>
        <time>2024-07-13T17:45:59Z</time>
      </trkpt>
      <trkpt lat="42.52717" lon="2.48667">
        <ele>1988.4</ele>
        <time>2024-07-13T17:46:05Z</time>
      </trkpt>
      <trkpt lat="42.52719" lon="2.48672">
        <ele>1986.6</ele>
        <time>2024-07-13T17:46:10Z</time>
      </trkpt>
      <trkpt lat="42.52717" lon="2.48679">
        <ele>1985</ele>
        <time>2024-07-13T17:46:15Z</time>
      </trkpt>
      <trkpt lat="42.52717" lon="2.48682">
        <ele>1984.2</ele>
        <time>2024-07-13T17:46:18Z</time>
      </trkpt>
      <trkpt lat="42.52721" lon="2.48689">
        <ele>1982</ele>
        <time>2024-07-13T17:46:26Z</time>
      </trkpt>
      <trkpt lat="42.52725" lon="2.48692">
        <ele>1980.4</ele>
        <time>2024-07-13T17:46:33Z</time>
      </trkpt>
      <trkpt lat="42.52726" lon="2.48697">
        <ele>1980.2</ele>
        <time>2024-07-13T17:46:39Z</time>
      </trkpt>
      <trkpt lat="42.52725" lon="2.48704">
        <ele>1978.6</ele>
        <time>2024-07-13T17:46:46Z</time>
      </trkpt>
      <trkpt lat="42.52717" lon="2.48712">
        <ele>1975.6</ele>
        <time>2024-07-13T17:46:56Z</time>
      </trkpt>
      <trkpt lat="42.52708" lon="2.48717">
        <ele>1973.6</ele>
        <time>2024-07-13T17:47:06Z</time>
      </trkpt>
      <trkpt lat="42.52709" lon="2.48719">
        <ele>1972</ele>
        <time>2024-07-13T17:47:11Z</time>
      </trkpt>
      <trkpt lat="42.52715" lon="2.48723">
        <ele>1970.4</ele>
        <time>2024-07-13T17:47:19Z</time>
      </trkpt>
      <trkpt lat="42.52719" lon="2.48729">
        <ele>1968.8</ele>
        <time>2024-07-13T17:47:27Z</time>
      </trkpt>
      <trkpt lat="42.52725" lon="2.48735">
        <ele>1966.2</ele>
        <time>2024-07-13T17:47:35Z</time>
      </trkpt>
      <trkpt lat="42.52729" lon="2.48737">
        <ele>1964.8</ele>
        <time>2024-07-13T17:47:41Z</time>
      </trkpt>
      <trkpt lat="42.52735" lon="2.48739">
        <ele>1963.8</ele>
        <time>2024-07-13T17:47:47Z</time>
      </trkpt>
      <trkpt lat="42.52738" lon="2.48737">
        <ele>1963.2</ele>
        <time>2024-07-13T17:47:50Z</time>
      </trkpt>
      <trkpt lat="42.52739" lon="2.48737">
        <ele>1963</ele>
        <time>2024-07-13T17:47:52Z</time>
      </trkpt>
      <trkpt lat="42.52744" lon="2.48742">
        <ele>1961.8</ele>
        <time>2024-07-13T17:47:58Z</time>
      </trkpt>
      <trkpt lat="42.52746" lon="2.48746">
        <ele>1960.8</ele>
        <time>2024-07-13T17:48:04Z</time>
      </trkpt>
      <trkpt lat="42.5275" lon="2.48754">
        <ele>1958</ele>
        <time>2024-07-13T17:48:12Z</time>
      </trkpt>
      <trkpt lat="42.52749" lon="2.48759">
        <ele>1956.4</ele>
        <time>2024-07-13T17:48:18Z</time>
      </trkpt>
      <trkpt lat="42.52744" lon="2.48768">
        <ele>1954.6</ele>
        <time>2024-07-13T17:48:27Z</time>
      </trkpt>
      <trkpt lat="42.52744" lon="2.48775">
        <ele>1952</ele>
        <time>2024-07-13T17:48:34Z</time>
      </trkpt>
      <trkpt lat="42.52742" lon="2.48783">
        <ele>1949.4</ele>
        <time>2024-07-13T17:48:41Z</time>
      </trkpt>
      <trkpt lat="42.52736" lon="2.48788">
        <ele>1948.6</ele>
        <time>2024-07-13T17:48:47Z</time>
      </trkpt>
      <trkpt lat="42.52735" lon="2.48791">
        <ele>1947.6</ele>
        <time>2024-07-13T17:48:51Z</time>
      </trkpt>
      <trkpt lat="42.52736" lon="2.48798">
        <ele>1945.6</ele>
        <time>2024-07-13T17:48:59Z</time>
      </trkpt>
      <trkpt lat="42.52731" lon="2.48807">
        <ele>1944.8</ele>
        <time>2024-07-13T17:49:07Z</time>
      </trkpt>
      <trkpt lat="42.52728" lon="2.48813">
        <ele>1943.6</ele>
        <time>2024-07-13T17:49:12Z</time>
      </trkpt>
      <trkpt lat="42.52729" lon="2.48818">
        <ele>1942.4</ele>
        <time>2024-07-13T17:49:15Z</time>
      </trkpt>
      <trkpt lat="42.52736" lon="2.48823">
        <ele>1939.4</ele>
        <time>2024-07-13T17:49:23Z</time>
      </trkpt>
      <trkpt lat="42.52737" lon="2.48824">
        <ele>1939</ele>
        <time>2024-07-13T17:49:24Z</time>
      </trkpt>
      <trkpt lat="42.52741" lon="2.48831">
        <ele>1935.8</ele>
        <time>2024-07-13T17:49:31Z</time>
      </trkpt>
      <trkpt lat="42.52746" lon="2.48835">
        <ele>1934</ele>
        <time>2024-07-13T17:49:39Z</time>
      </trkpt>
      <trkpt lat="42.52744" lon="2.48843">
        <ele>1931.6</ele>
        <time>2024-07-13T17:49:46Z</time>
      </trkpt>
      <trkpt lat="42.52741" lon="2.48852">
        <ele>1929.8</ele>
        <time>2024-07-13T17:49:55Z</time>
      </trkpt>
      <trkpt lat="42.52741" lon="2.48859">
        <ele>1927.6</ele>
        <time>2024-07-13T17:50:01Z</time>
      </trkpt>
      <trkpt lat="42.52747" lon="2.48867">
        <ele>1923.2</ele>
        <time>2024-07-13T17:50:09Z</time>
      </trkpt>
      <trkpt lat="42.52749" lon="2.48869">
        <ele>1922.4</ele>
        <time>2024-07-13T17:50:11Z</time>
      </trkpt>
      <trkpt lat="42.52748" lon="2.48872">
        <ele>1921</ele>
        <time>2024-07-13T17:50:14Z</time>
      </trkpt>
      <trkpt lat="42.52747" lon="2.48877">
        <ele>1918.6</ele>
        <time>2024-07-13T17:50:21Z</time>
      </trkpt>
      <trkpt lat="42.52748" lon="2.48879">
        <ele>1918.2</ele>
        <time>2024-07-13T17:50:23Z</time>
      </trkpt>
      <trkpt lat="42.5275" lon="2.48883">
        <ele>1916.8</ele>
        <time>2024-07-13T17:50:27Z</time>
      </trkpt>
      <trkpt lat="42.5275" lon="2.48886">
        <ele>1915.6</ele>
        <time>2024-07-13T17:50:29Z</time>
      </trkpt>
      <trkpt lat="42.52748" lon="2.48889">
        <ele>1914.2</ele>
        <time>2024-07-13T17:50:32Z</time>
      </trkpt>
      <trkpt lat="42.52748" lon="2.4889">
        <ele>1913</ele>
        <time>2024-07-13T17:50:34Z</time>
      </trkpt>
      <trkpt lat="42.5275" lon="2.48892">
        <ele>1912</ele>
        <time>2024-07-13T17:50:37Z</time>
      </trkpt>
      <trkpt lat="42.52757" lon="2.48899">
        <ele>1910.2</ele>
        <time>2024-07-13T17:50:45Z</time>
      </trkpt>
      <trkpt lat="42.52757" lon="2.48901">
        <ele>1909.8</ele>
        <time>2024-07-13T17:50:47Z</time>
      </trkpt>
      <trkpt lat="42.52757" lon="2.48902">
        <ele>1909.4</ele>
        <time>2024-07-13T17:50:48Z</time>
      </trkpt>
      <trkpt lat="42.52758" lon="2.48906">
        <ele>1908.6</ele>
        <time>2024-07-13T17:50:52Z</time>
      </trkpt>
      <trkpt lat="42.5276" lon="2.48908">
        <ele>1907.6</ele>
        <time>2024-07-13T17:50:55Z</time>
      </trkpt>
      <trkpt lat="42.52762" lon="2.48913">
        <ele>1906.2</ele>
        <time>2024-07-13T17:50:59Z</time>
      </trkpt>
      <trkpt lat="42.52766" lon="2.48917">
        <ele>1904</ele>
        <time>2024-07-13T17:51:06Z</time>
      </trkpt>
      <trkpt lat="42.52765" lon="2.48924">
        <ele>1901.8</ele>
        <time>2024-07-13T17:51:13Z</time>
      </trkpt>
      <trkpt lat="42.52766" lon="2.48929">
        <ele>1900.6</ele>
        <time>2024-07-13T17:51:19Z</time>
      </trkpt>
      <trkpt lat="42.52773" lon="2.48935">
        <ele>1898.4</ele>
        <time>2024-07-13T17:51:26Z</time>
      </trkpt>
      <trkpt lat="42.52779" lon="2.48946">
        <ele>1894.8</ele>
        <time>2024-07-13T17:51:35Z</time>
      </trkpt>
      <trkpt lat="42.52781" lon="2.48951">
        <ele>1892.8</ele>
        <time>2024-07-13T17:51:41Z</time>
      </trkpt>
      <trkpt lat="42.52784" lon="2.48961">
        <ele>1890.6</ele>
        <time>2024-07-13T17:51:48Z</time>
      </trkpt>
      <trkpt lat="42.52788" lon="2.48972">
        <ele>1887.2</ele>
        <time>2024-07-13T17:51:57Z</time>
      </trkpt>
      <trkpt lat="42.52791" lon="2.48982">
        <ele>1883.6</ele>
        <time>2024-07-13T17:52:05Z</time>
      </trkpt>
      <trkpt lat="42.52797" lon="2.48997">
        <ele>1881</ele>
        <time>2024-07-13T17:52:15Z</time>
      </trkpt>
      <trkpt lat="42.52801" lon="2.4901">
        <ele>1878.8</ele>
        <time>2024-07-13T17:52:24Z</time>
      </trkpt>
      <trkpt lat="42.52805" lon="2.49023">
        <ele>1877</ele>
        <time>2024-07-13T17:52:34Z</time>
      </trkpt>
      <trkpt lat="42.52806" lon="2.49041">
        <ele>1873.6</ele>
        <time>2024-07-13T17:52:46Z</time>
      </trkpt>
      <trkpt lat="42.52807" lon="2.49042">
        <ele>1873.2</ele>
        <time>2024-07-13T17:52:47Z</time>
      </trkpt>
      <trkpt lat="42.52807" lon="2.49043">
        <ele>1872.8</ele>
        <time>2024-07-13T17:52:51Z</time>
      </trkpt>
      <trkpt lat="42.52808" lon="2.49042">
        <ele>1873.6</ele>
        <time>2024-07-13T17:53:07Z</time>
      </trkpt>
      <trkpt lat="42.52804" lon="2.49046">
        <ele>1877.2</ele>
        <time>2024-07-13T17:55:20Z</time>
      </trkpt>
    </trkseg>
  </trk>
</gpx>